GFSGL_prec_precacc_027.txt.gz
Total_Precipitation_Accumulation
0.00 0.00 0.00 0.00 0.00 0.00 0.00 0.00 0.00 0.00 0.00 0.00 0.00 0.00 0.00 0.00 0.00 0.00 0.00 0.00 0.00 0.00 0.00 0.00 0.00 0.00 0.00 0.00 0.00 0.00 0.00 0.00 0.00 0.00 0.00 0.00 0.00 0.00 0.00 0.00 0.00 0.00 0.00
0.00 0.00 0.00 0.00 0.00 0.00 0.00 0.00 0.00 0.00 0.00 0.00 0.00 0.00 0.00 0.00 0.00 0.00 0.00 0.00 0.00 0.00 0.00 0.00 0.00 0.00 0.02 0.01 0.00 0.01 0.00 0.01 0.02 0.01 0.00 0.00 0.00 0.00 0.01 0.00 0.00 0.00 0.00
0.00 0.00 0.00 0.00 0.00 0.00 0.00 0.00 0.00 0.00 0.00 0.00 0.00 0.00 0.00 0.01 0.00 0.00 0.00 0.00 0.00 0.04 0.02 0.00 0.00 0.01 0.02 0.02 0.03 0.02 0.01 0.02 0.06 0.05 0.02 0.01 0.00 0.00 0.01 0.00 0.00 0.00 0.00
0.00 0.00 0.00 0.00 0.00 0.00 0.00 0.00 0.00 0.00 0.00 0.00 0.00 0.00 0.01 0.01 0.03 0.04 0.05 0.04 0.02 0.10 0.05 0.02 0.01 0.02 0.04 0.05 0.04 0.07 0.07 0.14 0.20 0.18 0.10 0.06 0.02 0.00 0.00 0.00 0.02 0.00 0.00
0.00 0.00 0.00 0.00 0.00 0.00 0.00 0.01 0.00 0.00 0.00 0.00 0.00 0.00 0.01 0.02 0.04 0.05 0.05 0.10 0.12 0.14 0.07 0.05 0.07 0.08 0.09 0.15 0.12 0.10 0.06 0.09 0.07 0.06 0.05 0.02 0.00 0.01 0.01 0.00 0.01 0.00 0.00
0.00 0.00 0.00 0.00 0.00 0.00 0.00 0.02 0.01 0.00 0.01 0.01 0.02 0.02 0.05 0.04 0.03 0.03 0.10 0.18 0.24 0.22 0.22 0.26 0.14 0.15 0.16 0.18 0.14 0.09 0.08 0.10 0.14 0.12 0.06 0.01 0.05 0.06 0.05 0.04 0.01 0.00 0.00
0.00 0.00 0.00 0.00 0.00 0.00 0.00 0.00 0.00 0.01 0.05 0.04 0.05 0.06 0.12 0.11 0.16 0.25 0.32 0.22 0.24 0.17 0.19 0.17 0.13 0.12 0.20 0.11 0.21 0.27 0.12 0.12 0.11 0.14 0.04 0.05 0.07 0.09 0.07 0.06 0.02 0.02 0.01
0.00 0.00 0.00 0.00 0.00 0.00 0.00 0.00 0.00 0.00 0.04 0.04 0.04 0.10 0.22 0.38 0.57 0.45 0.39 0.24 0.20 0.12 0.08 0.06 0.08 0.13 0.16 0.21 0.28 0.17 0.17 0.14 0.19 0.12 0.05 0.07 0.07 0.06 0.08 0.06 0.06 0.01 0.00
0.00 0.00 0.00 0.00 0.00 0.00 0.00 0.00 0.01 0.02 0.13 0.29 0.53 0.51 0.42 0.33 0.24 0.14 0.13 0.07 0.10 0.12 0.07 0.08 0.11 0.07 0.31 0.39 0.14 0.07 0.08 0.07 0.12 0.13 0.10 0.06 0.03 0.02 0.03 0.02 0.01 0.00 0.00
0.00 0.00 0.00 0.00 0.00 0.00 0.04 0.04 0.17 0.38 0.32 0.17 0.14 0.11 0.08 0.07 0.12 0.09 0.06 0.03 0.03 0.05 0.12 0.09 0.27 0.11 0.21 0.18 0.07 0.03 0.06 0.16 0.07 0.06 0.03 0.01 0.00 0.00 0.00 0.00 0.00 0.01 0.00
0.00 0.00 0.00 0.00 0.01 0.11 0.18 0.17 0.22 0.24 0.07 0.04 0.06 0.10 0.16 0.10 0.10 0.09 0.01 0.02 0.02 0.05 0.05 0.11 0.10 0.12 0.10 0.16 0.23 0.15 0.15 0.09 0.02 0.01 0.01 0.01 0.00 0.00 0.00 0.00 0.00 0.00 0.00
0.00 0.00 0.00 0.01 0.03 0.12 0.19 0.19 0.18 0.09 0.03 0.04 0.08 0.15 0.24 0.16 0.19 0.12 0.06 0.07 0.07 0.06 0.06 0.11 0.16 0.19 0.30 0.37 0.27 0.11 0.07 0.04 0.01 0.00 0.01 0.01 0.00 0.00 0.00 0.00 0.00 0.00 0.00
0.00 0.00 0.00 0.01 0.02 0.07 0.15 0.10 0.04 0.08 0.09 0.08 0.18 0.22 0.29 0.34 0.40 0.32 0.33 0.32 0.25 0.19 0.16 0.23 0.24 0.16 0.14 0.13 0.09 0.06 0.06 0.04 0.01 0.01 0.01 0.00 0.00 0.00 0.00 0.00 0.00 0.00 0.00
0.00 0.00 0.01 0.03 0.09 0.13 0.28 0.10 0.11 0.21 0.26 0.25 0.46 0.65 0.68 0.62 0.57 0.48 0.38 0.31 0.27 0.24 0.21 0.24 0.19 0.14 0.14 0.12 0.11 0.09 0.05 0.03 0.03 0.02 0.02 0.02 0.02 0.01 0.00 0.00 0.00 0.00 0.00
0.13 0.24 0.31 0.31 0.22 0.16 0.34 0.30 0.41 0.62 0.63 0.65 0.72 0.64 0.52 0.47 0.48 0.55 0.55 0.58 0.71 0.89 0.92 0.80 0.69 0.62 0.48 0.32 0.23 0.18 0.11 0.05 0.04 0.02 0.02 0.02 0.02 0.00 0.00 0.00 0.00 0.00 0.00
0.27 0.28 0.29 0.27 0.37 0.45 0.48 0.51 0.63 0.76 0.74 0.69 0.69 0.73 0.82 0.91 1.21 1.34 1.50 1.30 0.95 0.78 0.74 0.61 0.47 0.38 0.33 0.33 0.28 0.20 0.15 0.12 0.09 0.08 0.04 0.03 0.01 0.00 0.00 0.00 0.00 0.00 0.00
0.13 0.11 0.16 0.28 0.36 0.48 0.62 0.62 0.58 0.75 0.65 0.60 0.64 0.55 0.57 0.49 0.52 0.52 0.59 0.65 0.49 0.43 0.33 0.31 0.28 0.30 0.39 0.45 0.46 0.42 0.30 0.22 0.16 0.09 0.02 0.01 0.00 0.00 0.00 0.00 0.00 0.00 0.00
0.60 0.62 0.58 0.51 0.57 0.42 0.38 0.43 0.43 0.47 0.46 0.51 0.62 0.52 0.42 0.42 0.42 0.35 0.36 0.40 0.35 0.24 0.22 0.18 0.18 0.21 0.22 0.28 0.30 0.23 0.12 0.07 0.06 0.02 0.01 0.00 0.00 0.00 0.00 0.00 0.00 0.00 0.00
1.44 0.87 0.83 1.04 1.22 1.10 1.05 0.94 0.67 0.50 0.32 0.32 0.33 0.41 0.41 0.42 0.42 0.36 0.42 0.38 0.41 0.34 0.29 0.28 0.20 0.16 0.12 0.13 0.13 0.10 0.06 0.02 0.02 0.01 0.00 0.00 0.00 0.00 0.00 0.00 0.00 0.00 0.00
1.30 1.61 1.29 1.48 2.45 2.75 2.60 2.15 1.92 1.81 1.47 1.24 1.05 1.07 1.07 1.02 1.00 0.89 0.85 0.92 0.96 0.76 0.69 0.80 0.72 0.50 0.23 0.15 0.11 0.06 0.03 0.01 0.01 0.01 0.00 0.00 0.00 0.00 0.00 0.00 0.00 0.00 0.00
0.64 0.73 0.75 0.82 0.95 1.01 1.45 1.69 1.83 2.02 2.02 2.06 2.07 1.95 1.95 2.16 1.99 2.00 2.22 2.10 1.76 1.73 1.67 1.73 1.88 1.89 1.59 0.75 0.19 0.03 0.01 0.00 0.00 0.00 0.00 0.00 0.00 0.00 0.00 0.00 0.00 0.00 0.00
0.42 0.41 0.43 0.53 0.47 0.45 0.40 0.38 0.34 0.47 0.55 0.62 0.76 0.76 0.73 0.68 0.79 0.92 1.20 1.28 1.28 1.19 1.12 1.07 0.86 0.75 0.70 0.36 0.10 0.02 0.01 0.00 0.00 0.00 0.00 0.00 0.00 0.00 0.00 0.00 0.00 0.00 0.00
0.18 0.20 0.22 0.26 0.30 0.35 0.37 0.33 0.25 0.21 0.20 0.16 0.15 0.18 0.26 0.25 0.24 0.17 0.17 0.17 0.19 0.22 0.25 0.30 0.27 0.21 0.17 0.10 0.04 0.02 0.01 0.00 0.00 0.00 0.00 0.00 0.00 0.00 0.00 0.00 0.00 0.00 0.00
0.18 0.17 0.19 0.19 0.21 0.18 0.17 0.16 0.15 0.16 0.17 0.14 0.11 0.12 0.16 0.17 0.21 0.17 0.13 0.12 0.12 0.13 0.13 0.18 0.16 0.13 0.10 0.06 0.04 0.01 0.00 0.00 0.00 0.00 0.00 0.00 0.00 0.00 0.00 0.00 0.00 0.00 0.00
0.11 0.12 0.15 0.13 0.12 0.13 0.15 0.11 0.10 0.05 0.07 0.10 0.09 0.11 0.13 0.08 0.06 0.07 0.07 0.06 0.04 0.03 0.05 0.05 0.03 0.02 0.02 0.00 0.00 0.00 0.00 0.00 0.00 0.00 0.00 0.00 0.00 0.00 0.00 0.00 0.00 0.00 0.00
0.14 0.14 0.16 0.13 0.07 0.03 0.03 0.06 0.13 0.20 0.23 0.20 0.12 0.10 0.12 0.12 0.07 0.03 0.03 0.02 0.01 0.01 0.00 0.00 0.00 0.00 0.00 0.00 0.00 0.00 0.00 0.00 0.00 0.00 0.00 0.00 0.00 0.00 0.00 0.00 0.00 0.00 0.00

GFSGL_prec_precacc_030.txt.gz
Total_Precipitation_Accumulation
0.00 0.00 0.00 0.00 0.00 0.00 0.00 0.00 0.00 0.00 0.00 0.00 0.00 0.00 0.00 0.00 0.00 0.00 0.00 0.00 0.00 0.00 0.00 0.00 0.00 0.00 0.00 0.00 0.00 0.00 0.00 0.00 0.00 0.00 0.00 0.00 0.00 0.00 0.00 0.00 0.00 0.00 0.00
0.00 0.00 0.00 0.00 0.00 0.00 0.00 0.00 0.00 0.00 0.00 0.00 0.00 0.00 0.00 0.00 0.00 0.00 0.00 0.00 0.00 0.00 0.00 0.00 0.00 0.00 0.02 0.01 0.00 0.01 0.00 0.01 0.02 0.01 0.00 0.00 0.00 0.00 0.01 0.01 0.00 0.00 0.00
0.00 0.00 0.00 0.00 0.00 0.00 0.00 0.00 0.00 0.00 0.00 0.00 0.00 0.00 0.00 0.01 0.00 0.00 0.00 0.00 0.00 0.04 0.02 0.00 0.00 0.01 0.02 0.02 0.03 0.02 0.01 0.02 0.06 0.05 0.02 0.01 0.00 0.00 0.01 0.00 0.00 0.00 0.00
0.00 0.00 0.00 0.00 0.00 0.00 0.00 0.00 0.00 0.00 0.00 0.00 0.00 0.00 0.01 0.01 0.03 0.04 0.05 0.04 0.02 0.10 0.05 0.02 0.01 0.02 0.04 0.05 0.04 0.07 0.07 0.14 0.20 0.18 0.10 0.06 0.02 0.00 0.00 0.00 0.02 0.00 0.00
0.00 0.00 0.00 0.00 0.00 0.00 0.00 0.01 0.00 0.00 0.00 0.00 0.00 0.00 0.01 0.02 0.04 0.05 0.05 0.10 0.12 0.14 0.07 0.05 0.07 0.08 0.09 0.15 0.12 0.10 0.06 0.09 0.07 0.06 0.05 0.02 0.00 0.01 0.01 0.00 0.01 0.00 0.01
0.00 0.00 0.00 0.00 0.00 0.00 0.00 0.02 0.01 0.00 0.01 0.01 0.02 0.02 0.05 0.04 0.03 0.03 0.10 0.18 0.24 0.22 0.22 0.26 0.14 0.15 0.16 0.18 0.14 0.09 0.08 0.10 0.14 0.12 0.06 0.01 0.05 0.06 0.05 0.04 0.01 0.01 0.01
0.00 0.00 0.00 0.00 0.00 0.00 0.00 0.00 0.00 0.01 0.05 0.04 0.05 0.06 0.12 0.11 0.16 0.25 0.32 0.22 0.24 0.17 0.19 0.17 0.13 0.12 0.20 0.11 0.21 0.27 0.12 0.12 0.11 0.14 0.04 0.05 0.07 0.09 0.07 0.06 0.02 0.03 0.02
0.00 0.00 0.00 0.00 0.00 0.00 0.00 0.00 0.00 0.00 0.04 0.04 0.04 0.10 0.22 0.38 0.57 0.45 0.39 0.24 0.20 0.12 0.08 0.06 0.08 0.13 0.16 0.21 0.28 0.17 0.17 0.14 0.19 0.12 0.05 0.07 0.08 0.07 0.08 0.07 0.07 0.01 0.00
0.00 0.00 0.00 0.00 0.00 0.00 0.00 0.00 0.01 0.02 0.13 0.29 0.53 0.51 0.42 0.33 0.24 0.14 0.13 0.07 0.10 0.12 0.07 0.08 0.11 0.07 0.31 0.39 0.14 0.07 0.08 0.07 0.12 0.13 0.10 0.06 0.07 0.05 0.03 0.02 0.01 0.00 0.00
0.00 0.00 0.00 0.00 0.00 0.00 0.04 0.04 0.17 0.38 0.32 0.17 0.14 0.11 0.08 0.07 0.12 0.09 0.06 0.03 0.03 0.05 0.12 0.09 0.27 0.11 0.21 0.18 0.07 0.03 0.06 0.16 0.07 0.06 0.03 0.01 0.01 0.02 0.02 0.00 0.00 0.01 0.01
0.00 0.00 0.00 0.00 0.01 0.11 0.18 0.17 0.22 0.24 0.07 0.04 0.06 0.10 0.16 0.10 0.10 0.09 0.01 0.02 0.02 0.05 0.05 0.11 0.10 0.12 0.10 0.16 0.23 0.15 0.15 0.09 0.02 0.01 0.01 0.01 0.01 0.01 0.02 0.02 0.00 0.00 0.00
0.00 0.00 0.00 0.01 0.03 0.12 0.19 0.19 0.18 0.09 0.03 0.04 0.08 0.15 0.24 0.16 0.19 0.12 0.06 0.07 0.07 0.06 0.06 0.11 0.16 0.19 0.30 0.37 0.27 0.11 0.07 0.04 0.02 0.01 0.02 0.01 0.02 0.01 0.01 0.01 0.00 0.00 0.00
0.00 0.00 0.00 0.01 0.02 0.07 0.15 0.10 0.05 0.09 0.09 0.08 0.18 0.22 0.29 0.34 0.40 0.32 0.33 0.32 0.25 0.19 0.16 0.23 0.24 0.16 0.14 0.13 0.09 0.06 0.07 0.06 0.04 0.03 0.02 0.01 0.01 0.01 0.01 0.01 0.00 0.00 0.00
0.00 0.00 0.01 0.03 0.09 0.13 0.28 0.10 0.11 0.21 0.26 0.26 0.46 0.65 0.68 0.62 0.57 0.48 0.38 0.31 0.27 0.24 0.21 0.24 0.19 0.15 0.15 0.13 0.11 0.09 0.09 0.07 0.07 0.06 0.05 0.04 0.03 0.02 0.02 0.01 0.00 0.00 0.00
0.13 0.24 0.31 0.31 0.22 0.16 0.34 0.30 0.41 0.62 0.63 0.65 0.72 0.64 0.52 0.47 0.48 0.55 0.55 0.58 0.71 0.90 0.95 0.81 0.70 0.65 0.53 0.35 0.23 0.19 0.13 0.09 0.08 0.05 0.06 0.06 0.06 0.05 0.03 0.01 0.00 0.00 0.00
0.27 0.28 0.29 0.27 0.37 0.45 0.48 0.51 0.63 0.76 0.76 0.70 0.69 0.74 0.83 0.91 1.21 1.34 1.51 1.32 0.95 0.78 0.76 0.61 0.48 0.39 0.34 0.33 0.29 0.22 0.18 0.18 0.16 0.17 0.15 0.12 0.09 0.06 0.07 0.06 0.03 0.00 0.00
0.13 0.11 0.16 0.28 0.36 0.48 0.62 0.62 0.58 0.75 0.66 0.60 0.64 0.55 0.57 0.49 0.52 0.52 0.59 0.65 0.49 0.43 0.33 0.31 0.28 0.31 0.39 0.45 0.47 0.46 0.38 0.38 0.43 0.44 0.45 0.47 0.46 0.34 0.15 0.04 0.00 0.00 0.00
0.60 0.62 0.58 0.51 0.57 0.42 0.38 0.43 0.43 0.47 0.46 0.51 0.62 0.52 0.42 0.42 0.42 0.35 0.36 0.40 0.35 0.24 0.22 0.20 0.20 0.23 0.24 0.30 0.33 0.30 0.29 0.34 0.45 0.52 0.58 0.58 0.53 0.31 0.07 0.01 0.00 0.00 0.00
1.44 0.87 0.83 1.04 1.22 1.10 1.05 0.94 0.67 0.50 0.32 0.32 0.33 0.41 0.41 0.42 0.42 0.36 0.42 0.38 0.41 0.35 0.31 0.33 0.31 0.29 0.25 0.26 0.28 0.31 0.28 0.20 0.22 0.24 0.26 0.24 0.12 0.07 0.05 0.02 0.00 0.00 0.00
1.30 1.61 1.29 1.48 2.45 2.75 2.60 2.15 1.92 1.81 1.47 1.24 1.05 1.07 1.07 1.02 1.00 0.89 0.85 0.92 0.97 0.78 0.70 0.82 0.81 0.71 0.64 0.67 0.65 0.62 0.64 0.67 0.59 0.54 0.47 0.34 0.07 0.02 0.00 0.00 0.00 0.00 0.00
0.64 0.73 0.75 0.82 0.95 1.01 1.45 1.69 1.83 2.02 2.02 2.06 2.07 1.95 1.95 2.16 1.99 2.00 2.22 2.10 1.76 1.73 1.68 1.74 1.89 1.98 2.04 2.09 2.12 2.08 2.09 2.21 2.20 1.76 1.10 0.44 0.07 0.00 0.00 0.00 0.00 0.00 0.00
0.42 0.41 0.43 0.53 0.47 0.45 0.40 0.38 0.35 0.47 0.55 0.62 0.76 0.76 0.73 0.68 0.79 0.93 1.20 1.28 1.28 1.19 1.13 1.07 0.87 0.79 0.89 1.02 1.09 1.09 1.07 1.05 0.91 0.63 0.33 0.11 0.03 0.01 0.00 0.00 0.00 0.00 0.00
0.18 0.20 0.22 0.26 0.30 0.35 0.37 0.33 0.25 0.21 0.20 0.16 0.15 0.18 0.27 0.26 0.24 0.18 0.18 0.18 0.20 0.23 0.27 0.32 0.30 0.26 0.23 0.21 0.16 0.16 0.18 0.13 0.12 0.10 0.05 0.02 0.01 0.00 0.00 0.00 0.00 0.00 0.00
0.18 0.17 0.19 0.19 0.21 0.18 0.17 0.16 0.15 0.16 0.17 0.14 0.11 0.12 0.16 0.18 0.21 0.17 0.14 0.13 0.13 0.15 0.16 0.21 0.19 0.20 0.14 0.11 0.08 0.07 0.06 0.05 0.06 0.06 0.03 0.01 0.00 0.00 0.00 0.00 0.00 0.00 0.00
0.11 0.12 0.15 0.13 0.12 0.13 0.15 0.11 0.10 0.05 0.07 0.10 0.09 0.11 0.13 0.08 0.06 0.08 0.08 0.07 0.04 0.03 0.05 0.07 0.05 0.05 0.07 0.05 0.04 0.03 0.03 0.01 0.00 0.00 0.00 0.00 0.00 0.00 0.00 0.00 0.00 0.00 0.00
0.14 0.14 0.16 0.13 0.07 0.03 0.03 0.06 0.13 0.20 0.23 0.20 0.12 0.10 0.12 0.12 0.07 0.03 0.03 0.02 0.01 0.01 0.00 0.00 0.00 0.00 0.03 0.01 0.00 0.00 0.00 0.00 0.00 0.00 0.00 0.00 0.00 0.00 0.00 0.00 0.00 0.00 0.00

GFSGL_prec_precacc_033.txt.gz
Total_Precipitation_Accumulation
0.00 0.00 0.00 0.00 0.00 0.00 0.00 0.00 0.00 0.00 0.00 0.00 0.00 0.00 0.00 0.00 0.00 0.00 0.00 0.00 0.00 0.00 0.00 0.00 0.00 0.00 0.00 0.00 0.00 0.00 0.00 0.00 0.00 0.00 0.00 0.00 0.00 0.00 0.00 0.00 0.00 0.00 0.00
0.00 0.00 0.00 0.00 0.00 0.00 0.00 0.00 0.00 0.00 0.00 0.00 0.00 0.00 0.00 0.00 0.00 0.00 0.00 0.00 0.00 0.00 0.00 0.00 0.00 0.00 0.02 0.01 0.00 0.01 0.00 0.01 0.02 0.01 0.00 0.00 0.00 0.00 0.01 0.01 0.00 0.00 0.00
0.00 0.00 0.00 0.00 0.00 0.00 0.00 0.00 0.00 0.00 0.00 0.00 0.00 0.00 0.00 0.01 0.00 0.00 0.00 0.00 0.00 0.04 0.02 0.00 0.00 0.01 0.02 0.02 0.03 0.02 0.01 0.02 0.06 0.05 0.02 0.01 0.00 0.00 0.01 0.00 0.00 0.00 0.00
0.00 0.00 0.00 0.00 0.00 0.00 0.00 0.00 0.00 0.00 0.00 0.00 0.00 0.00 0.01 0.01 0.03 0.04 0.05 0.04 0.02 0.10 0.05 0.02 0.01 0.02 0.04 0.05 0.04 0.07 0.07 0.14 0.20 0.18 0.10 0.06 0.02 0.00 0.00 0.00 0.02 0.00 0.00
0.00 0.00 0.00 0.00 0.00 0.00 0.00 0.01 0.00 0.00 0.00 0.00 0.00 0.00 0.01 0.02 0.04 0.05 0.05 0.10 0.12 0.14 0.07 0.05 0.07 0.08 0.09 0.15 0.12 0.10 0.06 0.09 0.07 0.06 0.05 0.02 0.00 0.01 0.01 0.00 0.01 0.00 0.01
0.00 0.00 0.00 0.00 0.00 0.00 0.00 0.02 0.01 0.00 0.01 0.01 0.02 0.02 0.05 0.04 0.03 0.03 0.10 0.18 0.24 0.22 0.22 0.26 0.14 0.15 0.16 0.18 0.14 0.09 0.08 0.10 0.14 0.12 0.06 0.01 0.05 0.06 0.05 0.04 0.01 0.01 0.01
0.00 0.00 0.00 0.00 0.00 0.00 0.00 0.00 0.00 0.01 0.05 0.04 0.05 0.06 0.12 0.11 0.16 0.25 0.32 0.22 0.24 0.17 0.19 0.17 0.13 0.12 0.20 0.11 0.21 0.27 0.12 0.12 0.11 0.14 0.04 0.05 0.07 0.09 0.07 0.06 0.02 0.03 0.02
0.00 0.00 0.00 0.00 0.00 0.00 0.00 0.00 0.00 0.00 0.04 0.04 0.04 0.10 0.22 0.38 0.57 0.45 0.39 0.24 0.20 0.12 0.08 0.06 0.08 0.13 0.16 0.21 0.28 0.17 0.17 0.14 0.19 0.12 0.05 0.07 0.08 0.07 0.08 0.07 0.07 0.02 0.00
0.00 0.00 0.00 0.00 0.00 0.00 0.00 0.00 0.01 0.02 0.13 0.29 0.53 0.51 0.42 0.33 0.24 0.14 0.13 0.07 0.10 0.12 0.07 0.08 0.11 0.07 0.31 0.39 0.14 0.07 0.08 0.07 0.12 0.13 0.10 0.06 0.07 0.06 0.03 0.02 0.01 0.01 0.01
0.00 0.00 0.00 0.00 0.00 0.00 0.04 0.04 0.17 0.38 0.32 0.17 0.14 0.11 0.08 0.07 0.12 0.09 0.06 0.03 0.03 0.05 0.12 0.09 0.27 0.11 0.21 0.18 0.07 0.03 0.06 0.16 0.07 0.06 0.03 0.01 0.01 0.02 0.02 0.00 0.01 0.02 0.02
0.00 0.00 0.00 0.00 0.01 0.11 0.18 0.17 0.22 0.24 0.07 0.04 0.06 0.10 0.16 0.10 0.10 0.09 0.01 0.03 0.02 0.06 0.05 0.11 0.10 0.12 0.10 0.16 0.23 0.15 0.15 0.09 0.02 0.01 0.01 0.01 0.01 0.02 0.03 0.03 0.02 0.02 0.02
0.00 0.00 0.00 0.01 0.03 0.12 0.19 0.19 0.18 0.09 0.03 0.04 0.08 0.15 0.24 0.17 0.19 0.12 0.06 0.07 0.07 0.07 0.06 0.11 0.16 0.19 0.30 0.37 0.27 0.11 0.07 0.05 0.02 0.01 0.02 0.01 0.02 0.02 0.01 0.03 0.03 0.02 0.00
0.00 0.00 0.00 0.01 0.02 0.07 0.15 0.10 0.05 0.09 0.09 0.09 0.18 0.23 0.30 0.35 0.41 0.32 0.33 0.32 0.25 0.20 0.16 0.23 0.25 0.16 0.14 0.13 0.09 0.06 0.07 0.07 0.05 0.03 0.02 0.01 0.01 0.01 0.03 0.03 0.04 0.03 0.01
0.00 0.00 0.01 0.03 0.09 0.13 0.28 0.10 0.11 0.22 0.27 0.27 0.47 0.66 0.69 0.62 0.57 0.48 0.38 0.31 0.27 0.24 0.22 0.24 0.19 0.15 0.16 0.13 0.11 0.09 0.10 0.08 0.08 0.07 0.05 0.04 0.06 0.07 0.05 0.04 0.04 0.06 0.05
0.13 0.24 0.31 0.31 0.22 0.16 0.34 0.30 0.42 0.63 0.64 0.66 0.73 0.65 0.52 0.47 0.48 0.56 0.55 0.58 0.71 0.90 0.95 0.81 0.70 0.66 0.53 0.36 0.24 0.19 0.14 0.10 0.09 0.07 0.12 0.16 0.13 0.08 0.08 0.10 0.07 0.07 0.08
0.27 0.28 0.29 0.27 0.37 0.45 0.48 0.51 0.63 0.76 0.76 0.70 0.70 0.75 0.84 0.93 1.23 1.35 1.51 1.32 0.96 0.79 0.77 0.61 0.48 0.39 0.34 0.34 0.30 0.23 0.19 0.20 0.19 0.31 0.43 0.40 0.30 0.21 0.20 0.17 0.12 0.09 0.10
0.13 0.11 0.16 0.28 0.36 0.48 0.62 0.62 0.59 0.75 0.66 0.60 0.64 0.56 0.57 0.49 0.52 0.52 0.60 0.66 0.50 0.44 0.33 0.31 0.28 0.31 0.40 0.47 0.50 0.49 0.42 0.42 0.52 0.61 0.66 0.72 0.74 0.66 0.62 0.52 0.51 0.47 0.44
0.60 0.62 0.58 0.52 0.57 0.43 0.40 0.44 0.43 0.47 0.46 0.51 0.62 0.52 0.42 0.42 0.42 0.35 0.36 0.41 0.35 0.24 0.22 0.20 0.20 0.23 0.27 0.34 0.38 0.35 0.35 0.43 0.57 0.68 0.80 0.84 0.83 0.70 0.57 0.41 0.31 0.24 0.12
1.44 0.87 0.83 1.05 1.22 1.11 1.08 0.95 0.68 0.51 0.33 0.32 0.34 0.41 0.41 0.42 0.42 0.37 0.42 0.38 0.41 0.35 0.31 0.33 0.31 0.29 0.26 0.28 0.31 0.36 0.38 0.33 0.37 0.44 0.55 0.62 0.58 0.45 0.45 0.45 0.47 0.39 0.17
1.30 1.61 1.29 1.48 2.45 2.75 2.60 2.16 1.92 1.82 1.48 1.24 1.05 1.07 1.07 1.02 1.00 0.89 0.85 0.92 0.97 0.78 0.70 0.82 0.81 0.71 0.64 0.67 0.65 0.62 0.67 0.80 0.93 1.13 1.37 1.85 2.56 2.79 2.54 1.96 1.30 0.87 0.47
0.64 0.73 0.75 0.82 0.95 1.01 1.45 1.69 1.83 2.02 2.02 2.06 2.07 1.95 1.95 2.16 1.99 2.00 2.22 2.10 1.76 1.73 1.68 1.74 1.89 1.98 2.04 2.09 2.12 2.10 2.15 2.34 2.71 2.99 3.12 2.94 2.49 1.91 1.39 1.00 0.72 0.43 0.19
0.42 0.41 0.43 0.53 0.47 0.45 0.40 0.38 0.35 0.47 0.55 0.62 0.76 0.76 0.73 0.68 0.79 0.93 1.20 1.28 1.29 1.19 1.13 1.08 0.87 0.79 0.89 1.02 1.09 1.09 1.08 1.13 1.06 0.92 0.87 0.87 0.85 0.75 0.59 0.52 0.31 0.15 0.05
0.18 0.20 0.22 0.26 0.30 0.35 0.37 0.33 0.25 0.21 0.20 0.16 0.15 0.18 0.27 0.26 0.24 0.18 0.18 0.18 0.20 0.23 0.28 0.33 0.30 0.26 0.24 0.22 0.17 0.17 0.18 0.14 0.13 0.14 0.15 0.18 0.21 0.18 0.14 0.15 0.07 0.01 0.00
0.18 0.17 0.19 0.19 0.21 0.18 0.17 0.16 0.15 0.16 0.17 0.14 0.11 0.12 0.16 0.18 0.21 0.17 0.14 0.13 0.14 0.15 0.16 0.21 0.20 0.20 0.15 0.11 0.08 0.07 0.06 0.06 0.07 0.07 0.04 0.02 0.05 0.07 0.03 0.02 0.00 0.00 0.00
0.11 0.12 0.15 0.13 0.12 0.13 0.15 0.11 0.10 0.05 0.07 0.10 0.09 0.11 0.13 0.08 0.06 0.08 0.08 0.07 0.04 0.03 0.05 0.07 0.05 0.05 0.07 0.05 0.05 0.03 0.03 0.02 0.02 0.01 0.00 0.00 0.00 0.00 0.00 0.00 0.00 0.00 0.00
0.14 0.14 0.16 0.13 0.07 0.03 0.03 0.06 0.13 0.20 0.23 0.20 0.12 0.10 0.12 0.12 0.07 0.03 0.03 0.02 0.01 0.01 0.00 0.00 0.00 0.00 0.03 0.03 0.02 0.00 0.00 0.00 0.00 0.00 0.00 0.00 0.00 0.00 0.00 0.00 0.00 0.00 0.00

GFSGL_prec_precacc_036.txt.gz
Total_Precipitation_Accumulation
0.00 0.00 0.00 0.00 0.00 0.00 0.00 0.00 0.00 0.00 0.00 0.00 0.00 0.00 0.00 0.00 0.00 0.00 0.00 0.00 0.00 0.00 0.00 0.00 0.00 0.00 0.00 0.00 0.00 0.00 0.00 0.00 0.00 0.00 0.00 0.00 0.00 0.00 0.00 0.00 0.00 0.00 0.00
0.00 0.00 0.00 0.00 0.00 0.00 0.00 0.00 0.00 0.00 0.00 0.00 0.00 0.00 0.00 0.00 0.00 0.00 0.00 0.00 0.00 0.00 0.00 0.00 0.00 0.00 0.02 0.01 0.00 0.01 0.00 0.01 0.02 0.01 0.00 0.00 0.00 0.00 0.01 0.01 0.00 0.00 0.00
0.00 0.00 0.00 0.00 0.00 0.00 0.00 0.00 0.00 0.00 0.00 0.00 0.00 0.00 0.00 0.01 0.00 0.00 0.00 0.00 0.00 0.04 0.02 0.00 0.00 0.01 0.02 0.02 0.03 0.02 0.01 0.02 0.06 0.05 0.02 0.01 0.00 0.00 0.01 0.00 0.00 0.00 0.00
0.00 0.00 0.00 0.00 0.00 0.00 0.00 0.00 0.00 0.00 0.00 0.00 0.00 0.00 0.01 0.01 0.03 0.04 0.05 0.04 0.02 0.10 0.05 0.02 0.01 0.02 0.04 0.05 0.04 0.07 0.07 0.14 0.20 0.18 0.10 0.06 0.02 0.00 0.00 0.00 0.02 0.00 0.00
0.00 0.00 0.00 0.00 0.00 0.00 0.00 0.01 0.00 0.00 0.00 0.00 0.00 0.00 0.01 0.02 0.04 0.05 0.05 0.10 0.12 0.14 0.07 0.05 0.07 0.08 0.09 0.15 0.12 0.10 0.06 0.09 0.07 0.06 0.05 0.02 0.00 0.01 0.01 0.00 0.01 0.00 0.01
0.00 0.00 0.00 0.00 0.00 0.00 0.00 0.02 0.01 0.00 0.01 0.01 0.02 0.02 0.05 0.04 0.03 0.03 0.10 0.18 0.24 0.22 0.22 0.26 0.14 0.15 0.16 0.18 0.14 0.09 0.08 0.10 0.14 0.12 0.06 0.01 0.05 0.06 0.05 0.04 0.01 0.01 0.01
0.00 0.00 0.00 0.00 0.00 0.00 0.00 0.00 0.00 0.01 0.05 0.04 0.05 0.06 0.12 0.11 0.16 0.25 0.32 0.22 0.24 0.17 0.19 0.17 0.13 0.12 0.20 0.11 0.21 0.27 0.12 0.12 0.11 0.14 0.04 0.05 0.07 0.09 0.07 0.06 0.02 0.03 0.02
0.00 0.00 0.00 0.00 0.00 0.00 0.00 0.00 0.00 0.00 0.04 0.04 0.04 0.10 0.22 0.38 0.57 0.45 0.39 0.24 0.20 0.12 0.08 0.06 0.08 0.13 0.16 0.21 0.28 0.17 0.17 0.14 0.19 0.12 0.05 0.07 0.08 0.07 0.08 0.07 0.07 0.02 0.00
0.00 0.00 0.00 0.00 0.00 0.00 0.00 0.00 0.01 0.02 0.13 0.29 0.53 0.51 0.42 0.33 0.24 0.14 0.13 0.07 0.10 0.12 0.07 0.08 0.11 0.07 0.31 0.39 0.14 0.07 0.08 0.07 0.12 0.13 0.10 0.06 0.07 0.06 0.03 0.02 0.01 0.01 0.01
0.00 0.00 0.00 0.00 0.00 0.00 0.04 0.04 0.17 0.38 0.32 0.17 0.14 0.11 0.08 0.07 0.12 0.09 0.06 0.03 0.03 0.05 0.12 0.09 0.27 0.11 0.21 0.18 0.07 0.03 0.06 0.16 0.07 0.06 0.03 0.01 0.01 0.02 0.02 0.00 0.01 0.02 0.02
0.00 0.00 0.00 0.00 0.01 0.11 0.18 0.17 0.22 0.24 0.07 0.04 0.06 0.10 0.16 0.10 0.10 0.09 0.01 0.04 0.02 0.06 0.05 0.11 0.10 0.12 0.10 0.16 0.23 0.16 0.15 0.09 0.03 0.01 0.02 0.02 0.02 0.03 0.03 0.03 0.02 0.02 0.02
0.00 0.00 0.00 0.01 0.03 0.12 0.19 0.19 0.18 0.09 0.03 0.04 0.08 0.15 0.24 0.17 0.19 0.12 0.06 0.08 0.08 0.08 0.06 0.11 0.16 0.19 0.30 0.37 0.27 0.12 0.07 0.05 0.04 0.03 0.03 0.02 0.05 0.09 0.07 0.09 0.16 0.11 0.04
0.00 0.00 0.00 0.01 0.02 0.07 0.15 0.10 0.05 0.09 0.09 0.09 0.19 0.23 0.30 0.35 0.42 0.32 0.33 0.32 0.26 0.21 0.17 0.23 0.25 0.16 0.14 0.13 0.09 0.06 0.07 0.10 0.09 0.06 0.04 0.02 0.04 0.11 0.11 0.11 0.20 0.21 0.15
0.00 0.00 0.01 0.03 0.09 0.13 0.28 0.10 0.11 0.22 0.27 0.27 0.48 0.67 0.70 0.63 0.58 0.49 0.39 0.31 0.27 0.24 0.22 0.25 0.19 0.16 0.16 0.13 0.12 0.10 0.10 0.09 0.11 0.10 0.09 0.09 0.12 0.14 0.10 0.12 0.17 0.25 0.25
0.13 0.24 0.31 0.31 0.22 0.16 0.34 0.30 0.42 0.63 0.64 0.66 0.74 0.66 0.53 0.47 0.48 0.56 0.55 0.58 0.71 0.91 0.96 0.82 0.71 0.67 0.54 0.36 0.25 0.20 0.16 0.12 0.12 0.12 0.23 0.36 0.37 0.28 0.19 0.17 0.20 0.25 0.27
0.27 0.28 0.29 0.27 0.37 0.45 0.48 0.51 0.63 0.76 0.76 0.70 0.70 0.75 0.84 0.93 1.23 1.35 1.53 1.34 0.97 0.79 0.77 0.61 0.48 0.39 0.34 0.34 0.31 0.25 0.22 0.24 0.23 0.37 0.52 0.53 0.50 0.42 0.34 0.26 0.23 0.21 0.22
0.13 0.11 0.16 0.28 0.36 0.48 0.62 0.62 0.59 0.75 0.66 0.60 0.65 0.56 0.58 0.50 0.53 0.53 0.60 0.66 0.51 0.44 0.33 0.31 0.28 0.31 0.40 0.47 0.51 0.52 0.46 0.47 0.58 0.66 0.69 0.74 0.78 0.76 0.74 0.64 0.62 0.60 0.61
0.60 0.62 0.58 0.52 0.57 0.43 0.40 0.44 0.43 0.47 0.46 0.51 0.62 0.53 0.43 0.43 0.42 0.35 0.37 0.41 0.35 0.24 0.22 0.20 0.20 0.23 0.27 0.34 0.38 0.35 0.35 0.43 0.58 0.70 0.83 0.90 0.95 0.90 0.86 0.83 0.79 0.86 0.88
1.44 0.87 0.83 1.05 1.22 1.12 1.08 0.95 0.69 0.52 0.34 0.34 0.34 0.42 0.43 0.43 0.43 0.37 0.42 0.38 0.41 0.35 0.31 0.33 0.31 0.29 0.26 0.28 0.31 0.36 0.38 0.33 0.37 0.44 0.56 0.65 0.66 0.64 0.70 0.74 0.97 1.39 1.87
1.30 1.61 1.29 1.48 2.45 2.75 2.61 2.18 1.94 1.83 1.49 1.28 1.07 1.08 1.08 1.03 1.00 0.89 0.85 0.92 0.97 0.78 0.70 0.82 0.81 0.71 0.64 0.67 0.65 0.62 0.67 0.80 0.93 1.13 1.37 1.88 2.58 2.94 3.02 2.90 2.91 2.93 2.87
0.64 0.73 0.75 0.82 0.95 1.01 1.45 1.70 1.84 2.03 2.03 2.07 2.07 1.96 1.95 2.16 1.99 2.00 2.22 2.10 1.76 1.73 1.68 1.74 1.89 1.98 2.04 2.09 2.12 2.10 2.15 2.34 2.71 2.99 3.12 2.94 2.49 1.92 1.46 1.28 1.27 1.24 1.11
0.42 0.41 0.43 0.53 0.47 0.45 0.40 0.38 0.35 0.47 0.55 0.62 0.76 0.76 0.73 0.68 0.79 0.93 1.20 1.28 1.29 1.19 1.13 1.08 0.88 0.79 0.89 1.02 1.10 1.10 1.08 1.13 1.06 0.92 0.87 0.87 0.85 0.76 0.64 0.65 0.57 0.47 0.40
0.18 0.20 0.22 0.26 0.30 0.35 0.37 0.33 0.25 0.21 0.20 0.16 0.15 0.18 0.27 0.26 0.24 0.18 0.18 0.18 0.21 0.23 0.28 0.33 0.30 0.26 0.24 0.22 0.17 0.17 0.18 0.14 0.13 0.14 0.15 0.18 0.21 0.18 0.14 0.18 0.12 0.06 0.05
0.18 0.17 0.19 0.19 0.21 0.18 0.17 0.16 0.15 0.16 0.17 0.14 0.11 0.12 0.16 0.18 0.21 0.17 0.14 0.13 0.14 0.15 0.16 0.21 0.20 0.20 0.15 0.11 0.09 0.08 0.06 0.06 0.07 0.07 0.04 0.02 0.05 0.08 0.04 0.03 0.00 0.00 0.00
0.11 0.12 0.15 0.13 0.12 0.13 0.15 0.11 0.10 0.05 0.07 0.10 0.09 0.11 0.13 0.08 0.06 0.08 0.08 0.07 0.04 0.03 0.05 0.07 0.06 0.05 0.07 0.05 0.05 0.03 0.03 0.03 0.02 0.01 0.00 0.00 0.00 0.00 0.00 0.00 0.00 0.00 0.00
0.15 0.14 0.16 0.13 0.07 0.03 0.03 0.06 0.13 0.20 0.23 0.20 0.12 0.10 0.12 0.12 0.07 0.03 0.03 0.02 0.01 0.01 0.00 0.00 0.00 0.01 0.04 0.03 0.03 0.00 0.00 0.00 0.00 0.00 0.00 0.00 0.00 0.00 0.00 0.00 0.00 0.00 0.00

GFSGL_prec_precacc_039.txt.gz
Total_Precipitation_Accumulation
0.00 0.00 0.00 0.00 0.00 0.00 0.00 0.00 0.00 0.00 0.00 0.00 0.00 0.00 0.00 0.00 0.00 0.00 0.00 0.00 0.00 0.00 0.00 0.00 0.00 0.00 0.00 0.00 0.00 0.00 0.00 0.00 0.00 0.00 0.00 0.00 0.00 0.00 0.00 0.00 0.00 0.00 0.00
0.00 0.00 0.00 0.00 0.00 0.00 0.00 0.00 0.00 0.00 0.00 0.00 0.00 0.00 0.00 0.00 0.00 0.00 0.00 0.00 0.00 0.00 0.00 0.00 0.00 0.00 0.02 0.01 0.00 0.01 0.00 0.01 0.02 0.01 0.00 0.00 0.00 0.00 0.01 0.01 0.00 0.00 0.00
0.00 0.00 0.00 0.00 0.00 0.00 0.00 0.00 0.00 0.00 0.00 0.00 0.00 0.00 0.00 0.01 0.00 0.00 0.00 0.00 0.00 0.04 0.02 0.00 0.00 0.01 0.02 0.02 0.03 0.02 0.01 0.02 0.06 0.05 0.02 0.01 0.00 0.00 0.01 0.00 0.00 0.00 0.00
0.00 0.00 0.00 0.00 0.00 0.00 0.00 0.00 0.00 0.00 0.00 0.00 0.00 0.00 0.01 0.01 0.03 0.04 0.05 0.04 0.02 0.10 0.05 0.02 0.01 0.02 0.04 0.05 0.04 0.07 0.07 0.14 0.20 0.18 0.10 0.06 0.02 0.00 0.00 0.00 0.02 0.00 0.00
0.00 0.00 0.00 0.00 0.00 0.00 0.00 0.01 0.00 0.00 0.00 0.00 0.00 0.00 0.01 0.02 0.04 0.05 0.05 0.10 0.12 0.14 0.07 0.05 0.07 0.08 0.09 0.15 0.12 0.10 0.06 0.09 0.07 0.06 0.05 0.02 0.00 0.01 0.01 0.00 0.01 0.00 0.01
0.00 0.00 0.00 0.00 0.00 0.00 0.00 0.02 0.01 0.00 0.01 0.01 0.02 0.02 0.05 0.04 0.03 0.03 0.10 0.18 0.24 0.22 0.22 0.26 0.14 0.15 0.16 0.18 0.14 0.09 0.08 0.10 0.14 0.12 0.06 0.01 0.05 0.06 0.05 0.04 0.01 0.01 0.01
0.00 0.00 0.00 0.00 0.00 0.00 0.00 0.00 0.00 0.01 0.05 0.04 0.05 0.06 0.12 0.11 0.16 0.25 0.32 0.22 0.24 0.17 0.19 0.17 0.13 0.12 0.20 0.11 0.21 0.27 0.12 0.12 0.11 0.14 0.04 0.05 0.07 0.09 0.07 0.06 0.02 0.03 0.02
0.00 0.00 0.00 0.00 0.00 0.00 0.00 0.00 0.00 0.00 0.04 0.04 0.04 0.10 0.22 0.38 0.57 0.45 0.39 0.24 0.20 0.12 0.08 0.06 0.08 0.13 0.16 0.21 0.28 0.17 0.17 0.14 0.19 0.12 0.05 0.07 0.08 0.07 0.08 0.07 0.07 0.02 0.00
0.00 0.00 0.00 0.00 0.00 0.00 0.00 0.00 0.01 0.02 0.13 0.29 0.53 0.51 0.42 0.33 0.24 0.14 0.13 0.07 0.10 0.12 0.07 0.08 0.11 0.07 0.31 0.39 0.14 0.07 0.08 0.07 0.12 0.13 0.10 0.06 0.07 0.06 0.03 0.02 0.02 0.02 0.01
0.00 0.00 0.00 0.00 0.00 0.00 0.04 0.04 0.17 0.38 0.32 0.17 0.14 0.11 0.08 0.07 0.12 0.09 0.06 0.03 0.03 0.05 0.12 0.09 0.27 0.11 0.21 0.18 0.07 0.03 0.06 0.16 0.07 0.06 0.06 0.04 0.03 0.02 0.02 0.00 0.09 0.06 0.03
0.00 0.00 0.00 0.00 0.01 0.11 0.18 0.17 0.22 0.24 0.07 0.04 0.06 0.10 0.16 0.10 0.10 0.09 0.01 0.04 0.02 0.06 0.05 0.11 0.10 0.12 0.10 0.16 0.24 0.16 0.15 0.10 0.06 0.03 0.02 0.02 0.07 0.09 0.06 0.04 0.16 0.22 0.12
0.00 0.00 0.00 0.01 0.03 0.12 0.19 0.19 0.18 0.09 0.03 0.04 0.08 0.15 0.24 0.17 0.19 0.12 0.06 0.08 0.08 0.09 0.07 0.12 0.16 0.19 0.30 0.37 0.27 0.12 0.07 0.06 0.06 0.07 0.07 0.03 0.05 0.09 0.08 0.10 0.22 0.25 0.22
0.00 0.00 0.00 0.01 0.02 0.07 0.15 0.10 0.05 0.09 0.09 0.09 0.19 0.23 0.30 0.35 0.42 0.32 0.33 0.32 0.26 0.22 0.19 0.24 0.25 0.17 0.14 0.13 0.09 0.07 0.09 0.12 0.14 0.11 0.08 0.04 0.05 0.12 0.12 0.11 0.20 0.24 0.20
0.00 0.00 0.01 0.03 0.09 0.13 0.28 0.10 0.11 0.22 0.27 0.27 0.48 0.67 0.70 0.64 0.58 0.49 0.39 0.32 0.29 0.26 0.24 0.27 0.20 0.17 0.17 0.15 0.13 0.11 0.10 0.10 0.14 0.12 0.11 0.12 0.15 0.18 0.14 0.14 0.20 0.29 0.31
0.13 0.24 0.31 0.31 0.22 0.16 0.34 0.30 0.42 0.63 0.64 0.66 0.74 0.66 0.53 0.47 0.49 0.56 0.56 0.58 0.72 0.93 0.97 0.82 0.71 0.67 0.55 0.36 0.25 0.20 0.16 0.13 0.13 0.13 0.24 0.37 0.38 0.30 0.23 0.21 0.24 0.31 0.37
0.27 0.28 0.29 0.27 0.37 0.45 0.48 0.51 0.63 0.76 0.77 0.70 0.70 0.75 0.84 0.93 1.23 1.35 1.53 1.34 0.97 0.80 0.77 0.62 0.48 0.39 0.34 0.34 0.31 0.25 0.22 0.25 0.23 0.37 0.53 0.54 0.51 0.43 0.36 0.32 0.32 0.31 0.30
0.13 0.11 0.16 0.28 0.36 0.48 0.62 0.62 0.59 0.75 0.66 0.60 0.65 0.56 0.58 0.50 0.53 0.53 0.61 0.66 0.51 0.45 0.34 0.32 0.28 0.31 0.40 0.47 0.51 0.52 0.46 0.47 0.58 0.66 0.69 0.74 0.78 0.76 0.76 0.67 0.68 0.70 0.68
0.60 0.62 0.58 0.52 0.57 0.43 0.40 0.44 0.43 0.47 0.46 0.51 0.62 0.53 0.43 0.43 0.42 0.35 0.38 0.41 0.36 0.24 0.22 0.20 0.20 0.23 0.27 0.34 0.38 0.35 0.35 0.43 0.58 0.70 0.83 0.90 0.95 0.91 0.87 0.83 0.79 0.87 0.93
1.44 0.87 0.83 1.05 1.22 1.12 1.08 0.96 0.69 0.52 0.34 0.34 0.34 0.42 0.43 0.44 0.43 0.38 0.43 0.38 0.41 0.35 0.31 0.33 0.31 0.29 0.26 0.28 0.31 0.36 0.38 0.33 0.37 0.44 0.56 0.65 0.66 0.64 0.70 0.74 0.97 1.39 1.88
1.30 1.61 1.29 1.48 2.45 2.75 2.61 2.19 1.95 1.84 1.50 1.28 1.08 1.09 1.08 1.04 1.00 0.89 0.85 0.92 0.97 0.78 0.70 0.82 0.81 0.71 0.64 0.67 0.65 0.62 0.67 0.80 0.93 1.13 1.37 1.88 2.58 2.94 3.02 2.90 2.91 2.94 2.87
0.64 0.73 0.75 0.82 0.95 1.01 1.45 1.70 1.84 2.03 2.04 2.08 2.08 1.97 1.96 2.17 2.00 2.00 2.22 2.10 1.76 1.73 1.68 1.74 1.89 1.98 2.04 2.09 2.12 2.10 2.15 2.34 2.71 2.99 3.12 2.94 2.49 1.92 1.46 1.28 1.27 1.24 1.11
0.42 0.41 0.43 0.53 0.47 0.45 0.40 0.38 0.35 0.48 0.56 0.63 0.76 0.77 0.74 0.68 0.79 0.93 1.20 1.28 1.29 1.19 1.13 1.08 0.88 0.79 0.89 1.02 1.10 1.10 1.09 1.13 1.06 0.92 0.87 0.87 0.85 0.76 0.64 0.65 0.57 0.47 0.40
0.18 0.20 0.22 0.26 0.30 0.35 0.37 0.33 0.25 0.21 0.20 0.16 0.15 0.18 0.27 0.26 0.24 0.18 0.18 0.18 0.21 0.23 0.28 0.33 0.30 0.26 0.24 0.22 0.17 0.17 0.19 0.14 0.13 0.15 0.15 0.18 0.21 0.18 0.14 0.18 0.12 0.06 0.05
0.18 0.17 0.19 0.19 0.21 0.19 0.18 0.16 0.16 0.17 0.17 0.14 0.11 0.12 0.16 0.18 0.21 0.17 0.14 0.13 0.14 0.15 0.16 0.21 0.20 0.20 0.15 0.11 0.09 0.08 0.06 0.06 0.07 0.07 0.04 0.02 0.05 0.09 0.04 0.03 0.00 0.00 0.00
0.11 0.12 0.15 0.13 0.12 0.13 0.16 0.12 0.10 0.05 0.07 0.10 0.09 0.11 0.13 0.08 0.06 0.08 0.08 0.07 0.04 0.03 0.05 0.07 0.06 0.05 0.07 0.05 0.05 0.03 0.04 0.03 0.03 0.01 0.00 0.00 0.00 0.00 0.00 0.00 0.00 0.00 0.00
0.18 0.16 0.17 0.13 0.07 0.03 0.03 0.06 0.13 0.20 0.23 0.20 0.12 0.10 0.12 0.12 0.07 0.03 0.03 0.02 0.01 0.01 0.00 0.00 0.00 0.01 0.04 0.03 0.03 0.02 0.01 0.01 0.00 0.00 0.00 0.00 0.00 0.00 0.00 0.00 0.00 0.00 0.00

GFSGL_prec_precacc_042.txt.gz
Total_Precipitation_Accumulation
0.00 0.00 0.00 0.00 0.00 0.00 0.00 0.00 0.00 0.00 0.00 0.00 0.00 0.00 0.00 0.00 0.00 0.00 0.00 0.00 0.00 0.00 0.00 0.00 0.00 0.00 0.00 0.00 0.00 0.00 0.00 0.00 0.00 0.00 0.00 0.00 0.00 0.00 0.00 0.00 0.00 0.00 0.00
0.00 0.00 0.00 0.00 0.00 0.00 0.00 0.00 0.00 0.00 0.00 0.00 0.00 0.00 0.00 0.00 0.00 0.00 0.00 0.00 0.00 0.00 0.00 0.00 0.00 0.00 0.02 0.01 0.00 0.01 0.00 0.01 0.02 0.01 0.00 0.00 0.00 0.00 0.01 0.01 0.00 0.00 0.00
0.00 0.00 0.00 0.00 0.00 0.00 0.00 0.00 0.00 0.00 0.00 0.00 0.00 0.00 0.00 0.01 0.00 0.00 0.00 0.00 0.00 0.04 0.02 0.00 0.00 0.01 0.02 0.02 0.03 0.02 0.01 0.02 0.06 0.05 0.02 0.01 0.00 0.00 0.01 0.00 0.00 0.00 0.00
0.00 0.00 0.00 0.00 0.00 0.00 0.00 0.00 0.00 0.00 0.00 0.00 0.00 0.00 0.01 0.01 0.03 0.04 0.05 0.04 0.02 0.10 0.05 0.02 0.01 0.02 0.04 0.05 0.04 0.07 0.07 0.14 0.20 0.18 0.10 0.06 0.02 0.00 0.00 0.00 0.02 0.00 0.00
0.00 0.00 0.00 0.00 0.00 0.00 0.00 0.01 0.00 0.00 0.00 0.00 0.00 0.00 0.01 0.02 0.04 0.05 0.05 0.10 0.12 0.14 0.07 0.05 0.07 0.08 0.09 0.15 0.12 0.10 0.06 0.09 0.07 0.06 0.05 0.02 0.00 0.01 0.01 0.00 0.01 0.00 0.01
0.00 0.00 0.00 0.00 0.00 0.00 0.00 0.02 0.01 0.00 0.01 0.01 0.02 0.02 0.05 0.04 0.03 0.03 0.10 0.18 0.24 0.22 0.22 0.26 0.14 0.15 0.16 0.18 0.14 0.09 0.08 0.10 0.14 0.12 0.06 0.01 0.05 0.06 0.05 0.04 0.01 0.01 0.01
0.00 0.00 0.00 0.00 0.00 0.00 0.00 0.00 0.00 0.01 0.05 0.04 0.05 0.06 0.12 0.11 0.16 0.25 0.32 0.22 0.24 0.17 0.19 0.17 0.13 0.12 0.20 0.11 0.21 0.27 0.12 0.12 0.11 0.14 0.04 0.05 0.07 0.09 0.07 0.06 0.02 0.03 0.02
0.00 0.00 0.00 0.00 0.00 0.00 0.00 0.00 0.00 0.00 0.04 0.04 0.04 0.10 0.22 0.38 0.57 0.45 0.39 0.24 0.20 0.12 0.08 0.06 0.08 0.13 0.16 0.21 0.28 0.17 0.17 0.14 0.19 0.12 0.05 0.07 0.08 0.07 0.08 0.07 0.07 0.02 0.00
0.00 0.00 0.00 0.00 0.00 0.00 0.00 0.00 0.01 0.02 0.13 0.29 0.53 0.51 0.42 0.33 0.24 0.14 0.13 0.07 0.10 0.12 0.07 0.08 0.11 0.07 0.31 0.39 0.14 0.07 0.08 0.07 0.12 0.13 0.10 0.06 0.07 0.06 0.03 0.03 0.03 0.03 0.02
0.00 0.00 0.00 0.00 0.00 0.00 0.04 0.04 0.17 0.38 0.32 0.17 0.14 0.11 0.08 0.07 0.12 0.09 0.06 0.03 0.03 0.05 0.12 0.09 0.27 0.11 0.21 0.18 0.07 0.03 0.06 0.16 0.08 0.08 0.07 0.05 0.03 0.04 0.03 0.02 0.12 0.10 0.05
0.00 0.00 0.00 0.00 0.01 0.11 0.18 0.17 0.22 0.24 0.07 0.04 0.06 0.10 0.16 0.10 0.10 0.09 0.01 0.04 0.02 0.06 0.05 0.11 0.10 0.12 0.10 0.16 0.24 0.16 0.16 0.11 0.07 0.04 0.03 0.03 0.07 0.10 0.08 0.06 0.19 0.27 0.17
0.00 0.00 0.00 0.01 0.03 0.12 0.19 0.19 0.18 0.09 0.03 0.04 0.08 0.15 0.24 0.17 0.19 0.12 0.06 0.08 0.08 0.09 0.07 0.12 0.16 0.19 0.30 0.37 0.27 0.14 0.08 0.07 0.08 0.10 0.10 0.04 0.06 0.09 0.08 0.11 0.23 0.27 0.24
0.00 0.00 0.00 0.01 0.02 0.07 0.15 0.10 0.05 0.09 0.09 0.09 0.19 0.23 0.30 0.35 0.42 0.32 0.33 0.32 0.26 0.22 0.19 0.24 0.25 0.17 0.15 0.13 0.10 0.08 0.10 0.16 0.20 0.16 0.11 0.04 0.06 0.13 0.13 0.13 0.22 0.26 0.22
0.00 0.00 0.01 0.03 0.09 0.13 0.28 0.10 0.11 0.22 0.27 0.27 0.48 0.67 0.70 0.64 0.58 0.49 0.40 0.32 0.29 0.27 0.26 0.28 0.21 0.18 0.19 0.16 0.14 0.13 0.13 0.15 0.15 0.12 0.12 0.12 0.16 0.19 0.15 0.15 0.21 0.30 0.33
0.13 0.24 0.31 0.31 0.22 0.16 0.34 0.30 0.42 0.63 0.64 0.66 0.74 0.66 0.53 0.47 0.49 0.57 0.56 0.59 0.74 0.94 0.99 0.83 0.72 0.70 0.57 0.38 0.26 0.22 0.17 0.13 0.13 0.14 0.24 0.37 0.38 0.30 0.23 0.21 0.24 0.32 0.39
0.27 0.28 0.29 0.27 0.37 0.45 0.48 0.51 0.64 0.77 0.77 0.71 0.70 0.75 0.84 0.93 1.23 1.35 1.53 1.34 0.98 0.81 0.77 0.62 0.49 0.40 0.36 0.36 0.31 0.25 0.22 0.25 0.23 0.37 0.53 0.54 0.51 0.43 0.36 0.32 0.32 0.32 0.31
0.13 0.11 0.16 0.28 0.36 0.48 0.62 0.62 0.59 0.75 0.66 0.60 0.65 0.57 0.58 0.50 0.53 0.53 0.61 0.67 0.52 0.45 0.34 0.32 0.29 0.31 0.40 0.47 0.51 0.52 0.46 0.47 0.58 0.66 0.69 0.74 0.78 0.76 0.76 0.67 0.68 0.70 0.68
0.60 0.62 0.58 0.52 0.57 0.43 0.40 0.44 0.43 0.47 0.46 0.52 0.62 0.53 0.44 0.43 0.42 0.35 0.38 0.41 0.36 0.25 0.23 0.20 0.20 0.23 0.27 0.34 0.38 0.35 0.35 0.43 0.58 0.70 0.83 0.90 0.95 0.91 0.87 0.83 0.79 0.87 0.93
1.44 0.87 0.83 1.05 1.22 1.12 1.08 0.96 0.69 0.52 0.34 0.34 0.34 0.42 0.43 0.44 0.43 0.38 0.43 0.38 0.41 0.35 0.31 0.33 0.31 0.29 0.26 0.28 0.31 0.36 0.38 0.33 0.37 0.44 0.56 0.65 0.66 0.64 0.70 0.74 0.97 1.40 1.88
1.30 1.61 1.29 1.48 2.45 2.75 2.61 2.19 1.95 1.84 1.50 1.28 1.08 1.09 1.08 1.04 1.00 0.89 0.85 0.92 0.97 0.78 0.71 0.83 0.82 0.71 0.65 0.67 0.66 0.63 0.68 0.81 0.93 1.13 1.37 1.88 2.58 2.94 3.02 2.90 2.91 2.94 2.88
0.64 0.73 0.75 0.82 0.95 1.01 1.45 1.70 1.84 2.03 2.04 2.08 2.08 1.97 1.97 2.17 2.00 2.00 2.22 2.10 1.76 1.73 1.68 1.74 1.89 1.98 2.04 2.09 2.12 2.11 2.16 2.35 2.71 2.99 3.12 2.94 2.49 1.92 1.46 1.28 1.27 1.24 1.11
0.42 0.41 0.43 0.53 0.47 0.45 0.40 0.38 0.35 0.48 0.56 0.63 0.76 0.78 0.75 0.68 0.79 0.93 1.20 1.28 1.29 1.19 1.13 1.08 0.88 0.79 0.89 1.02 1.10 1.10 1.09 1.13 1.06 0.92 0.87 0.87 0.85 0.76 0.64 0.65 0.57 0.47 0.40
0.18 0.20 0.22 0.26 0.30 0.35 0.37 0.33 0.25 0.21 0.20 0.16 0.15 0.18 0.27 0.26 0.24 0.18 0.18 0.18 0.21 0.23 0.28 0.33 0.30 0.26 0.24 0.22 0.17 0.17 0.19 0.14 0.13 0.15 0.15 0.18 0.21 0.18 0.14 0.18 0.12 0.06 0.05
0.18 0.17 0.19 0.19 0.21 0.19 0.18 0.16 0.16 0.18 0.18 0.14 0.12 0.12 0.16 0.18 0.21 0.17 0.14 0.13 0.14 0.15 0.16 0.21 0.20 0.20 0.15 0.11 0.09 0.08 0.06 0.06 0.07 0.07 0.04 0.02 0.05 0.09 0.04 0.03 0.00 0.00 0.00
0.11 0.12 0.15 0.13 0.13 0.13 0.16 0.13 0.12 0.08 0.10 0.11 0.10 0.11 0.13 0.08 0.06 0.08 0.08 0.07 0.04 0.03 0.05 0.07 0.06 0.05 0.07 0.05 0.05 0.03 0.04 0.03 0.03 0.01 0.00 0.00 0.00 0.00 0.00 0.00 0.00 0.00 0.00
0.18 0.16 0.17 0.14 0.07 0.03 0.04 0.08 0.15 0.22 0.24 0.21 0.13 0.10 0.12 0.12 0.07 0.03 0.03 0.02 0.01 0.01 0.00 0.00 0.00 0.01 0.04 0.03 0.03 0.02 0.01 0.01 0.01 0.01 0.00 0.00 0.00 0.00 0.00 0.00 0.00 0.01 0.01

GFSGL_prec_precacc_045.txt.gz
Total_Precipitation_Accumulation
0.00 0.00 0.00 0.00 0.00 0.00 0.00 0.00 0.00 0.00 0.00 0.00 0.00 0.00 0.00 0.00 0.00 0.00 0.00 0.00 0.00 0.00 0.00 0.00 0.00 0.00 0.00 0.00 0.00 0.00 0.00 0.00 0.00 0.00 0.00 0.00 0.00 0.00 0.00 0.00 0.00 0.00 0.00
0.00 0.00 0.00 0.00 0.00 0.00 0.00 0.00 0.00 0.00 0.00 0.00 0.00 0.00 0.00 0.00 0.00 0.00 0.00 0.00 0.00 0.00 0.00 0.00 0.00 0.00 0.02 0.01 0.00 0.01 0.00 0.01 0.02 0.01 0.00 0.00 0.00 0.00 0.01 0.01 0.00 0.00 0.00
0.00 0.00 0.00 0.00 0.00 0.00 0.00 0.00 0.00 0.00 0.00 0.00 0.00 0.00 0.00 0.01 0.00 0.00 0.00 0.00 0.00 0.04 0.02 0.00 0.00 0.01 0.02 0.02 0.03 0.02 0.01 0.02 0.06 0.05 0.02 0.01 0.00 0.00 0.01 0.00 0.00 0.00 0.00
0.00 0.00 0.00 0.00 0.00 0.00 0.00 0.00 0.00 0.00 0.00 0.00 0.00 0.00 0.01 0.01 0.03 0.04 0.05 0.04 0.02 0.10 0.05 0.02 0.01 0.02 0.04 0.05 0.04 0.07 0.07 0.14 0.20 0.18 0.10 0.06 0.02 0.00 0.00 0.00 0.02 0.00 0.00
0.00 0.00 0.00 0.00 0.00 0.00 0.00 0.01 0.00 0.00 0.00 0.00 0.00 0.00 0.01 0.02 0.04 0.05 0.05 0.10 0.12 0.14 0.07 0.05 0.07 0.08 0.09 0.15 0.12 0.10 0.06 0.09 0.07 0.06 0.05 0.02 0.00 0.01 0.01 0.00 0.01 0.00 0.01
0.00 0.00 0.00 0.00 0.00 0.00 0.00 0.02 0.01 0.00 0.01 0.01 0.02 0.02 0.05 0.04 0.03 0.03 0.10 0.18 0.24 0.22 0.22 0.26 0.14 0.15 0.16 0.18 0.14 0.09 0.08 0.10 0.14 0.12 0.06 0.01 0.05 0.06 0.05 0.04 0.01 0.01 0.01
0.00 0.00 0.00 0.00 0.00 0.00 0.00 0.00 0.00 0.01 0.05 0.04 0.05 0.06 0.12 0.11 0.16 0.25 0.32 0.22 0.24 0.17 0.19 0.17 0.13 0.12 0.20 0.11 0.21 0.27 0.12 0.12 0.11 0.14 0.04 0.05 0.07 0.09 0.07 0.06 0.02 0.03 0.02
0.00 0.00 0.00 0.00 0.00 0.00 0.00 0.00 0.00 0.00 0.04 0.04 0.04 0.10 0.22 0.38 0.57 0.45 0.39 0.24 0.20 0.12 0.08 0.06 0.08 0.13 0.16 0.21 0.28 0.17 0.17 0.14 0.19 0.12 0.05 0.07 0.08 0.07 0.09 0.07 0.08 0.02 0.00
0.00 0.00 0.00 0.00 0.00 0.00 0.00 0.00 0.01 0.02 0.13 0.29 0.53 0.51 0.42 0.33 0.24 0.14 0.13 0.07 0.10 0.12 0.07 0.08 0.11 0.07 0.31 0.39 0.14 0.07 0.08 0.07 0.12 0.13 0.10 0.06 0.07 0.06 0.04 0.03 0.04 0.04 0.02
0.00 0.00 0.00 0.00 0.00 0.00 0.04 0.04 0.17 0.38 0.32 0.17 0.14 0.11 0.08 0.07 0.12 0.09 0.06 0.03 0.03 0.05 0.12 0.09 0.27 0.11 0.21 0.18 0.07 0.03 0.06 0.16 0.08 0.08 0.07 0.05 0.04 0.04 0.04 0.03 0.16 0.14 0.07
0.00 0.00 0.00 0.00 0.01 0.11 0.18 0.17 0.22 0.24 0.07 0.04 0.06 0.10 0.16 0.10 0.10 0.09 0.01 0.04 0.02 0.06 0.05 0.11 0.10 0.12 0.10 0.16 0.24 0.16 0.16 0.11 0.07 0.04 0.04 0.04 0.09 0.12 0.10 0.07 0.20 0.30 0.19
0.00 0.00 0.00 0.01 0.03 0.12 0.19 0.19 0.18 0.09 0.03 0.04 0.08 0.15 0.24 0.17 0.19 0.12 0.06 0.08 0.08 0.09 0.07 0.12 0.16 0.19 0.30 0.37 0.27 0.14 0.08 0.08 0.10 0.12 0.11 0.05 0.08 0.11 0.09 0.12 0.25 0.30 0.26
0.00 0.00 0.00 0.01 0.02 0.07 0.15 0.10 0.05 0.09 0.09 0.09 0.19 0.23 0.30 0.35 0.42 0.33 0.33 0.32 0.26 0.22 0.19 0.24 0.25 0.18 0.15 0.14 0.11 0.09 0.12 0.18 0.24 0.21 0.18 0.09 0.08 0.13 0.14 0.14 0.23 0.27 0.23
0.00 0.00 0.01 0.03 0.09 0.13 0.28 0.10 0.11 0.22 0.27 0.27 0.48 0.67 0.70 0.64 0.58 0.49 0.40 0.32 0.29 0.27 0.26 0.28 0.21 0.18 0.19 0.16 0.15 0.15 0.19 0.25 0.24 0.17 0.15 0.13 0.16 0.19 0.15 0.15 0.21 0.30 0.33
0.13 0.24 0.31 0.31 0.22 0.16 0.34 0.30 0.42 0.63 0.64 0.66 0.74 0.66 0.53 0.47 0.49 0.57 0.56 0.59 0.74 0.94 0.99 0.83 0.73 0.70 0.59 0.39 0.26 0.23 0.18 0.16 0.16 0.14 0.24 0.37 0.38 0.30 0.23 0.21 0.24 0.32 0.39
0.27 0.28 0.29 0.27 0.37 0.45 0.48 0.51 0.64 0.77 0.77 0.71 0.71 0.75 0.84 0.93 1.23 1.36 1.53 1.34 0.99 0.81 0.78 0.62 0.49 0.40 0.36 0.36 0.31 0.25 0.23 0.25 0.23 0.37 0.53 0.54 0.51 0.43 0.36 0.32 0.32 0.32 0.31
0.13 0.13 0.18 0.31 0.36 0.48 0.62 0.62 0.59 0.76 0.67 0.60 0.65 0.57 0.58 0.50 0.53 0.54 0.61 0.67 0.52 0.45 0.34 0.32 0.29 0.31 0.40 0.47 0.51 0.52 0.46 0.47 0.58 0.66 0.69 0.74 0.78 0.76 0.76 0.67 0.68 0.70 0.68
0.61 0.64 0.64 0.56 0.62 0.44 0.40 0.44 0.43 0.47 0.46 0.52 0.63 0.54 0.45 0.43 0.42 0.35 0.38 0.41 0.36 0.25 0.23 0.20 0.20 0.23 0.27 0.34 0.38 0.35 0.35 0.43 0.58 0.70 0.83 0.90 0.95 0.91 0.87 0.83 0.79 0.87 0.93
1.44 0.87 0.83 1.06 1.23 1.12 1.08 0.96 0.69 0.52 0.34 0.34 0.35 0.42 0.43 0.44 0.43 0.38 0.43 0.38 0.41 0.35 0.31 0.33 0.31 0.29 0.26 0.28 0.31 0.36 0.38 0.33 0.38 0.44 0.56 0.65 0.66 0.64 0.70 0.74 0.97 1.40 1.88
1.30 1.62 1.30 1.48 2.45 2.75 2.61 2.19 1.95 1.84 1.50 1.28 1.08 1.09 1.08 1.04 1.00 0.89 0.85 0.92 0.97 0.78 0.71 0.83 0.82 0.71 0.65 0.67 0.66 0.63 0.68 0.81 0.94 1.13 1.38 1.89 2.59 2.94 3.02 2.91 2.91 2.94 2.88
0.64 0.73 0.75 0.82 0.95 1.01 1.45 1.70 1.84 2.03 2.04 2.08 2.08 1.97 1.97 2.17 2.00 2.00 2.22 2.10 1.76 1.73 1.68 1.74 1.89 1.98 2.04 2.09 2.12 2.11 2.16 2.35 2.72 3.00 3.12 2.94 2.50 1.93 1.47 1.28 1.27 1.24 1.11
0.42 0.41 0.43 0.53 0.47 0.45 0.40 0.38 0.35 0.48 0.56 0.63 0.76 0.78 0.75 0.68 0.79 0.93 1.20 1.28 1.29 1.19 1.13 1.08 0.88 0.79 0.89 1.02 1.10 1.10 1.09 1.13 1.06 0.92 0.87 0.87 0.86 0.76 0.64 0.65 0.57 0.47 0.40
0.18 0.20 0.22 0.26 0.30 0.35 0.37 0.33 0.25 0.21 0.20 0.16 0.15 0.18 0.27 0.26 0.24 0.18 0.18 0.18 0.21 0.23 0.28 0.33 0.30 0.26 0.24 0.22 0.17 0.17 0.19 0.14 0.13 0.15 0.15 0.18 0.21 0.19 0.15 0.19 0.12 0.07 0.05
0.18 0.17 0.19 0.19 0.21 0.19 0.18 0.16 0.16 0.18 0.18 0.15 0.12 0.13 0.17 0.18 0.21 0.17 0.14 0.13 0.14 0.15 0.16 0.21 0.20 0.20 0.15 0.11 0.09 0.08 0.06 0.06 0.07 0.07 0.04 0.02 0.05 0.09 0.05 0.04 0.01 0.00 0.00
0.11 0.12 0.15 0.13 0.13 0.13 0.16 0.13 0.12 0.08 0.10 0.11 0.10 0.11 0.13 0.08 0.06 0.08 0.08 0.07 0.04 0.03 0.05 0.07 0.06 0.05 0.07 0.05 0.05 0.03 0.04 0.03 0.03 0.01 0.00 0.00 0.00 0.00 0.01 0.01 0.01 0.02 0.02
0.18 0.17 0.18 0.14 0.07 0.03 0.04 0.08 0.15 0.23 0.25 0.22 0.13 0.10 0.12 0.12 0.07 0.03 0.03 0.02 0.01 0.01 0.00 0.00 0.00 0.01 0.04 0.03 0.03 0.02 0.01 0.01 0.01 0.01 0.00 0.00 0.00 0.00 0.00 0.00 0.00 0.01 0.01

GFSGL_prec_precacc_048.txt.gz
Total_Precipitation_Accumulation
0.00 0.00 0.00 0.00 0.00 0.00 0.00 0.00 0.00 0.00 0.00 0.00 0.00 0.00 0.00 0.00 0.00 0.00 0.00 0.00 0.00 0.00 0.00 0.00 0.00 0.00 0.00 0.00 0.00 0.00 0.00 0.00 0.00 0.00 0.00 0.00 0.00 0.00 0.00 0.00 0.00 0.00 0.00
0.00 0.00 0.00 0.00 0.00 0.00 0.00 0.00 0.00 0.00 0.00 0.00 0.00 0.00 0.00 0.00 0.00 0.00 0.00 0.00 0.00 0.00 0.00 0.00 0.00 0.00 0.02 0.01 0.00 0.01 0.00 0.01 0.02 0.01 0.00 0.00 0.00 0.00 0.01 0.01 0.00 0.00 0.00
0.00 0.00 0.00 0.00 0.00 0.00 0.00 0.00 0.00 0.00 0.00 0.00 0.00 0.00 0.00 0.01 0.00 0.00 0.00 0.00 0.00 0.04 0.02 0.00 0.00 0.01 0.02 0.02 0.03 0.02 0.01 0.02 0.06 0.05 0.02 0.01 0.00 0.00 0.01 0.00 0.00 0.00 0.00
0.00 0.00 0.00 0.00 0.00 0.00 0.00 0.00 0.00 0.00 0.00 0.00 0.00 0.00 0.01 0.01 0.03 0.04 0.05 0.04 0.02 0.10 0.05 0.02 0.01 0.02 0.04 0.05 0.04 0.07 0.07 0.14 0.20 0.18 0.10 0.06 0.02 0.00 0.00 0.00 0.02 0.00 0.00
0.00 0.00 0.00 0.00 0.00 0.00 0.00 0.01 0.00 0.00 0.00 0.00 0.00 0.00 0.01 0.02 0.04 0.05 0.05 0.10 0.12 0.14 0.07 0.05 0.07 0.08 0.09 0.15 0.12 0.10 0.06 0.09 0.07 0.06 0.05 0.02 0.00 0.01 0.01 0.00 0.01 0.00 0.01
0.00 0.00 0.00 0.00 0.00 0.00 0.00 0.02 0.01 0.00 0.01 0.01 0.02 0.02 0.05 0.04 0.03 0.03 0.10 0.18 0.24 0.22 0.22 0.26 0.14 0.15 0.16 0.18 0.14 0.09 0.08 0.10 0.14 0.12 0.06 0.01 0.05 0.06 0.05 0.04 0.01 0.01 0.01
0.00 0.00 0.00 0.00 0.00 0.00 0.00 0.00 0.00 0.01 0.05 0.04 0.05 0.06 0.12 0.11 0.16 0.25 0.32 0.22 0.24 0.17 0.19 0.17 0.13 0.12 0.20 0.11 0.21 0.27 0.12 0.12 0.11 0.14 0.04 0.05 0.07 0.09 0.07 0.07 0.03 0.04 0.04
0.00 0.00 0.00 0.00 0.00 0.00 0.00 0.00 0.00 0.00 0.04 0.04 0.04 0.10 0.22 0.38 0.57 0.45 0.39 0.24 0.20 0.12 0.08 0.06 0.08 0.13 0.16 0.21 0.28 0.17 0.17 0.14 0.19 0.12 0.05 0.07 0.08 0.07 0.10 0.10 0.10 0.03 0.01
0.00 0.00 0.00 0.00 0.00 0.00 0.00 0.00 0.01 0.02 0.13 0.29 0.53 0.51 0.42 0.33 0.24 0.14 0.13 0.07 0.10 0.12 0.07 0.08 0.11 0.07 0.31 0.39 0.14 0.07 0.08 0.07 0.12 0.13 0.10 0.06 0.07 0.06 0.04 0.03 0.04 0.04 0.02
0.00 0.00 0.00 0.00 0.00 0.00 0.04 0.04 0.17 0.38 0.32 0.17 0.14 0.11 0.08 0.07 0.12 0.09 0.06 0.03 0.03 0.05 0.12 0.09 0.27 0.11 0.21 0.18 0.07 0.03 0.06 0.16 0.08 0.08 0.07 0.05 0.04 0.05 0.04 0.03 0.16 0.16 0.09
0.00 0.00 0.00 0.00 0.01 0.11 0.18 0.17 0.22 0.24 0.07 0.04 0.06 0.10 0.16 0.10 0.10 0.09 0.01 0.04 0.02 0.06 0.05 0.11 0.10 0.12 0.10 0.16 0.24 0.16 0.16 0.11 0.08 0.05 0.04 0.04 0.09 0.12 0.10 0.08 0.21 0.31 0.20
0.00 0.00 0.00 0.01 0.03 0.12 0.19 0.19 0.18 0.09 0.03 0.04 0.08 0.15 0.24 0.17 0.19 0.12 0.06 0.08 0.08 0.09 0.07 0.12 0.16 0.19 0.30 0.37 0.27 0.14 0.08 0.08 0.10 0.12 0.12 0.07 0.09 0.12 0.10 0.15 0.26 0.31 0.27
0.00 0.00 0.00 0.01 0.02 0.07 0.15 0.10 0.05 0.09 0.09 0.09 0.19 0.23 0.30 0.35 0.42 0.33 0.33 0.32 0.26 0.22 0.19 0.24 0.25 0.18 0.15 0.14 0.11 0.09 0.12 0.19 0.25 0.25 0.23 0.12 0.11 0.16 0.17 0.15 0.23 0.27 0.24
0.00 0.00 0.01 0.03 0.09 0.13 0.28 0.10 0.11 0.22 0.27 0.27 0.48 0.67 0.70 0.64 0.58 0.49 0.40 0.32 0.29 0.27 0.26 0.28 0.21 0.18 0.20 0.16 0.15 0.15 0.19 0.27 0.30 0.24 0.21 0.18 0.19 0.19 0.16 0.15 0.21 0.30 0.33
0.13 0.24 0.31 0.31 0.22 0.16 0.34 0.30 0.42 0.63 0.64 0.66 0.74 0.66 0.53 0.47 0.49 0.57 0.56 0.59 0.74 0.94 0.99 0.83 0.73 0.71 0.59 0.39 0.26 0.23 0.19 0.18 0.21 0.21 0.27 0.39 0.38 0.30 0.23 0.21 0.24 0.32 0.39
0.28 0.28 0.29 0.27 0.37 0.45 0.48 0.52 0.65 0.78 0.78 0.71 0.71 0.76 0.84 0.93 1.23 1.36 1.53 1.35 0.99 0.82 0.78 0.62 0.49 0.40 0.36 0.36 0.31 0.26 0.23 0.26 0.25 0.38 0.53 0.54 0.51 0.43 0.36 0.32 0.32 0.32 0.31
0.15 0.15 0.18 0.31 0.38 0.58 0.78 0.71 0.63 0.81 0.70 0.61 0.66 0.57 0.58 0.50 0.53 0.54 0.61 0.67 0.53 0.46 0.34 0.32 0.29 0.31 0.40 0.47 0.51 0.52 0.46 0.47 0.58 0.66 0.69 0.74 0.78 0.76 0.76 0.67 0.68 0.70 0.68
0.62 0.71 0.66 0.58 0.69 0.54 0.70 0.76 0.64 0.61 0.51 0.54 0.63 0.55 0.45 0.43 0.42 0.35 0.38 0.42 0.37 0.25 0.23 0.20 0.20 0.23 0.27 0.34 0.38 0.35 0.35 0.43 0.58 0.70 0.83 0.90 0.95 0.91 0.87 0.83 0.79 0.87 0.93
1.44 0.87 0.84 1.07 1.24 1.13 1.12 1.02 0.79 0.56 0.36 0.37 0.35 0.43 0.47 0.46 0.44 0.39 0.44 0.38 0.41 0.35 0.31 0.33 0.31 0.29 0.26 0.28 0.31 0.36 0.38 0.33 0.38 0.45 0.56 0.65 0.66 0.64 0.70 0.74 0.98 1.40 1.88
1.30 1.62 1.30 1.49 2.46 2.76 2.61 2.19 1.96 1.84 1.50 1.28 1.08 1.09 1.09 1.05 1.00 0.89 0.85 0.92 0.97 0.78 0.71 0.83 0.82 0.72 0.65 0.67 0.66 0.63 0.69 0.81 0.94 1.14 1.38 1.89 2.59 2.94 3.02 2.91 2.91 2.94 2.88
0.65 0.74 0.76 0.84 0.98 1.03 1.45 1.71 1.86 2.04 2.04 2.08 2.08 1.97 1.97 2.17 2.00 2.00 2.22 2.10 1.76 1.73 1.68 1.74 1.89 1.98 2.04 2.09 2.12 2.11 2.16 2.35 2.72 3.00 3.12 2.94 2.50 1.93 1.47 1.29 1.28 1.24 1.11
0.42 0.41 0.44 0.54 0.48 0.48 0.45 0.41 0.36 0.49 0.57 0.64 0.77 0.78 0.75 0.68 0.79 0.93 1.20 1.28 1.29 1.19 1.13 1.08 0.88 0.79 0.89 1.02 1.10 1.10 1.09 1.13 1.06 0.92 0.87 0.87 0.86 0.76 0.64 0.66 0.59 0.48 0.41
0.18 0.20 0.22 0.26 0.30 0.36 0.39 0.36 0.28 0.23 0.21 0.17 0.16 0.18 0.27 0.26 0.24 0.18 0.18 0.18 0.21 0.23 0.28 0.33 0.30 0.26 0.24 0.22 0.17 0.17 0.19 0.14 0.13 0.15 0.15 0.18 0.21 0.19 0.15 0.19 0.13 0.08 0.06
0.18 0.17 0.19 0.19 0.21 0.19 0.18 0.17 0.16 0.18 0.19 0.15 0.12 0.13 0.17 0.18 0.22 0.17 0.14 0.13 0.14 0.15 0.16 0.21 0.20 0.20 0.15 0.11 0.09 0.08 0.06 0.06 0.07 0.07 0.04 0.02 0.05 0.09 0.05 0.04 0.01 0.01 0.01
0.11 0.12 0.16 0.13 0.13 0.13 0.16 0.13 0.12 0.08 0.10 0.11 0.10 0.11 0.13 0.08 0.06 0.08 0.08 0.07 0.04 0.03 0.05 0.07 0.06 0.05 0.07 0.05 0.05 0.03 0.04 0.03 0.03 0.01 0.00 0.00 0.00 0.00 0.01 0.01 0.01 0.02 0.03
0.18 0.17 0.18 0.14 0.07 0.03 0.04 0.08 0.15 0.23 0.25 0.22 0.13 0.10 0.12 0.12 0.07 0.03 0.03 0.02 0.01 0.01 0.00 0.00 0.00 0.01 0.04 0.03 0.03 0.02 0.01 0.01 0.01 0.01 0.00 0.00 0.00 0.00 0.00 0.00 0.00 0.01 0.01

GFSGL_prec_precacc_051.txt.gz
Total_Precipitation_Accumulation
0.00 0.00 0.00 0.00 0.00 0.00 0.00 0.00 0.00 0.00 0.00 0.00 0.00 0.00 0.00 0.00 0.00 0.00 0.00 0.00 0.00 0.00 0.00 0.00 0.00 0.00 0.00 0.00 0.00 0.00 0.00 0.00 0.00 0.00 0.00 0.00 0.00 0.00 0.00 0.00 0.00 0.00 0.00
0.00 0.00 0.00 0.00 0.00 0.00 0.00 0.00 0.00 0.00 0.00 0.00 0.00 0.00 0.00 0.00 0.00 0.00 0.00 0.00 0.00 0.00 0.00 0.00 0.00 0.00 0.02 0.01 0.00 0.01 0.00 0.01 0.02 0.01 0.00 0.00 0.00 0.00 0.01 0.01 0.00 0.00 0.00
0.00 0.00 0.00 0.00 0.00 0.00 0.00 0.00 0.00 0.00 0.00 0.00 0.00 0.00 0.00 0.01 0.00 0.00 0.00 0.00 0.00 0.04 0.02 0.00 0.00 0.01 0.02 0.02 0.03 0.02 0.01 0.02 0.06 0.05 0.02 0.01 0.00 0.00 0.01 0.00 0.00 0.00 0.00
0.00 0.00 0.00 0.00 0.00 0.00 0.00 0.00 0.00 0.00 0.00 0.00 0.00 0.00 0.01 0.01 0.03 0.04 0.05 0.04 0.02 0.10 0.05 0.02 0.01 0.02 0.04 0.05 0.04 0.07 0.07 0.14 0.20 0.18 0.10 0.06 0.02 0.00 0.00 0.00 0.02 0.00 0.00
0.00 0.00 0.00 0.00 0.00 0.00 0.00 0.01 0.00 0.00 0.00 0.00 0.00 0.00 0.01 0.02 0.04 0.05 0.05 0.10 0.12 0.14 0.07 0.05 0.07 0.08 0.09 0.15 0.12 0.10 0.06 0.09 0.07 0.06 0.05 0.02 0.00 0.01 0.01 0.00 0.01 0.00 0.01
0.00 0.00 0.00 0.00 0.00 0.00 0.00 0.02 0.01 0.00 0.01 0.01 0.02 0.02 0.05 0.04 0.03 0.03 0.10 0.18 0.24 0.22 0.22 0.26 0.14 0.15 0.16 0.18 0.14 0.09 0.08 0.10 0.14 0.12 0.06 0.01 0.05 0.06 0.05 0.04 0.01 0.01 0.01
0.00 0.00 0.00 0.00 0.00 0.00 0.00 0.00 0.00 0.01 0.05 0.04 0.05 0.06 0.12 0.11 0.16 0.25 0.32 0.22 0.24 0.17 0.19 0.17 0.13 0.12 0.20 0.11 0.21 0.27 0.12 0.12 0.11 0.14 0.04 0.05 0.07 0.09 0.07 0.07 0.03 0.05 0.05
0.00 0.00 0.00 0.00 0.00 0.00 0.00 0.00 0.00 0.00 0.04 0.04 0.04 0.10 0.22 0.38 0.57 0.45 0.39 0.24 0.20 0.12 0.08 0.06 0.08 0.13 0.16 0.21 0.28 0.17 0.17 0.14 0.19 0.12 0.05 0.07 0.08 0.07 0.10 0.11 0.12 0.05 0.02
0.00 0.00 0.00 0.00 0.00 0.00 0.00 0.00 0.01 0.02 0.13 0.29 0.53 0.51 0.42 0.33 0.24 0.14 0.13 0.07 0.10 0.12 0.07 0.08 0.11 0.07 0.31 0.39 0.14 0.07 0.08 0.07 0.12 0.13 0.10 0.06 0.07 0.06 0.04 0.03 0.04 0.05 0.02
0.00 0.00 0.00 0.00 0.00 0.00 0.04 0.04 0.17 0.38 0.32 0.17 0.14 0.11 0.08 0.07 0.12 0.09 0.06 0.03 0.03 0.05 0.12 0.09 0.27 0.11 0.21 0.18 0.07 0.03 0.06 0.16 0.08 0.08 0.07 0.06 0.05 0.06 0.04 0.03 0.16 0.17 0.10
0.00 0.00 0.00 0.00 0.01 0.11 0.18 0.17 0.22 0.24 0.07 0.04 0.06 0.10 0.16 0.10 0.10 0.09 0.01 0.04 0.02 0.06 0.05 0.11 0.10 0.12 0.10 0.16 0.24 0.16 0.16 0.11 0.08 0.05 0.05 0.05 0.10 0.15 0.15 0.13 0.26 0.33 0.21
0.00 0.00 0.00 0.01 0.03 0.12 0.19 0.19 0.18 0.09 0.03 0.04 0.08 0.15 0.24 0.17 0.19 0.12 0.06 0.08 0.08 0.09 0.07 0.12 0.16 0.19 0.30 0.37 0.27 0.14 0.08 0.08 0.10 0.12 0.12 0.08 0.11 0.14 0.11 0.16 0.27 0.32 0.31
0.00 0.00 0.00 0.01 0.02 0.07 0.15 0.10 0.05 0.09 0.09 0.09 0.19 0.23 0.30 0.35 0.42 0.33 0.33 0.32 0.26 0.22 0.19 0.24 0.25 0.18 0.15 0.14 0.11 0.09 0.12 0.19 0.25 0.25 0.24 0.14 0.11 0.17 0.18 0.16 0.23 0.29 0.25
0.00 0.00 0.01 0.03 0.09 0.13 0.28 0.10 0.11 0.22 0.27 0.27 0.48 0.67 0.70 0.64 0.58 0.49 0.40 0.32 0.29 0.27 0.26 0.28 0.21 0.19 0.20 0.16 0.15 0.16 0.19 0.27 0.30 0.25 0.21 0.19 0.19 0.20 0.16 0.16 0.21 0.30 0.33
0.13 0.24 0.31 0.31 0.22 0.16 0.34 0.30 0.42 0.63 0.65 0.67 0.74 0.66 0.53 0.47 0.49 0.57 0.56 0.59 0.74 0.94 0.99 0.83 0.73 0.71 0.59 0.39 0.26 0.23 0.20 0.18 0.21 0.22 0.30 0.43 0.39 0.31 0.24 0.21 0.24 0.32 0.39
0.28 0.28 0.29 0.27 0.37 0.45 0.48 0.52 0.74 0.87 0.82 0.72 0.75 0.78 0.85 0.94 1.26 1.36 1.54 1.35 1.00 0.82 0.78 0.62 0.50 0.41 0.36 0.36 0.31 0.26 0.23 0.26 0.25 0.38 0.53 0.54 0.51 0.43 0.36 0.32 0.32 0.32 0.31
0.16 0.15 0.18 0.31 0.38 0.58 0.78 0.72 0.64 0.81 0.78 0.68 0.85 0.76 0.77 0.69 0.64 0.60 0.69 0.68 0.53 0.47 0.34 0.33 0.30 0.31 0.40 0.47 0.51 0.52 0.46 0.47 0.58 0.66 0.69 0.74 0.78 0.76 0.76 0.67 0.68 0.70 0.68
0.63 0.73 0.68 0.58 0.69 0.54 0.75 0.87 0.71 0.66 0.61 0.60 0.72 0.63 0.57 0.71 0.59 0.54 0.54 0.49 0.38 0.25 0.23 0.20 0.21 0.23 0.27 0.34 0.38 0.35 0.35 0.43 0.59 0.70 0.83 0.90 0.95 0.91 0.87 0.83 0.79 0.87 0.93
1.47 0.89 0.85 1.09 1.26 1.19 1.19 1.10 0.89 0.69 0.57 0.51 0.49 0.55 0.60 0.54 0.48 0.40 0.45 0.39 0.43 0.37 0.32 0.37 0.33 0.29 0.26 0.28 0.31 0.36 0.38 0.33 0.38 0.45 0.56 0.65 0.66 0.64 0.70 0.74 0.98 1.40 1.88
1.37 1.64 1.30 1.49 2.48 2.76 2.64 2.23 1.99 1.86 1.51 1.31 1.09 1.10 1.11 1.07 1.04 0.94 0.90 1.05 1.11 0.82 0.73 0.84 0.82 0.72 0.65 0.67 0.66 0.63 0.69 0.81 0.94 1.14 1.38 1.89 2.59 2.95 3.03 2.91 2.92 2.94 2.88
0.71 0.75 0.77 0.84 0.98 1.05 1.47 1.72 1.87 2.05 2.04 2.09 2.08 1.98 1.99 2.19 2.04 2.06 2.28 2.19 1.79 1.74 1.68 1.75 1.89 1.98 2.04 2.09 2.12 2.11 2.16 2.35 2.72 3.00 3.12 2.94 2.50 1.93 1.48 1.30 1.28 1.25 1.11
0.44 0.43 0.45 0.54 0.49 0.51 0.48 0.46 0.38 0.49 0.58 0.65 0.78 0.80 0.78 0.70 0.81 0.95 1.21 1.30 1.30 1.20 1.14 1.09 0.88 0.79 0.89 1.02 1.10 1.10 1.09 1.13 1.06 0.92 0.87 0.87 0.86 0.76 0.64 0.66 0.60 0.49 0.42
0.19 0.21 0.23 0.27 0.31 0.42 0.44 0.42 0.34 0.27 0.25 0.20 0.19 0.22 0.31 0.27 0.25 0.20 0.19 0.18 0.21 0.23 0.28 0.33 0.31 0.26 0.24 0.22 0.17 0.17 0.19 0.14 0.13 0.15 0.15 0.18 0.21 0.19 0.15 0.19 0.13 0.08 0.07
0.19 0.18 0.20 0.21 0.22 0.21 0.21 0.21 0.22 0.26 0.26 0.18 0.16 0.16 0.20 0.20 0.23 0.19 0.14 0.13 0.14 0.15 0.16 0.21 0.20 0.20 0.15 0.11 0.09 0.08 0.06 0.06 0.07 0.07 0.04 0.02 0.05 0.09 0.05 0.04 0.01 0.01 0.01
0.12 0.12 0.16 0.14 0.13 0.13 0.16 0.14 0.14 0.11 0.15 0.15 0.13 0.12 0.15 0.10 0.08 0.09 0.08 0.07 0.04 0.03 0.05 0.07 0.06 0.05 0.07 0.05 0.05 0.03 0.04 0.03 0.03 0.01 0.00 0.00 0.00 0.00 0.01 0.01 0.01 0.02 0.03
0.18 0.17 0.18 0.15 0.08 0.04 0.04 0.08 0.15 0.24 0.26 0.22 0.15 0.11 0.12 0.12 0.07 0.03 0.03 0.02 0.01 0.01 0.00 0.00 0.00 0.01 0.04 0.03 0.03 0.02 0.01 0.01 0.01 0.01 0.00 0.00 0.00 0.00 0.00 0.00 0.00 0.01 0.01

GFSGL_prec_precacc_054.txt.gz
Total_Precipitation_Accumulation
0.00 0.00 0.00 0.00 0.00 0.00 0.00 0.00 0.00 0.00 0.00 0.00 0.00 0.00 0.00 0.00 0.00 0.00 0.00 0.01 0.01 0.00 0.00 0.00 0.00 0.00 0.00 0.00 0.00 0.00 0.00 0.00 0.00 0.00 0.00 0.00 0.00 0.00 0.00 0.00 0.00 0.00 0.00
0.00 0.00 0.00 0.00 0.00 0.00 0.00 0.00 0.00 0.00 0.00 0.00 0.00 0.00 0.00 0.00 0.00 0.00 0.00 0.00 0.00 0.00 0.00 0.00 0.00 0.00 0.02 0.01 0.00 0.01 0.00 0.01 0.02 0.01 0.00 0.00 0.00 0.00 0.01 0.01 0.00 0.00 0.00
0.00 0.00 0.00 0.00 0.00 0.00 0.00 0.00 0.00 0.00 0.00 0.00 0.00 0.00 0.00 0.01 0.00 0.00 0.00 0.00 0.00 0.04 0.02 0.00 0.00 0.01 0.02 0.02 0.03 0.02 0.01 0.02 0.06 0.05 0.02 0.01 0.00 0.00 0.01 0.00 0.00 0.00 0.00
0.00 0.00 0.00 0.00 0.00 0.00 0.00 0.00 0.00 0.00 0.00 0.00 0.00 0.00 0.01 0.01 0.03 0.04 0.05 0.04 0.02 0.10 0.05 0.02 0.01 0.02 0.04 0.05 0.04 0.07 0.07 0.14 0.20 0.18 0.10 0.06 0.02 0.00 0.00 0.00 0.02 0.00 0.00
0.00 0.00 0.00 0.00 0.00 0.00 0.00 0.01 0.00 0.00 0.00 0.00 0.00 0.00 0.01 0.02 0.04 0.05 0.05 0.10 0.12 0.14 0.07 0.05 0.07 0.08 0.09 0.15 0.12 0.10 0.07 0.09 0.07 0.06 0.05 0.02 0.00 0.01 0.01 0.00 0.01 0.00 0.01
0.00 0.00 0.00 0.00 0.00 0.00 0.00 0.02 0.01 0.00 0.01 0.01 0.02 0.02 0.05 0.04 0.03 0.03 0.10 0.18 0.24 0.22 0.22 0.26 0.14 0.15 0.16 0.18 0.14 0.09 0.08 0.10 0.14 0.12 0.06 0.01 0.05 0.06 0.05 0.04 0.01 0.01 0.01
0.00 0.00 0.00 0.00 0.00 0.00 0.00 0.00 0.00 0.01 0.05 0.04 0.05 0.06 0.12 0.11 0.16 0.25 0.32 0.22 0.24 0.17 0.19 0.17 0.13 0.12 0.20 0.11 0.21 0.27 0.12 0.12 0.11 0.14 0.04 0.05 0.07 0.09 0.07 0.07 0.03 0.05 0.06
0.00 0.00 0.00 0.00 0.00 0.00 0.00 0.00 0.00 0.00 0.04 0.04 0.04 0.10 0.22 0.38 0.57 0.45 0.39 0.24 0.20 0.12 0.08 0.06 0.08 0.13 0.16 0.21 0.28 0.17 0.17 0.14 0.19 0.12 0.05 0.07 0.08 0.07 0.10 0.11 0.13 0.06 0.03
0.00 0.00 0.00 0.00 0.00 0.00 0.00 0.00 0.01 0.02 0.13 0.29 0.53 0.51 0.42 0.33 0.24 0.14 0.13 0.07 0.10 0.12 0.07 0.08 0.11 0.07 0.31 0.39 0.14 0.07 0.08 0.07 0.12 0.13 0.10 0.06 0.07 0.06 0.04 0.03 0.04 0.05 0.03
0.00 0.00 0.00 0.00 0.00 0.00 0.04 0.04 0.17 0.38 0.32 0.17 0.14 0.11 0.08 0.07 0.12 0.09 0.06 0.03 0.03 0.05 0.12 0.09 0.27 0.11 0.21 0.18 0.07 0.03 0.06 0.16 0.08 0.08 0.07 0.06 0.05 0.07 0.04 0.03 0.17 0.18 0.12
0.00 0.00 0.00 0.00 0.01 0.11 0.18 0.17 0.22 0.24 0.07 0.04 0.06 0.10 0.16 0.10 0.10 0.09 0.01 0.04 0.02 0.06 0.05 0.11 0.10 0.12 0.10 0.16 0.24 0.16 0.16 0.11 0.08 0.05 0.05 0.05 0.11 0.18 0.18 0.16 0.29 0.39 0.23
0.00 0.00 0.00 0.01 0.03 0.12 0.19 0.19 0.18 0.09 0.03 0.04 0.08 0.15 0.24 0.17 0.19 0.12 0.06 0.08 0.08 0.09 0.07 0.12 0.16 0.19 0.30 0.37 0.27 0.14 0.08 0.08 0.10 0.12 0.12 0.08 0.11 0.14 0.12 0.17 0.28 0.33 0.33
0.00 0.00 0.00 0.01 0.02 0.07 0.15 0.11 0.05 0.09 0.10 0.09 0.19 0.23 0.30 0.35 0.42 0.33 0.33 0.32 0.26 0.22 0.19 0.24 0.26 0.18 0.15 0.14 0.11 0.09 0.12 0.19 0.25 0.26 0.24 0.14 0.12 0.17 0.18 0.16 0.24 0.31 0.29
0.00 0.00 0.01 0.03 0.09 0.13 0.28 0.11 0.11 0.22 0.27 0.27 0.48 0.67 0.70 0.64 0.58 0.49 0.40 0.32 0.29 0.27 0.26 0.28 0.21 0.19 0.20 0.17 0.16 0.16 0.19 0.27 0.31 0.25 0.21 0.19 0.19 0.20 0.16 0.16 0.22 0.31 0.33
0.13 0.24 0.31 0.31 0.23 0.17 0.34 0.30 0.42 0.63 0.65 0.67 0.74 0.66 0.53 0.47 0.49 0.57 0.56 0.59 0.74 0.94 0.99 0.83 0.73 0.71 0.59 0.39 0.26 0.24 0.21 0.18 0.21 0.22 0.30 0.43 0.40 0.31 0.24 0.22 0.25 0.32 0.39
0.28 0.28 0.29 0.27 0.37 0.45 0.49 0.52 0.74 0.87 0.83 0.72 0.75 0.78 0.85 0.94 1.26 1.36 1.54 1.35 1.02 0.84 0.79 0.62 0.50 0.41 0.36 0.36 0.31 0.26 0.24 0.27 0.26 0.38 0.53 0.54 0.51 0.43 0.36 0.32 0.32 0.32 0.31
0.16 0.15 0.18 0.31 0.38 0.58 0.78 0.72 0.64 0.82 0.79 0.69 0.85 0.76 0.77 0.70 0.66 0.62 0.72 0.71 0.59 0.64 0.39 0.34 0.30 0.31 0.40 0.47 0.51 0.52 0.46 0.47 0.59 0.66 0.69 0.74 0.78 0.76 0.76 0.67 0.68 0.70 0.68
0.66 0.74 0.68 0.58 0.69 0.55 0.75 0.87 0.72 0.66 0.62 0.62 0.74 0.65 0.59 0.74 0.61 0.61 0.71 0.89 0.73 0.55 0.31 0.26 0.25 0.24 0.27 0.34 0.38 0.35 0.35 0.43 0.59 0.70 0.83 0.90 0.95 0.91 0.87 0.83 0.79 0.87 0.93
1.57 1.02 0.93 1.22 1.39 1.25 1.20 1.11 0.94 0.72 0.66 0.69 0.65 0.72 0.71 0.61 0.58 0.51 0.57 0.55 0.55 0.58 0.40 0.47 0.46 0.34 0.31 0.31 0.33 0.38 0.39 0.34 0.38 0.45 0.56 0.65 0.66 0.64 0.70 0.74 0.98 1.40 1.88
1.51 1.84 1.41 1.84 2.94 3.13 2.76 2.31 2.16 1.96 1.56 1.33 1.17 1.25 1.18 1.11 1.13 1.18 1.30 1.38 1.68 1.36 1.15 1.11 1.04 0.88 0.76 0.73 0.69 0.65 0.69 0.82 0.94 1.14 1.38 1.89 2.59 2.95 3.03 2.91 2.92 2.94 2.88
0.92 1.06 0.99 1.02 1.13 1.24 1.67 1.85 1.97 2.07 2.06 2.11 2.11 2.00 2.00 2.20 2.08 2.18 2.49 2.64 2.64 2.64 2.38 2.04 2.03 2.06 2.08 2.11 2.14 2.11 2.16 2.35 2.72 3.00 3.12 2.94 2.50 1.93 1.48 1.30 1.28 1.25 1.12
0.61 0.63 0.61 0.70 0.62 0.64 0.53 0.46 0.38 0.49 0.58 0.66 0.79 0.80 0.79 0.72 0.82 0.96 1.23 1.34 1.41 1.37 1.31 1.17 0.91 0.80 0.90 1.03 1.10 1.10 1.09 1.13 1.06 0.92 0.87 0.87 0.86 0.76 0.64 0.66 0.60 0.49 0.43
0.26 0.36 0.43 0.45 0.41 0.46 0.46 0.42 0.35 0.28 0.25 0.20 0.19 0.22 0.32 0.28 0.27 0.21 0.22 0.25 0.28 0.31 0.34 0.35 0.31 0.26 0.24 0.22 0.17 0.17 0.19 0.14 0.13 0.15 0.15 0.18 0.21 0.19 0.15 0.19 0.13 0.09 0.08
0.20 0.21 0.27 0.33 0.41 0.34 0.28 0.23 0.23 0.28 0.29 0.21 0.16 0.17 0.21 0.21 0.26 0.22 0.16 0.14 0.14 0.15 0.17 0.22 0.20 0.20 0.15 0.11 0.09 0.08 0.06 0.06 0.07 0.07 0.04 0.02 0.05 0.09 0.05 0.04 0.01 0.01 0.01
0.14 0.13 0.17 0.16 0.19 0.40 0.46 0.35 0.29 0.21 0.23 0.22 0.19 0.16 0.16 0.11 0.09 0.12 0.10 0.07 0.05 0.03 0.05 0.07 0.06 0.05 0.08 0.05 0.05 0.03 0.04 0.03 0.03 0.01 0.00 0.00 0.00 0.00 0.01 0.01 0.01 0.02 0.03
0.20 0.19 0.21 0.16 0.10 0.05 0.09 0.17 0.23 0.31 0.33 0.32 0.25 0.20 0.20 0.18 0.11 0.05 0.05 0.03 0.02 0.01 0.00 0.01 0.00 0.01 0.04 0.03 0.03 0.02 0.01 0.01 0.01 0.01 0.00 0.00 0.00 0.00 0.00 0.00 0.00 0.01 0.01

GFSGL_prec_precacc_057.txt.gz
Total_Precipitation_Accumulation
0.00 0.00 0.00 0.00 0.00 0.00 0.00 0.00 0.00 0.00 0.00 0.00 0.00 0.00 0.00 0.00 0.00 0.00 0.00 0.01 0.01 0.00 0.00 0.00 0.00 0.00 0.00 0.00 0.00 0.00 0.00 0.00 0.00 0.00 0.00 0.00 0.00 0.00 0.00 0.00 0.00 0.00 0.01
0.00 0.00 0.00 0.00 0.00 0.00 0.00 0.00 0.00 0.00 0.00 0.00 0.00 0.00 0.00 0.00 0.00 0.00 0.00 0.00 0.00 0.00 0.00 0.00 0.00 0.00 0.02 0.01 0.00 0.01 0.00 0.01 0.02 0.01 0.00 0.00 0.00 0.00 0.01 0.01 0.00 0.00 0.01
0.00 0.00 0.00 0.00 0.00 0.00 0.00 0.00 0.00 0.00 0.00 0.00 0.00 0.00 0.00 0.01 0.00 0.00 0.00 0.00 0.00 0.04 0.02 0.00 0.00 0.01 0.02 0.02 0.03 0.02 0.01 0.02 0.06 0.05 0.02 0.01 0.00 0.00 0.01 0.00 0.00 0.00 0.00
0.00 0.00 0.00 0.00 0.00 0.00 0.00 0.00 0.00 0.00 0.00 0.00 0.00 0.00 0.01 0.01 0.03 0.04 0.05 0.04 0.02 0.10 0.05 0.02 0.01 0.02 0.04 0.05 0.04 0.07 0.07 0.14 0.20 0.18 0.10 0.06 0.02 0.00 0.00 0.00 0.02 0.00 0.00
0.00 0.00 0.00 0.00 0.00 0.00 0.00 0.01 0.00 0.00 0.00 0.00 0.00 0.00 0.01 0.02 0.04 0.05 0.05 0.10 0.12 0.14 0.07 0.05 0.07 0.08 0.09 0.15 0.12 0.10 0.07 0.09 0.07 0.06 0.05 0.02 0.00 0.01 0.01 0.00 0.01 0.00 0.01
0.00 0.00 0.00 0.00 0.00 0.00 0.00 0.02 0.01 0.00 0.01 0.01 0.02 0.02 0.05 0.04 0.03 0.03 0.10 0.18 0.24 0.22 0.22 0.26 0.14 0.15 0.16 0.18 0.14 0.09 0.08 0.10 0.14 0.12 0.06 0.01 0.05 0.06 0.05 0.04 0.01 0.01 0.01
0.00 0.00 0.00 0.00 0.00 0.00 0.00 0.00 0.00 0.01 0.05 0.04 0.05 0.06 0.12 0.11 0.16 0.25 0.32 0.22 0.24 0.17 0.19 0.17 0.13 0.12 0.20 0.11 0.21 0.27 0.12 0.12 0.11 0.14 0.04 0.05 0.07 0.09 0.07 0.07 0.03 0.05 0.06
0.00 0.00 0.00 0.00 0.00 0.00 0.00 0.00 0.00 0.00 0.04 0.04 0.04 0.10 0.22 0.38 0.57 0.45 0.39 0.24 0.20 0.12 0.08 0.06 0.08 0.13 0.16 0.21 0.28 0.17 0.17 0.14 0.19 0.12 0.05 0.07 0.08 0.07 0.10 0.11 0.13 0.06 0.03
0.00 0.00 0.00 0.00 0.00 0.00 0.00 0.00 0.01 0.02 0.13 0.29 0.53 0.51 0.42 0.33 0.24 0.14 0.13 0.07 0.10 0.12 0.07 0.08 0.11 0.07 0.31 0.39 0.14 0.07 0.08 0.07 0.12 0.13 0.10 0.06 0.07 0.06 0.04 0.03 0.04 0.05 0.03
0.00 0.00 0.00 0.00 0.00 0.00 0.04 0.04 0.17 0.38 0.32 0.17 0.14 0.11 0.08 0.07 0.12 0.09 0.06 0.03 0.03 0.05 0.12 0.09 0.27 0.11 0.21 0.18 0.07 0.03 0.06 0.16 0.08 0.08 0.07 0.06 0.05 0.07 0.04 0.03 0.17 0.18 0.12
0.01 0.00 0.00 0.00 0.01 0.11 0.18 0.17 0.22 0.24 0.07 0.04 0.06 0.10 0.16 0.10 0.10 0.09 0.01 0.04 0.02 0.06 0.05 0.11 0.10 0.12 0.10 0.16 0.24 0.16 0.16 0.11 0.08 0.05 0.05 0.05 0.11 0.18 0.19 0.16 0.29 0.39 0.23
0.04 0.03 0.00 0.01 0.03 0.12 0.19 0.19 0.18 0.09 0.03 0.04 0.08 0.15 0.24 0.17 0.19 0.12 0.06 0.08 0.08 0.09 0.07 0.12 0.16 0.19 0.30 0.37 0.27 0.14 0.08 0.08 0.10 0.12 0.12 0.08 0.11 0.14 0.12 0.17 0.28 0.35 0.34
0.00 0.05 0.03 0.01 0.02 0.07 0.15 0.11 0.05 0.09 0.10 0.09 0.19 0.23 0.30 0.35 0.42 0.33 0.33 0.32 0.26 0.22 0.19 0.24 0.26 0.18 0.15 0.14 0.11 0.09 0.12 0.19 0.25 0.26 0.24 0.14 0.12 0.17 0.18 0.16 0.24 0.31 0.30
0.00 0.00 0.02 0.03 0.09 0.13 0.28 0.11 0.11 0.22 0.27 0.27 0.48 0.67 0.70 0.64 0.58 0.49 0.40 0.33 0.29 0.27 0.26 0.28 0.21 0.19 0.20 0.17 0.16 0.16 0.19 0.27 0.31 0.25 0.21 0.19 0.19 0.20 0.16 0.16 0.22 0.31 0.33
0.13 0.24 0.31 0.31 0.23 0.17 0.34 0.30 0.42 0.63 0.65 0.67 0.74 0.66 0.53 0.47 0.49 0.57 0.56 0.60 0.74 0.94 0.99 0.83 0.73 0.71 0.59 0.39 0.26 0.24 0.21 0.18 0.21 0.22 0.31 0.43 0.40 0.31 0.24 0.22 0.25 0.32 0.39
0.28 0.28 0.29 0.27 0.37 0.45 0.49 0.53 0.74 0.87 0.83 0.72 0.75 0.78 0.85 0.94 1.26 1.37 1.54 1.35 1.02 0.84 0.79 0.62 0.50 0.41 0.36 0.36 0.31 0.26 0.24 0.27 0.26 0.39 0.54 0.55 0.51 0.43 0.36 0.32 0.32 0.32 0.31
0.17 0.15 0.18 0.31 0.38 0.58 0.78 0.72 0.64 0.82 0.79 0.69 0.85 0.77 0.77 0.70 0.66 0.62 0.72 0.71 0.59 0.64 0.39 0.34 0.30 0.31 0.41 0.48 0.51 0.53 0.47 0.48 0.59 0.66 0.69 0.74 0.78 0.76 0.76 0.67 0.68 0.70 0.68
0.69 0.78 0.69 0.58 0.69 0.55 0.75 0.87 0.72 0.67 0.64 0.62 0.74 0.66 0.60 0.74 0.62 0.61 0.72 0.93 0.76 0.59 0.40 0.36 0.34 0.41 0.45 0.49 0.50 0.48 0.44 0.50 0.61 0.71 0.83 0.90 0.95 0.91 0.87 0.83 0.79 0.87 0.93
1.62 1.09 0.99 1.27 1.44 1.28 1.21 1.12 0.94 0.77 0.71 0.71 0.67 0.77 0.77 0.65 0.61 0.54 0.65 0.65 0.71 0.79 0.67 0.76 0.71 0.64 0.62 0.64 0.76 0.72 0.59 0.49 0.44 0.47 0.56 0.66 0.66 0.64 0.70 0.74 0.98 1.40 1.88
1.53 1.87 1.44 1.90 3.18 3.41 3.05 2.42 2.18 1.98 1.61 1.46 1.31 1.44 1.32 1.19 1.19 1.23 1.46 1.55 1.76 1.44 1.30 1.37 1.29 1.15 1.18 1.16 1.05 0.87 0.86 0.94 1.01 1.18 1.40 1.90 2.60 2.95 3.03 2.91 2.92 2.94 2.88
0.98 1.12 1.10 1.14 1.26 1.40 2.00 2.36 2.41 2.31 2.17 2.23 2.28 2.19 2.14 2.28 2.13 2.20 2.51 2.68 2.69 2.72 2.61 2.54 2.82 2.77 2.59 2.48 2.36 2.24 2.22 2.41 2.75 3.03 3.14 2.94 2.50 1.93 1.48 1.30 1.28 1.25 1.12
0.78 0.77 0.77 0.88 0.81 0.80 0.66 0.80 1.26 1.24 0.95 0.89 0.96 0.93 0.91 0.79 0.85 0.96 1.23 1.35 1.43 1.39 1.38 1.38 1.16 1.10 1.20 1.24 1.24 1.20 1.16 1.18 1.09 0.94 0.88 0.87 0.86 0.76 0.64 0.66 0.60 0.49 0.43
0.32 0.58 0.62 0.66 0.62 0.72 0.69 0.69 0.61 0.70 1.00 0.71 0.30 0.27 0.33 0.28 0.27 0.21 0.22 0.25 0.29 0.32 0.35 0.37 0.33 0.29 0.29 0.31 0.25 0.23 0.23 0.17 0.15 0.15 0.15 0.18 0.21 0.19 0.15 0.19 0.13 0.09 0.08
0.23 0.30 0.46 0.52 0.59 0.46 0.40 0.34 0.34 0.39 0.36 0.33 0.21 0.19 0.22 0.21 0.26 0.22 0.16 0.15 0.15 0.16 0.17 0.24 0.24 0.23 0.19 0.16 0.11 0.09 0.07 0.07 0.07 0.07 0.04 0.02 0.05 0.09 0.05 0.04 0.01 0.01 0.01
0.15 0.14 0.19 0.25 0.33 0.60 0.70 0.46 0.33 0.28 0.27 0.25 0.22 0.19 0.17 0.11 0.10 0.12 0.11 0.09 0.06 0.05 0.07 0.09 0.08 0.06 0.10 0.06 0.05 0.04 0.04 0.03 0.03 0.01 0.00 0.00 0.00 0.00 0.01 0.01 0.01 0.02 0.03
0.20 0.19 0.21 0.16 0.11 0.11 0.38 0.68 0.82 0.74 0.71 0.62 0.40 0.29 0.26 0.23 0.15 0.07 0.06 0.04 0.04 0.03 0.02 0.03 0.03 0.03 0.06 0.06 0.04 0.02 0.01 0.01 0.01 0.01 0.00 0.00 0.00 0.00 0.00 0.00 0.00 0.01 0.01

GFSGL_prec_precacc_060.txt.gz
Total_Precipitation_Accumulation
0.00 0.00 0.00 0.00 0.00 0.00 0.00 0.00 0.00 0.00 0.00 0.00 0.00 0.00 0.00 0.00 0.00 0.00 0.00 0.01 0.01 0.00 0.00 0.00 0.00 0.00 0.00 0.00 0.00 0.00 0.00 0.00 0.00 0.00 0.00 0.00 0.00 0.00 0.00 0.00 0.00 0.00 0.01
0.00 0.00 0.00 0.00 0.00 0.00 0.00 0.00 0.00 0.00 0.00 0.00 0.00 0.00 0.00 0.00 0.00 0.00 0.00 0.00 0.00 0.00 0.00 0.00 0.00 0.00 0.02 0.01 0.00 0.01 0.00 0.01 0.02 0.01 0.00 0.00 0.00 0.00 0.01 0.01 0.00 0.00 0.01
0.00 0.00 0.00 0.00 0.00 0.00 0.00 0.00 0.00 0.00 0.00 0.00 0.00 0.00 0.00 0.01 0.00 0.00 0.00 0.00 0.00 0.04 0.02 0.00 0.00 0.01 0.02 0.02 0.03 0.02 0.01 0.02 0.06 0.05 0.02 0.01 0.00 0.00 0.01 0.00 0.00 0.00 0.00
0.00 0.00 0.00 0.00 0.00 0.00 0.00 0.00 0.00 0.00 0.00 0.00 0.00 0.00 0.01 0.01 0.03 0.04 0.05 0.04 0.02 0.10 0.05 0.02 0.01 0.02 0.04 0.05 0.04 0.07 0.07 0.14 0.20 0.18 0.10 0.06 0.02 0.00 0.00 0.00 0.02 0.00 0.00
0.00 0.00 0.00 0.00 0.00 0.00 0.00 0.01 0.00 0.00 0.00 0.00 0.00 0.00 0.01 0.02 0.04 0.05 0.05 0.10 0.12 0.14 0.07 0.05 0.07 0.08 0.09 0.15 0.12 0.10 0.07 0.09 0.07 0.06 0.05 0.02 0.00 0.01 0.01 0.00 0.01 0.00 0.01
0.00 0.00 0.00 0.00 0.00 0.00 0.00 0.02 0.01 0.00 0.01 0.01 0.02 0.02 0.05 0.04 0.03 0.03 0.10 0.18 0.24 0.22 0.22 0.26 0.14 0.15 0.16 0.18 0.14 0.09 0.08 0.10 0.14 0.12 0.06 0.01 0.05 0.06 0.05 0.04 0.01 0.01 0.01
0.01 0.00 0.00 0.00 0.00 0.00 0.00 0.00 0.00 0.01 0.05 0.04 0.05 0.06 0.12 0.11 0.16 0.25 0.32 0.22 0.24 0.17 0.19 0.17 0.13 0.12 0.20 0.11 0.21 0.27 0.12 0.12 0.11 0.14 0.04 0.05 0.07 0.09 0.07 0.07 0.03 0.05 0.06
0.08 0.01 0.00 0.00 0.00 0.00 0.00 0.00 0.00 0.00 0.04 0.04 0.04 0.10 0.22 0.38 0.57 0.45 0.39 0.24 0.20 0.12 0.08 0.06 0.08 0.13 0.16 0.21 0.28 0.17 0.17 0.14 0.19 0.12 0.05 0.07 0.08 0.07 0.10 0.11 0.13 0.06 0.04
0.05 0.02 0.00 0.00 0.00 0.00 0.00 0.00 0.01 0.02 0.13 0.29 0.53 0.51 0.42 0.33 0.24 0.14 0.13 0.07 0.10 0.12 0.07 0.08 0.11 0.07 0.31 0.39 0.14 0.07 0.08 0.07 0.12 0.13 0.10 0.06 0.07 0.06 0.04 0.03 0.04 0.06 0.04
0.07 0.02 0.04 0.00 0.00 0.00 0.04 0.04 0.17 0.38 0.32 0.17 0.14 0.11 0.08 0.07 0.12 0.09 0.06 0.03 0.03 0.05 0.12 0.09 0.27 0.11 0.21 0.18 0.07 0.03 0.06 0.16 0.08 0.08 0.07 0.06 0.05 0.07 0.04 0.03 0.17 0.19 0.13
0.11 0.10 0.07 0.00 0.01 0.11 0.18 0.17 0.22 0.24 0.07 0.04 0.06 0.10 0.16 0.10 0.10 0.09 0.01 0.04 0.02 0.06 0.05 0.11 0.10 0.12 0.10 0.16 0.24 0.16 0.16 0.11 0.08 0.05 0.05 0.05 0.11 0.18 0.19 0.16 0.29 0.39 0.24
0.10 0.11 0.04 0.01 0.04 0.12 0.19 0.19 0.18 0.09 0.03 0.04 0.08 0.15 0.24 0.17 0.19 0.12 0.06 0.08 0.08 0.09 0.07 0.12 0.16 0.19 0.30 0.37 0.27 0.14 0.08 0.08 0.10 0.12 0.12 0.08 0.11 0.14 0.12 0.17 0.29 0.35 0.35
0.06 0.09 0.09 0.06 0.03 0.07 0.15 0.11 0.05 0.09 0.10 0.09 0.19 0.23 0.30 0.35 0.42 0.33 0.33 0.32 0.26 0.22 0.19 0.24 0.26 0.18 0.15 0.14 0.11 0.09 0.12 0.19 0.25 0.26 0.24 0.14 0.12 0.17 0.18 0.16 0.24 0.31 0.30
0.11 0.06 0.09 0.17 0.17 0.17 0.29 0.16 0.12 0.22 0.27 0.27 0.48 0.67 0.70 0.64 0.58 0.49 0.40 0.33 0.29 0.27 0.26 0.29 0.21 0.19 0.20 0.17 0.16 0.16 0.19 0.27 0.31 0.25 0.21 0.19 0.19 0.20 0.16 0.16 0.22 0.31 0.34
0.13 0.28 0.39 0.41 0.36 0.26 0.39 0.34 0.44 0.64 0.66 0.67 0.74 0.66 0.53 0.47 0.49 0.57 0.56 0.60 0.74 0.95 1.08 0.86 0.73 0.71 0.59 0.39 0.26 0.24 0.21 0.18 0.21 0.22 0.31 0.43 0.40 0.32 0.25 0.22 0.25 0.32 0.39
0.28 0.28 0.30 0.32 0.42 0.48 0.52 0.53 0.75 0.89 0.84 0.73 0.78 0.78 0.85 0.94 1.26 1.37 1.54 1.35 1.02 0.88 0.87 0.62 0.50 0.41 0.36 0.36 0.31 0.26 0.24 0.27 0.26 0.39 0.55 0.56 0.53 0.44 0.36 0.32 0.32 0.32 0.31
0.17 0.15 0.18 0.31 0.38 0.58 0.78 0.72 0.64 0.83 0.79 0.69 0.85 0.77 0.77 0.70 0.66 0.63 0.75 0.74 0.61 0.70 0.40 0.34 0.30 0.32 0.41 0.48 0.52 0.53 0.47 0.49 0.61 0.73 0.81 0.88 0.84 0.77 0.76 0.67 0.68 0.70 0.68
0.69 0.78 0.69 0.58 0.69 0.55 0.75 0.87 0.72 0.67 0.64 0.62 0.74 0.66 0.60 0.74 0.62 0.62 0.78 1.00 0.78 0.60 0.40 0.37 0.34 0.41 0.47 0.50 0.52 0.55 0.55 0.66 0.87 1.03 1.15 1.10 1.05 0.93 0.87 0.83 0.79 0.87 0.93
1.62 1.09 1.00 1.30 1.46 1.30 1.25 1.16 0.95 0.77 0.71 0.71 0.67 0.78 0.78 0.69 0.63 0.56 0.68 0.66 0.72 0.79 0.68 0.76 0.71 0.66 0.65 0.65 0.80 1.01 1.16 1.15 1.16 1.12 0.97 0.87 0.83 0.72 0.74 0.76 0.98 1.40 1.88
1.53 1.88 1.45 1.93 3.27 3.55 3.25 2.58 2.21 1.99 1.62 1.47 1.32 1.45 1.41 1.29 1.26 1.34 1.60 1.64 1.77 1.44 1.30 1.39 1.35 1.24 1.27 1.22 1.17 1.15 1.18 1.25 1.32 1.50 1.65 2.07 2.70 2.98 3.04 2.92 2.92 2.94 2.88
0.98 1.13 1.10 1.14 1.29 1.45 2.14 2.60 2.55 2.38 2.23 2.33 2.33 2.28 2.33 2.43 2.33 2.53 2.76 2.83 2.75 2.76 2.68 2.69 2.97 2.91 2.69 2.56 2.41 2.28 2.27 2.44 2.78 3.05 3.17 2.98 2.53 1.97 1.51 1.30 1.28 1.25 1.12
0.78 0.78 0.77 0.89 0.81 0.82 0.70 0.87 1.40 1.32 1.07 1.04 1.17 1.29 1.37 1.09 1.12 1.19 1.37 1.54 1.63 1.59 1.57 1.53 1.30 1.23 1.28 1.27 1.25 1.21 1.16 1.18 1.09 0.95 0.90 0.90 0.89 0.78 0.65 0.67 0.60 0.49 0.43
0.35 0.61 0.66 0.69 0.64 0.74 0.76 0.80 0.74 0.84 1.16 1.13 0.83 0.66 0.63 0.49 0.45 0.35 0.30 0.36 0.41 0.44 0.45 0.45 0.38 0.32 0.30 0.31 0.26 0.23 0.23 0.17 0.15 0.15 0.17 0.20 0.22 0.19 0.15 0.19 0.13 0.09 0.08
0.31 0.37 0.52 0.59 0.64 0.52 0.48 0.46 0.53 0.53 0.47 0.47 0.44 0.44 0.41 0.34 0.34 0.29 0.19 0.16 0.17 0.18 0.19 0.26 0.25 0.23 0.20 0.18 0.14 0.11 0.08 0.07 0.08 0.08 0.05 0.03 0.05 0.09 0.05 0.04 0.01 0.01 0.01
0.23 0.22 0.27 0.40 0.59 0.73 0.79 0.56 0.45 0.46 0.41 0.31 0.28 0.27 0.24 0.17 0.16 0.16 0.12 0.09 0.06 0.05 0.07 0.10 0.08 0.07 0.10 0.07 0.06 0.04 0.04 0.04 0.04 0.01 0.00 0.00 0.00 0.00 0.01 0.01 0.01 0.02 0.03
0.58 0.36 0.28 0.21 0.27 0.55 0.99 1.12 1.04 1.03 0.93 0.82 0.50 0.36 0.34 0.35 0.27 0.18 0.14 0.10 0.07 0.05 0.03 0.04 0.04 0.04 0.06 0.07 0.05 0.03 0.02 0.01 0.01 0.01 0.00 0.00 0.00 0.00 0.00 0.00 0.00 0.01 0.01

GFSGL_prec_precacc_063.txt.gz
Total_Precipitation_Accumulation
0.00 0.00 0.00 0.00 0.00 0.00 0.00 0.00 0.00 0.00 0.00 0.00 0.00 0.00 0.01 0.00 0.00 0.00 0.00 0.01 0.01 0.00 0.00 0.00 0.00 0.00 0.00 0.00 0.00 0.00 0.00 0.00 0.00 0.00 0.00 0.00 0.00 0.00 0.00 0.00 0.00 0.00 0.01
0.00 0.00 0.00 0.00 0.00 0.00 0.00 0.00 0.00 0.00 0.00 0.01 0.00 0.00 0.00 0.00 0.00 0.00 0.00 0.00 0.00 0.00 0.00 0.00 0.00 0.00 0.02 0.01 0.00 0.01 0.00 0.01 0.02 0.01 0.00 0.00 0.00 0.00 0.01 0.01 0.00 0.00 0.01
0.00 0.00 0.00 0.00 0.00 0.00 0.00 0.00 0.00 0.00 0.00 0.00 0.00 0.00 0.00 0.01 0.00 0.00 0.00 0.00 0.00 0.04 0.02 0.00 0.00 0.01 0.02 0.02 0.03 0.02 0.01 0.02 0.06 0.05 0.02 0.01 0.00 0.00 0.01 0.00 0.00 0.00 0.00
0.00 0.00 0.00 0.00 0.00 0.00 0.00 0.00 0.00 0.00 0.00 0.00 0.00 0.00 0.01 0.01 0.03 0.04 0.05 0.04 0.02 0.10 0.05 0.02 0.01 0.02 0.04 0.05 0.04 0.07 0.07 0.14 0.20 0.18 0.10 0.06 0.02 0.00 0.00 0.00 0.02 0.00 0.00
0.01 0.00 0.00 0.00 0.00 0.00 0.00 0.01 0.00 0.00 0.00 0.00 0.00 0.00 0.01 0.02 0.04 0.05 0.05 0.10 0.12 0.14 0.07 0.05 0.07 0.08 0.09 0.15 0.12 0.10 0.07 0.09 0.07 0.06 0.05 0.02 0.00 0.01 0.01 0.00 0.01 0.00 0.01
0.00 0.01 0.02 0.00 0.00 0.00 0.00 0.02 0.01 0.00 0.01 0.01 0.02 0.02 0.05 0.04 0.03 0.03 0.10 0.18 0.24 0.22 0.22 0.26 0.14 0.15 0.16 0.18 0.14 0.09 0.08 0.10 0.14 0.12 0.06 0.01 0.05 0.06 0.05 0.04 0.01 0.01 0.01
0.01 0.01 0.01 0.01 0.00 0.00 0.00 0.00 0.00 0.01 0.05 0.04 0.05 0.06 0.12 0.11 0.16 0.25 0.32 0.22 0.24 0.17 0.19 0.17 0.13 0.12 0.20 0.11 0.21 0.27 0.12 0.12 0.11 0.14 0.04 0.05 0.07 0.09 0.07 0.07 0.03 0.05 0.06
0.08 0.01 0.00 0.00 0.01 0.01 0.00 0.00 0.00 0.00 0.04 0.04 0.04 0.10 0.22 0.38 0.57 0.45 0.39 0.24 0.20 0.12 0.08 0.06 0.08 0.13 0.16 0.21 0.28 0.17 0.17 0.14 0.19 0.12 0.05 0.07 0.08 0.07 0.10 0.11 0.13 0.06 0.04
0.06 0.02 0.00 0.00 0.00 0.00 0.00 0.00 0.01 0.02 0.13 0.29 0.53 0.51 0.42 0.33 0.24 0.14 0.13 0.07 0.10 0.12 0.07 0.08 0.11 0.07 0.31 0.39 0.14 0.07 0.08 0.07 0.12 0.13 0.10 0.06 0.07 0.06 0.04 0.03 0.04 0.06 0.05
0.07 0.02 0.04 0.01 0.00 0.00 0.04 0.05 0.18 0.38 0.32 0.17 0.14 0.11 0.08 0.07 0.12 0.09 0.06 0.03 0.03 0.05 0.12 0.09 0.27 0.11 0.21 0.18 0.07 0.03 0.06 0.16 0.08 0.08 0.07 0.06 0.05 0.07 0.04 0.03 0.17 0.20 0.13
0.11 0.10 0.07 0.03 0.04 0.14 0.24 0.21 0.25 0.25 0.07 0.04 0.06 0.10 0.16 0.10 0.10 0.09 0.01 0.04 0.02 0.06 0.05 0.11 0.10 0.12 0.10 0.16 0.24 0.16 0.16 0.11 0.08 0.05 0.05 0.05 0.11 0.18 0.19 0.16 0.29 0.39 0.25
0.10 0.11 0.04 0.03 0.08 0.19 0.22 0.22 0.22 0.11 0.04 0.05 0.08 0.15 0.24 0.17 0.19 0.12 0.06 0.08 0.08 0.09 0.07 0.12 0.16 0.19 0.30 0.37 0.27 0.14 0.08 0.08 0.10 0.12 0.12 0.08 0.11 0.14 0.12 0.17 0.29 0.35 0.35
0.06 0.09 0.09 0.06 0.04 0.11 0.17 0.12 0.05 0.09 0.10 0.09 0.19 0.23 0.30 0.35 0.42 0.33 0.33 0.32 0.26 0.22 0.19 0.24 0.26 0.18 0.15 0.14 0.11 0.09 0.12 0.19 0.25 0.26 0.24 0.14 0.12 0.17 0.18 0.16 0.24 0.31 0.30
0.11 0.06 0.09 0.17 0.17 0.19 0.32 0.18 0.12 0.22 0.27 0.27 0.48 0.67 0.70 0.64 0.58 0.49 0.40 0.33 0.29 0.27 0.26 0.29 0.21 0.19 0.20 0.17 0.16 0.16 0.19 0.27 0.31 0.25 0.21 0.19 0.19 0.20 0.16 0.16 0.22 0.31 0.34
0.13 0.28 0.39 0.42 0.36 0.27 0.40 0.37 0.46 0.66 0.69 0.68 0.75 0.66 0.54 0.47 0.50 0.57 0.56 0.60 0.74 0.95 1.12 0.88 0.73 0.71 0.59 0.39 0.26 0.24 0.21 0.18 0.21 0.22 0.31 0.43 0.40 0.32 0.26 0.22 0.25 0.33 0.39
0.28 0.28 0.30 0.33 0.48 0.53 0.55 0.56 0.81 0.95 0.88 0.77 0.87 0.79 0.86 0.99 1.28 1.37 1.54 1.35 1.02 0.90 0.91 0.63 0.50 0.41 0.36 0.36 0.31 0.26 0.24 0.27 0.26 0.39 0.55 0.56 0.53 0.45 0.41 0.38 0.33 0.32 0.31
0.17 0.15 0.18 0.31 0.40 0.64 0.83 0.73 0.65 0.86 0.83 0.75 0.92 0.83 0.83 0.73 0.70 0.66 0.79 0.76 0.62 0.72 0.41 0.34 0.30 0.32 0.41 0.48 0.52 0.53 0.47 0.49 0.61 0.73 0.81 0.91 0.97 0.91 0.85 0.75 0.70 0.70 0.68
0.69 0.78 0.69 0.58 0.69 0.56 0.78 0.92 0.74 0.68 0.64 0.63 0.78 0.73 0.64 0.77 0.64 0.64 0.86 1.13 0.81 0.60 0.40 0.38 0.37 0.44 0.48 0.51 0.54 0.56 0.56 0.67 0.87 1.03 1.17 1.16 1.18 1.08 0.95 0.88 0.83 0.88 0.93
1.62 1.09 1.00 1.30 1.47 1.32 1.27 1.18 0.97 0.79 0.71 0.71 0.68 0.78 0.80 0.71 0.65 0.62 0.87 0.76 0.75 0.80 0.69 0.80 0.75 0.70 0.67 0.66 0.83 1.03 1.22 1.20 1.21 1.15 1.03 0.92 0.86 0.76 0.76 0.78 1.00 1.42 1.89
1.53 1.88 1.45 1.93 3.27 3.56 3.28 2.62 2.24 2.00 1.62 1.47 1.33 1.46 1.44 1.39 1.32 1.44 1.71 1.79 1.83 1.48 1.33 1.41 1.40 1.30 1.36 1.33 1.31 1.31 1.33 1.35 1.43 1.59 1.75 2.10 2.72 2.99 3.05 2.92 2.93 2.95 2.90
0.98 1.13 1.11 1.14 1.29 1.45 2.15 2.62 2.56 2.39 2.23 2.34 2.35 2.32 2.46 2.51 2.36 2.58 2.84 2.99 2.83 2.83 2.72 2.74 3.02 2.97 2.79 2.68 2.53 2.38 2.40 2.58 2.90 3.15 3.23 3.00 2.54 1.97 1.51 1.33 1.33 1.31 1.18
0.78 0.78 0.77 0.89 0.81 0.82 0.70 0.87 1.40 1.32 1.07 1.04 1.17 1.32 1.40 1.09 1.13 1.23 1.44 1.59 1.69 1.66 1.68 1.67 1.47 1.44 1.53 1.50 1.44 1.35 1.29 1.28 1.16 1.00 0.92 0.90 0.89 0.80 0.69 0.72 0.65 0.54 0.46
0.35 0.61 0.67 0.69 0.64 0.75 0.76 0.80 0.74 0.84 1.16 1.13 0.85 0.71 0.67 0.52 0.51 0.51 0.44 0.50 0.58 0.57 0.57 0.60 0.53 0.49 0.46 0.44 0.35 0.30 0.28 0.21 0.17 0.16 0.17 0.20 0.23 0.21 0.17 0.21 0.15 0.09 0.08
0.34 0.38 0.53 0.60 0.65 0.53 0.48 0.46 0.53 0.54 0.48 0.48 0.45 0.45 0.43 0.38 0.39 0.41 0.35 0.37 0.34 0.31 0.27 0.32 0.34 0.34 0.31 0.25 0.17 0.14 0.10 0.08 0.09 0.08 0.05 0.04 0.06 0.10 0.05 0.04 0.01 0.01 0.01
0.30 0.31 0.35 0.43 0.61 0.73 0.81 0.58 0.48 0.49 0.45 0.32 0.29 0.29 0.26 0.19 0.18 0.20 0.16 0.14 0.09 0.10 0.10 0.11 0.09 0.08 0.11 0.07 0.06 0.04 0.04 0.04 0.04 0.02 0.01 0.01 0.00 0.01 0.01 0.01 0.01 0.02 0.03
0.78 0.51 0.43 0.36 0.35 0.60 1.06 1.17 1.09 1.13 1.06 0.96 0.71 0.48 0.42 0.42 0.31 0.22 0.18 0.14 0.10 0.07 0.07 0.08 0.06 0.06 0.07 0.08 0.05 0.04 0.02 0.01 0.01 0.01 0.00 0.00 0.00 0.00 0.00 0.00 0.00 0.01 0.01

GFSGL_prec_precacc_066.txt.gz
Total_Precipitation_Accumulation
0.00 0.00 0.00 0.00 0.00 0.00 0.00 0.00 0.00 0.00 0.00 0.00 0.00 0.02 0.02 0.03 0.02 0.01 0.00 0.01 0.01 0.00 0.00 0.00 0.00 0.00 0.00 0.00 0.00 0.00 0.00 0.00 0.00 0.00 0.00 0.00 0.00 0.00 0.00 0.00 0.00 0.00 0.01
0.00 0.00 0.00 0.00 0.00 0.00 0.00 0.00 0.00 0.00 0.00 0.01 0.00 0.00 0.00 0.00 0.02 0.00 0.01 0.00 0.00 0.00 0.00 0.00 0.00 0.00 0.02 0.01 0.00 0.01 0.00 0.01 0.02 0.01 0.00 0.00 0.00 0.00 0.01 0.01 0.00 0.00 0.01
0.00 0.00 0.00 0.00 0.00 0.00 0.00 0.00 0.00 0.00 0.00 0.00 0.00 0.00 0.00 0.01 0.00 0.00 0.00 0.00 0.00 0.04 0.02 0.00 0.00 0.01 0.02 0.02 0.03 0.02 0.01 0.02 0.06 0.05 0.02 0.01 0.00 0.00 0.01 0.00 0.00 0.00 0.00
0.00 0.00 0.00 0.00 0.00 0.00 0.00 0.00 0.00 0.00 0.00 0.00 0.00 0.00 0.01 0.01 0.03 0.04 0.05 0.04 0.02 0.10 0.05 0.02 0.01 0.02 0.04 0.05 0.04 0.07 0.07 0.14 0.20 0.18 0.10 0.06 0.02 0.00 0.00 0.00 0.02 0.00 0.00
0.01 0.00 0.00 0.00 0.00 0.00 0.00 0.01 0.00 0.00 0.00 0.00 0.00 0.00 0.01 0.02 0.04 0.05 0.05 0.10 0.12 0.14 0.07 0.05 0.07 0.08 0.09 0.15 0.12 0.10 0.07 0.09 0.07 0.06 0.05 0.02 0.00 0.01 0.01 0.00 0.01 0.00 0.01
0.00 0.01 0.02 0.00 0.00 0.00 0.00 0.02 0.01 0.00 0.01 0.01 0.02 0.02 0.05 0.04 0.03 0.03 0.10 0.18 0.24 0.22 0.22 0.26 0.14 0.15 0.16 0.18 0.14 0.09 0.08 0.10 0.14 0.12 0.06 0.01 0.05 0.06 0.05 0.04 0.01 0.01 0.01
0.01 0.03 0.03 0.02 0.00 0.00 0.00 0.00 0.00 0.01 0.05 0.04 0.05 0.06 0.12 0.11 0.16 0.25 0.32 0.22 0.24 0.17 0.19 0.17 0.13 0.12 0.20 0.11 0.21 0.27 0.12 0.12 0.11 0.14 0.04 0.05 0.07 0.09 0.07 0.07 0.03 0.05 0.06
0.08 0.01 0.00 0.03 0.02 0.01 0.00 0.00 0.00 0.00 0.04 0.04 0.04 0.10 0.22 0.38 0.57 0.45 0.39 0.24 0.20 0.12 0.08 0.06 0.08 0.13 0.16 0.21 0.28 0.17 0.17 0.14 0.19 0.12 0.05 0.07 0.08 0.07 0.10 0.11 0.13 0.06 0.04
0.06 0.02 0.00 0.00 0.01 0.02 0.01 0.01 0.01 0.02 0.13 0.29 0.53 0.51 0.42 0.33 0.24 0.14 0.13 0.07 0.10 0.12 0.07 0.08 0.11 0.07 0.31 0.39 0.14 0.07 0.08 0.07 0.12 0.13 0.10 0.06 0.07 0.06 0.04 0.03 0.04 0.06 0.05
0.07 0.02 0.04 0.01 0.00 0.00 0.05 0.08 0.19 0.38 0.32 0.17 0.14 0.11 0.08 0.07 0.12 0.09 0.06 0.03 0.03 0.05 0.12 0.09 0.27 0.11 0.21 0.18 0.07 0.03 0.06 0.16 0.08 0.08 0.07 0.06 0.05 0.07 0.04 0.03 0.17 0.20 0.14
0.11 0.10 0.07 0.03 0.04 0.14 0.24 0.22 0.26 0.27 0.09 0.04 0.06 0.10 0.16 0.10 0.10 0.09 0.01 0.04 0.02 0.06 0.05 0.11 0.10 0.12 0.10 0.16 0.24 0.16 0.16 0.11 0.08 0.05 0.05 0.05 0.11 0.18 0.19 0.16 0.29 0.39 0.25
0.11 0.11 0.04 0.03 0.08 0.19 0.22 0.23 0.25 0.15 0.06 0.05 0.08 0.15 0.24 0.17 0.19 0.12 0.06 0.08 0.08 0.09 0.07 0.12 0.16 0.19 0.30 0.37 0.27 0.14 0.08 0.08 0.10 0.12 0.12 0.08 0.11 0.14 0.12 0.17 0.29 0.35 0.35
0.07 0.10 0.10 0.06 0.04 0.11 0.19 0.17 0.07 0.10 0.10 0.09 0.19 0.23 0.30 0.35 0.42 0.33 0.33 0.32 0.26 0.22 0.19 0.24 0.26 0.18 0.15 0.14 0.11 0.09 0.12 0.19 0.25 0.26 0.24 0.14 0.12 0.17 0.18 0.16 0.24 0.31 0.30
0.11 0.07 0.09 0.17 0.17 0.19 0.32 0.18 0.12 0.22 0.27 0.27 0.48 0.67 0.70 0.64 0.58 0.49 0.40 0.33 0.29 0.27 0.26 0.29 0.21 0.19 0.20 0.17 0.16 0.16 0.19 0.27 0.31 0.25 0.21 0.19 0.19 0.20 0.16 0.16 0.22 0.31 0.34
0.13 0.28 0.39 0.42 0.37 0.28 0.40 0.37 0.46 0.66 0.69 0.68 0.75 0.66 0.54 0.47 0.52 0.59 0.57 0.60 0.74 0.95 1.12 0.88 0.73 0.71 0.59 0.39 0.26 0.24 0.21 0.18 0.21 0.22 0.31 0.43 0.40 0.32 0.26 0.22 0.25 0.33 0.39
0.28 0.28 0.30 0.33 0.48 0.53 0.55 0.56 0.81 0.95 0.88 0.77 0.88 0.80 0.86 0.99 1.32 1.41 1.57 1.38 1.07 0.93 0.91 0.63 0.50 0.41 0.36 0.36 0.31 0.26 0.24 0.27 0.26 0.39 0.55 0.56 0.53 0.45 0.41 0.38 0.33 0.32 0.31
0.17 0.15 0.18 0.31 0.40 0.64 0.83 0.73 0.65 0.86 0.84 0.75 0.92 0.83 0.83 0.74 0.72 0.71 0.87 0.81 0.70 0.78 0.41 0.34 0.30 0.33 0.42 0.48 0.52 0.53 0.47 0.49 0.61 0.73 0.81 0.91 0.97 0.91 0.85 0.75 0.70 0.70 0.68
0.69 0.78 0.69 0.58 0.69 0.56 0.78 0.92 0.74 0.68 0.64 0.63 0.79 0.73 0.64 0.78 0.69 0.71 0.95 1.17 0.82 0.61 0.43 0.44 0.43 0.47 0.49 0.51 0.54 0.57 0.58 0.68 0.87 1.04 1.17 1.16 1.18 1.08 0.96 0.89 0.85 0.92 1.01
1.62 1.09 1.00 1.30 1.47 1.32 1.27 1.18 0.97 0.79 0.71 0.71 0.68 0.78 0.81 0.77 0.73 0.69 0.90 0.77 0.75 0.81 0.69 0.83 0.81 0.72 0.68 0.67 0.84 1.04 1.24 1.22 1.23 1.17 1.06 0.95 0.90 0.80 0.79 0.86 1.10 1.54 2.03
1.53 1.88 1.45 1.93 3.27 3.56 3.28 2.62 2.24 2.00 1.63 1.48 1.33 1.47 1.45 1.41 1.33 1.46 1.74 1.83 1.84 1.49 1.35 1.44 1.49 1.34 1.38 1.35 1.34 1.33 1.34 1.37 1.48 1.66 1.83 2.20 2.85 3.10 3.11 3.00 2.96 2.97 2.91
0.98 1.13 1.11 1.14 1.29 1.45 2.15 2.62 2.56 2.39 2.24 2.37 2.37 2.35 2.47 2.52 2.36 2.58 2.84 3.01 2.85 2.90 2.82 2.83 3.10 3.02 2.83 2.71 2.55 2.41 2.45 2.63 2.97 3.25 3.35 3.14 2.72 2.16 1.62 1.38 1.34 1.31 1.18
0.79 0.78 0.78 0.89 0.81 0.82 0.70 0.87 1.40 1.33 1.08 1.05 1.18 1.34 1.46 1.13 1.14 1.23 1.45 1.60 1.70 1.67 1.75 1.75 1.54 1.50 1.58 1.55 1.45 1.37 1.33 1.35 1.28 1.11 1.04 1.02 0.98 0.88 0.76 0.77 0.68 0.55 0.47
0.35 0.61 0.67 0.69 0.64 0.76 0.76 0.80 0.74 0.85 1.17 1.13 0.85 0.71 0.70 0.53 0.52 0.52 0.44 0.51 0.59 0.59 0.58 0.62 0.56 0.52 0.49 0.47 0.36 0.31 0.31 0.26 0.25 0.25 0.22 0.23 0.26 0.22 0.17 0.21 0.15 0.09 0.08
0.34 0.39 0.53 0.60 0.67 0.55 0.49 0.46 0.53 0.56 0.49 0.48 0.46 0.46 0.44 0.38 0.39 0.41 0.37 0.40 0.38 0.36 0.34 0.36 0.36 0.36 0.33 0.28 0.20 0.16 0.13 0.12 0.12 0.10 0.07 0.05 0.07 0.10 0.05 0.04 0.02 0.01 0.01
0.30 0.31 0.36 0.45 0.63 0.74 0.83 0.59 0.49 0.49 0.45 0.34 0.31 0.30 0.26 0.19 0.18 0.20 0.18 0.17 0.14 0.18 0.20 0.22 0.19 0.16 0.19 0.15 0.11 0.06 0.06 0.05 0.04 0.02 0.01 0.01 0.01 0.01 0.01 0.01 0.01 0.03 0.03
0.80 0.53 0.44 0.37 0.37 0.63 1.09 1.20 1.11 1.16 1.09 0.98 0.74 0.50 0.46 0.46 0.35 0.25 0.20 0.16 0.12 0.09 0.09 0.10 0.09 0.10 0.12 0.11 0.09 0.07 0.05 0.04 0.04 0.04 0.03 0.05 0.06 0.04 0.01 0.01 0.01 0.01 0.02

GFSGL_prec_precacc_069.txt.gz
Total_Precipitation_Accumulation
0.00 0.00 0.00 0.00 0.00 0.00 0.00 0.00 0.00 0.00 0.00 0.00 0.00 0.02 0.02 0.03 0.02 0.02 0.00 0.01 0.01 0.00 0.00 0.00 0.00 0.00 0.00 0.00 0.00 0.00 0.00 0.00 0.00 0.00 0.00 0.00 0.00 0.00 0.00 0.00 0.00 0.00 0.01
0.00 0.00 0.00 0.00 0.00 0.00 0.00 0.00 0.00 0.00 0.00 0.01 0.00 0.00 0.00 0.00 0.02 0.01 0.06 0.00 0.00 0.00 0.00 0.00 0.00 0.00 0.02 0.01 0.00 0.01 0.00 0.01 0.02 0.01 0.00 0.00 0.00 0.00 0.01 0.01 0.00 0.00 0.01
0.00 0.00 0.00 0.00 0.00 0.00 0.00 0.00 0.00 0.00 0.00 0.00 0.00 0.00 0.00 0.01 0.00 0.00 0.02 0.03 0.01 0.04 0.02 0.00 0.00 0.01 0.02 0.02 0.03 0.02 0.01 0.02 0.06 0.05 0.02 0.01 0.00 0.00 0.01 0.00 0.00 0.00 0.00
0.00 0.00 0.00 0.00 0.00 0.00 0.00 0.00 0.00 0.00 0.00 0.00 0.00 0.00 0.01 0.01 0.03 0.04 0.05 0.04 0.02 0.10 0.05 0.02 0.01 0.02 0.04 0.06 0.05 0.07 0.07 0.14 0.20 0.18 0.10 0.06 0.02 0.00 0.00 0.00 0.02 0.00 0.00
0.01 0.00 0.00 0.00 0.00 0.00 0.00 0.01 0.00 0.00 0.00 0.00 0.00 0.00 0.01 0.02 0.04 0.05 0.05 0.10 0.12 0.14 0.07 0.05 0.07 0.08 0.09 0.15 0.12 0.10 0.07 0.09 0.07 0.06 0.05 0.02 0.00 0.01 0.01 0.00 0.01 0.00 0.01
0.01 0.01 0.02 0.00 0.00 0.00 0.00 0.02 0.01 0.00 0.01 0.01 0.02 0.02 0.05 0.04 0.03 0.03 0.10 0.18 0.24 0.22 0.22 0.26 0.14 0.15 0.16 0.18 0.14 0.09 0.08 0.10 0.14 0.12 0.06 0.01 0.05 0.06 0.05 0.04 0.01 0.01 0.01
0.02 0.03 0.03 0.02 0.00 0.00 0.00 0.00 0.00 0.01 0.05 0.04 0.05 0.06 0.12 0.11 0.16 0.25 0.32 0.22 0.24 0.17 0.19 0.17 0.13 0.12 0.20 0.11 0.21 0.27 0.12 0.12 0.11 0.14 0.04 0.05 0.07 0.09 0.07 0.07 0.03 0.05 0.06
0.09 0.01 0.00 0.03 0.02 0.01 0.00 0.00 0.00 0.00 0.04 0.04 0.04 0.10 0.22 0.38 0.57 0.45 0.39 0.24 0.20 0.12 0.08 0.06 0.08 0.13 0.16 0.21 0.28 0.17 0.17 0.14 0.19 0.12 0.05 0.07 0.08 0.07 0.10 0.11 0.13 0.06 0.04
0.07 0.03 0.00 0.00 0.01 0.02 0.01 0.01 0.02 0.02 0.13 0.29 0.53 0.51 0.42 0.33 0.24 0.14 0.13 0.07 0.10 0.12 0.07 0.08 0.11 0.07 0.31 0.39 0.14 0.07 0.08 0.07 0.12 0.13 0.10 0.06 0.07 0.06 0.04 0.03 0.04 0.06 0.05
0.09 0.03 0.04 0.01 0.00 0.00 0.06 0.08 0.20 0.38 0.32 0.17 0.14 0.11 0.08 0.07 0.12 0.09 0.06 0.03 0.03 0.05 0.12 0.09 0.27 0.11 0.21 0.18 0.07 0.03 0.06 0.16 0.08 0.08 0.07 0.06 0.05 0.07 0.04 0.03 0.17 0.20 0.14
0.12 0.11 0.08 0.03 0.04 0.14 0.24 0.22 0.28 0.29 0.09 0.04 0.06 0.10 0.16 0.10 0.10 0.09 0.01 0.04 0.02 0.06 0.05 0.11 0.10 0.12 0.10 0.16 0.24 0.16 0.16 0.11 0.08 0.05 0.05 0.05 0.11 0.18 0.19 0.16 0.29 0.39 0.25
0.11 0.12 0.04 0.03 0.08 0.19 0.22 0.24 0.26 0.16 0.07 0.05 0.08 0.15 0.24 0.17 0.19 0.12 0.06 0.08 0.08 0.09 0.07 0.12 0.16 0.19 0.30 0.37 0.27 0.14 0.08 0.08 0.10 0.12 0.12 0.08 0.11 0.14 0.12 0.17 0.29 0.35 0.35
0.07 0.10 0.10 0.07 0.05 0.11 0.19 0.17 0.09 0.13 0.13 0.13 0.19 0.23 0.30 0.35 0.42 0.33 0.33 0.32 0.26 0.22 0.19 0.24 0.26 0.18 0.15 0.14 0.11 0.09 0.12 0.19 0.25 0.26 0.24 0.14 0.12 0.17 0.18 0.16 0.24 0.31 0.30
0.11 0.07 0.09 0.17 0.17 0.20 0.32 0.18 0.12 0.22 0.28 0.28 0.48 0.67 0.70 0.64 0.58 0.49 0.40 0.33 0.29 0.27 0.26 0.29 0.21 0.19 0.20 0.17 0.16 0.16 0.19 0.27 0.31 0.25 0.21 0.19 0.19 0.20 0.16 0.16 0.22 0.31 0.34
0.13 0.28 0.39 0.42 0.37 0.28 0.41 0.37 0.46 0.66 0.69 0.68 0.75 0.66 0.54 0.47 0.53 0.60 0.57 0.60 0.75 0.95 1.12 0.88 0.73 0.71 0.59 0.39 0.26 0.24 0.21 0.18 0.21 0.22 0.31 0.43 0.40 0.32 0.26 0.22 0.25 0.33 0.39
0.28 0.28 0.30 0.33 0.48 0.53 0.55 0.56 0.81 0.96 0.91 0.78 0.92 0.83 0.87 0.99 1.34 1.46 1.62 1.42 1.12 0.95 0.92 0.63 0.50 0.41 0.36 0.36 0.31 0.26 0.24 0.27 0.26 0.39 0.55 0.56 0.53 0.45 0.41 0.38 0.33 0.32 0.31
0.18 0.15 0.18 0.31 0.40 0.64 0.83 0.73 0.65 0.86 0.85 0.78 0.94 0.88 0.85 0.76 0.74 0.79 1.02 0.92 0.77 0.80 0.41 0.34 0.30 0.33 0.42 0.48 0.52 0.53 0.47 0.49 0.61 0.73 0.81 0.91 0.97 0.91 0.85 0.75 0.70 0.70 0.68
0.70 0.79 0.69 0.58 0.69 0.56 0.78 0.92 0.74 0.68 0.64 0.64 0.79 0.74 0.67 0.82 0.74 0.83 1.13 1.21 0.82 0.61 0.45 0.44 0.44 0.47 0.50 0.51 0.54 0.57 0.58 0.68 0.87 1.04 1.17 1.16 1.18 1.08 0.96 0.89 0.85 0.92 1.01
1.62 1.09 1.00 1.30 1.47 1.33 1.27 1.18 0.97 0.79 0.71 0.71 0.68 0.79 0.81 0.82 0.84 0.84 1.00 0.78 0.75 0.81 0.69 0.83 0.81 0.73 0.70 0.68 0.84 1.04 1.24 1.22 1.24 1.17 1.06 0.95 0.91 0.81 0.80 0.86 1.11 1.55 2.05
1.54 1.88 1.45 1.93 3.27 3.56 3.28 2.62 2.24 2.00 1.63 1.48 1.33 1.47 1.45 1.45 1.40 1.51 1.79 1.87 1.84 1.49 1.35 1.44 1.49 1.34 1.40 1.37 1.36 1.35 1.35 1.38 1.49 1.66 1.83 2.20 2.85 3.11 3.13 3.01 2.98 2.99 2.92
0.98 1.13 1.12 1.15 1.29 1.45 2.15 2.62 2.56 2.40 2.24 2.37 2.37 2.35 2.48 2.57 2.45 2.70 2.96 3.12 2.91 2.92 2.83 2.83 3.11 3.02 2.84 2.72 2.55 2.42 2.46 2.63 2.97 3.25 3.36 3.14 2.73 2.17 1.66 1.41 1.39 1.35 1.22
0.79 0.79 0.78 0.89 0.82 0.83 0.71 0.87 1.40 1.33 1.08 1.05 1.18 1.34 1.46 1.17 1.21 1.32 1.53 1.68 1.78 1.76 1.80 1.77 1.55 1.53 1.59 1.56 1.49 1.41 1.35 1.36 1.28 1.12 1.05 1.02 0.98 0.89 0.77 0.79 0.71 0.60 0.50
0.36 0.62 0.68 0.70 0.64 0.77 0.77 0.81 0.75 0.85 1.17 1.14 0.86 0.72 0.70 0.54 0.55 0.58 0.53 0.58 0.65 0.67 0.65 0.67 0.62 0.59 0.52 0.50 0.37 0.32 0.31 0.27 0.26 0.26 0.22 0.24 0.27 0.24 0.19 0.22 0.16 0.11 0.09
0.34 0.39 0.53 0.61 0.67 0.56 0.49 0.47 0.54 0.57 0.50 0.49 0.47 0.47 0.45 0.39 0.40 0.43 0.40 0.44 0.43 0.40 0.40 0.44 0.46 0.41 0.37 0.34 0.27 0.20 0.14 0.13 0.12 0.11 0.08 0.07 0.08 0.11 0.06 0.05 0.02 0.01 0.01
0.31 0.31 0.36 0.45 0.63 0.75 0.83 0.59 0.49 0.50 0.45 0.34 0.32 0.31 0.27 0.20 0.19 0.22 0.20 0.19 0.16 0.20 0.22 0.23 0.21 0.18 0.21 0.21 0.18 0.11 0.11 0.11 0.08 0.06 0.05 0.04 0.03 0.03 0.02 0.03 0.03 0.04 0.05
0.81 0.54 0.45 0.37 0.37 0.63 1.09 1.20 1.11 1.17 1.10 0.99 0.75 0.52 0.47 0.47 0.36 0.26 0.22 0.18 0.14 0.11 0.10 0.12 0.10 0.11 0.13 0.13 0.13 0.14 0.14 0.12 0.09 0.08 0.07 0.07 0.07 0.07 0.07 0.08 0.10 0.11 0.11

GFSGL_prec_precacc_072.txt.gz
Total_Precipitation_Accumulation
0.00 0.00 0.00 0.00 0.00 0.00 0.00 0.00 0.00 0.00 0.00 0.01 0.06 0.08 0.07 0.05 0.02 0.04 0.02 0.01 0.01 0.00 0.00 0.00 0.00 0.00 0.00 0.00 0.00 0.00 0.00 0.00 0.00 0.00 0.00 0.00 0.00 0.00 0.00 0.00 0.00 0.00 0.01
0.00 0.00 0.00 0.00 0.00 0.00 0.00 0.00 0.00 0.00 0.00 0.02 0.07 0.05 0.05 0.01 0.02 0.05 0.07 0.01 0.01 0.00 0.00 0.00 0.00 0.00 0.02 0.01 0.00 0.01 0.00 0.01 0.02 0.01 0.00 0.00 0.00 0.00 0.01 0.01 0.00 0.00 0.01
0.00 0.00 0.00 0.00 0.00 0.00 0.00 0.00 0.00 0.00 0.00 0.00 0.01 0.07 0.08 0.06 0.02 0.02 0.05 0.04 0.02 0.04 0.02 0.00 0.00 0.01 0.02 0.02 0.03 0.02 0.01 0.02 0.06 0.05 0.02 0.01 0.00 0.00 0.01 0.00 0.00 0.00 0.00
0.00 0.00 0.00 0.00 0.00 0.00 0.00 0.00 0.00 0.00 0.00 0.00 0.00 0.01 0.04 0.05 0.06 0.08 0.09 0.07 0.05 0.11 0.05 0.02 0.01 0.02 0.04 0.06 0.05 0.07 0.07 0.14 0.20 0.18 0.10 0.06 0.02 0.00 0.00 0.00 0.02 0.00 0.00
0.01 0.00 0.00 0.00 0.00 0.00 0.00 0.01 0.00 0.00 0.00 0.00 0.00 0.00 0.01 0.02 0.04 0.05 0.05 0.11 0.13 0.14 0.07 0.05 0.07 0.08 0.09 0.15 0.12 0.10 0.07 0.09 0.07 0.06 0.05 0.02 0.00 0.01 0.01 0.00 0.01 0.00 0.01
0.01 0.01 0.02 0.00 0.00 0.00 0.00 0.02 0.01 0.00 0.01 0.01 0.02 0.02 0.05 0.04 0.03 0.03 0.10 0.18 0.24 0.22 0.22 0.26 0.14 0.15 0.16 0.18 0.14 0.09 0.08 0.10 0.14 0.12 0.06 0.01 0.05 0.06 0.05 0.04 0.01 0.01 0.01
0.03 0.04 0.03 0.02 0.00 0.00 0.00 0.00 0.00 0.01 0.05 0.04 0.05 0.06 0.12 0.11 0.16 0.25 0.32 0.22 0.24 0.17 0.19 0.17 0.13 0.12 0.20 0.11 0.21 0.27 0.12 0.12 0.11 0.14 0.04 0.05 0.07 0.09 0.07 0.07 0.03 0.06 0.06
0.10 0.02 0.01 0.03 0.02 0.01 0.00 0.00 0.00 0.00 0.04 0.04 0.04 0.10 0.22 0.38 0.57 0.45 0.39 0.24 0.20 0.12 0.08 0.06 0.08 0.13 0.16 0.21 0.28 0.17 0.17 0.14 0.19 0.12 0.05 0.07 0.08 0.07 0.10 0.11 0.13 0.06 0.04
0.11 0.09 0.03 0.01 0.01 0.03 0.01 0.02 0.02 0.02 0.13 0.29 0.53 0.51 0.42 0.33 0.24 0.14 0.13 0.07 0.10 0.12 0.07 0.08 0.11 0.07 0.31 0.39 0.14 0.07 0.08 0.07 0.12 0.13 0.10 0.06 0.07 0.06 0.04 0.03 0.04 0.06 0.05
0.10 0.08 0.07 0.04 0.01 0.01 0.10 0.14 0.27 0.43 0.33 0.18 0.14 0.11 0.08 0.07 0.12 0.09 0.06 0.03 0.03 0.05 0.12 0.09 0.27 0.11 0.21 0.18 0.07 0.03 0.06 0.16 0.08 0.08 0.07 0.06 0.05 0.07 0.04 0.03 0.17 0.20 0.14
0.12 0.13 0.12 0.05 0.05 0.15 0.26 0.29 0.39 0.38 0.14 0.06 0.06 0.10 0.16 0.10 0.10 0.09 0.01 0.04 0.02 0.06 0.05 0.11 0.10 0.12 0.10 0.16 0.24 0.16 0.16 0.11 0.08 0.05 0.05 0.05 0.11 0.18 0.19 0.16 0.29 0.39 0.25
0.11 0.12 0.05 0.04 0.08 0.19 0.23 0.24 0.29 0.29 0.20 0.12 0.13 0.16 0.24 0.17 0.19 0.12 0.06 0.08 0.08 0.09 0.07 0.12 0.16 0.19 0.30 0.37 0.27 0.14 0.08 0.08 0.10 0.12 0.12 0.08 0.11 0.14 0.12 0.17 0.29 0.35 0.35
0.07 0.10 0.10 0.07 0.05 0.12 0.19 0.17 0.10 0.15 0.20 0.24 0.29 0.26 0.31 0.35 0.42 0.33 0.33 0.32 0.26 0.22 0.19 0.24 0.26 0.18 0.15 0.14 0.11 0.09 0.12 0.19 0.25 0.26 0.24 0.14 0.12 0.17 0.18 0.16 0.24 0.31 0.30
0.11 0.07 0.09 0.17 0.17 0.20 0.32 0.18 0.12 0.23 0.28 0.29 0.53 0.73 0.73 0.64 0.58 0.49 0.40 0.33 0.29 0.27 0.26 0.29 0.21 0.19 0.20 0.17 0.16 0.16 0.19 0.27 0.31 0.25 0.21 0.19 0.19 0.20 0.16 0.16 0.22 0.31 0.34
0.13 0.28 0.39 0.42 0.37 0.28 0.41 0.37 0.46 0.66 0.69 0.68 0.76 0.71 0.60 0.48 0.53 0.61 0.60 0.63 0.77 0.98 1.13 0.88 0.73 0.71 0.59 0.39 0.26 0.24 0.21 0.18 0.21 0.22 0.31 0.43 0.40 0.32 0.26 0.22 0.25 0.33 0.39
0.29 0.28 0.30 0.33 0.48 0.53 0.55 0.56 0.81 0.96 0.91 0.78 0.93 0.86 0.88 1.00 1.38 1.50 1.69 1.54 1.25 1.01 0.93 0.63 0.50 0.41 0.36 0.36 0.31 0.26 0.24 0.27 0.26 0.39 0.55 0.56 0.53 0.45 0.41 0.38 0.33 0.32 0.31
0.18 0.16 0.19 0.31 0.40 0.64 0.83 0.73 0.65 0.86 0.85 0.78 0.94 0.89 0.87 0.76 0.80 0.84 1.16 1.16 0.85 0.80 0.41 0.34 0.30 0.33 0.42 0.48 0.52 0.53 0.47 0.49 0.61 0.73 0.81 0.91 0.97 0.91 0.85 0.75 0.70 0.70 0.68
0.70 0.80 0.70 0.59 0.70 0.56 0.78 0.92 0.74 0.68 0.64 0.64 0.79 0.74 0.67 0.83 0.77 1.00 1.47 1.47 0.93 0.62 0.45 0.44 0.44 0.47 0.50 0.52 0.54 0.57 0.58 0.68 0.87 1.04 1.17 1.16 1.18 1.08 0.96 0.89 0.85 0.92 1.02
1.63 1.09 1.00 1.31 1.47 1.33 1.27 1.18 0.97 0.79 0.71 0.71 0.68 0.79 0.81 0.82 0.87 0.98 1.20 0.81 0.76 0.82 0.72 0.83 0.82 0.73 0.71 0.68 0.84 1.04 1.24 1.23 1.24 1.17 1.06 0.95 0.91 0.81 0.80 0.86 1.11 1.55 2.05
1.54 1.89 1.46 1.93 3.28 3.57 3.28 2.63 2.24 2.01 1.63 1.48 1.33 1.47 1.45 1.45 1.40 1.53 1.84 1.90 1.86 1.49 1.35 1.45 1.49 1.34 1.41 1.38 1.37 1.36 1.36 1.39 1.49 1.66 1.83 2.20 2.85 3.11 3.13 3.01 2.99 2.99 2.93
0.98 1.14 1.13 1.15 1.30 1.45 2.15 2.63 2.57 2.40 2.24 2.37 2.37 2.35 2.48 2.57 2.45 2.70 2.96 3.12 2.91 2.93 2.83 2.83 3.11 3.02 2.85 2.73 2.57 2.44 2.47 2.65 2.98 3.25 3.36 3.15 2.73 2.17 1.66 1.41 1.39 1.36 1.22
0.80 0.80 0.79 0.90 0.82 0.83 0.71 0.88 1.40 1.33 1.08 1.05 1.18 1.34 1.46 1.17 1.22 1.32 1.54 1.69 1.80 1.79 1.84 1.78 1.56 1.54 1.63 1.59 1.50 1.46 1.40 1.38 1.29 1.12 1.05 1.03 1.00 0.90 0.79 0.80 0.72 0.61 0.52
0.37 0.62 0.68 0.70 0.65 0.78 0.78 0.81 0.75 0.85 1.17 1.14 0.86 0.72 0.71 0.54 0.55 0.58 0.54 0.59 0.69 0.73 0.72 0.74 0.69 0.66 0.61 0.62 0.47 0.39 0.37 0.31 0.33 0.37 0.31 0.30 0.32 0.27 0.23 0.26 0.19 0.12 0.10
0.36 0.40 0.54 0.61 0.69 0.57 0.50 0.48 0.55 0.58 0.50 0.49 0.47 0.47 0.45 0.39 0.40 0.44 0.41 0.45 0.44 0.43 0.47 0.51 0.53 0.50 0.46 0.41 0.36 0.34 0.23 0.19 0.19 0.19 0.19 0.18 0.18 0.18 0.10 0.08 0.05 0.04 0.03
0.31 0.32 0.37 0.46 0.64 0.76 0.84 0.60 0.49 0.50 0.46 0.34 0.32 0.32 0.27 0.20 0.19 0.22 0.21 0.20 0.17 0.21 0.24 0.26 0.24 0.23 0.26 0.25 0.24 0.24 0.27 0.28 0.26 0.23 0.24 0.25 0.21 0.14 0.11 0.08 0.07 0.08 0.07
0.82 0.55 0.46 0.38 0.38 0.63 1.10 1.20 1.12 1.17 1.10 0.99 0.75 0.52 0.47 0.47 0.36 0.26 0.22 0.18 0.15 0.12 0.12 0.13 0.11 0.12 0.15 0.15 0.15 0.17 0.21 0.18 0.16 0.13 0.09 0.09 0.12 0.12 0.11 0.12 0.14 0.16 0.17

GFSGL_prec_precacc_075.txt.gz
Total_Precipitation_Accumulation
0.00 0.00 0.00 0.00 0.00 0.00 0.00 0.00 0.00 0.00 0.00 0.03 0.07 0.08 0.08 0.05 0.02 0.05 0.02 0.01 0.01 0.00 0.00 0.00 0.00 0.00 0.00 0.00 0.00 0.00 0.00 0.00 0.00 0.00 0.00 0.00 0.00 0.00 0.00 0.00 0.00 0.00 0.01
0.00 0.00 0.00 0.00 0.00 0.00 0.00 0.00 0.00 0.00 0.00 0.04 0.07 0.05 0.05 0.01 0.02 0.05 0.07 0.01 0.01 0.00 0.00 0.00 0.00 0.00 0.02 0.01 0.00 0.01 0.00 0.01 0.02 0.01 0.00 0.00 0.00 0.00 0.01 0.01 0.00 0.00 0.01
0.00 0.00 0.00 0.00 0.00 0.00 0.00 0.00 0.00 0.00 0.00 0.00 0.01 0.07 0.08 0.06 0.05 0.07 0.07 0.04 0.02 0.04 0.02 0.00 0.00 0.01 0.03 0.02 0.03 0.02 0.01 0.02 0.06 0.05 0.02 0.01 0.00 0.00 0.01 0.00 0.00 0.00 0.00
0.02 0.00 0.00 0.00 0.00 0.00 0.00 0.00 0.00 0.00 0.00 0.00 0.00 0.01 0.04 0.05 0.06 0.09 0.14 0.09 0.05 0.11 0.05 0.02 0.01 0.02 0.04 0.06 0.05 0.07 0.07 0.14 0.20 0.18 0.10 0.06 0.02 0.00 0.00 0.00 0.02 0.00 0.00
0.04 0.02 0.03 0.00 0.00 0.00 0.00 0.01 0.00 0.00 0.00 0.00 0.00 0.00 0.01 0.02 0.04 0.05 0.05 0.12 0.14 0.14 0.07 0.05 0.07 0.08 0.09 0.15 0.12 0.10 0.07 0.09 0.07 0.06 0.05 0.02 0.00 0.01 0.01 0.00 0.01 0.00 0.01
0.09 0.06 0.02 0.01 0.01 0.01 0.01 0.02 0.01 0.00 0.01 0.01 0.02 0.02 0.05 0.04 0.03 0.03 0.10 0.18 0.24 0.22 0.22 0.26 0.14 0.15 0.16 0.18 0.14 0.09 0.08 0.10 0.14 0.12 0.06 0.01 0.05 0.06 0.05 0.04 0.01 0.01 0.01
0.10 0.06 0.04 0.02 0.00 0.01 0.02 0.01 0.01 0.01 0.05 0.04 0.05 0.06 0.12 0.11 0.16 0.25 0.32 0.22 0.25 0.18 0.20 0.17 0.13 0.12 0.20 0.11 0.21 0.27 0.12 0.12 0.11 0.14 0.04 0.05 0.07 0.09 0.07 0.07 0.03 0.06 0.06
0.11 0.02 0.01 0.03 0.02 0.02 0.02 0.03 0.02 0.01 0.04 0.04 0.04 0.10 0.22 0.38 0.57 0.45 0.39 0.24 0.20 0.12 0.08 0.07 0.09 0.13 0.16 0.21 0.28 0.17 0.17 0.14 0.19 0.12 0.05 0.07 0.08 0.07 0.10 0.11 0.13 0.06 0.04
0.12 0.13 0.07 0.02 0.02 0.04 0.03 0.05 0.06 0.04 0.13 0.29 0.54 0.51 0.43 0.33 0.24 0.14 0.13 0.07 0.10 0.12 0.07 0.08 0.11 0.07 0.31 0.39 0.14 0.07 0.08 0.07 0.12 0.13 0.10 0.06 0.07 0.06 0.04 0.03 0.04 0.06 0.05
0.10 0.09 0.10 0.07 0.04 0.04 0.12 0.15 0.31 0.48 0.36 0.19 0.15 0.11 0.08 0.07 0.12 0.09 0.06 0.03 0.03 0.05 0.12 0.09 0.27 0.11 0.21 0.18 0.07 0.03 0.06 0.16 0.08 0.08 0.07 0.06 0.05 0.07 0.04 0.03 0.17 0.20 0.14
0.12 0.13 0.12 0.05 0.06 0.16 0.26 0.30 0.41 0.44 0.24 0.13 0.10 0.13 0.18 0.11 0.11 0.09 0.01 0.04 0.02 0.06 0.05 0.11 0.10 0.12 0.10 0.16 0.24 0.16 0.16 0.11 0.08 0.05 0.05 0.05 0.11 0.18 0.19 0.16 0.29 0.39 0.25
0.11 0.12 0.05 0.04 0.08 0.19 0.23 0.24 0.30 0.31 0.28 0.24 0.25 0.24 0.29 0.20 0.20 0.12 0.06 0.08 0.08 0.09 0.07 0.12 0.16 0.19 0.30 0.37 0.27 0.14 0.08 0.08 0.10 0.12 0.12 0.08 0.11 0.14 0.12 0.17 0.29 0.35 0.35
0.07 0.10 0.10 0.07 0.05 0.12 0.19 0.17 0.10 0.15 0.22 0.32 0.41 0.35 0.39 0.43 0.44 0.33 0.34 0.33 0.26 0.22 0.19 0.24 0.26 0.18 0.15 0.14 0.11 0.09 0.12 0.19 0.25 0.26 0.24 0.14 0.12 0.17 0.18 0.16 0.24 0.32 0.31
0.11 0.07 0.09 0.17 0.17 0.20 0.32 0.18 0.12 0.23 0.29 0.30 0.59 0.85 0.87 0.75 0.65 0.52 0.43 0.41 0.37 0.29 0.26 0.29 0.21 0.19 0.20 0.17 0.16 0.16 0.19 0.27 0.31 0.25 0.21 0.19 0.19 0.20 0.16 0.16 0.22 0.31 0.34
0.13 0.28 0.39 0.42 0.37 0.28 0.41 0.37 0.46 0.66 0.69 0.68 0.77 0.75 0.69 0.58 0.57 0.79 0.83 0.85 0.96 1.08 1.20 0.88 0.73 0.71 0.59 0.39 0.26 0.24 0.21 0.18 0.21 0.22 0.31 0.43 0.40 0.32 0.26 0.22 0.25 0.33 0.39
0.29 0.28 0.30 0.33 0.48 0.53 0.55 0.56 0.81 0.96 0.91 0.78 0.93 0.86 0.89 1.04 1.55 1.71 1.93 1.87 1.66 1.37 1.12 0.63 0.50 0.41 0.36 0.36 0.31 0.26 0.24 0.27 0.26 0.39 0.55 0.56 0.53 0.45 0.41 0.38 0.33 0.32 0.31
0.19 0.16 0.19 0.31 0.40 0.64 0.83 0.73 0.65 0.86 0.85 0.78 0.94 0.89 0.87 0.76 0.81 0.88 1.27 1.41 1.13 1.10 0.47 0.34 0.30 0.33 0.42 0.48 0.52 0.53 0.47 0.49 0.61 0.73 0.81 0.91 0.97 0.91 0.85 0.75 0.70 0.70 0.68
0.70 0.80 0.70 0.59 0.70 0.56 0.78 0.92 0.74 0.68 0.64 0.64 0.79 0.74 0.67 0.83 0.78 1.02 1.52 1.54 0.98 0.65 0.45 0.45 0.44 0.47 0.50 0.52 0.54 0.57 0.58 0.68 0.87 1.04 1.17 1.16 1.18 1.08 0.96 0.89 0.85 0.92 1.02
1.63 1.09 1.01 1.31 1.47 1.33 1.27 1.18 0.97 0.79 0.71 0.71 0.68 0.79 0.81 0.82 0.87 0.98 1.20 0.82 0.76 0.82 0.72 0.83 0.82 0.73 0.71 0.68 0.85 1.04 1.26 1.25 1.26 1.19 1.10 1.01 0.93 0.82 0.80 0.86 1.11 1.55 2.05
1.55 1.90 1.47 1.94 3.28 3.57 3.28 2.63 2.24 2.01 1.63 1.48 1.33 1.47 1.45 1.45 1.40 1.53 1.84 1.90 1.86 1.49 1.35 1.45 1.49 1.34 1.41 1.38 1.38 1.38 1.40 1.47 1.59 1.73 1.88 2.33 2.97 3.24 3.29 3.18 3.11 3.09 2.97
0.99 1.14 1.14 1.16 1.30 1.46 2.15 2.63 2.57 2.40 2.24 2.37 2.37 2.35 2.48 2.57 2.45 2.70 2.96 3.12 2.91 2.93 2.83 2.83 3.15 3.08 2.88 2.77 2.61 2.46 2.50 2.72 3.06 3.32 3.41 3.18 2.77 2.19 1.68 1.46 1.46 1.44 1.31
0.81 0.81 0.79 0.91 0.83 0.83 0.72 0.88 1.41 1.33 1.08 1.05 1.18 1.34 1.46 1.17 1.22 1.32 1.54 1.69 1.80 1.79 1.84 1.80 1.62 1.65 1.77 1.74 1.68 1.58 1.48 1.45 1.38 1.23 1.13 1.14 1.11 0.96 0.82 0.87 0.85 0.73 0.56
0.39 0.63 0.69 0.71 0.66 0.79 0.79 0.81 0.75 0.85 1.17 1.14 0.86 0.72 0.71 0.54 0.55 0.58 0.54 0.59 0.69 0.73 0.72 0.74 0.71 0.75 0.76 0.79 0.63 0.51 0.41 0.33 0.39 0.45 0.36 0.36 0.44 0.42 0.34 0.37 0.37 0.31 0.22
0.37 0.41 0.55 0.62 0.71 0.60 0.52 0.49 0.55 0.58 0.51 0.49 0.47 0.47 0.45 0.39 0.40 0.44 0.41 0.45 0.44 0.43 0.47 0.51 0.53 0.50 0.48 0.47 0.42 0.38 0.24 0.20 0.20 0.22 0.22 0.20 0.20 0.24 0.18 0.16 0.16 0.17 0.12
0.32 0.33 0.38 0.47 0.65 0.77 0.85 0.61 0.50 0.51 0.47 0.35 0.32 0.32 0.27 0.20 0.19 0.22 0.21 0.20 0.17 0.21 0.24 0.26 0.24 0.23 0.26 0.26 0.26 0.25 0.28 0.31 0.29 0.25 0.25 0.27 0.24 0.17 0.18 0.17 0.14 0.11 0.10
0.82 0.56 0.46 0.39 0.38 0.64 1.10 1.21 1.12 1.18 1.10 1.00 0.76 0.53 0.48 0.48 0.37 0.26 0.22 0.18 0.15 0.12 0.12 0.13 0.11 0.13 0.16 0.15 0.15 0.19 0.22 0.21 0.19 0.18 0.12 0.12 0.14 0.13 0.13 0.13 0.16 0.18 0.19

GFSGL_prec_precacc_078.txt.gz
Total_Precipitation_Accumulation
0.00 0.00 0.00 0.00 0.00 0.00 0.00 0.00 0.00 0.00 0.04 0.24 0.74 0.14 0.14 0.06 0.03 0.06 0.09 0.06 0.03 0.01 0.00 0.01 0.00 0.01 0.00 0.00 0.00 0.00 0.00 0.00 0.00 0.00 0.00 0.00 0.00 0.00 0.00 0.00 0.00 0.00 0.01
0.00 0.01 0.00 0.00 0.00 0.00 0.00 0.00 0.00 0.00 0.01 0.06 0.10 0.12 0.12 0.04 0.07 0.10 0.09 0.04 0.07 0.01 0.00 0.01 0.01 0.00 0.03 0.01 0.00 0.01 0.00 0.01 0.02 0.01 0.00 0.00 0.00 0.00 0.01 0.01 0.00 0.00 0.01
0.02 0.00 0.00 0.00 0.00 0.00 0.01 0.00 0.00 0.00 0.00 0.00 0.01 0.09 0.12 0.10 0.13 0.19 0.13 0.06 0.06 0.06 0.02 0.01 0.00 0.01 0.04 0.02 0.04 0.02 0.01 0.02 0.06 0.05 0.02 0.01 0.00 0.00 0.01 0.00 0.00 0.00 0.00
0.14 0.15 0.07 0.01 0.00 0.00 0.01 0.02 0.02 0.01 0.00 0.00 0.00 0.04 0.07 0.06 0.06 0.12 0.18 0.15 0.10 0.15 0.08 0.03 0.02 0.02 0.05 0.07 0.05 0.07 0.07 0.14 0.20 0.18 0.10 0.06 0.02 0.00 0.00 0.00 0.02 0.00 0.00
0.20 0.35 0.54 0.57 0.11 0.01 0.02 0.06 0.05 0.03 0.00 0.00 0.00 0.00 0.02 0.03 0.04 0.05 0.07 0.14 0.21 0.18 0.13 0.09 0.08 0.08 0.09 0.16 0.12 0.11 0.08 0.10 0.07 0.06 0.05 0.02 0.00 0.01 0.01 0.00 0.01 0.00 0.01
0.29 0.30 0.27 0.56 0.29 0.11 0.05 0.06 0.05 0.03 0.03 0.03 0.02 0.02 0.05 0.04 0.03 0.03 0.10 0.19 0.26 0.26 0.24 0.28 0.15 0.15 0.16 0.18 0.14 0.09 0.09 0.11 0.15 0.12 0.06 0.01 0.06 0.07 0.05 0.04 0.01 0.01 0.01
0.22 0.16 0.15 0.21 0.17 0.13 0.08 0.05 0.05 0.05 0.09 0.07 0.06 0.06 0.12 0.11 0.16 0.25 0.32 0.22 0.25 0.21 0.24 0.20 0.14 0.12 0.20 0.11 0.21 0.27 0.12 0.12 0.11 0.14 0.04 0.05 0.07 0.09 0.07 0.07 0.03 0.06 0.06
0.13 0.03 0.03 0.05 0.06 0.13 0.09 0.08 0.09 0.07 0.09 0.08 0.06 0.12 0.23 0.38 0.57 0.45 0.39 0.24 0.20 0.12 0.09 0.08 0.10 0.13 0.16 0.22 0.28 0.17 0.17 0.14 0.19 0.12 0.05 0.07 0.08 0.07 0.10 0.11 0.13 0.06 0.04
0.13 0.13 0.07 0.02 0.02 0.09 0.11 0.13 0.15 0.12 0.19 0.33 0.57 0.54 0.44 0.33 0.24 0.14 0.13 0.07 0.10 0.12 0.07 0.08 0.12 0.07 0.31 0.39 0.15 0.07 0.08 0.07 0.12 0.13 0.10 0.06 0.07 0.06 0.04 0.03 0.04 0.06 0.05
0.10 0.09 0.10 0.08 0.04 0.05 0.17 0.19 0.33 0.51 0.41 0.26 0.19 0.15 0.10 0.08 0.12 0.09 0.06 0.04 0.03 0.05 0.12 0.09 0.27 0.11 0.21 0.18 0.07 0.03 0.06 0.16 0.08 0.08 0.07 0.06 0.05 0.07 0.04 0.03 0.17 0.20 0.14
0.12 0.13 0.12 0.05 0.06 0.16 0.27 0.32 0.47 0.48 0.28 0.17 0.14 0.17 0.22 0.14 0.13 0.10 0.03 0.04 0.02 0.06 0.05 0.11 0.10 0.12 0.10 0.16 0.24 0.16 0.16 0.11 0.08 0.05 0.05 0.05 0.11 0.18 0.19 0.16 0.29 0.39 0.25
0.11 0.12 0.05 0.04 0.08 0.19 0.23 0.25 0.30 0.32 0.29 0.25 0.29 0.26 0.31 0.22 0.21 0.13 0.08 0.10 0.09 0.09 0.07 0.12 0.16 0.19 0.30 0.37 0.27 0.14 0.08 0.08 0.10 0.12 0.12 0.08 0.11 0.14 0.12 0.17 0.29 0.35 0.35
0.07 0.10 0.10 0.07 0.05 0.12 0.19 0.17 0.10 0.15 0.22 0.32 0.41 0.35 0.40 0.44 0.47 0.35 0.36 0.41 0.33 0.29 0.19 0.24 0.26 0.18 0.15 0.14 0.11 0.09 0.12 0.19 0.25 0.26 0.24 0.14 0.12 0.17 0.18 0.16 0.24 0.32 0.31
0.11 0.07 0.09 0.17 0.17 0.20 0.32 0.18 0.12 0.23 0.29 0.30 0.59 0.85 0.88 0.78 0.69 0.61 0.63 0.58 0.51 0.36 0.29 0.29 0.21 0.19 0.20 0.17 0.16 0.16 0.19 0.27 0.31 0.25 0.21 0.19 0.19 0.20 0.16 0.16 0.22 0.31 0.34
0.13 0.28 0.39 0.42 0.37 0.28 0.41 0.37 0.46 0.66 0.69 0.68 0.77 0.75 0.69 0.59 0.64 0.90 1.04 1.21 1.18 1.26 1.40 0.92 0.73 0.71 0.59 0.39 0.26 0.24 0.21 0.18 0.21 0.22 0.31 0.43 0.40 0.32 0.26 0.22 0.25 0.33 0.39
0.29 0.28 0.30 0.33 0.48 0.53 0.55 0.56 0.81 0.96 0.91 0.78 0.93 0.86 0.89 1.04 1.56 1.78 2.05 2.07 1.93 1.56 1.20 0.72 0.53 0.41 0.36 0.36 0.31 0.26 0.24 0.27 0.26 0.39 0.55 0.56 0.53 0.45 0.41 0.38 0.33 0.32 0.31
0.19 0.16 0.19 0.31 0.40 0.64 0.83 0.73 0.65 0.86 0.85 0.78 0.94 0.89 0.87 0.76 0.81 0.88 1.27 1.41 1.17 1.21 0.51 0.37 0.32 0.36 0.47 0.55 0.56 0.55 0.48 0.49 0.61 0.73 0.81 0.91 0.97 0.91 0.85 0.75 0.70 0.70 0.68
0.70 0.80 0.70 0.59 0.70 0.56 0.78 0.92 0.74 0.68 0.64 0.64 0.79 0.74 0.67 0.83 0.78 1.02 1.52 1.54 0.98 0.67 0.47 0.45 0.44 0.47 0.50 0.56 0.60 0.61 0.58 0.68 0.88 1.07 1.17 1.16 1.18 1.08 0.96 0.89 0.85 0.92 1.02
1.63 1.09 1.01 1.31 1.47 1.33 1.27 1.18 0.97 0.79 0.71 0.71 0.68 0.79 0.81 0.82 0.87 0.98 1.20 0.82 0.76 0.82 0.72 0.83 0.82 0.73 0.72 0.70 0.86 1.12 1.39 1.29 1.32 1.21 1.14 1.05 0.97 0.89 0.85 0.88 1.12 1.57 2.07
1.55 1.90 1.47 1.94 3.28 3.57 3.28 2.63 2.24 2.01 1.63 1.48 1.33 1.47 1.45 1.45 1.40 1.53 1.84 1.90 1.86 1.49 1.35 1.45 1.49 1.34 1.41 1.38 1.42 1.48 1.48 1.56 1.68 1.78 1.91 2.39 3.10 3.43 3.47 3.34 3.25 3.25 3.11
0.99 1.14 1.14 1.17 1.31 1.46 2.16 2.63 2.57 2.40 2.24 2.37 2.37 2.35 2.48 2.57 2.45 2.70 2.96 3.12 2.91 2.93 2.83 2.83 3.15 3.12 2.93 2.84 2.71 2.62 2.62 2.80 3.17 3.40 3.44 3.19 2.82 2.29 1.76 1.59 1.56 1.64 1.56
0.81 0.81 0.80 0.91 0.83 0.84 0.72 0.89 1.41 1.34 1.09 1.06 1.18 1.34 1.46 1.17 1.22 1.32 1.54 1.69 1.80 1.79 1.84 1.80 1.62 1.65 1.80 1.85 1.88 1.85 1.78 1.72 1.63 1.44 1.32 1.29 1.24 1.07 0.89 0.94 0.91 0.78 0.64
0.39 0.64 0.70 0.72 0.67 0.80 0.80 0.82 0.76 0.86 1.18 1.14 0.86 0.72 0.71 0.54 0.55 0.58 0.54 0.59 0.69 0.73 0.73 0.74 0.71 0.75 0.77 0.83 0.76 0.72 0.66 0.68 0.79 0.87 0.80 0.69 0.66 0.55 0.41 0.38 0.37 0.31 0.22
0.37 0.41 0.55 0.63 0.72 0.61 0.53 0.50 0.56 0.60 0.52 0.50 0.47 0.48 0.45 0.39 0.40 0.44 0.41 0.45 0.44 0.43 0.47 0.51 0.53 0.50 0.48 0.47 0.43 0.41 0.31 0.27 0.30 0.35 0.38 0.36 0.34 0.36 0.31 0.24 0.19 0.18 0.13
0.32 0.33 0.38 0.47 0.66 0.78 0.86 0.62 0.51 0.52 0.47 0.36 0.34 0.33 0.28 0.21 0.19 0.22 0.21 0.20 0.17 0.21 0.24 0.26 0.24 0.23 0.26 0.26 0.26 0.26 0.31 0.34 0.32 0.27 0.26 0.27 0.25 0.18 0.20 0.19 0.15 0.12 0.11
0.83 0.56 0.47 0.39 0.39 0.64 1.11 1.21 1.12 1.18 1.10 1.00 0.76 0.53 0.49 0.49 0.37 0.27 0.23 0.19 0.16 0.12 0.12 0.13 0.11 0.13 0.16 0.15 0.15 0.19 0.23 0.22 0.22 0.22 0.16 0.14 0.15 0.13 0.13 0.14 0.17 0.18 0.19

GFSGL_prec_precacc_081.txt.gz
Total_Precipitation_Accumulation
0.04 0.05 0.05 0.05 0.02 0.02 0.03 0.02 0.04 0.07 0.12 0.27 0.80 0.15 0.16 0.09 0.04 0.07 0.09 0.06 0.04 0.01 0.00 0.01 0.00 0.01 0.00 0.00 0.00 0.00 0.00 0.00 0.00 0.00 0.00 0.00 0.00 0.00 0.00 0.00 0.00 0.00 0.01
0.16 0.16 0.09 0.05 0.05 0.07 0.02 0.01 0.00 0.02 0.03 0.08 0.11 0.12 0.13 0.05 0.10 0.13 0.10 0.04 0.07 0.02 0.00 0.01 0.01 0.00 0.03 0.01 0.00 0.01 0.00 0.01 0.02 0.01 0.00 0.00 0.00 0.00 0.01 0.01 0.00 0.00 0.01
0.16 0.17 0.20 0.19 0.13 0.10 0.06 0.00 0.01 0.01 0.03 0.01 0.02 0.10 0.13 0.11 0.15 0.19 0.13 0.08 0.08 0.06 0.03 0.02 0.00 0.01 0.04 0.02 0.04 0.02 0.01 0.02 0.06 0.05 0.02 0.01 0.00 0.00 0.01 0.00 0.00 0.00 0.00
0.36 0.32 0.30 0.24 0.20 0.17 0.11 0.05 0.02 0.02 0.01 0.01 0.00 0.04 0.07 0.06 0.06 0.12 0.18 0.15 0.11 0.15 0.09 0.03 0.02 0.02 0.05 0.07 0.05 0.07 0.07 0.14 0.20 0.18 0.10 0.06 0.02 0.00 0.00 0.00 0.02 0.00 0.00
0.39 0.49 0.89 1.18 0.54 0.43 0.26 0.22 0.11 0.04 0.01 0.00 0.00 0.00 0.02 0.03 0.04 0.05 0.07 0.14 0.21 0.18 0.13 0.09 0.08 0.09 0.09 0.16 0.12 0.11 0.08 0.10 0.07 0.06 0.05 0.02 0.00 0.01 0.01 0.00 0.01 0.00 0.01
0.41 0.42 0.40 0.92 0.81 0.62 0.60 0.31 0.16 0.09 0.05 0.04 0.04 0.02 0.05 0.04 0.03 0.03 0.10 0.19 0.26 0.26 0.24 0.28 0.15 0.15 0.16 0.18 0.14 0.09 0.09 0.11 0.15 0.12 0.06 0.01 0.06 0.07 0.05 0.04 0.01 0.01 0.01
0.29 0.34 0.36 0.36 0.22 0.16 0.21 0.27 0.24 0.14 0.16 0.11 0.07 0.07 0.14 0.12 0.16 0.26 0.32 0.22 0.25 0.21 0.24 0.20 0.14 0.12 0.20 0.11 0.21 0.27 0.12 0.12 0.11 0.14 0.04 0.05 0.07 0.09 0.07 0.07 0.03 0.06 0.06
0.14 0.06 0.07 0.19 0.15 0.16 0.16 0.23 0.28 0.21 0.17 0.13 0.11 0.17 0.27 0.39 0.57 0.45 0.39 0.24 0.20 0.12 0.09 0.08 0.10 0.13 0.16 0.22 0.28 0.17 0.17 0.14 0.19 0.12 0.05 0.07 0.08 0.07 0.10 0.11 0.13 0.06 0.04
0.13 0.14 0.08 0.04 0.04 0.11 0.15 0.21 0.24 0.19 0.24 0.35 0.59 0.57 0.49 0.35 0.27 0.15 0.17 0.16 0.11 0.12 0.07 0.08 0.12 0.07 0.31 0.39 0.15 0.07 0.08 0.07 0.12 0.13 0.10 0.06 0.07 0.06 0.04 0.03 0.04 0.06 0.05
0.10 0.09 0.10 0.08 0.04 0.06 0.18 0.22 0.38 0.62 0.48 0.31 0.23 0.17 0.12 0.09 0.16 0.15 0.13 0.18 0.15 0.07 0.12 0.09 0.27 0.11 0.21 0.18 0.07 0.03 0.06 0.16 0.08 0.08 0.07 0.06 0.05 0.07 0.04 0.03 0.17 0.20 0.14
0.12 0.13 0.12 0.05 0.06 0.16 0.27 0.32 0.48 0.51 0.33 0.24 0.18 0.20 0.22 0.15 0.14 0.11 0.07 0.09 0.10 0.16 0.06 0.11 0.10 0.12 0.10 0.16 0.24 0.16 0.16 0.11 0.08 0.05 0.05 0.05 0.11 0.18 0.19 0.16 0.29 0.39 0.25
0.11 0.12 0.05 0.04 0.08 0.19 0.23 0.25 0.30 0.32 0.29 0.27 0.31 0.28 0.31 0.22 0.23 0.16 0.15 0.14 0.17 0.22 0.08 0.12 0.16 0.19 0.30 0.37 0.27 0.14 0.08 0.08 0.10 0.12 0.12 0.08 0.11 0.14 0.12 0.17 0.29 0.35 0.35
0.07 0.10 0.10 0.07 0.05 0.12 0.19 0.17 0.10 0.15 0.22 0.32 0.41 0.35 0.40 0.44 0.47 0.39 0.45 0.48 0.38 0.37 0.24 0.28 0.28 0.19 0.15 0.14 0.11 0.09 0.12 0.19 0.25 0.26 0.24 0.14 0.12 0.17 0.18 0.16 0.24 0.32 0.31
0.11 0.07 0.09 0.17 0.17 0.20 0.32 0.18 0.12 0.23 0.29 0.30 0.59 0.85 0.88 0.79 0.70 0.63 0.66 0.60 0.53 0.41 0.32 0.30 0.24 0.21 0.20 0.17 0.16 0.16 0.19 0.27 0.31 0.25 0.21 0.19 0.19 0.20 0.16 0.16 0.22 0.31 0.34
0.13 0.28 0.39 0.42 0.37 0.28 0.41 0.37 0.46 0.66 0.69 0.68 0.77 0.75 0.69 0.59 0.64 0.93 1.09 1.23 1.19 1.32 1.49 0.98 0.78 0.72 0.59 0.39 0.26 0.24 0.21 0.18 0.21 0.22 0.31 0.43 0.40 0.32 0.26 0.22 0.25 0.33 0.39
0.29 0.28 0.30 0.33 0.48 0.53 0.55 0.56 0.81 0.96 0.91 0.78 0.93 0.86 0.89 1.04 1.56 1.78 2.05 2.08 1.94 1.56 1.20 0.73 0.54 0.41 0.36 0.36 0.31 0.28 0.24 0.27 0.26 0.39 0.55 0.56 0.53 0.45 0.41 0.38 0.33 0.32 0.31
0.19 0.16 0.19 0.31 0.40 0.64 0.83 0.73 0.65 0.86 0.85 0.78 0.94 0.89 0.87 0.76 0.81 0.88 1.27 1.41 1.17 1.21 0.51 0.37 0.32 0.36 0.47 0.58 0.57 0.56 0.51 0.56 0.70 0.77 0.82 0.91 0.97 0.91 0.85 0.75 0.70 0.70 0.68
0.70 0.80 0.70 0.59 0.70 0.56 0.78 0.92 0.74 0.68 0.64 0.64 0.79 0.74 0.67 0.83 0.78 1.02 1.52 1.54 0.98 0.68 0.47 0.45 0.44 0.47 0.50 0.56 0.60 0.61 0.59 0.70 1.01 1.31 1.30 1.22 1.25 1.13 0.98 0.90 0.85 0.92 1.02
1.63 1.09 1.01 1.31 1.47 1.33 1.27 1.18 0.97 0.79 0.71 0.71 0.68 0.79 0.81 0.82 0.87 0.98 1.20 0.82 0.76 0.82 0.72 0.83 0.82 0.73 0.72 0.71 0.88 1.17 1.43 1.31 1.43 1.47 1.41 1.38 1.29 1.17 0.96 0.94 1.15 1.59 2.08
1.55 1.90 1.47 1.94 3.28 3.57 3.28 2.63 2.24 2.01 1.63 1.48 1.33 1.47 1.45 1.45 1.40 1.53 1.84 1.90 1.86 1.49 1.35 1.45 1.49 1.34 1.41 1.39 1.42 1.48 1.51 1.62 1.72 1.85 1.99 2.66 3.44 3.83 3.78 3.53 3.32 3.36 3.28
0.99 1.14 1.14 1.17 1.31 1.46 2.16 2.64 2.57 2.40 2.24 2.37 2.37 2.35 2.48 2.57 2.45 2.70 2.96 3.12 2.91 2.93 2.83 2.83 3.15 3.12 2.93 2.85 2.72 2.63 2.68 2.88 3.25 3.53 3.66 3.43 3.07 2.64 2.09 1.86 1.74 1.81 1.74
0.81 0.81 0.80 0.91 0.83 0.84 0.72 0.89 1.41 1.34 1.09 1.06 1.18 1.34 1.46 1.17 1.22 1.32 1.54 1.69 1.80 1.79 1.84 1.80 1.62 1.65 1.80 1.85 1.89 1.87 1.80 1.78 1.78 1.73 1.63 1.65 1.65 1.45 1.26 1.28 1.27 1.10 0.94
0.39 0.64 0.70 0.72 0.67 0.80 0.80 0.82 0.76 0.86 1.18 1.15 0.87 0.72 0.71 0.55 0.55 0.58 0.54 0.59 0.69 0.73 0.73 0.74 0.71 0.75 0.77 0.83 0.76 0.73 0.67 0.69 0.84 0.96 1.02 1.16 1.27 1.17 1.06 1.09 0.98 0.61 0.44
0.37 0.41 0.55 0.63 0.72 0.61 0.53 0.50 0.57 0.61 0.53 0.50 0.48 0.48 0.46 0.40 0.41 0.44 0.41 0.45 0.44 0.43 0.47 0.51 0.53 0.50 0.48 0.47 0.43 0.41 0.31 0.28 0.30 0.37 0.40 0.45 0.60 0.80 0.75 0.64 0.50 0.38 0.25
0.32 0.33 0.38 0.47 0.66 0.78 0.86 0.62 0.51 0.52 0.48 0.36 0.34 0.34 0.28 0.21 0.20 0.22 0.22 0.21 0.17 0.21 0.24 0.26 0.24 0.23 0.26 0.26 0.26 0.26 0.31 0.34 0.32 0.28 0.27 0.28 0.25 0.20 0.23 0.24 0.21 0.19 0.16
0.83 0.56 0.47 0.39 0.39 0.64 1.11 1.22 1.13 1.18 1.11 1.00 0.77 0.54 0.50 0.50 0.37 0.27 0.23 0.19 0.16 0.12 0.12 0.13 0.11 0.13 0.16 0.15 0.16 0.19 0.23 0.22 0.22 0.22 0.16 0.15 0.16 0.14 0.14 0.15 0.17 0.19 0.20

GFSGL_prec_precacc_084.txt.gz
Total_Precipitation_Accumulation
0.16 0.13 0.11 0.08 0.03 0.02 0.03 0.03 0.06 0.07 0.13 0.27 0.83 0.15 0.16 0.09 0.04 0.07 0.09 0.06 0.04 0.01 0.00 0.01 0.00 0.01 0.00 0.00 0.00 0.00 0.00 0.00 0.00 0.00 0.00 0.00 0.00 0.00 0.00 0.00 0.00 0.00 0.01
0.19 0.21 0.19 0.20 0.17 0.12 0.02 0.02 0.04 0.02 0.03 0.08 0.11 0.12 0.13 0.05 0.10 0.13 0.10 0.04 0.07 0.02 0.00 0.01 0.01 0.00 0.03 0.01 0.00 0.01 0.00 0.01 0.02 0.01 0.01 0.00 0.00 0.00 0.01 0.01 0.00 0.00 0.01
0.32 0.23 0.27 0.31 0.33 0.25 0.13 0.04 0.03 0.02 0.03 0.01 0.02 0.10 0.13 0.11 0.16 0.19 0.14 0.08 0.08 0.06 0.03 0.02 0.00 0.01 0.04 0.02 0.04 0.02 0.01 0.02 0.06 0.05 0.02 0.01 0.00 0.00 0.01 0.00 0.00 0.00 0.00
0.63 0.50 0.44 0.41 0.38 0.31 0.22 0.20 0.15 0.11 0.02 0.01 0.00 0.04 0.07 0.06 0.06 0.12 0.18 0.15 0.11 0.15 0.09 0.03 0.02 0.02 0.05 0.07 0.05 0.07 0.07 0.14 0.20 0.18 0.10 0.06 0.02 0.00 0.00 0.00 0.02 0.00 0.00
0.67 0.75 1.01 1.34 0.83 0.73 0.44 0.44 0.29 0.21 0.13 0.08 0.02 0.01 0.02 0.03 0.04 0.05 0.08 0.14 0.21 0.18 0.13 0.09 0.08 0.09 0.09 0.16 0.12 0.11 0.08 0.10 0.07 0.06 0.05 0.02 0.00 0.01 0.01 0.00 0.01 0.00 0.01
0.44 0.50 0.54 1.02 0.98 0.75 0.79 0.53 0.38 0.26 0.22 0.16 0.14 0.06 0.05 0.04 0.03 0.03 0.10 0.19 0.27 0.26 0.24 0.28 0.15 0.15 0.16 0.18 0.14 0.09 0.09 0.11 0.15 0.12 0.06 0.01 0.06 0.07 0.05 0.04 0.01 0.01 0.01
0.30 0.37 0.40 0.41 0.28 0.21 0.24 0.32 0.33 0.28 0.30 0.22 0.21 0.25 0.24 0.15 0.16 0.28 0.35 0.22 0.27 0.21 0.24 0.20 0.14 0.12 0.20 0.11 0.21 0.27 0.12 0.12 0.11 0.14 0.04 0.05 0.07 0.09 0.07 0.07 0.03 0.06 0.06
0.14 0.06 0.08 0.25 0.36 0.28 0.20 0.25 0.31 0.28 0.28 0.26 0.19 0.25 0.36 0.47 0.64 0.50 0.47 0.25 0.20 0.12 0.09 0.08 0.10 0.13 0.16 0.22 0.28 0.17 0.17 0.14 0.19 0.12 0.05 0.07 0.08 0.07 0.10 0.11 0.13 0.06 0.04
0.13 0.14 0.08 0.04 0.04 0.13 0.20 0.24 0.30 0.29 0.32 0.41 0.67 0.66 0.54 0.42 0.43 0.26 0.35 0.28 0.14 0.12 0.07 0.08 0.12 0.07 0.31 0.40 0.15 0.07 0.08 0.07 0.12 0.13 0.10 0.06 0.07 0.06 0.04 0.03 0.04 0.06 0.05
0.10 0.09 0.10 0.08 0.04 0.06 0.19 0.26 0.41 0.67 0.55 0.37 0.28 0.24 0.19 0.14 0.22 0.20 0.22 0.29 0.23 0.16 0.13 0.09 0.27 0.11 0.21 0.19 0.08 0.03 0.06 0.16 0.08 0.08 0.07 0.06 0.05 0.07 0.04 0.03 0.17 0.20 0.14
0.12 0.13 0.12 0.05 0.06 0.16 0.27 0.32 0.48 0.52 0.36 0.28 0.24 0.30 0.30 0.19 0.19 0.17 0.17 0.12 0.13 0.29 0.18 0.12 0.10 0.12 0.11 0.16 0.24 0.16 0.16 0.11 0.08 0.05 0.05 0.05 0.11 0.18 0.19 0.16 0.29 0.39 0.25
0.11 0.12 0.05 0.04 0.08 0.19 0.23 0.25 0.30 0.32 0.29 0.28 0.32 0.30 0.33 0.23 0.23 0.18 0.21 0.17 0.23 0.24 0.09 0.13 0.16 0.19 0.31 0.37 0.27 0.14 0.08 0.08 0.10 0.12 0.12 0.08 0.11 0.14 0.12 0.17 0.29 0.35 0.35
0.07 0.10 0.10 0.07 0.05 0.12 0.19 0.17 0.10 0.15 0.22 0.32 0.41 0.35 0.40 0.44 0.47 0.41 0.49 0.56 0.47 0.40 0.27 0.30 0.30 0.19 0.15 0.14 0.11 0.09 0.12 0.19 0.25 0.26 0.24 0.14 0.12 0.17 0.18 0.16 0.24 0.32 0.31
0.11 0.07 0.09 0.17 0.17 0.20 0.32 0.18 0.12 0.23 0.29 0.30 0.59 0.85 0.88 0.79 0.70 0.63 0.66 0.60 0.53 0.41 0.33 0.31 0.24 0.21 0.20 0.17 0.16 0.16 0.19 0.27 0.31 0.25 0.21 0.19 0.19 0.20 0.16 0.16 0.22 0.31 0.34
0.13 0.28 0.39 0.42 0.37 0.28 0.41 0.37 0.46 0.66 0.69 0.68 0.77 0.75 0.69 0.59 0.64 0.93 1.09 1.23 1.19 1.32 1.49 0.99 0.78 0.72 0.59 0.39 0.26 0.24 0.21 0.18 0.21 0.22 0.31 0.43 0.40 0.32 0.26 0.22 0.25 0.33 0.39
0.29 0.28 0.30 0.33 0.48 0.53 0.55 0.56 0.81 0.96 0.91 0.78 0.93 0.86 0.89 1.04 1.56 1.78 2.05 2.08 1.94 1.57 1.20 0.73 0.54 0.41 0.36 0.36 0.32 0.28 0.25 0.27 0.27 0.41 0.57 0.57 0.53 0.45 0.41 0.38 0.33 0.32 0.31
0.19 0.16 0.19 0.31 0.40 0.64 0.83 0.73 0.65 0.86 0.85 0.78 0.94 0.89 0.87 0.76 0.81 0.88 1.27 1.41 1.17 1.21 0.51 0.37 0.32 0.36 0.47 0.58 0.57 0.58 0.52 0.61 0.84 0.86 0.89 0.95 0.99 0.92 0.86 0.76 0.70 0.70 0.68
0.70 0.80 0.70 0.59 0.70 0.56 0.78 0.92 0.74 0.68 0.64 0.64 0.79 0.74 0.67 0.83 0.78 1.02 1.52 1.54 0.98 0.68 0.47 0.45 0.44 0.47 0.50 0.56 0.60 0.61 0.59 0.70 1.02 1.31 1.31 1.27 1.40 1.33 1.20 1.03 0.97 1.01 1.06
1.63 1.09 1.01 1.31 1.47 1.33 1.27 1.18 0.97 0.79 0.71 0.71 0.68 0.79 0.81 0.82 0.87 0.98 1.20 0.82 0.76 0.82 0.72 0.83 0.82 0.73 0.72 0.71 0.88 1.17 1.43 1.31 1.43 1.47 1.44 1.54 1.50 1.48 1.31 1.19 1.35 1.73 2.20
1.55 1.90 1.47 1.94 3.28 3.57 3.28 2.63 2.24 2.01 1.63 1.48 1.33 1.47 1.45 1.45 1.40 1.53 1.84 1.90 1.86 1.49 1.35 1.45 1.49 1.34 1.41 1.39 1.42 1.48 1.51 1.62 1.72 1.85 2.00 2.75 3.54 4.08 4.12 3.73 3.48 3.52 3.41
0.99 1.14 1.14 1.17 1.31 1.46 2.16 2.64 2.57 2.40 2.24 2.37 2.37 2.35 2.48 2.57 2.45 2.70 2.96 3.12 2.91 2.93 2.83 2.83 3.15 3.12 2.93 2.85 2.72 2.64 2.69 2.89 3.26 3.55 3.68 3.46 3.21 2.79 2.34 2.18 2.02 2.05 1.95
0.81 0.81 0.80 0.91 0.83 0.84 0.72 0.89 1.41 1.34 1.09 1.06 1.18 1.34 1.46 1.17 1.22 1.32 1.54 1.69 1.80 1.79 1.84 1.80 1.62 1.65 1.80 1.85 1.89 1.87 1.81 1.79 1.79 1.74 1.64 1.68 1.72 1.58 1.41 1.48 1.51 1.44 1.32
0.39 0.64 0.70 0.72 0.67 0.80 0.80 0.82 0.76 0.86 1.18 1.15 0.87 0.73 0.71 0.55 0.56 0.58 0.54 0.59 0.69 0.73 0.73 0.74 0.71 0.75 0.77 0.83 0.77 0.73 0.67 0.69 0.84 0.97 1.03 1.16 1.27 1.18 1.08 1.18 1.36 1.28 1.07
0.37 0.41 0.55 0.63 0.72 0.61 0.53 0.50 0.57 0.61 0.53 0.51 0.48 0.48 0.46 0.40 0.41 0.44 0.41 0.45 0.44 0.43 0.47 0.51 0.53 0.50 0.48 0.47 0.43 0.41 0.31 0.28 0.31 0.37 0.40 0.46 0.60 0.80 0.75 0.64 0.52 0.46 0.36
0.32 0.33 0.38 0.47 0.66 0.78 0.86 0.62 0.51 0.52 0.48 0.37 0.34 0.34 0.29 0.21 0.20 0.23 0.22 0.21 0.18 0.22 0.25 0.26 0.24 0.23 0.26 0.26 0.26 0.26 0.31 0.36 0.33 0.28 0.27 0.28 0.25 0.20 0.23 0.24 0.22 0.20 0.18
0.83 0.56 0.47 0.39 0.39 0.64 1.11 1.22 1.13 1.18 1.11 1.01 0.77 0.54 0.50 0.50 0.38 0.27 0.23 0.20 0.16 0.12 0.12 0.13 0.12 0.13 0.16 0.15 0.16 0.19 0.24 0.22 0.22 0.23 0.16 0.15 0.16 0.14 0.14 0.15 0.18 0.19 0.22

GFSGL_prec_precacc_087.txt.gz
Total_Precipitation_Accumulation
0.18 0.14 0.11 0.08 0.03 0.05 0.03 0.03 0.07 0.13 0.16 0.29 0.84 0.15 0.16 0.09 0.04 0.07 0.09 0.06 0.04 0.01 0.00 0.01 0.00 0.01 0.00 0.00 0.00 0.00 0.00 0.00 0.00 0.00 0.00 0.00 0.00 0.00 0.00 0.00 0.00 0.00 0.01
0.24 0.22 0.19 0.20 0.17 0.15 0.06 0.03 0.07 0.03 0.05 0.16 0.13 0.12 0.13 0.05 0.10 0.13 0.10 0.04 0.07 0.02 0.00 0.01 0.01 0.00 0.03 0.01 0.00 0.01 0.00 0.01 0.02 0.01 0.01 0.00 0.00 0.00 0.01 0.01 0.00 0.00 0.01
0.50 0.28 0.27 0.31 0.33 0.26 0.16 0.09 0.06 0.05 0.09 0.08 0.06 0.13 0.13 0.11 0.17 0.19 0.15 0.08 0.08 0.06 0.03 0.03 0.00 0.01 0.04 0.02 0.04 0.02 0.01 0.02 0.06 0.05 0.02 0.01 0.00 0.00 0.01 0.00 0.00 0.00 0.00
1.15 0.78 0.47 0.43 0.41 0.35 0.26 0.23 0.16 0.12 0.04 0.03 0.03 0.07 0.08 0.06 0.06 0.12 0.21 0.20 0.14 0.15 0.09 0.05 0.04 0.02 0.05 0.07 0.05 0.07 0.07 0.14 0.20 0.18 0.10 0.06 0.02 0.00 0.00 0.00 0.02 0.00 0.00
0.80 1.00 1.19 1.38 0.87 0.82 0.57 0.58 0.36 0.23 0.13 0.09 0.03 0.02 0.03 0.03 0.04 0.05 0.09 0.20 0.24 0.19 0.13 0.09 0.08 0.09 0.09 0.16 0.13 0.11 0.08 0.10 0.07 0.06 0.05 0.02 0.00 0.01 0.01 0.00 0.01 0.00 0.01
0.44 0.54 0.65 1.14 1.02 0.77 0.83 0.61 0.46 0.36 0.33 0.26 0.17 0.10 0.10 0.07 0.07 0.05 0.10 0.20 0.28 0.26 0.24 0.28 0.15 0.15 0.16 0.18 0.14 0.09 0.10 0.12 0.15 0.12 0.06 0.01 0.06 0.07 0.05 0.04 0.01 0.01 0.01
0.30 0.37 0.41 0.46 0.35 0.25 0.26 0.32 0.34 0.29 0.33 0.29 0.35 0.39 0.33 0.21 0.24 0.36 0.38 0.23 0.27 0.22 0.25 0.21 0.14 0.12 0.20 0.11 0.21 0.27 0.12 0.13 0.11 0.14 0.04 0.05 0.07 0.09 0.07 0.07 0.03 0.06 0.06
0.14 0.06 0.08 0.25 0.36 0.29 0.22 0.27 0.32 0.28 0.28 0.30 0.25 0.35 0.54 0.66 0.83 0.62 0.61 0.29 0.20 0.12 0.09 0.08 0.10 0.13 0.16 0.23 0.29 0.17 0.17 0.14 0.19 0.12 0.05 0.07 0.08 0.07 0.10 0.11 0.13 0.06 0.04
0.13 0.14 0.10 0.05 0.04 0.13 0.20 0.26 0.33 0.30 0.32 0.42 0.71 0.71 0.59 0.58 0.64 0.48 0.48 0.37 0.18 0.14 0.09 0.08 0.12 0.07 0.32 0.44 0.17 0.07 0.08 0.07 0.12 0.13 0.10 0.06 0.07 0.06 0.04 0.03 0.04 0.06 0.05
0.10 0.09 0.10 0.08 0.04 0.06 0.19 0.26 0.41 0.67 0.55 0.38 0.31 0.26 0.22 0.21 0.31 0.30 0.34 0.39 0.30 0.26 0.16 0.09 0.29 0.12 0.22 0.20 0.09 0.03 0.06 0.16 0.08 0.08 0.07 0.06 0.05 0.07 0.04 0.03 0.17 0.20 0.14
0.12 0.13 0.12 0.05 0.06 0.16 0.27 0.32 0.48 0.52 0.36 0.29 0.25 0.31 0.31 0.21 0.22 0.19 0.22 0.20 0.20 0.39 0.22 0.15 0.11 0.14 0.13 0.16 0.24 0.16 0.16 0.11 0.08 0.05 0.05 0.05 0.11 0.18 0.19 0.16 0.29 0.39 0.25
0.11 0.12 0.05 0.04 0.08 0.19 0.23 0.25 0.30 0.32 0.29 0.28 0.32 0.31 0.34 0.23 0.23 0.18 0.22 0.18 0.24 0.24 0.10 0.14 0.19 0.23 0.32 0.40 0.28 0.15 0.09 0.09 0.10 0.12 0.12 0.08 0.11 0.14 0.12 0.17 0.29 0.35 0.35
0.07 0.10 0.10 0.07 0.05 0.12 0.19 0.17 0.10 0.15 0.22 0.32 0.41 0.35 0.40 0.45 0.47 0.41 0.49 0.56 0.47 0.40 0.27 0.30 0.30 0.19 0.15 0.14 0.11 0.09 0.13 0.19 0.25 0.26 0.24 0.14 0.12 0.17 0.18 0.16 0.24 0.32 0.31
0.11 0.07 0.09 0.17 0.17 0.20 0.32 0.18 0.12 0.23 0.29 0.30 0.59 0.85 0.88 0.79 0.70 0.63 0.66 0.60 0.53 0.41 0.33 0.31 0.24 0.21 0.20 0.17 0.16 0.16 0.19 0.27 0.31 0.25 0.21 0.19 0.19 0.20 0.16 0.16 0.22 0.31 0.34
0.13 0.28 0.39 0.42 0.37 0.28 0.41 0.37 0.46 0.66 0.69 0.68 0.77 0.75 0.69 0.59 0.64 0.93 1.09 1.23 1.19 1.32 1.49 0.99 0.78 0.72 0.59 0.39 0.26 0.24 0.21 0.18 0.21 0.22 0.31 0.43 0.40 0.32 0.26 0.22 0.25 0.33 0.39
0.29 0.28 0.30 0.33 0.48 0.53 0.55 0.56 0.81 0.96 0.91 0.78 0.93 0.86 0.89 1.04 1.56 1.78 2.05 2.08 1.94 1.57 1.20 0.73 0.54 0.41 0.36 0.36 0.32 0.28 0.25 0.27 0.27 0.42 0.61 0.60 0.55 0.46 0.41 0.38 0.33 0.32 0.31
0.19 0.16 0.19 0.31 0.40 0.64 0.83 0.73 0.65 0.86 0.85 0.78 0.94 0.89 0.87 0.76 0.81 0.88 1.27 1.41 1.17 1.21 0.51 0.37 0.32 0.36 0.47 0.58 0.57 0.58 0.52 0.61 0.84 0.86 0.89 0.97 1.02 0.93 0.87 0.76 0.70 0.70 0.68
0.70 0.80 0.70 0.59 0.70 0.56 0.78 0.92 0.74 0.68 0.64 0.64 0.79 0.74 0.67 0.83 0.78 1.02 1.52 1.54 0.98 0.68 0.47 0.45 0.44 0.47 0.50 0.56 0.60 0.61 0.59 0.70 1.02 1.31 1.31 1.28 1.40 1.33 1.21 1.04 1.00 1.03 1.08
1.63 1.09 1.01 1.31 1.47 1.33 1.27 1.18 0.97 0.79 0.71 0.71 0.68 0.79 0.81 0.82 0.87 0.98 1.20 0.82 0.76 0.82 0.72 0.83 0.82 0.73 0.72 0.71 0.88 1.17 1.43 1.31 1.43 1.47 1.44 1.54 1.51 1.51 1.34 1.19 1.39 1.80 2.27
1.55 1.90 1.47 1.94 3.28 3.57 3.28 2.63 2.24 2.01 1.63 1.48 1.33 1.47 1.45 1.45 1.40 1.53 1.84 1.90 1.86 1.49 1.35 1.45 1.49 1.34 1.41 1.39 1.42 1.48 1.51 1.62 1.72 1.85 2.01 2.76 3.56 4.11 4.16 3.77 3.50 3.54 3.43
0.99 1.14 1.14 1.17 1.31 1.46 2.16 2.64 2.57 2.40 2.24 2.37 2.37 2.35 2.48 2.57 2.45 2.70 2.96 3.12 2.91 2.93 2.83 2.83 3.15 3.12 2.93 2.85 2.72 2.64 2.69 2.89 3.27 3.56 3.71 3.49 3.26 2.83 2.36 2.19 2.04 2.07 1.98
0.81 0.81 0.80 0.91 0.83 0.84 0.72 0.89 1.41 1.34 1.09 1.06 1.18 1.34 1.46 1.17 1.22 1.32 1.54 1.69 1.80 1.79 1.84 1.80 1.62 1.65 1.80 1.85 1.89 1.87 1.81 1.80 1.80 1.75 1.66 1.71 1.74 1.60 1.43 1.50 1.53 1.46 1.36
0.39 0.64 0.70 0.72 0.67 0.80 0.80 0.82 0.76 0.86 1.18 1.15 0.87 0.73 0.71 0.55 0.56 0.58 0.54 0.59 0.69 0.73 0.73 0.75 0.71 0.75 0.77 0.83 0.78 0.75 0.68 0.70 0.85 0.97 1.04 1.17 1.29 1.20 1.09 1.19 1.37 1.29 1.07
0.37 0.41 0.55 0.63 0.72 0.61 0.53 0.50 0.57 0.61 0.53 0.51 0.48 0.48 0.46 0.40 0.41 0.44 0.41 0.45 0.44 0.43 0.47 0.51 0.53 0.50 0.48 0.47 0.43 0.42 0.31 0.29 0.31 0.38 0.40 0.46 0.61 0.83 0.76 0.65 0.52 0.46 0.36
0.32 0.33 0.38 0.47 0.66 0.78 0.86 0.62 0.51 0.52 0.48 0.37 0.34 0.34 0.29 0.21 0.20 0.23 0.22 0.21 0.18 0.22 0.25 0.26 0.24 0.23 0.27 0.26 0.26 0.26 0.31 0.36 0.34 0.30 0.28 0.29 0.26 0.20 0.23 0.24 0.22 0.21 0.19
0.83 0.56 0.47 0.39 0.39 0.64 1.11 1.22 1.13 1.18 1.11 1.01 0.77 0.54 0.50 0.50 0.38 0.27 0.23 0.20 0.16 0.13 0.12 0.13 0.12 0.13 0.16 0.15 0.16 0.20 0.24 0.23 0.24 0.26 0.19 0.15 0.16 0.15 0.14 0.15 0.18 0.20 0.22

GFSGL_prec_precacc_090.txt.gz
Total_Precipitation_Accumulation
0.36 0.16 0.11 0.08 0.03 0.05 0.03 0.03 0.07 0.16 0.20 0.41 0.91 0.15 0.19 0.13 0.05 0.07 0.09 0.06 0.04 0.01 0.00 0.01 0.00 0.01 0.00 0.00 0.01 0.00 0.00 0.00 0.00 0.00 0.00 0.00 0.00 0.00 0.00 0.00 0.00 0.00 0.01
0.50 0.32 0.21 0.21 0.17 0.19 0.08 0.06 0.08 0.08 0.16 0.29 0.19 0.16 0.14 0.07 0.10 0.13 0.12 0.08 0.10 0.02 0.00 0.01 0.01 0.00 0.03 0.01 0.01 0.01 0.00 0.01 0.02 0.01 0.01 0.00 0.00 0.00 0.01 0.01 0.00 0.00 0.01
0.87 0.57 0.37 0.32 0.33 0.27 0.17 0.12 0.07 0.06 0.12 0.17 0.13 0.26 0.23 0.15 0.17 0.19 0.16 0.16 0.12 0.11 0.04 0.03 0.02 0.01 0.04 0.02 0.04 0.02 0.01 0.02 0.06 0.05 0.02 0.01 0.00 0.00 0.01 0.00 0.00 0.00 0.00
1.35 1.11 0.60 0.45 0.41 0.35 0.26 0.23 0.16 0.12 0.04 0.05 0.06 0.14 0.15 0.09 0.06 0.12 0.22 0.22 0.17 0.21 0.16 0.07 0.07 0.03 0.05 0.07 0.05 0.07 0.07 0.14 0.20 0.18 0.10 0.06 0.02 0.00 0.00 0.00 0.02 0.00 0.00
0.85 1.19 1.54 1.50 0.88 0.82 0.57 0.59 0.39 0.27 0.17 0.11 0.05 0.04 0.04 0.04 0.05 0.05 0.10 0.21 0.24 0.20 0.15 0.11 0.10 0.12 0.11 0.16 0.14 0.13 0.10 0.10 0.07 0.06 0.05 0.02 0.00 0.01 0.01 0.00 0.01 0.00 0.01
0.45 0.54 0.68 1.26 1.08 0.78 0.83 0.61 0.46 0.37 0.35 0.27 0.18 0.12 0.13 0.09 0.10 0.05 0.10 0.20 0.29 0.27 0.26 0.29 0.16 0.17 0.16 0.20 0.15 0.09 0.11 0.12 0.15 0.13 0.06 0.01 0.06 0.07 0.05 0.04 0.01 0.01 0.01
0.30 0.37 0.41 0.47 0.36 0.27 0.27 0.33 0.34 0.29 0.35 0.29 0.35 0.42 0.37 0.27 0.28 0.40 0.43 0.24 0.27 0.22 0.25 0.21 0.14 0.12 0.22 0.15 0.28 0.30 0.14 0.13 0.11 0.14 0.04 0.05 0.07 0.09 0.07 0.07 0.03 0.06 0.06
0.14 0.06 0.08 0.25 0.36 0.30 0.23 0.28 0.33 0.28 0.29 0.30 0.25 0.36 0.57 0.76 0.92 0.69 0.65 0.32 0.20 0.12 0.09 0.08 0.10 0.13 0.17 0.25 0.30 0.19 0.19 0.16 0.19 0.13 0.06 0.07 0.08 0.07 0.10 0.11 0.13 0.06 0.04
0.13 0.14 0.10 0.05 0.04 0.13 0.20 0.26 0.33 0.30 0.32 0.43 0.71 0.71 0.59 0.60 0.70 0.55 0.51 0.38 0.18 0.14 0.09 0.09 0.13 0.07 0.34 0.46 0.18 0.07 0.08 0.07 0.12 0.13 0.10 0.06 0.07 0.06 0.04 0.03 0.04 0.06 0.05
0.10 0.09 0.10 0.08 0.04 0.06 0.19 0.26 0.41 0.67 0.55 0.38 0.32 0.27 0.22 0.21 0.31 0.31 0.35 0.40 0.30 0.27 0.18 0.11 0.33 0.12 0.23 0.23 0.09 0.03 0.06 0.16 0.08 0.08 0.07 0.06 0.05 0.07 0.04 0.03 0.17 0.20 0.14
0.12 0.13 0.12 0.05 0.06 0.16 0.27 0.32 0.48 0.52 0.36 0.29 0.26 0.31 0.31 0.21 0.22 0.19 0.22 0.20 0.20 0.39 0.23 0.18 0.13 0.16 0.14 0.17 0.25 0.17 0.19 0.12 0.08 0.05 0.05 0.05 0.11 0.18 0.19 0.16 0.29 0.39 0.25
0.11 0.12 0.05 0.04 0.08 0.19 0.23 0.25 0.30 0.32 0.29 0.28 0.32 0.31 0.34 0.24 0.23 0.18 0.22 0.18 0.24 0.24 0.10 0.14 0.20 0.28 0.36 0.44 0.32 0.20 0.14 0.11 0.10 0.12 0.12 0.08 0.11 0.14 0.12 0.17 0.29 0.35 0.35
0.07 0.10 0.10 0.07 0.05 0.12 0.19 0.17 0.10 0.15 0.22 0.32 0.41 0.35 0.40 0.45 0.47 0.41 0.49 0.56 0.47 0.40 0.27 0.30 0.30 0.20 0.16 0.14 0.12 0.11 0.16 0.19 0.25 0.26 0.24 0.14 0.12 0.17 0.18 0.16 0.24 0.32 0.31
0.11 0.07 0.09 0.17 0.17 0.20 0.32 0.18 0.12 0.23 0.29 0.30 0.59 0.85 0.88 0.79 0.70 0.63 0.66 0.60 0.53 0.41 0.33 0.31 0.24 0.21 0.20 0.17 0.16 0.16 0.19 0.27 0.31 0.25 0.21 0.19 0.19 0.20 0.16 0.16 0.22 0.31 0.34
0.13 0.28 0.39 0.42 0.37 0.28 0.41 0.37 0.46 0.66 0.69 0.68 0.77 0.75 0.69 0.59 0.64 0.93 1.09 1.23 1.19 1.32 1.49 0.99 0.78 0.72 0.59 0.39 0.26 0.24 0.21 0.18 0.21 0.22 0.31 0.43 0.40 0.32 0.26 0.22 0.25 0.33 0.39
0.29 0.28 0.30 0.33 0.48 0.53 0.55 0.56 0.81 0.96 0.91 0.78 0.93 0.86 0.89 1.04 1.56 1.78 2.05 2.08 1.94 1.57 1.20 0.73 0.54 0.41 0.36 0.36 0.32 0.28 0.25 0.27 0.27 0.42 0.61 0.60 0.55 0.46 0.41 0.38 0.33 0.32 0.31
0.19 0.16 0.19 0.31 0.40 0.64 0.83 0.73 0.65 0.86 0.85 0.78 0.94 0.89 0.87 0.76 0.81 0.88 1.27 1.41 1.17 1.21 0.51 0.37 0.32 0.36 0.47 0.58 0.57 0.58 0.52 0.61 0.84 0.86 0.89 0.97 1.02 0.93 0.87 0.76 0.71 0.70 0.69
0.70 0.80 0.70 0.59 0.70 0.56 0.78 0.92 0.74 0.68 0.64 0.64 0.79 0.74 0.67 0.83 0.78 1.02 1.52 1.54 0.98 0.68 0.47 0.45 0.44 0.47 0.50 0.56 0.60 0.61 0.59 0.70 1.02 1.32 1.31 1.28 1.41 1.34 1.22 1.05 1.01 1.04 1.09
1.63 1.09 1.01 1.31 1.47 1.33 1.27 1.18 0.97 0.79 0.71 0.71 0.68 0.79 0.81 0.82 0.87 0.98 1.20 0.82 0.76 0.82 0.72 0.83 0.82 0.73 0.72 0.71 0.88 1.17 1.43 1.31 1.43 1.48 1.45 1.55 1.51 1.52 1.35 1.21 1.40 1.82 2.28
1.55 1.90 1.47 1.94 3.28 3.57 3.28 2.63 2.24 2.01 1.63 1.48 1.33 1.47 1.45 1.45 1.40 1.53 1.84 1.90 1.86 1.49 1.35 1.45 1.49 1.34 1.41 1.39 1.42 1.48 1.51 1.62 1.72 1.85 2.01 2.77 3.56 4.12 4.18 3.79 3.51 3.56 3.45
0.99 1.14 1.14 1.17 1.31 1.46 2.16 2.64 2.57 2.40 2.24 2.37 2.37 2.35 2.48 2.57 2.45 2.70 2.96 3.12 2.91 2.93 2.83 2.83 3.15 3.12 2.94 2.85 2.72 2.64 2.70 2.89 3.27 3.56 3.71 3.50 3.27 2.85 2.38 2.22 2.07 2.10 2.01
0.81 0.81 0.80 0.91 0.83 0.84 0.72 0.89 1.41 1.34 1.09 1.06 1.18 1.34 1.46 1.17 1.22 1.32 1.54 1.69 1.80 1.79 1.84 1.80 1.62 1.66 1.80 1.85 1.89 1.87 1.82 1.80 1.81 1.76 1.68 1.72 1.75 1.60 1.44 1.52 1.56 1.50 1.40
0.39 0.64 0.70 0.72 0.67 0.80 0.80 0.82 0.76 0.86 1.18 1.15 0.87 0.73 0.71 0.55 0.56 0.58 0.54 0.59 0.69 0.73 0.73 0.75 0.71 0.75 0.77 0.83 0.78 0.75 0.69 0.71 0.85 0.98 1.05 1.18 1.30 1.21 1.11 1.21 1.39 1.31 1.09
0.37 0.41 0.55 0.63 0.72 0.61 0.53 0.50 0.57 0.61 0.53 0.51 0.48 0.48 0.46 0.40 0.41 0.44 0.41 0.45 0.44 0.43 0.47 0.51 0.53 0.50 0.48 0.47 0.43 0.42 0.32 0.30 0.33 0.39 0.42 0.47 0.62 0.84 0.77 0.66 0.54 0.47 0.38
0.32 0.33 0.38 0.47 0.66 0.78 0.86 0.62 0.51 0.52 0.48 0.37 0.34 0.34 0.29 0.21 0.20 0.23 0.22 0.21 0.18 0.22 0.25 0.26 0.24 0.23 0.27 0.26 0.26 0.26 0.31 0.36 0.34 0.30 0.28 0.29 0.27 0.21 0.24 0.26 0.24 0.23 0.21
0.83 0.56 0.47 0.39 0.39 0.64 1.11 1.22 1.13 1.18 1.11 1.01 0.77 0.54 0.50 0.50 0.38 0.27 0.23 0.20 0.16 0.13 0.13 0.13 0.12 0.13 0.16 0.15 0.16 0.20 0.24 0.23 0.24 0.26 0.19 0.16 0.17 0.16 0.15 0.16 0.19 0.20 0.22

GFSGL_prec_precacc_093.txt.gz
Total_Precipitation_Accumulation
0.51 0.23 0.16 0.15 0.09 0.08 0.05 0.03 0.09 0.19 0.21 0.42 0.92 0.15 0.22 0.21 0.08 0.11 0.13 0.07 0.04 0.01 0.00 0.01 0.00 0.01 0.00 0.00 0.01 0.00 0.00 0.00 0.00 0.00 0.00 0.00 0.00 0.00 0.00 0.00 0.00 0.00 0.01
0.64 0.61 0.34 0.27 0.23 0.23 0.10 0.06 0.08 0.09 0.16 0.29 0.21 0.17 0.19 0.16 0.18 0.18 0.14 0.10 0.13 0.05 0.02 0.01 0.01 0.00 0.03 0.01 0.01 0.01 0.00 0.01 0.02 0.01 0.01 0.00 0.00 0.00 0.01 0.01 0.00 0.00 0.01
1.15 0.86 0.58 0.46 0.40 0.30 0.19 0.12 0.07 0.06 0.17 0.22 0.14 0.28 0.30 0.20 0.18 0.20 0.18 0.22 0.18 0.17 0.07 0.04 0.02 0.01 0.04 0.02 0.04 0.02 0.01 0.02 0.06 0.05 0.02 0.01 0.00 0.00 0.01 0.00 0.00 0.00 0.00
1.59 1.59 0.89 0.55 0.46 0.38 0.26 0.23 0.16 0.12 0.05 0.06 0.07 0.14 0.16 0.12 0.08 0.13 0.22 0.23 0.22 0.31 0.24 0.12 0.10 0.03 0.05 0.07 0.05 0.07 0.07 0.14 0.20 0.18 0.10 0.06 0.02 0.00 0.00 0.00 0.02 0.00 0.00
0.93 1.33 1.73 1.69 0.95 0.82 0.57 0.59 0.39 0.27 0.17 0.11 0.05 0.04 0.05 0.07 0.10 0.09 0.10 0.21 0.25 0.29 0.22 0.15 0.13 0.18 0.11 0.16 0.14 0.17 0.13 0.13 0.07 0.06 0.05 0.02 0.00 0.01 0.01 0.00 0.01 0.00 0.01
0.46 0.55 0.69 1.28 1.24 0.88 0.84 0.61 0.46 0.38 0.36 0.28 0.18 0.13 0.14 0.10 0.11 0.06 0.11 0.20 0.29 0.27 0.27 0.38 0.25 0.21 0.17 0.20 0.15 0.10 0.13 0.16 0.20 0.15 0.06 0.01 0.07 0.08 0.06 0.05 0.01 0.01 0.01
0.34 0.37 0.41 0.47 0.37 0.31 0.29 0.33 0.34 0.29 0.35 0.31 0.36 0.42 0.39 0.29 0.29 0.41 0.44 0.24 0.27 0.24 0.27 0.26 0.21 0.14 0.23 0.22 0.34 0.31 0.15 0.13 0.12 0.16 0.05 0.05 0.08 0.11 0.09 0.08 0.03 0.06 0.06
0.16 0.06 0.08 0.25 0.36 0.30 0.23 0.28 0.33 0.28 0.29 0.30 0.26 0.36 0.57 0.76 0.92 0.69 0.65 0.32 0.20 0.12 0.10 0.11 0.12 0.16 0.25 0.31 0.35 0.23 0.25 0.18 0.22 0.14 0.06 0.08 0.09 0.09 0.12 0.11 0.13 0.06 0.04
0.14 0.14 0.10 0.05 0.04 0.13 0.20 0.26 0.33 0.31 0.32 0.43 0.71 0.71 0.59 0.60 0.70 0.55 0.51 0.38 0.18 0.14 0.09 0.10 0.15 0.08 0.38 0.47 0.18 0.07 0.08 0.07 0.12 0.13 0.10 0.06 0.07 0.06 0.04 0.03 0.04 0.06 0.05
0.10 0.09 0.10 0.08 0.04 0.06 0.19 0.26 0.41 0.67 0.55 0.38 0.32 0.27 0.22 0.21 0.31 0.31 0.35 0.40 0.30 0.27 0.20 0.12 0.37 0.16 0.33 0.29 0.11 0.04 0.07 0.16 0.08 0.08 0.07 0.06 0.05 0.07 0.05 0.03 0.17 0.20 0.14
0.12 0.13 0.12 0.05 0.06 0.16 0.27 0.32 0.48 0.52 0.36 0.29 0.26 0.31 0.31 0.21 0.22 0.19 0.22 0.20 0.20 0.39 0.23 0.18 0.14 0.22 0.22 0.28 0.32 0.23 0.22 0.14 0.11 0.06 0.05 0.05 0.11 0.18 0.19 0.16 0.29 0.39 0.25
0.11 0.12 0.05 0.04 0.08 0.19 0.23 0.25 0.30 0.32 0.29 0.28 0.32 0.31 0.34 0.24 0.23 0.18 0.22 0.18 0.24 0.24 0.10 0.14 0.20 0.29 0.38 0.48 0.36 0.25 0.17 0.12 0.10 0.13 0.12 0.08 0.11 0.14 0.12 0.17 0.29 0.35 0.35
0.07 0.10 0.10 0.07 0.05 0.12 0.19 0.17 0.10 0.15 0.22 0.32 0.41 0.35 0.40 0.45 0.47 0.41 0.49 0.56 0.47 0.40 0.27 0.30 0.30 0.20 0.16 0.14 0.12 0.11 0.16 0.19 0.25 0.26 0.24 0.14 0.12 0.17 0.18 0.16 0.24 0.32 0.31
0.11 0.07 0.09 0.17 0.17 0.20 0.32 0.18 0.12 0.23 0.29 0.30 0.59 0.85 0.88 0.79 0.70 0.63 0.66 0.60 0.53 0.41 0.33 0.31 0.24 0.21 0.20 0.17 0.16 0.16 0.19 0.27 0.31 0.25 0.21 0.19 0.19 0.20 0.16 0.16 0.22 0.31 0.34
0.13 0.28 0.39 0.42 0.37 0.28 0.41 0.37 0.46 0.66 0.69 0.68 0.77 0.75 0.69 0.59 0.64 0.93 1.09 1.23 1.19 1.32 1.49 0.99 0.78 0.72 0.59 0.39 0.26 0.24 0.21 0.18 0.21 0.22 0.31 0.43 0.40 0.32 0.26 0.22 0.25 0.33 0.39
0.29 0.28 0.30 0.33 0.48 0.53 0.55 0.56 0.81 0.96 0.91 0.78 0.93 0.86 0.89 1.04 1.56 1.78 2.05 2.08 1.94 1.57 1.20 0.73 0.54 0.41 0.36 0.36 0.32 0.28 0.25 0.27 0.27 0.42 0.61 0.60 0.55 0.46 0.41 0.38 0.33 0.32 0.31
0.19 0.16 0.19 0.31 0.40 0.64 0.83 0.73 0.65 0.86 0.85 0.78 0.94 0.89 0.87 0.76 0.81 0.88 1.27 1.41 1.17 1.21 0.51 0.37 0.32 0.36 0.47 0.58 0.57 0.58 0.52 0.61 0.84 0.86 0.89 0.97 1.02 0.93 0.87 0.76 0.71 0.71 0.69
0.70 0.80 0.70 0.59 0.70 0.56 0.78 0.92 0.74 0.68 0.64 0.64 0.79 0.74 0.67 0.83 0.78 1.02 1.52 1.54 0.98 0.68 0.47 0.45 0.44 0.47 0.50 0.56 0.60 0.61 0.59 0.70 1.02 1.32 1.32 1.28 1.41 1.34 1.23 1.05 1.02 1.05 1.10
1.63 1.09 1.01 1.31 1.47 1.33 1.27 1.18 0.97 0.79 0.71 0.71 0.68 0.79 0.81 0.82 0.87 0.98 1.20 0.82 0.76 0.82 0.72 0.83 0.82 0.73 0.72 0.71 0.88 1.17 1.43 1.31 1.43 1.48 1.45 1.55 1.51 1.52 1.36 1.21 1.41 1.83 2.29
1.55 1.90 1.47 1.94 3.28 3.57 3.28 2.63 2.24 2.01 1.63 1.48 1.33 1.47 1.45 1.45 1.40 1.53 1.84 1.90 1.86 1.49 1.35 1.45 1.49 1.34 1.41 1.39 1.42 1.48 1.51 1.62 1.72 1.85 2.01 2.77 3.56 4.13 4.19 3.80 3.53 3.57 3.47
0.99 1.14 1.14 1.17 1.31 1.46 2.16 2.64 2.57 2.40 2.24 2.37 2.37 2.35 2.48 2.57 2.45 2.70 2.96 3.12 2.91 2.93 2.83 2.83 3.15 3.12 2.94 2.85 2.72 2.64 2.70 2.89 3.27 3.56 3.71 3.50 3.28 2.86 2.39 2.23 2.09 2.12 2.02
0.81 0.81 0.80 0.91 0.83 0.84 0.72 0.89 1.41 1.34 1.09 1.06 1.18 1.34 1.46 1.17 1.22 1.32 1.54 1.69 1.80 1.79 1.84 1.80 1.62 1.66 1.80 1.85 1.89 1.87 1.82 1.80 1.81 1.77 1.68 1.72 1.75 1.61 1.45 1.53 1.57 1.51 1.41
0.39 0.64 0.70 0.72 0.67 0.80 0.80 0.82 0.76 0.86 1.18 1.15 0.87 0.73 0.71 0.55 0.56 0.58 0.54 0.59 0.69 0.73 0.73 0.75 0.71 0.75 0.77 0.83 0.78 0.75 0.69 0.71 0.86 0.98 1.05 1.18 1.31 1.22 1.12 1.23 1.40 1.32 1.11
0.37 0.41 0.55 0.63 0.72 0.61 0.53 0.50 0.57 0.61 0.53 0.51 0.48 0.48 0.46 0.40 0.41 0.44 0.41 0.45 0.44 0.43 0.47 0.51 0.53 0.50 0.48 0.47 0.43 0.42 0.32 0.30 0.33 0.39 0.42 0.47 0.62 0.85 0.78 0.66 0.55 0.48 0.39
0.32 0.33 0.38 0.47 0.66 0.78 0.86 0.62 0.51 0.52 0.48 0.37 0.34 0.34 0.29 0.21 0.20 0.23 0.22 0.21 0.18 0.22 0.25 0.26 0.24 0.23 0.27 0.26 0.26 0.26 0.32 0.37 0.34 0.31 0.29 0.30 0.27 0.22 0.25 0.26 0.24 0.23 0.22
0.83 0.56 0.47 0.39 0.39 0.64 1.11 1.22 1.13 1.18 1.11 1.01 0.77 0.54 0.50 0.50 0.38 0.27 0.23 0.20 0.16 0.13 0.13 0.13 0.12 0.13 0.16 0.15 0.16 0.20 0.24 0.23 0.24 0.26 0.19 0.16 0.17 0.16 0.15 0.16 0.19 0.21 0.23

GFSGL_prec_precacc_096.txt.gz
Total_Precipitation_Accumulation
0.51 0.23 0.24 0.22 0.11 0.11 0.12 0.12 0.17 0.22 0.23 0.50 1.04 0.23 0.34 0.31 0.16 0.21 0.18 0.07 0.04 0.02 0.01 0.01 0.00 0.01 0.00 0.00 0.01 0.00 0.00 0.00 0.00 0.00 0.00 0.00 0.00 0.00 0.00 0.00 0.00 0.00 0.01
0.67 0.62 0.34 0.30 0.28 0.24 0.11 0.12 0.16 0.16 0.26 0.38 0.25 0.27 0.39 0.18 0.22 0.22 0.18 0.13 0.15 0.06 0.02 0.01 0.01 0.00 0.03 0.01 0.01 0.01 0.00 0.01 0.02 0.01 0.01 0.00 0.00 0.00 0.01 0.01 0.00 0.00 0.01
1.22 0.94 0.63 0.52 0.48 0.34 0.21 0.13 0.09 0.11 0.32 0.27 0.23 0.39 0.41 0.31 0.29 0.31 0.22 0.22 0.18 0.18 0.08 0.06 0.03 0.01 0.04 0.02 0.04 0.02 0.01 0.02 0.06 0.05 0.02 0.01 0.00 0.00 0.01 0.00 0.00 0.00 0.00
1.73 1.69 0.98 0.62 0.50 0.42 0.28 0.24 0.18 0.14 0.11 0.07 0.08 0.19 0.20 0.13 0.09 0.13 0.23 0.23 0.23 0.31 0.24 0.13 0.10 0.05 0.07 0.09 0.06 0.07 0.07 0.14 0.20 0.18 0.10 0.06 0.02 0.00 0.00 0.00 0.02 0.00 0.00
0.99 1.36 1.77 1.74 1.00 0.88 0.60 0.61 0.39 0.27 0.17 0.12 0.07 0.05 0.06 0.09 0.11 0.10 0.10 0.21 0.26 0.30 0.23 0.16 0.15 0.22 0.14 0.18 0.14 0.19 0.14 0.13 0.07 0.06 0.05 0.02 0.00 0.01 0.01 0.00 0.01 0.00 0.01
0.48 0.58 0.71 1.29 1.26 0.96 0.86 0.61 0.46 0.38 0.36 0.28 0.20 0.15 0.15 0.12 0.14 0.07 0.11 0.20 0.30 0.27 0.29 0.42 0.28 0.22 0.19 0.23 0.16 0.11 0.14 0.18 0.21 0.16 0.06 0.02 0.07 0.08 0.06 0.05 0.01 0.01 0.01
0.35 0.41 0.42 0.47 0.37 0.36 0.41 0.38 0.35 0.29 0.35 0.31 0.36 0.42 0.39 0.29 0.29 0.41 0.44 0.24 0.30 0.26 0.29 0.30 0.23 0.15 0.34 0.29 0.38 0.32 0.16 0.15 0.14 0.21 0.08 0.06 0.10 0.15 0.12 0.09 0.04 0.06 0.07
0.17 0.08 0.09 0.25 0.36 0.30 0.23 0.28 0.34 0.28 0.29 0.30 0.26 0.36 0.57 0.76 0.92 0.69 0.65 0.32 0.20 0.12 0.12 0.15 0.14 0.22 0.32 0.33 0.36 0.25 0.28 0.21 0.28 0.17 0.07 0.11 0.13 0.12 0.15 0.13 0.14 0.06 0.04
0.15 0.15 0.10 0.05 0.04 0.13 0.20 0.26 0.33 0.31 0.32 0.43 0.71 0.71 0.59 0.60 0.70 0.55 0.51 0.38 0.18 0.14 0.10 0.12 0.19 0.11 0.43 0.52 0.19 0.07 0.09 0.09 0.15 0.16 0.11 0.08 0.08 0.06 0.04 0.03 0.04 0.07 0.05
0.11 0.10 0.10 0.08 0.04 0.06 0.19 0.26 0.41 0.67 0.55 0.38 0.32 0.27 0.22 0.21 0.31 0.31 0.35 0.40 0.30 0.27 0.20 0.13 0.39 0.21 0.37 0.31 0.13 0.05 0.07 0.18 0.11 0.13 0.09 0.08 0.09 0.09 0.10 0.06 0.17 0.20 0.14
0.12 0.13 0.12 0.05 0.06 0.16 0.27 0.32 0.48 0.52 0.36 0.29 0.26 0.31 0.31 0.21 0.22 0.19 0.22 0.20 0.20 0.39 0.23 0.18 0.14 0.24 0.23 0.30 0.33 0.24 0.22 0.14 0.13 0.07 0.05 0.05 0.11 0.18 0.19 0.17 0.34 0.43 0.26
0.11 0.12 0.05 0.04 0.08 0.19 0.23 0.25 0.30 0.32 0.29 0.28 0.32 0.31 0.34 0.24 0.23 0.18 0.22 0.18 0.24 0.24 0.10 0.14 0.20 0.29 0.38 0.48 0.37 0.25 0.17 0.12 0.10 0.13 0.12 0.08 0.11 0.14 0.12 0.17 0.29 0.35 0.35
0.07 0.10 0.10 0.07 0.05 0.12 0.19 0.17 0.10 0.15 0.22 0.32 0.41 0.35 0.40 0.45 0.47 0.41 0.49 0.56 0.47 0.40 0.27 0.30 0.30 0.20 0.16 0.14 0.12 0.11 0.16 0.19 0.25 0.26 0.24 0.14 0.12 0.17 0.18 0.16 0.24 0.32 0.31
0.11 0.07 0.09 0.17 0.17 0.20 0.32 0.18 0.12 0.23 0.29 0.30 0.59 0.85 0.88 0.79 0.70 0.63 0.66 0.60 0.53 0.41 0.33 0.31 0.24 0.21 0.20 0.17 0.16 0.16 0.19 0.27 0.31 0.25 0.21 0.19 0.19 0.20 0.16 0.16 0.22 0.31 0.34
0.13 0.28 0.39 0.42 0.37 0.28 0.41 0.37 0.46 0.66 0.69 0.68 0.77 0.75 0.69 0.59 0.64 0.93 1.09 1.23 1.19 1.32 1.49 0.99 0.78 0.72 0.59 0.39 0.26 0.24 0.21 0.18 0.21 0.22 0.31 0.43 0.40 0.32 0.26 0.22 0.25 0.33 0.39
0.29 0.28 0.30 0.33 0.48 0.53 0.55 0.56 0.81 0.96 0.91 0.78 0.93 0.86 0.89 1.04 1.56 1.78 2.05 2.08 1.94 1.57 1.20 0.73 0.54 0.41 0.36 0.36 0.32 0.28 0.25 0.27 0.27 0.42 0.61 0.60 0.55 0.46 0.41 0.38 0.33 0.32 0.31
0.19 0.16 0.19 0.31 0.40 0.64 0.83 0.73 0.65 0.86 0.85 0.78 0.94 0.89 0.87 0.76 0.81 0.88 1.27 1.41 1.17 1.21 0.51 0.37 0.32 0.36 0.47 0.58 0.57 0.58 0.52 0.61 0.84 0.86 0.89 0.97 1.02 0.93 0.87 0.76 0.71 0.71 0.69
0.70 0.80 0.70 0.59 0.70 0.56 0.78 0.92 0.74 0.68 0.64 0.64 0.79 0.74 0.67 0.83 0.78 1.02 1.52 1.54 0.98 0.68 0.47 0.45 0.44 0.47 0.50 0.56 0.60 0.61 0.59 0.70 1.02 1.32 1.32 1.28 1.41 1.34 1.23 1.05 1.02 1.05 1.10
1.63 1.09 1.01 1.31 1.47 1.33 1.27 1.18 0.97 0.79 0.71 0.71 0.68 0.79 0.81 0.82 0.87 0.98 1.20 0.82 0.76 0.82 0.72 0.83 0.82 0.73 0.72 0.71 0.88 1.17 1.43 1.31 1.43 1.48 1.45 1.55 1.51 1.52 1.36 1.21 1.41 1.83 2.29
1.55 1.90 1.47 1.94 3.28 3.57 3.28 2.63 2.24 2.01 1.63 1.48 1.33 1.47 1.45 1.45 1.40 1.53 1.84 1.90 1.86 1.49 1.35 1.45 1.49 1.34 1.41 1.39 1.42 1.48 1.51 1.62 1.72 1.85 2.01 2.77 3.56 4.13 4.19 3.80 3.53 3.57 3.47
0.99 1.14 1.14 1.17 1.31 1.46 2.16 2.64 2.57 2.40 2.24 2.37 2.37 2.35 2.48 2.57 2.45 2.70 2.96 3.12 2.91 2.93 2.83 2.83 3.15 3.12 2.94 2.85 2.72 2.64 2.70 2.89 3.27 3.56 3.71 3.50 3.28 2.86 2.39 2.23 2.09 2.12 2.02
0.81 0.81 0.80 0.91 0.83 0.84 0.72 0.89 1.41 1.34 1.09 1.06 1.18 1.34 1.46 1.17 1.22 1.32 1.54 1.69 1.80 1.79 1.84 1.80 1.62 1.66 1.80 1.85 1.89 1.87 1.82 1.80 1.81 1.77 1.68 1.72 1.75 1.61 1.45 1.53 1.57 1.51 1.41
0.39 0.64 0.70 0.72 0.67 0.80 0.80 0.82 0.76 0.86 1.18 1.15 0.87 0.73 0.71 0.55 0.56 0.58 0.54 0.59 0.69 0.73 0.73 0.75 0.71 0.75 0.77 0.83 0.78 0.75 0.69 0.71 0.86 0.98 1.05 1.18 1.31 1.22 1.12 1.23 1.40 1.32 1.11
0.37 0.41 0.55 0.63 0.72 0.61 0.53 0.50 0.57 0.61 0.53 0.51 0.48 0.48 0.46 0.40 0.41 0.44 0.41 0.45 0.44 0.43 0.47 0.51 0.53 0.50 0.48 0.47 0.43 0.42 0.32 0.30 0.33 0.39 0.42 0.48 0.63 0.85 0.78 0.67 0.55 0.49 0.39
0.32 0.33 0.38 0.47 0.66 0.78 0.86 0.62 0.51 0.52 0.48 0.37 0.34 0.34 0.29 0.21 0.20 0.23 0.22 0.21 0.18 0.22 0.25 0.26 0.24 0.23 0.27 0.26 0.26 0.26 0.32 0.37 0.34 0.31 0.29 0.30 0.27 0.22 0.25 0.26 0.25 0.23 0.22
0.83 0.56 0.47 0.39 0.39 0.64 1.11 1.22 1.13 1.18 1.11 1.01 0.77 0.54 0.50 0.50 0.38 0.27 0.23 0.20 0.16 0.13 0.13 0.13 0.12 0.13 0.16 0.15 0.16 0.20 0.24 0.23 0.24 0.26 0.19 0.16 0.17 0.16 0.15 0.16 0.20 0.21 0.23

GFSGL_prec_precacc_099.txt.gz
Total_Precipitation_Accumulation
0.55 0.29 0.35 0.22 0.11 0.11 0.12 0.12 0.17 0.24 0.31 0.55 1.04 0.23 0.34 0.31 0.16 0.21 0.18 0.09 0.04 0.02 0.01 0.01 0.00 0.01 0.00 0.00 0.01 0.00 0.00 0.00 0.00 0.00 0.00 0.00 0.00 0.00 0.00 0.00 0.00 0.00 0.01
0.71 0.69 0.44 0.31 0.30 0.27 0.13 0.12 0.16 0.17 0.27 0.46 0.33 0.38 0.40 0.18 0.22 0.28 0.18 0.13 0.15 0.06 0.02 0.01 0.01 0.00 0.03 0.01 0.01 0.01 0.00 0.01 0.02 0.01 0.01 0.00 0.00 0.00 0.01 0.01 0.00 0.00 0.01
1.28 1.05 0.75 0.56 0.53 0.37 0.28 0.15 0.09 0.14 0.33 0.27 0.25 0.47 0.42 0.31 0.32 0.33 0.23 0.22 0.18 0.18 0.08 0.06 0.03 0.01 0.04 0.02 0.04 0.02 0.01 0.02 0.06 0.05 0.02 0.01 0.00 0.00 0.01 0.00 0.00 0.00 0.00
1.76 1.76 1.05 0.65 0.50 0.46 0.33 0.31 0.20 0.16 0.12 0.07 0.08 0.19 0.20 0.15 0.11 0.13 0.23 0.23 0.23 0.31 0.24 0.13 0.10 0.05 0.07 0.09 0.06 0.07 0.07 0.15 0.20 0.18 0.10 0.06 0.02 0.00 0.00 0.00 0.02 0.00 0.00
1.00 1.40 1.80 1.77 1.02 0.91 0.67 0.70 0.49 0.31 0.20 0.15 0.11 0.10 0.09 0.12 0.27 0.25 0.14 0.21 0.26 0.31 0.23 0.16 0.16 0.24 0.14 0.18 0.14 0.21 0.16 0.15 0.08 0.06 0.05 0.02 0.00 0.01 0.01 0.00 0.01 0.00 0.01
0.51 0.61 0.72 1.33 1.35 1.07 0.99 0.72 0.53 0.43 0.39 0.30 0.27 0.26 0.32 0.24 0.22 0.16 0.16 0.24 0.33 0.31 0.31 0.44 0.30 0.27 0.20 0.24 0.16 0.11 0.16 0.22 0.22 0.16 0.07 0.02 0.08 0.09 0.07 0.05 0.01 0.01 0.01
0.39 0.44 0.43 0.48 0.39 0.38 0.44 0.46 0.43 0.37 0.39 0.32 0.39 0.47 0.53 0.38 0.34 0.43 0.44 0.24 0.35 0.34 0.37 0.37 0.24 0.18 0.35 0.29 0.40 0.37 0.17 0.16 0.14 0.24 0.09 0.07 0.13 0.16 0.14 0.10 0.07 0.07 0.07
0.19 0.08 0.09 0.26 0.37 0.30 0.23 0.29 0.34 0.29 0.29 0.31 0.27 0.36 0.58 0.76 0.92 0.69 0.65 0.32 0.23 0.23 0.26 0.26 0.21 0.33 0.42 0.38 0.39 0.27 0.29 0.23 0.32 0.21 0.10 0.13 0.15 0.16 0.18 0.17 0.16 0.07 0.04
0.19 0.18 0.10 0.05 0.04 0.13 0.20 0.26 0.33 0.31 0.33 0.43 0.72 0.71 0.59 0.60 0.70 0.55 0.51 0.38 0.23 0.22 0.23 0.27 0.27 0.17 0.47 0.54 0.20 0.08 0.11 0.12 0.22 0.24 0.13 0.09 0.08 0.07 0.07 0.05 0.05 0.07 0.05
0.17 0.13 0.11 0.08 0.04 0.06 0.19 0.26 0.41 0.67 0.56 0.38 0.32 0.27 0.22 0.21 0.31 0.31 0.35 0.40 0.30 0.29 0.23 0.14 0.40 0.21 0.37 0.31 0.13 0.05 0.07 0.19 0.12 0.14 0.10 0.08 0.09 0.10 0.16 0.12 0.26 0.27 0.19
0.12 0.14 0.13 0.05 0.06 0.16 0.27 0.32 0.48 0.52 0.36 0.29 0.26 0.31 0.31 0.21 0.22 0.19 0.22 0.20 0.20 0.39 0.23 0.18 0.14 0.24 0.23 0.30 0.33 0.24 0.22 0.14 0.13 0.07 0.05 0.05 0.11 0.18 0.19 0.19 0.46 0.49 0.31
0.11 0.12 0.05 0.04 0.09 0.19 0.23 0.25 0.30 0.32 0.29 0.28 0.32 0.31 0.34 0.24 0.23 0.18 0.22 0.18 0.24 0.24 0.10 0.14 0.20 0.29 0.38 0.48 0.37 0.25 0.17 0.12 0.10 0.13 0.12 0.08 0.11 0.14 0.12 0.17 0.29 0.35 0.35
0.07 0.10 0.10 0.07 0.05 0.12 0.19 0.17 0.10 0.15 0.22 0.32 0.41 0.35 0.40 0.45 0.47 0.41 0.49 0.56 0.47 0.40 0.27 0.30 0.30 0.20 0.16 0.14 0.12 0.11 0.16 0.19 0.25 0.26 0.24 0.14 0.12 0.17 0.18 0.16 0.24 0.32 0.31
0.12 0.07 0.09 0.17 0.17 0.20 0.32 0.18 0.12 0.23 0.29 0.30 0.59 0.85 0.88 0.79 0.70 0.63 0.66 0.60 0.53 0.41 0.33 0.31 0.24 0.21 0.20 0.17 0.16 0.16 0.19 0.27 0.31 0.25 0.21 0.19 0.19 0.20 0.16 0.16 0.22 0.31 0.34
0.13 0.28 0.39 0.42 0.37 0.28 0.41 0.37 0.46 0.66 0.69 0.68 0.77 0.75 0.69 0.59 0.64 0.93 1.09 1.23 1.19 1.32 1.49 0.99 0.78 0.72 0.59 0.39 0.26 0.24 0.21 0.18 0.21 0.22 0.31 0.43 0.40 0.32 0.26 0.22 0.25 0.33 0.39
0.29 0.28 0.30 0.33 0.48 0.53 0.55 0.56 0.81 0.96 0.91 0.78 0.93 0.86 0.89 1.04 1.56 1.78 2.05 2.08 1.94 1.57 1.20 0.73 0.54 0.41 0.36 0.36 0.32 0.28 0.25 0.27 0.27 0.42 0.61 0.60 0.55 0.46 0.41 0.38 0.33 0.32 0.31
0.19 0.16 0.19 0.31 0.40 0.64 0.83 0.73 0.65 0.86 0.85 0.78 0.94 0.89 0.87 0.76 0.81 0.88 1.27 1.41 1.17 1.21 0.51 0.37 0.32 0.36 0.47 0.58 0.57 0.58 0.52 0.61 0.84 0.86 0.89 0.97 1.02 0.93 0.87 0.76 0.71 0.71 0.69
0.70 0.80 0.70 0.59 0.70 0.56 0.78 0.92 0.74 0.68 0.64 0.64 0.79 0.74 0.67 0.83 0.78 1.02 1.52 1.54 0.98 0.68 0.47 0.45 0.44 0.47 0.50 0.56 0.60 0.61 0.59 0.70 1.02 1.32 1.32 1.28 1.41 1.34 1.23 1.05 1.02 1.05 1.10
1.63 1.09 1.01 1.31 1.47 1.33 1.27 1.18 0.97 0.79 0.71 0.71 0.68 0.79 0.81 0.82 0.87 0.98 1.20 0.82 0.76 0.82 0.72 0.83 0.82 0.73 0.72 0.71 0.88 1.17 1.43 1.31 1.43 1.48 1.45 1.55 1.51 1.52 1.36 1.21 1.41 1.83 2.29
1.55 1.90 1.47 1.94 3.28 3.57 3.28 2.63 2.24 2.01 1.63 1.48 1.33 1.47 1.45 1.45 1.40 1.53 1.84 1.90 1.86 1.49 1.35 1.45 1.49 1.34 1.41 1.39 1.42 1.48 1.51 1.62 1.72 1.85 2.01 2.77 3.56 4.13 4.19 3.80 3.53 3.57 3.47
0.99 1.14 1.14 1.17 1.31 1.46 2.16 2.64 2.57 2.40 2.24 2.37 2.37 2.35 2.48 2.57 2.45 2.70 2.96 3.12 2.91 2.93 2.83 2.83 3.15 3.12 2.94 2.85 2.72 2.64 2.70 2.89 3.27 3.56 3.71 3.50 3.28 2.86 2.39 2.23 2.09 2.12 2.02
0.81 0.81 0.80 0.91 0.83 0.84 0.72 0.89 1.41 1.34 1.09 1.06 1.18 1.34 1.46 1.17 1.22 1.32 1.54 1.69 1.80 1.79 1.84 1.80 1.62 1.66 1.80 1.85 1.89 1.87 1.82 1.80 1.81 1.77 1.68 1.72 1.75 1.61 1.45 1.53 1.57 1.51 1.41
0.39 0.64 0.70 0.72 0.67 0.80 0.80 0.82 0.76 0.86 1.18 1.15 0.87 0.73 0.71 0.55 0.56 0.58 0.54 0.59 0.69 0.73 0.73 0.75 0.71 0.75 0.77 0.83 0.78 0.75 0.69 0.71 0.86 0.98 1.05 1.18 1.31 1.22 1.12 1.23 1.40 1.32 1.11
0.37 0.41 0.55 0.63 0.72 0.61 0.53 0.50 0.57 0.61 0.53 0.51 0.48 0.48 0.46 0.40 0.41 0.44 0.41 0.45 0.44 0.43 0.47 0.51 0.53 0.50 0.48 0.47 0.43 0.42 0.32 0.30 0.33 0.39 0.42 0.48 0.63 0.85 0.78 0.67 0.55 0.49 0.39
0.32 0.33 0.38 0.47 0.66 0.78 0.86 0.62 0.51 0.52 0.48 0.37 0.34 0.34 0.29 0.21 0.20 0.23 0.22 0.21 0.18 0.22 0.25 0.26 0.24 0.23 0.27 0.26 0.26 0.26 0.32 0.37 0.34 0.31 0.29 0.30 0.27 0.22 0.25 0.26 0.25 0.23 0.22
0.85 0.56 0.47 0.39 0.39 0.64 1.11 1.22 1.13 1.18 1.11 1.01 0.77 0.54 0.50 0.50 0.38 0.27 0.23 0.20 0.16 0.13 0.13 0.13 0.12 0.13 0.16 0.15 0.16 0.20 0.24 0.23 0.24 0.26 0.19 0.16 0.17 0.16 0.15 0.16 0.20 0.21 0.23

GFSGL_prec_precacc_102.txt.gz
Total_Precipitation_Accumulation
0.55 0.38 0.47 0.28 0.12 0.12 0.12 0.12 0.18 0.31 0.59 0.68 1.18 0.28 0.35 0.32 0.17 0.22 0.19 0.12 0.09 0.05 0.02 0.03 0.03 0.01 0.00 0.00 0.01 0.00 0.00 0.00 0.00 0.01 0.04 0.10 0.06 0.01 0.00 0.00 0.00 0.00 0.01
0.72 0.71 0.49 0.62 0.43 0.31 0.19 0.18 0.18 0.19 0.30 0.53 0.40 0.48 0.48 0.24 0.31 0.33 0.19 0.15 0.20 0.08 0.03 0.02 0.01 0.00 0.03 0.01 0.01 0.01 0.00 0.01 0.02 0.01 0.01 0.00 0.00 0.00 0.01 0.01 0.00 0.00 0.01
1.31 1.09 0.80 0.66 0.58 0.47 0.44 0.52 0.26 0.18 0.36 0.29 0.36 0.64 0.52 0.38 0.48 0.45 0.32 0.30 0.23 0.20 0.09 0.06 0.04 0.02 0.06 0.03 0.04 0.02 0.01 0.02 0.06 0.05 0.02 0.01 0.00 0.00 0.01 0.00 0.00 0.00 0.00
1.76 1.79 1.09 0.68 0.53 0.48 0.36 0.32 0.22 0.20 0.18 0.09 0.17 0.35 0.33 0.21 0.22 0.25 0.34 0.35 0.26 0.32 0.26 0.13 0.11 0.05 0.09 0.12 0.07 0.08 0.08 0.15 0.21 0.20 0.11 0.06 0.03 0.00 0.00 0.00 0.02 0.00 0.00
1.00 1.41 1.81 1.77 1.02 0.91 0.68 0.72 0.52 0.35 0.24 0.16 0.14 0.18 0.25 0.31 0.42 0.41 0.39 0.40 0.40 0.40 0.29 0.19 0.18 0.32 0.19 0.21 0.15 0.23 0.19 0.18 0.09 0.07 0.05 0.02 0.00 0.01 0.01 0.00 0.01 0.00 0.01
0.53 0.65 0.77 1.34 1.36 1.09 1.01 0.77 0.64 0.56 0.46 0.37 0.35 0.36 0.47 0.46 0.46 0.34 0.24 0.31 0.50 0.49 0.39 0.49 0.35 0.39 0.26 0.27 0.22 0.13 0.16 0.23 0.24 0.19 0.08 0.02 0.09 0.11 0.07 0.05 0.01 0.01 0.01
0.43 0.48 0.50 0.55 0.40 0.42 0.50 0.56 0.57 0.58 0.52 0.46 0.48 0.56 0.62 0.47 0.39 0.43 0.45 0.24 0.36 0.43 0.53 0.48 0.30 0.27 0.42 0.34 0.57 0.54 0.25 0.25 0.20 0.30 0.11 0.08 0.13 0.18 0.15 0.10 0.08 0.08 0.07
0.23 0.10 0.11 0.27 0.37 0.30 0.24 0.29 0.36 0.37 0.40 0.41 0.36 0.41 0.58 0.76 0.92 0.69 0.65 0.32 0.24 0.30 0.33 0.32 0.27 0.52 0.54 0.39 0.40 0.30 0.33 0.29 0.41 0.28 0.14 0.15 0.17 0.19 0.19 0.18 0.17 0.08 0.04
0.24 0.18 0.11 0.05 0.04 0.13 0.20 0.27 0.34 0.33 0.36 0.53 0.79 0.75 0.59 0.60 0.70 0.55 0.51 0.40 0.29 0.32 0.47 0.33 0.29 0.24 0.52 0.55 0.20 0.08 0.11 0.15 0.35 0.36 0.20 0.11 0.09 0.08 0.09 0.05 0.06 0.09 0.05
0.20 0.15 0.11 0.09 0.05 0.07 0.19 0.26 0.41 0.68 0.59 0.42 0.33 0.27 0.22 0.21 0.31 0.31 0.35 0.40 0.31 0.31 0.28 0.19 0.40 0.21 0.38 0.31 0.13 0.05 0.07 0.20 0.19 0.18 0.13 0.09 0.09 0.10 0.16 0.15 0.33 0.37 0.25
0.15 0.18 0.15 0.06 0.08 0.17 0.28 0.32 0.48 0.52 0.36 0.29 0.26 0.31 0.31 0.21 0.22 0.19 0.22 0.20 0.20 0.39 0.23 0.18 0.14 0.24 0.23 0.30 0.33 0.24 0.22 0.14 0.13 0.07 0.05 0.05 0.11 0.18 0.19 0.21 0.51 0.56 0.36
0.12 0.13 0.06 0.04 0.09 0.20 0.23 0.25 0.30 0.32 0.29 0.28 0.32 0.31 0.34 0.24 0.23 0.18 0.22 0.18 0.24 0.24 0.10 0.14 0.20 0.29 0.38 0.48 0.37 0.25 0.17 0.12 0.10 0.13 0.12 0.08 0.11 0.14 0.12 0.18 0.29 0.35 0.35
0.07 0.11 0.10 0.07 0.05 0.12 0.19 0.17 0.10 0.15 0.22 0.32 0.41 0.35 0.40 0.45 0.47 0.41 0.49 0.56 0.47 0.40 0.27 0.30 0.30 0.20 0.16 0.14 0.12 0.11 0.16 0.19 0.25 0.26 0.24 0.14 0.12 0.17 0.18 0.16 0.24 0.32 0.31
0.12 0.07 0.09 0.18 0.18 0.20 0.33 0.20 0.13 0.23 0.29 0.30 0.59 0.85 0.88 0.79 0.70 0.63 0.66 0.60 0.53 0.41 0.33 0.31 0.24 0.21 0.20 0.17 0.16 0.16 0.19 0.27 0.31 0.25 0.21 0.19 0.19 0.20 0.16 0.16 0.22 0.31 0.34
0.13 0.28 0.39 0.42 0.37 0.28 0.41 0.37 0.46 0.66 0.69 0.68 0.77 0.75 0.69 0.59 0.64 0.93 1.09 1.23 1.19 1.32 1.49 0.99 0.78 0.72 0.59 0.39 0.26 0.24 0.21 0.18 0.21 0.22 0.31 0.43 0.40 0.32 0.26 0.22 0.25 0.33 0.39
0.29 0.28 0.30 0.33 0.48 0.53 0.55 0.56 0.81 0.96 0.91 0.78 0.93 0.86 0.89 1.04 1.56 1.78 2.05 2.08 1.94 1.57 1.20 0.73 0.54 0.41 0.36 0.36 0.32 0.28 0.25 0.27 0.27 0.42 0.61 0.60 0.55 0.46 0.41 0.38 0.33 0.32 0.31
0.19 0.16 0.19 0.31 0.40 0.64 0.83 0.73 0.65 0.86 0.85 0.78 0.94 0.89 0.87 0.76 0.81 0.88 1.27 1.41 1.17 1.21 0.51 0.37 0.32 0.36 0.47 0.58 0.57 0.58 0.52 0.61 0.84 0.86 0.89 0.97 1.02 0.93 0.87 0.76 0.71 0.71 0.69
0.70 0.80 0.70 0.59 0.70 0.56 0.78 0.92 0.74 0.68 0.64 0.64 0.79 0.74 0.67 0.83 0.78 1.02 1.52 1.54 0.98 0.68 0.47 0.45 0.44 0.47 0.50 0.56 0.60 0.61 0.59 0.70 1.02 1.32 1.32 1.28 1.41 1.34 1.23 1.05 1.02 1.05 1.10
1.63 1.09 1.01 1.31 1.47 1.33 1.27 1.18 0.97 0.79 0.71 0.71 0.68 0.79 0.81 0.82 0.87 0.98 1.20 0.82 0.76 0.82 0.72 0.83 0.82 0.73 0.72 0.71 0.88 1.17 1.43 1.31 1.43 1.48 1.45 1.55 1.51 1.52 1.36 1.21 1.41 1.83 2.29
1.55 1.90 1.47 1.94 3.28 3.57 3.28 2.63 2.24 2.01 1.63 1.48 1.33 1.47 1.45 1.45 1.40 1.53 1.84 1.90 1.86 1.49 1.35 1.45 1.49 1.34 1.41 1.39 1.42 1.48 1.51 1.62 1.72 1.85 2.01 2.77 3.56 4.13 4.19 3.80 3.53 3.57 3.47
0.99 1.14 1.14 1.17 1.31 1.46 2.16 2.64 2.57 2.40 2.24 2.37 2.37 2.35 2.48 2.57 2.45 2.70 2.96 3.12 2.91 2.93 2.83 2.83 3.15 3.12 2.94 2.85 2.72 2.64 2.70 2.89 3.27 3.56 3.71 3.50 3.28 2.86 2.39 2.23 2.09 2.12 2.02
0.81 0.81 0.80 0.91 0.83 0.84 0.72 0.89 1.41 1.34 1.09 1.06 1.18 1.34 1.46 1.17 1.22 1.32 1.54 1.69 1.80 1.79 1.84 1.80 1.62 1.66 1.80 1.85 1.89 1.87 1.82 1.80 1.81 1.77 1.68 1.72 1.75 1.61 1.45 1.53 1.57 1.51 1.41
0.39 0.64 0.70 0.72 0.67 0.80 0.80 0.82 0.76 0.86 1.18 1.15 0.87 0.73 0.71 0.55 0.56 0.58 0.54 0.59 0.69 0.73 0.73 0.75 0.71 0.75 0.77 0.83 0.78 0.75 0.69 0.71 0.86 0.98 1.05 1.18 1.31 1.22 1.12 1.23 1.40 1.32 1.11
0.37 0.41 0.55 0.63 0.72 0.61 0.53 0.50 0.57 0.61 0.53 0.51 0.48 0.48 0.46 0.40 0.41 0.44 0.41 0.45 0.44 0.43 0.47 0.51 0.53 0.50 0.48 0.47 0.43 0.42 0.32 0.30 0.33 0.39 0.42 0.48 0.63 0.85 0.78 0.67 0.55 0.49 0.39
0.35 0.33 0.38 0.47 0.66 0.78 0.86 0.62 0.51 0.52 0.48 0.37 0.34 0.34 0.29 0.21 0.20 0.23 0.22 0.21 0.18 0.22 0.25 0.26 0.24 0.23 0.27 0.26 0.26 0.26 0.32 0.37 0.34 0.31 0.29 0.30 0.27 0.22 0.25 0.26 0.25 0.23 0.22
0.90 0.60 0.47 0.39 0.39 0.64 1.11 1.22 1.13 1.18 1.11 1.01 0.77 0.54 0.50 0.50 0.38 0.27 0.23 0.20 0.16 0.13 0.13 0.13 0.12 0.13 0.16 0.15 0.16 0.20 0.24 0.23 0.24 0.26 0.19 0.16 0.17 0.16 0.15 0.16 0.20 0.21 0.23

GFSGL_prec_precacc_105.txt.gz
Total_Precipitation_Accumulation
0.57 0.49 0.62 0.33 0.15 0.14 0.14 0.14 0.21 0.38 0.62 0.69 1.23 0.37 0.37 0.33 0.18 0.22 0.20 0.13 0.10 0.05 0.02 0.03 0.03 0.01 0.00 0.00 0.01 0.00 0.00 0.00 0.01 0.02 0.06 0.11 0.06 0.01 0.00 0.00 0.00 0.00 0.01
0.85 0.90 0.59 0.72 0.59 0.38 0.24 0.20 0.21 0.20 0.30 0.54 0.41 0.50 0.51 0.27 0.32 0.34 0.20 0.17 0.22 0.10 0.05 0.04 0.02 0.00 0.03 0.01 0.01 0.01 0.00 0.01 0.02 0.01 0.01 0.00 0.00 0.00 0.01 0.01 0.00 0.00 0.01
1.41 1.22 0.93 0.78 0.72 0.61 0.48 0.58 0.30 0.20 0.37 0.30 0.37 0.65 0.54 0.41 0.50 0.46 0.34 0.35 0.27 0.25 0.12 0.08 0.04 0.03 0.06 0.03 0.04 0.02 0.01 0.02 0.06 0.05 0.02 0.01 0.00 0.00 0.01 0.00 0.00 0.00 0.01
1.77 1.81 1.10 0.76 0.64 0.59 0.39 0.35 0.25 0.24 0.19 0.10 0.17 0.35 0.36 0.31 0.36 0.33 0.52 0.53 0.32 0.37 0.30 0.16 0.14 0.11 0.12 0.12 0.07 0.08 0.08 0.15 0.21 0.20 0.11 0.06 0.04 0.00 0.00 0.01 0.03 0.00 0.01
1.00 1.41 1.81 1.79 1.04 0.91 0.68 0.72 0.54 0.36 0.27 0.19 0.16 0.19 0.32 0.57 0.63 0.65 0.55 0.59 0.46 0.48 0.37 0.22 0.36 0.43 0.26 0.27 0.17 0.24 0.20 0.18 0.09 0.07 0.05 0.02 0.01 0.02 0.01 0.01 0.01 0.00 0.01
0.53 0.65 0.78 1.37 1.36 1.12 1.04 0.77 0.64 0.57 0.49 0.48 0.46 0.41 0.49 0.56 0.61 0.47 0.27 0.35 0.56 0.56 0.51 0.59 0.45 0.42 0.31 0.36 0.30 0.16 0.19 0.24 0.24 0.19 0.08 0.03 0.11 0.13 0.07 0.06 0.01 0.01 0.01
0.43 0.49 0.51 0.56 0.43 0.44 0.51 0.56 0.57 0.58 0.54 0.55 0.54 0.60 0.62 0.47 0.39 0.43 0.45 0.25 0.36 0.47 0.56 0.53 0.41 0.31 0.56 0.46 0.74 0.62 0.33 0.30 0.26 0.37 0.14 0.08 0.13 0.21 0.17 0.11 0.08 0.08 0.07
0.24 0.11 0.11 0.28 0.37 0.30 0.24 0.29 0.36 0.37 0.43 0.48 0.40 0.42 0.58 0.76 0.92 0.69 0.65 0.32 0.25 0.33 0.42 0.40 0.36 0.57 0.55 0.40 0.40 0.30 0.34 0.33 0.45 0.30 0.17 0.21 0.20 0.21 0.21 0.18 0.17 0.08 0.04
0.26 0.20 0.12 0.05 0.04 0.13 0.20 0.27 0.34 0.33 0.37 0.57 0.80 0.75 0.59 0.60 0.70 0.55 0.51 0.40 0.33 0.40 0.56 0.33 0.31 0.24 0.52 0.55 0.20 0.08 0.11 0.16 0.38 0.36 0.21 0.13 0.13 0.09 0.09 0.05 0.06 0.09 0.05
0.22 0.20 0.15 0.10 0.06 0.07 0.19 0.26 0.41 0.68 0.60 0.43 0.33 0.27 0.22 0.21 0.31 0.31 0.35 0.40 0.31 0.31 0.28 0.19 0.40 0.21 0.38 0.31 0.13 0.05 0.07 0.20 0.19 0.18 0.13 0.09 0.09 0.10 0.17 0.15 0.33 0.37 0.26
0.17 0.21 0.18 0.07 0.09 0.17 0.28 0.32 0.48 0.52 0.36 0.29 0.26 0.31 0.31 0.21 0.22 0.19 0.22 0.20 0.20 0.39 0.23 0.18 0.14 0.24 0.23 0.30 0.33 0.24 0.22 0.14 0.13 0.07 0.05 0.05 0.11 0.18 0.19 0.21 0.51 0.56 0.36
0.12 0.14 0.07 0.06 0.10 0.20 0.23 0.25 0.30 0.32 0.29 0.28 0.32 0.31 0.34 0.24 0.23 0.18 0.22 0.18 0.24 0.24 0.10 0.14 0.20 0.29 0.38 0.48 0.37 0.25 0.17 0.12 0.10 0.13 0.12 0.08 0.11 0.14 0.12 0.18 0.29 0.35 0.35
0.07 0.11 0.10 0.07 0.05 0.12 0.19 0.17 0.10 0.15 0.22 0.32 0.41 0.35 0.40 0.45 0.47 0.41 0.49 0.56 0.47 0.40 0.27 0.30 0.30 0.20 0.16 0.14 0.12 0.11 0.16 0.19 0.25 0.26 0.24 0.14 0.12 0.17 0.18 0.16 0.24 0.32 0.31
0.12 0.07 0.09 0.18 0.18 0.20 0.33 0.20 0.13 0.23 0.29 0.30 0.59 0.85 0.88 0.79 0.70 0.63 0.66 0.60 0.53 0.41 0.33 0.31 0.24 0.21 0.20 0.17 0.16 0.16 0.19 0.27 0.31 0.25 0.21 0.19 0.19 0.20 0.16 0.16 0.22 0.31 0.34
0.13 0.28 0.39 0.42 0.37 0.28 0.41 0.37 0.46 0.66 0.69 0.68 0.77 0.75 0.69 0.59 0.64 0.93 1.09 1.23 1.19 1.32 1.49 0.99 0.78 0.72 0.59 0.39 0.26 0.24 0.21 0.18 0.21 0.22 0.31 0.43 0.40 0.32 0.26 0.22 0.25 0.33 0.39
0.29 0.28 0.30 0.33 0.48 0.53 0.55 0.56 0.81 0.96 0.91 0.78 0.93 0.86 0.89 1.04 1.56 1.78 2.05 2.08 1.94 1.57 1.20 0.73 0.54 0.41 0.36 0.36 0.32 0.28 0.25 0.27 0.27 0.42 0.61 0.60 0.55 0.46 0.41 0.38 0.33 0.32 0.31
0.19 0.16 0.19 0.31 0.40 0.64 0.83 0.73 0.65 0.86 0.85 0.78 0.94 0.89 0.87 0.76 0.81 0.88 1.27 1.41 1.17 1.21 0.51 0.37 0.32 0.36 0.47 0.58 0.57 0.58 0.52 0.61 0.84 0.86 0.89 0.97 1.02 0.93 0.87 0.76 0.71 0.71 0.69
0.70 0.80 0.70 0.59 0.70 0.56 0.78 0.92 0.74 0.68 0.64 0.64 0.79 0.74 0.67 0.83 0.78 1.02 1.52 1.54 0.98 0.68 0.47 0.45 0.44 0.47 0.50 0.56 0.60 0.61 0.59 0.70 1.02 1.32 1.32 1.28 1.41 1.34 1.23 1.05 1.02 1.05 1.10
1.63 1.09 1.01 1.31 1.47 1.33 1.27 1.18 0.97 0.79 0.71 0.71 0.68 0.79 0.81 0.82 0.87 0.98 1.20 0.82 0.76 0.82 0.72 0.83 0.82 0.73 0.72 0.71 0.88 1.17 1.43 1.31 1.43 1.48 1.45 1.55 1.51 1.52 1.36 1.21 1.41 1.83 2.29
1.55 1.90 1.47 1.94 3.28 3.57 3.28 2.63 2.24 2.01 1.63 1.48 1.33 1.47 1.45 1.45 1.40 1.53 1.84 1.90 1.86 1.49 1.35 1.45 1.49 1.34 1.41 1.39 1.42 1.48 1.51 1.62 1.72 1.85 2.01 2.77 3.56 4.13 4.19 3.80 3.53 3.57 3.47
0.99 1.14 1.14 1.17 1.31 1.46 2.16 2.64 2.57 2.40 2.24 2.37 2.37 2.35 2.48 2.57 2.45 2.70 2.96 3.12 2.91 2.93 2.83 2.83 3.15 3.12 2.94 2.85 2.72 2.64 2.70 2.89 3.27 3.56 3.71 3.50 3.28 2.86 2.39 2.23 2.09 2.12 2.02
0.82 0.81 0.80 0.91 0.83 0.84 0.72 0.89 1.41 1.34 1.09 1.06 1.18 1.34 1.46 1.17 1.22 1.32 1.54 1.69 1.80 1.79 1.84 1.80 1.62 1.66 1.80 1.85 1.89 1.87 1.82 1.80 1.81 1.77 1.68 1.72 1.75 1.61 1.45 1.53 1.57 1.51 1.41
0.45 0.68 0.71 0.72 0.67 0.80 0.80 0.82 0.76 0.86 1.18 1.15 0.87 0.73 0.71 0.55 0.56 0.58 0.54 0.59 0.69 0.73 0.73 0.75 0.71 0.75 0.77 0.83 0.78 0.75 0.69 0.71 0.86 0.98 1.05 1.18 1.31 1.22 1.12 1.23 1.40 1.32 1.11
0.44 0.46 0.59 0.63 0.72 0.61 0.53 0.50 0.57 0.61 0.53 0.51 0.48 0.48 0.46 0.40 0.41 0.44 0.41 0.45 0.44 0.43 0.47 0.51 0.53 0.50 0.48 0.47 0.43 0.42 0.32 0.30 0.33 0.39 0.42 0.48 0.63 0.85 0.78 0.67 0.55 0.49 0.39
0.46 0.44 0.46 0.50 0.66 0.78 0.86 0.62 0.51 0.52 0.48 0.37 0.34 0.34 0.29 0.21 0.20 0.23 0.22 0.21 0.18 0.22 0.25 0.26 0.24 0.23 0.27 0.26 0.26 0.26 0.32 0.37 0.34 0.31 0.29 0.30 0.27 0.22 0.25 0.26 0.25 0.23 0.22
0.98 0.73 0.59 0.46 0.41 0.65 1.11 1.22 1.13 1.18 1.11 1.01 0.77 0.54 0.50 0.50 0.38 0.27 0.23 0.20 0.16 0.13 0.13 0.13 0.12 0.13 0.16 0.15 0.16 0.20 0.24 0.23 0.24 0.26 0.19 0.16 0.17 0.16 0.15 0.16 0.20 0.21 0.23

GFSGL_prec_precacc_108.txt.gz
Total_Precipitation_Accumulation
0.57 0.50 0.62 0.33 0.15 0.14 0.14 0.14 0.21 0.38 0.62 0.69 1.23 0.38 0.37 0.33 0.18 0.22 0.20 0.13 0.10 0.05 0.02 0.03 0.03 0.02 0.00 0.00 0.01 0.00 0.00 0.01 0.01 0.02 0.06 0.11 0.06 0.01 0.00 0.00 0.00 0.00 0.01
1.11 1.21 0.77 0.83 0.68 0.44 0.27 0.21 0.21 0.20 0.30 0.54 0.41 0.50 0.51 0.28 0.33 0.34 0.21 0.18 0.22 0.11 0.06 0.05 0.02 0.00 0.03 0.01 0.01 0.01 0.00 0.01 0.02 0.01 0.01 0.01 0.01 0.00 0.01 0.01 0.00 0.00 0.02
1.68 1.59 1.22 0.89 0.81 0.70 0.57 0.69 0.37 0.20 0.38 0.33 0.37 0.65 0.54 0.42 0.52 0.49 0.41 0.43 0.32 0.27 0.16 0.10 0.05 0.05 0.06 0.03 0.04 0.02 0.01 0.02 0.06 0.05 0.02 0.01 0.00 0.00 0.01 0.00 0.01 0.00 0.01
2.01 2.02 1.27 0.88 0.73 0.70 0.50 0.52 0.33 0.25 0.27 0.20 0.21 0.36 0.36 0.33 0.40 0.42 0.66 0.75 0.45 0.44 0.34 0.24 0.18 0.11 0.13 0.13 0.07 0.08 0.09 0.16 0.21 0.20 0.11 0.06 0.04 0.01 0.01 0.01 0.03 0.00 0.01
1.14 1.50 1.83 1.81 1.07 0.98 0.78 0.81 0.63 0.39 0.29 0.24 0.23 0.26 0.35 0.60 0.68 0.72 0.63 0.65 0.50 0.53 0.52 0.41 0.57 0.59 0.43 0.38 0.31 0.26 0.20 0.21 0.10 0.07 0.05 0.02 0.01 0.02 0.01 0.01 0.01 0.00 0.01
0.74 0.78 0.78 1.37 1.37 1.12 1.04 0.78 0.65 0.57 0.49 0.48 0.48 0.45 0.53 0.56 0.61 0.47 0.29 0.40 0.65 0.65 0.57 0.62 0.52 0.48 0.47 0.48 0.38 0.18 0.20 0.25 0.24 0.19 0.08 0.04 0.13 0.13 0.07 0.06 0.01 0.01 0.01
0.51 0.51 0.51 0.57 0.43 0.44 0.51 0.56 0.57 0.58 0.54 0.55 0.54 0.60 0.62 0.47 0.39 0.43 0.45 0.25 0.43 0.51 0.60 0.57 0.42 0.31 0.57 0.48 0.78 0.69 0.39 0.38 0.31 0.38 0.15 0.12 0.15 0.21 0.17 0.11 0.08 0.08 0.07
0.29 0.12 0.11 0.28 0.37 0.30 0.24 0.29 0.36 0.37 0.43 0.48 0.40 0.42 0.58 0.76 0.92 0.69 0.65 0.32 0.25 0.34 0.43 0.41 0.37 0.57 0.56 0.41 0.41 0.30 0.36 0.37 0.46 0.30 0.17 0.24 0.21 0.21 0.21 0.18 0.17 0.08 0.04
0.26 0.21 0.12 0.06 0.04 0.16 0.22 0.27 0.34 0.33 0.37 0.57 0.80 0.75 0.59 0.60 0.70 0.55 0.51 0.42 0.35 0.41 0.57 0.34 0.32 0.24 0.52 0.55 0.20 0.08 0.11 0.17 0.39 0.37 0.22 0.15 0.13 0.09 0.09 0.05 0.06 0.09 0.05
0.28 0.27 0.20 0.17 0.13 0.09 0.22 0.27 0.41 0.68 0.60 0.43 0.33 0.27 0.22 0.21 0.31 0.31 0.35 0.40 0.31 0.31 0.28 0.19 0.40 0.21 0.38 0.31 0.13 0.05 0.07 0.20 0.19 0.18 0.13 0.09 0.09 0.10 0.17 0.15 0.33 0.37 0.26
0.21 0.28 0.22 0.11 0.12 0.18 0.29 0.32 0.48 0.52 0.36 0.29 0.26 0.31 0.31 0.21 0.22 0.19 0.22 0.20 0.20 0.39 0.23 0.18 0.14 0.24 0.23 0.30 0.33 0.24 0.22 0.14 0.13 0.07 0.05 0.05 0.11 0.18 0.19 0.21 0.51 0.56 0.36
0.16 0.17 0.11 0.08 0.11 0.20 0.23 0.25 0.30 0.32 0.29 0.28 0.32 0.31 0.34 0.24 0.23 0.18 0.22 0.18 0.24 0.24 0.10 0.14 0.20 0.29 0.38 0.48 0.37 0.25 0.17 0.12 0.10 0.13 0.12 0.08 0.11 0.14 0.12 0.18 0.29 0.35 0.35
0.08 0.11 0.11 0.08 0.05 0.12 0.19 0.17 0.10 0.15 0.22 0.32 0.41 0.35 0.40 0.45 0.47 0.41 0.49 0.56 0.47 0.40 0.27 0.30 0.30 0.20 0.16 0.14 0.12 0.11 0.16 0.19 0.25 0.26 0.24 0.14 0.12 0.17 0.18 0.16 0.24 0.32 0.31
0.12 0.07 0.09 0.18 0.18 0.20 0.33 0.20 0.13 0.23 0.29 0.30 0.59 0.85 0.88 0.79 0.70 0.63 0.66 0.60 0.53 0.41 0.33 0.31 0.24 0.21 0.20 0.17 0.16 0.16 0.19 0.27 0.31 0.25 0.21 0.19 0.19 0.20 0.16 0.16 0.22 0.31 0.34
0.13 0.28 0.39 0.42 0.37 0.28 0.41 0.37 0.46 0.66 0.69 0.68 0.77 0.75 0.69 0.59 0.64 0.93 1.09 1.23 1.19 1.32 1.49 0.99 0.78 0.72 0.59 0.39 0.26 0.24 0.21 0.18 0.21 0.22 0.31 0.43 0.40 0.32 0.26 0.22 0.25 0.33 0.39
0.29 0.28 0.30 0.33 0.48 0.53 0.55 0.56 0.81 0.96 0.91 0.78 0.93 0.86 0.89 1.04 1.56 1.78 2.05 2.08 1.94 1.57 1.20 0.73 0.54 0.41 0.36 0.36 0.32 0.28 0.25 0.27 0.27 0.42 0.61 0.60 0.55 0.46 0.41 0.38 0.33 0.32 0.31
0.19 0.16 0.19 0.31 0.40 0.64 0.83 0.73 0.65 0.86 0.85 0.78 0.94 0.89 0.87 0.76 0.81 0.88 1.27 1.41 1.17 1.21 0.51 0.37 0.32 0.36 0.47 0.58 0.57 0.58 0.52 0.61 0.84 0.86 0.89 0.97 1.02 0.93 0.87 0.76 0.71 0.71 0.69
0.70 0.80 0.70 0.59 0.70 0.56 0.78 0.92 0.74 0.68 0.64 0.64 0.79 0.74 0.67 0.83 0.78 1.02 1.52 1.54 0.98 0.68 0.47 0.45 0.44 0.47 0.50 0.56 0.60 0.61 0.59 0.70 1.02 1.32 1.32 1.28 1.41 1.34 1.23 1.05 1.02 1.05 1.10
1.63 1.09 1.01 1.31 1.47 1.33 1.27 1.18 0.97 0.79 0.71 0.71 0.68 0.79 0.81 0.82 0.87 0.98 1.20 0.82 0.76 0.82 0.72 0.83 0.82 0.73 0.72 0.71 0.88 1.17 1.43 1.31 1.43 1.48 1.45 1.55 1.51 1.52 1.36 1.21 1.41 1.83 2.29
1.55 1.90 1.47 1.94 3.28 3.57 3.28 2.63 2.24 2.01 1.63 1.48 1.33 1.47 1.45 1.45 1.40 1.53 1.84 1.90 1.86 1.49 1.35 1.45 1.49 1.34 1.41 1.39 1.42 1.48 1.51 1.62 1.72 1.85 2.01 2.77 3.56 4.13 4.19 3.80 3.53 3.57 3.47
1.01 1.15 1.14 1.17 1.31 1.46 2.16 2.64 2.57 2.40 2.24 2.37 2.37 2.35 2.48 2.57 2.45 2.70 2.96 3.12 2.91 2.93 2.83 2.83 3.15 3.12 2.94 2.85 2.72 2.64 2.70 2.89 3.27 3.56 3.71 3.50 3.28 2.86 2.39 2.23 2.09 2.12 2.02
0.84 0.84 0.82 0.92 0.83 0.84 0.72 0.89 1.41 1.34 1.09 1.06 1.18 1.34 1.46 1.17 1.22 1.32 1.54 1.69 1.80 1.79 1.84 1.80 1.62 1.66 1.80 1.85 1.89 1.87 1.82 1.80 1.81 1.77 1.68 1.72 1.75 1.61 1.45 1.53 1.57 1.51 1.41
0.46 0.70 0.72 0.73 0.67 0.80 0.80 0.82 0.76 0.86 1.18 1.15 0.87 0.73 0.71 0.55 0.56 0.58 0.54 0.59 0.69 0.73 0.73 0.75 0.71 0.75 0.77 0.83 0.78 0.75 0.69 0.71 0.86 0.98 1.05 1.18 1.31 1.22 1.12 1.23 1.40 1.32 1.11
0.46 0.49 0.61 0.65 0.73 0.62 0.53 0.50 0.57 0.61 0.53 0.51 0.48 0.48 0.46 0.40 0.41 0.44 0.41 0.45 0.44 0.43 0.47 0.51 0.53 0.50 0.48 0.47 0.43 0.42 0.32 0.30 0.33 0.39 0.42 0.48 0.63 0.85 0.78 0.67 0.55 0.49 0.39
0.48 0.48 0.51 0.54 0.69 0.79 0.87 0.62 0.51 0.52 0.48 0.37 0.34 0.34 0.29 0.21 0.20 0.23 0.22 0.21 0.18 0.22 0.25 0.26 0.24 0.23 0.27 0.26 0.26 0.26 0.32 0.37 0.34 0.31 0.29 0.30 0.27 0.22 0.25 0.26 0.25 0.23 0.22
0.98 0.74 0.61 0.50 0.47 0.70 1.14 1.22 1.13 1.18 1.11 1.01 0.77 0.54 0.50 0.50 0.38 0.27 0.23 0.20 0.16 0.13 0.13 0.13 0.12 0.13 0.16 0.15 0.16 0.20 0.24 0.23 0.24 0.26 0.19 0.16 0.17 0.16 0.15 0.16 0.20 0.21 0.23

GFSGL_prec_precacc_111.txt.gz
Total_Precipitation_Accumulation
0.57 0.50 0.62 0.33 0.15 0.14 0.14 0.14 0.21 0.39 0.62 0.69 1.23 0.38 0.37 0.33 0.18 0.22 0.20 0.13 0.10 0.05 0.02 0.03 0.03 0.02 0.00 0.00 0.01 0.01 0.00 0.01 0.01 0.02 0.06 0.11 0.06 0.01 0.00 0.00 0.00 0.00 0.01
1.20 1.35 0.93 0.94 0.76 0.46 0.27 0.21 0.21 0.20 0.30 0.54 0.41 0.50 0.51 0.28 0.34 0.34 0.21 0.18 0.22 0.11 0.07 0.06 0.02 0.01 0.04 0.02 0.02 0.01 0.00 0.01 0.02 0.01 0.01 0.01 0.01 0.00 0.01 0.01 0.00 0.00 0.02
1.79 1.73 1.46 1.09 1.00 0.91 0.70 0.74 0.38 0.20 0.38 0.33 0.37 0.65 0.54 0.42 0.54 0.61 0.45 0.44 0.32 0.27 0.16 0.10 0.06 0.05 0.07 0.06 0.06 0.03 0.01 0.02 0.06 0.05 0.02 0.01 0.00 0.00 0.01 0.00 0.01 0.00 0.01
2.08 2.06 1.44 1.13 0.88 0.78 0.67 0.67 0.46 0.38 0.40 0.22 0.28 0.41 0.37 0.33 0.41 0.49 0.71 0.78 0.45 0.45 0.34 0.24 0.18 0.13 0.18 0.16 0.10 0.11 0.11 0.18 0.21 0.20 0.11 0.06 0.04 0.01 0.01 0.01 0.03 0.00 0.01
1.20 1.55 1.94 1.93 1.24 1.04 0.90 0.99 0.77 0.51 0.37 0.25 0.23 0.32 0.46 0.62 0.69 0.75 0.63 0.65 0.50 0.57 0.53 0.41 0.58 0.62 0.44 0.39 0.35 0.31 0.24 0.31 0.11 0.07 0.05 0.03 0.01 0.02 0.02 0.01 0.01 0.00 0.01
0.83 0.94 0.96 1.56 1.46 1.15 1.11 0.82 0.69 0.60 0.51 0.48 0.48 0.50 0.61 0.63 0.63 0.47 0.29 0.40 0.66 0.67 0.60 0.62 0.57 0.50 0.48 0.50 0.38 0.18 0.23 0.33 0.29 0.24 0.12 0.06 0.16 0.14 0.07 0.06 0.01 0.01 0.01
0.62 0.66 0.64 0.76 0.50 0.46 0.52 0.57 0.60 0.59 0.55 0.55 0.54 0.60 0.62 0.47 0.39 0.43 0.45 0.25 0.45 0.56 0.62 0.58 0.44 0.31 0.58 0.48 0.78 0.69 0.44 0.47 0.36 0.41 0.17 0.12 0.16 0.22 0.17 0.11 0.08 0.08 0.07
0.57 0.39 0.20 0.35 0.39 0.31 0.24 0.29 0.36 0.37 0.43 0.48 0.40 0.42 0.58 0.76 0.92 0.70 0.65 0.32 0.26 0.41 0.52 0.47 0.39 0.57 0.56 0.41 0.41 0.30 0.37 0.40 0.49 0.31 0.17 0.24 0.21 0.21 0.21 0.18 0.17 0.08 0.04
0.60 0.38 0.21 0.08 0.05 0.16 0.22 0.27 0.35 0.33 0.37 0.57 0.80 0.75 0.59 0.60 0.70 0.55 0.51 0.43 0.38 0.46 0.62 0.38 0.33 0.25 0.52 0.55 0.20 0.08 0.11 0.17 0.39 0.37 0.22 0.15 0.13 0.09 0.09 0.05 0.06 0.09 0.05
1.08 0.47 0.25 0.20 0.15 0.11 0.28 0.35 0.46 0.69 0.60 0.43 0.33 0.27 0.22 0.21 0.31 0.31 0.35 0.40 0.31 0.31 0.29 0.20 0.41 0.21 0.38 0.31 0.13 0.05 0.07 0.20 0.19 0.18 0.13 0.09 0.09 0.10 0.17 0.15 0.33 0.37 0.26
0.63 0.64 0.43 0.26 0.21 0.23 0.37 0.41 0.56 0.55 0.37 0.29 0.26 0.31 0.31 0.21 0.22 0.19 0.22 0.20 0.20 0.39 0.23 0.18 0.14 0.24 0.23 0.30 0.33 0.24 0.22 0.14 0.13 0.07 0.05 0.05 0.11 0.18 0.19 0.21 0.51 0.56 0.36
0.47 0.51 0.38 0.24 0.20 0.22 0.25 0.27 0.31 0.33 0.29 0.28 0.32 0.31 0.34 0.24 0.23 0.18 0.22 0.18 0.24 0.24 0.10 0.14 0.20 0.29 0.38 0.48 0.37 0.25 0.17 0.12 0.10 0.13 0.12 0.08 0.11 0.14 0.12 0.18 0.29 0.35 0.35
0.17 0.17 0.15 0.09 0.06 0.12 0.19 0.17 0.10 0.15 0.22 0.32 0.41 0.35 0.40 0.45 0.47 0.41 0.49 0.56 0.47 0.40 0.27 0.30 0.30 0.20 0.16 0.14 0.12 0.11 0.16 0.19 0.25 0.26 0.24 0.14 0.12 0.17 0.18 0.16 0.24 0.32 0.31
0.12 0.07 0.10 0.18 0.18 0.20 0.33 0.20 0.13 0.23 0.29 0.30 0.59 0.85 0.88 0.79 0.70 0.63 0.66 0.60 0.53 0.41 0.33 0.31 0.24 0.21 0.20 0.17 0.16 0.16 0.19 0.27 0.31 0.25 0.21 0.19 0.19 0.20 0.16 0.16 0.22 0.31 0.34
0.13 0.28 0.39 0.42 0.37 0.28 0.41 0.37 0.46 0.66 0.69 0.68 0.77 0.75 0.69 0.59 0.64 0.93 1.09 1.23 1.19 1.32 1.49 0.99 0.78 0.72 0.59 0.39 0.26 0.24 0.21 0.18 0.21 0.22 0.31 0.43 0.40 0.32 0.26 0.22 0.25 0.33 0.39
0.29 0.28 0.30 0.33 0.48 0.53 0.55 0.56 0.81 0.96 0.91 0.78 0.93 0.86 0.89 1.04 1.56 1.78 2.05 2.08 1.94 1.57 1.20 0.73 0.54 0.41 0.36 0.36 0.32 0.28 0.25 0.27 0.27 0.42 0.61 0.60 0.55 0.46 0.41 0.38 0.33 0.32 0.31
0.19 0.16 0.19 0.31 0.40 0.64 0.83 0.73 0.65 0.86 0.85 0.78 0.94 0.89 0.87 0.76 0.81 0.88 1.27 1.41 1.17 1.21 0.51 0.37 0.32 0.36 0.47 0.58 0.57 0.58 0.52 0.61 0.84 0.86 0.89 0.97 1.02 0.93 0.87 0.76 0.71 0.71 0.69
0.70 0.80 0.70 0.59 0.70 0.56 0.78 0.92 0.74 0.68 0.64 0.64 0.79 0.74 0.67 0.83 0.78 1.02 1.52 1.54 0.98 0.68 0.47 0.45 0.44 0.47 0.50 0.56 0.60 0.61 0.59 0.70 1.02 1.32 1.32 1.28 1.41 1.34 1.23 1.05 1.02 1.05 1.10
1.63 1.09 1.01 1.31 1.47 1.33 1.27 1.18 0.97 0.79 0.71 0.71 0.68 0.79 0.81 0.82 0.87 0.98 1.20 0.82 0.76 0.82 0.72 0.83 0.82 0.73 0.72 0.71 0.88 1.17 1.43 1.31 1.43 1.48 1.45 1.55 1.51 1.52 1.36 1.21 1.41 1.83 2.29
1.55 1.90 1.47 1.94 3.28 3.57 3.28 2.63 2.24 2.01 1.63 1.48 1.33 1.47 1.45 1.45 1.40 1.53 1.84 1.90 1.86 1.49 1.35 1.45 1.49 1.34 1.41 1.39 1.42 1.48 1.51 1.62 1.72 1.85 2.01 2.77 3.56 4.13 4.19 3.80 3.53 3.57 3.47
1.01 1.16 1.15 1.17 1.31 1.46 2.16 2.64 2.57 2.40 2.24 2.37 2.37 2.35 2.48 2.57 2.45 2.70 2.96 3.12 2.91 2.93 2.83 2.83 3.15 3.12 2.94 2.85 2.72 2.64 2.70 2.89 3.27 3.56 3.71 3.50 3.28 2.86 2.39 2.23 2.09 2.12 2.02
0.84 0.84 0.82 0.92 0.84 0.84 0.72 0.89 1.41 1.34 1.09 1.06 1.18 1.34 1.46 1.17 1.22 1.32 1.54 1.69 1.80 1.79 1.84 1.80 1.62 1.66 1.80 1.85 1.89 1.87 1.82 1.80 1.81 1.77 1.68 1.72 1.75 1.61 1.45 1.53 1.57 1.51 1.41
0.46 0.70 0.72 0.73 0.67 0.80 0.80 0.82 0.76 0.86 1.18 1.15 0.87 0.73 0.71 0.55 0.56 0.58 0.54 0.59 0.69 0.73 0.73 0.75 0.71 0.75 0.77 0.83 0.78 0.75 0.69 0.71 0.86 0.98 1.05 1.18 1.31 1.22 1.12 1.23 1.40 1.32 1.11
0.46 0.49 0.61 0.65 0.73 0.62 0.53 0.50 0.57 0.61 0.53 0.51 0.48 0.48 0.46 0.40 0.41 0.44 0.41 0.45 0.44 0.43 0.47 0.51 0.53 0.50 0.48 0.47 0.43 0.42 0.32 0.30 0.33 0.39 0.42 0.48 0.63 0.85 0.78 0.67 0.55 0.49 0.39
0.48 0.48 0.51 0.54 0.69 0.80 0.87 0.63 0.52 0.53 0.49 0.37 0.34 0.34 0.29 0.21 0.20 0.23 0.22 0.21 0.18 0.22 0.25 0.26 0.24 0.23 0.27 0.26 0.26 0.26 0.32 0.37 0.34 0.31 0.29 0.30 0.27 0.22 0.25 0.26 0.25 0.23 0.22
0.98 0.74 0.61 0.50 0.47 0.70 1.15 1.25 1.16 1.21 1.13 1.02 0.77 0.54 0.50 0.50 0.38 0.27 0.23 0.20 0.16 0.13 0.13 0.13 0.12 0.13 0.16 0.15 0.16 0.20 0.24 0.23 0.24 0.26 0.19 0.16 0.17 0.16 0.15 0.16 0.20 0.21 0.23

GFSGL_prec_precacc_114.txt.gz
Total_Precipitation_Accumulation
0.57 0.50 0.62 0.33 0.15 0.15 0.16 0.22 0.26 0.39 0.62 0.70 1.23 0.38 0.45 0.34 0.18 0.23 0.21 0.13 0.10 0.05 0.02 0.03 0.03 0.02 0.00 0.00 0.01 0.01 0.00 0.01 0.01 0.02 0.06 0.11 0.06 0.01 0.00 0.00 0.00 0.00 0.01
1.20 1.35 0.93 0.94 0.77 0.46 0.27 0.25 0.25 0.22 0.30 0.54 0.41 0.50 0.55 0.31 0.35 0.36 0.23 0.18 0.23 0.11 0.07 0.06 0.02 0.01 0.04 0.02 0.02 0.01 0.00 0.01 0.02 0.01 0.01 0.01 0.01 0.00 0.01 0.01 0.00 0.00 0.02
1.84 1.79 1.48 1.10 1.01 0.95 0.75 0.78 0.43 0.24 0.39 0.33 0.37 0.65 0.54 0.42 0.54 0.66 0.63 0.54 0.35 0.27 0.16 0.10 0.06 0.05 0.08 0.06 0.06 0.03 0.01 0.02 0.06 0.05 0.02 0.01 0.00 0.00 0.01 0.00 0.01 0.00 0.01
2.13 2.11 1.52 1.15 0.89 0.84 0.71 0.70 0.51 0.47 0.49 0.26 0.30 0.42 0.39 0.33 0.41 0.52 0.78 0.94 0.56 0.47 0.34 0.25 0.18 0.13 0.20 0.17 0.10 0.11 0.11 0.19 0.21 0.20 0.11 0.06 0.04 0.01 0.01 0.01 0.03 0.00 0.01
1.27 1.65 2.02 1.98 1.29 1.10 0.95 1.05 0.82 0.59 0.50 0.40 0.40 0.45 0.56 0.68 0.70 0.75 0.64 0.65 0.53 0.62 0.56 0.45 0.66 0.69 0.45 0.39 0.35 0.31 0.24 0.31 0.12 0.07 0.05 0.03 0.01 0.02 0.02 0.01 0.01 0.00 0.01
0.89 1.05 1.03 1.61 1.61 1.26 1.19 0.93 0.79 0.68 0.57 0.54 0.52 0.53 0.69 0.70 0.66 0.49 0.29 0.40 0.66 0.69 0.60 0.65 0.63 0.58 0.51 0.50 0.38 0.18 0.23 0.34 0.31 0.25 0.14 0.06 0.16 0.14 0.07 0.06 0.01 0.01 0.01
0.70 0.75 0.75 0.89 0.63 0.61 0.60 0.65 0.71 0.69 0.64 0.62 0.59 0.62 0.62 0.47 0.39 0.43 0.45 0.25 0.45 0.64 0.76 0.72 0.53 0.36 0.59 0.48 0.78 0.69 0.44 0.48 0.37 0.42 0.18 0.12 0.16 0.22 0.17 0.11 0.08 0.08 0.07
0.61 0.48 0.34 0.48 0.50 0.37 0.27 0.31 0.37 0.38 0.46 0.50 0.40 0.42 0.58 0.76 0.92 0.70 0.65 0.32 0.26 0.43 0.56 0.56 0.47 0.64 0.62 0.42 0.41 0.30 0.37 0.40 0.49 0.31 0.17 0.24 0.21 0.21 0.21 0.18 0.17 0.08 0.04
0.67 0.49 0.30 0.15 0.13 0.29 0.34 0.36 0.40 0.34 0.37 0.58 0.80 0.75 0.59 0.60 0.70 0.56 0.52 0.44 0.38 0.47 0.63 0.40 0.36 0.28 0.54 0.55 0.20 0.08 0.11 0.17 0.39 0.37 0.22 0.15 0.13 0.09 0.09 0.05 0.06 0.09 0.05
1.15 0.65 0.38 0.36 0.36 0.38 0.61 0.64 0.62 0.70 0.60 0.43 0.33 0.27 0.22 0.21 0.31 0.31 0.35 0.40 0.31 0.31 0.29 0.21 0.41 0.23 0.38 0.31 0.13 0.05 0.07 0.20 0.19 0.18 0.13 0.09 0.09 0.10 0.17 0.15 0.33 0.37 0.26
1.01 1.22 0.84 0.51 0.49 0.48 0.56 0.70 0.83 0.61 0.37 0.29 0.26 0.31 0.31 0.21 0.22 0.19 0.22 0.20 0.20 0.39 0.23 0.18 0.14 0.24 0.23 0.30 0.33 0.24 0.22 0.14 0.13 0.07 0.05 0.05 0.11 0.18 0.19 0.21 0.51 0.56 0.36
0.96 0.98 1.40 1.10 0.80 0.45 0.34 0.33 0.41 0.39 0.33 0.29 0.32 0.31 0.34 0.24 0.23 0.18 0.22 0.18 0.24 0.24 0.10 0.14 0.20 0.29 0.38 0.48 0.37 0.25 0.17 0.12 0.10 0.13 0.12 0.08 0.11 0.14 0.12 0.18 0.29 0.35 0.35
0.34 0.57 0.72 0.99 0.49 0.25 0.22 0.18 0.10 0.15 0.22 0.32 0.41 0.35 0.40 0.45 0.47 0.41 0.49 0.56 0.47 0.40 0.27 0.30 0.30 0.20 0.16 0.14 0.12 0.11 0.16 0.19 0.25 0.26 0.24 0.14 0.12 0.17 0.18 0.16 0.24 0.32 0.31
0.12 0.08 0.15 0.27 0.25 0.25 0.36 0.21 0.16 0.24 0.29 0.30 0.59 0.85 0.88 0.79 0.70 0.63 0.66 0.60 0.53 0.41 0.33 0.31 0.24 0.21 0.20 0.17 0.16 0.16 0.19 0.27 0.31 0.25 0.21 0.19 0.19 0.20 0.16 0.16 0.22 0.31 0.34
0.13 0.28 0.39 0.42 0.37 0.28 0.41 0.37 0.46 0.66 0.69 0.68 0.77 0.75 0.69 0.59 0.64 0.93 1.09 1.23 1.19 1.32 1.49 0.99 0.78 0.72 0.59 0.39 0.26 0.24 0.21 0.18 0.21 0.22 0.31 0.43 0.40 0.32 0.26 0.22 0.25 0.33 0.39
0.29 0.28 0.30 0.33 0.48 0.53 0.55 0.56 0.81 0.96 0.91 0.78 0.93 0.86 0.89 1.04 1.56 1.78 2.05 2.08 1.94 1.57 1.20 0.73 0.54 0.41 0.36 0.36 0.32 0.28 0.25 0.27 0.27 0.42 0.61 0.60 0.55 0.46 0.41 0.38 0.33 0.32 0.31
0.19 0.16 0.19 0.31 0.40 0.64 0.83 0.73 0.65 0.86 0.85 0.78 0.94 0.89 0.87 0.76 0.81 0.88 1.27 1.41 1.17 1.21 0.51 0.37 0.32 0.36 0.47 0.58 0.57 0.58 0.52 0.61 0.84 0.86 0.89 0.97 1.02 0.93 0.87 0.76 0.71 0.71 0.69
0.70 0.80 0.70 0.59 0.70 0.56 0.78 0.92 0.74 0.68 0.64 0.64 0.79 0.74 0.67 0.83 0.78 1.02 1.52 1.54 0.98 0.68 0.47 0.45 0.44 0.47 0.50 0.56 0.60 0.61 0.59 0.70 1.02 1.32 1.32 1.28 1.41 1.34 1.23 1.05 1.02 1.05 1.10
1.63 1.09 1.01 1.31 1.47 1.33 1.27 1.18 0.97 0.79 0.71 0.71 0.68 0.79 0.81 0.82 0.87 0.98 1.20 0.82 0.76 0.82 0.72 0.83 0.82 0.73 0.72 0.71 0.88 1.17 1.43 1.31 1.43 1.48 1.45 1.55 1.51 1.52 1.36 1.21 1.41 1.83 2.29
1.55 1.90 1.47 1.94 3.28 3.57 3.28 2.63 2.24 2.01 1.63 1.48 1.33 1.47 1.45 1.45 1.40 1.53 1.84 1.90 1.86 1.49 1.35 1.45 1.49 1.34 1.41 1.39 1.42 1.48 1.51 1.62 1.72 1.85 2.01 2.77 3.56 4.13 4.19 3.80 3.53 3.57 3.47
1.01 1.16 1.15 1.17 1.31 1.46 2.16 2.64 2.57 2.40 2.24 2.37 2.37 2.35 2.48 2.57 2.45 2.70 2.96 3.12 2.91 2.93 2.83 2.83 3.15 3.12 2.94 2.85 2.72 2.64 2.70 2.89 3.27 3.56 3.71 3.50 3.28 2.86 2.39 2.23 2.09 2.12 2.02
0.84 0.84 0.82 0.92 0.84 0.84 0.72 0.89 1.41 1.34 1.09 1.06 1.18 1.34 1.46 1.17 1.22 1.32 1.54 1.69 1.80 1.79 1.84 1.80 1.62 1.66 1.80 1.85 1.89 1.87 1.82 1.80 1.81 1.77 1.68 1.72 1.75 1.61 1.45 1.53 1.57 1.51 1.41
0.46 0.70 0.72 0.73 0.67 0.80 0.80 0.82 0.76 0.86 1.18 1.15 0.87 0.73 0.71 0.55 0.56 0.58 0.54 0.59 0.69 0.73 0.73 0.75 0.71 0.75 0.77 0.83 0.78 0.75 0.69 0.71 0.86 0.98 1.05 1.18 1.31 1.22 1.12 1.23 1.40 1.32 1.11
0.46 0.49 0.61 0.65 0.73 0.62 0.53 0.50 0.57 0.61 0.53 0.51 0.48 0.49 0.46 0.40 0.41 0.44 0.41 0.45 0.44 0.43 0.47 0.51 0.53 0.50 0.48 0.47 0.43 0.42 0.32 0.30 0.33 0.39 0.42 0.48 0.63 0.85 0.78 0.67 0.55 0.49 0.39
0.48 0.48 0.51 0.54 0.69 0.80 0.87 0.63 0.52 0.53 0.49 0.38 0.35 0.35 0.30 0.22 0.20 0.23 0.22 0.21 0.18 0.22 0.25 0.26 0.24 0.23 0.27 0.26 0.26 0.26 0.32 0.37 0.34 0.31 0.29 0.30 0.27 0.22 0.25 0.26 0.25 0.23 0.22
0.98 0.74 0.61 0.50 0.47 0.70 1.15 1.25 1.16 1.21 1.14 1.03 0.79 0.56 0.52 0.51 0.38 0.27 0.23 0.20 0.16 0.13 0.13 0.13 0.12 0.13 0.16 0.15 0.16 0.20 0.24 0.23 0.24 0.26 0.19 0.16 0.17 0.16 0.15 0.16 0.20 0.21 0.23

GFSGL_prec_precacc_117.txt.gz
Total_Precipitation_Accumulation
0.57 0.50 0.62 0.33 0.15 0.17 0.19 0.24 0.31 0.42 0.62 0.70 1.23 0.38 0.45 0.34 0.18 0.23 0.24 0.16 0.11 0.05 0.02 0.03 0.03 0.02 0.00 0.00 0.01 0.01 0.00 0.01 0.01 0.02 0.06 0.11 0.06 0.01 0.00 0.00 0.00 0.00 0.01
1.20 1.35 0.93 0.94 0.77 0.46 0.27 0.25 0.25 0.23 0.31 0.54 0.41 0.50 0.55 0.32 0.35 0.36 0.24 0.23 0.29 0.17 0.11 0.08 0.02 0.01 0.06 0.04 0.02 0.02 0.01 0.01 0.02 0.01 0.01 0.01 0.01 0.00 0.01 0.01 0.00 0.00 0.02
1.84 1.79 1.48 1.10 1.01 0.95 0.75 0.78 0.43 0.24 0.39 0.33 0.37 0.65 0.54 0.42 0.54 0.68 0.68 0.59 0.40 0.32 0.20 0.12 0.08 0.05 0.16 0.12 0.13 0.10 0.04 0.03 0.09 0.05 0.02 0.01 0.00 0.00 0.01 0.00 0.01 0.00 0.01
2.13 2.11 1.52 1.16 0.90 0.85 0.72 0.70 0.51 0.47 0.49 0.26 0.30 0.42 0.39 0.34 0.42 0.55 0.84 0.96 0.58 0.47 0.44 0.31 0.26 0.20 0.33 0.29 0.21 0.19 0.16 0.27 0.28 0.24 0.13 0.07 0.04 0.01 0.01 0.01 0.03 0.00 0.01
1.33 1.68 2.06 2.05 1.31 1.11 0.95 1.05 0.82 0.59 0.50 0.40 0.41 0.50 0.62 0.75 0.77 0.78 0.65 0.65 0.53 0.62 0.57 0.63 0.86 0.92 0.65 0.51 0.43 0.40 0.31 0.40 0.23 0.16 0.12 0.06 0.05 0.04 0.04 0.02 0.01 0.00 0.01
0.91 1.17 1.22 1.72 1.63 1.27 1.19 0.94 0.80 0.69 0.59 0.56 0.53 0.57 0.75 0.74 0.70 0.55 0.33 0.41 0.66 0.69 0.61 0.67 0.71 0.67 0.55 0.52 0.40 0.21 0.26 0.41 0.40 0.32 0.25 0.15 0.20 0.16 0.07 0.06 0.01 0.01 0.01
0.75 0.83 0.82 0.93 0.66 0.63 0.62 0.67 0.74 0.73 0.69 0.67 0.65 0.73 0.68 0.49 0.40 0.44 0.45 0.25 0.45 0.64 0.76 0.72 0.56 0.38 0.61 0.50 0.79 0.70 0.44 0.48 0.37 0.42 0.19 0.12 0.16 0.22 0.17 0.11 0.08 0.08 0.07
0.71 0.61 0.43 0.59 0.64 0.48 0.33 0.33 0.40 0.44 0.52 0.61 0.45 0.45 0.61 0.78 0.93 0.70 0.65 0.32 0.26 0.43 0.56 0.56 0.47 0.64 0.62 0.43 0.41 0.30 0.37 0.40 0.49 0.31 0.17 0.24 0.21 0.21 0.21 0.18 0.17 0.08 0.05
0.81 0.67 0.42 0.25 0.20 0.36 0.41 0.48 0.53 0.43 0.42 0.67 0.85 0.76 0.60 0.60 0.70 0.56 0.52 0.44 0.39 0.47 0.63 0.40 0.37 0.28 0.54 0.55 0.20 0.08 0.11 0.17 0.39 0.37 0.22 0.15 0.13 0.09 0.09 0.05 0.06 0.09 0.06
1.24 0.84 0.74 0.67 0.46 0.42 0.69 0.76 0.85 0.99 0.78 0.58 0.43 0.29 0.22 0.21 0.31 0.31 0.35 0.40 0.31 0.31 0.29 0.21 0.41 0.23 0.38 0.31 0.13 0.05 0.07 0.20 0.19 0.18 0.13 0.09 0.09 0.10 0.17 0.15 0.33 0.37 0.26
1.12 1.30 0.92 0.77 0.71 0.67 0.82 1.01 1.21 1.13 0.79 0.47 0.37 0.35 0.32 0.21 0.22 0.19 0.22 0.20 0.20 0.39 0.23 0.18 0.14 0.24 0.23 0.30 0.33 0.24 0.22 0.14 0.13 0.07 0.05 0.05 0.11 0.18 0.19 0.21 0.51 0.56 0.36
1.16 1.28 1.59 1.22 1.23 1.17 1.21 1.17 0.88 0.89 0.65 0.40 0.36 0.33 0.35 0.24 0.23 0.18 0.22 0.18 0.24 0.24 0.10 0.14 0.20 0.29 0.38 0.48 0.37 0.25 0.17 0.12 0.10 0.13 0.12 0.08 0.11 0.14 0.12 0.18 0.29 0.35 0.35
0.41 0.62 0.82 1.27 0.98 1.01 0.91 0.73 0.51 0.41 0.31 0.35 0.41 0.36 0.40 0.45 0.47 0.41 0.49 0.56 0.47 0.40 0.27 0.30 0.30 0.20 0.16 0.14 0.12 0.11 0.16 0.19 0.25 0.26 0.24 0.14 0.12 0.17 0.18 0.16 0.24 0.32 0.31
0.15 0.10 0.17 0.36 0.35 0.41 0.52 0.36 0.31 0.43 0.41 0.34 0.60 0.86 0.89 0.79 0.70 0.63 0.66 0.60 0.53 0.41 0.33 0.31 0.24 0.21 0.20 0.17 0.16 0.16 0.19 0.27 0.31 0.25 0.21 0.19 0.19 0.20 0.16 0.16 0.22 0.31 0.34
0.13 0.28 0.39 0.43 0.39 0.33 0.47 0.43 0.50 0.72 0.74 0.72 0.78 0.75 0.69 0.59 0.64 0.93 1.09 1.23 1.19 1.32 1.49 0.99 0.78 0.72 0.59 0.39 0.26 0.24 0.21 0.18 0.21 0.22 0.31 0.43 0.40 0.32 0.26 0.22 0.25 0.33 0.39
0.29 0.28 0.30 0.33 0.48 0.53 0.55 0.56 0.81 0.96 0.91 0.78 0.93 0.86 0.89 1.04 1.56 1.78 2.05 2.08 1.94 1.57 1.20 0.73 0.54 0.41 0.36 0.36 0.32 0.28 0.25 0.27 0.27 0.42 0.61 0.60 0.55 0.46 0.41 0.38 0.33 0.32 0.31
0.19 0.16 0.19 0.31 0.40 0.64 0.83 0.73 0.65 0.86 0.85 0.78 0.94 0.89 0.87 0.76 0.81 0.88 1.27 1.41 1.17 1.21 0.51 0.37 0.32 0.36 0.47 0.58 0.57 0.58 0.52 0.61 0.84 0.86 0.89 0.97 1.02 0.93 0.87 0.76 0.71 0.71 0.69
0.70 0.80 0.70 0.59 0.70 0.56 0.78 0.92 0.74 0.68 0.64 0.64 0.79 0.74 0.67 0.83 0.78 1.02 1.52 1.54 0.98 0.68 0.47 0.45 0.44 0.47 0.50 0.56 0.60 0.61 0.59 0.70 1.02 1.32 1.32 1.28 1.41 1.34 1.23 1.05 1.02 1.05 1.10
1.63 1.09 1.01 1.31 1.47 1.33 1.27 1.18 0.97 0.79 0.71 0.71 0.68 0.79 0.81 0.82 0.87 0.98 1.20 0.82 0.76 0.82 0.72 0.83 0.82 0.73 0.72 0.71 0.88 1.17 1.43 1.31 1.43 1.48 1.45 1.55 1.51 1.52 1.36 1.21 1.41 1.83 2.29
1.55 1.90 1.47 1.94 3.28 3.57 3.28 2.63 2.24 2.01 1.63 1.48 1.33 1.47 1.45 1.45 1.40 1.53 1.84 1.90 1.86 1.49 1.35 1.45 1.49 1.34 1.41 1.39 1.42 1.48 1.51 1.62 1.72 1.85 2.01 2.77 3.56 4.13 4.19 3.80 3.53 3.57 3.47
1.01 1.16 1.15 1.17 1.31 1.46 2.16 2.64 2.57 2.40 2.24 2.37 2.37 2.35 2.48 2.57 2.45 2.70 2.96 3.12 2.91 2.93 2.83 2.83 3.15 3.12 2.94 2.85 2.72 2.64 2.70 2.89 3.27 3.56 3.71 3.50 3.28 2.86 2.39 2.23 2.09 2.12 2.02
0.84 0.84 0.82 0.92 0.84 0.84 0.72 0.89 1.41 1.34 1.09 1.06 1.18 1.34 1.46 1.17 1.22 1.32 1.54 1.69 1.80 1.79 1.84 1.80 1.62 1.66 1.80 1.85 1.89 1.87 1.82 1.80 1.81 1.77 1.68 1.72 1.75 1.61 1.45 1.53 1.57 1.51 1.41
0.46 0.70 0.72 0.73 0.67 0.80 0.80 0.82 0.76 0.86 1.18 1.15 0.87 0.73 0.71 0.55 0.56 0.58 0.54 0.59 0.69 0.73 0.73 0.75 0.71 0.75 0.77 0.83 0.78 0.75 0.69 0.71 0.86 0.98 1.05 1.18 1.31 1.22 1.12 1.23 1.40 1.32 1.11
0.46 0.49 0.61 0.65 0.73 0.62 0.53 0.50 0.57 0.61 0.53 0.51 0.48 0.49 0.46 0.40 0.41 0.44 0.41 0.45 0.44 0.43 0.47 0.51 0.53 0.50 0.48 0.47 0.43 0.42 0.32 0.30 0.33 0.39 0.42 0.48 0.63 0.85 0.78 0.67 0.55 0.49 0.39
0.48 0.48 0.51 0.54 0.69 0.80 0.87 0.63 0.52 0.53 0.49 0.38 0.35 0.35 0.30 0.23 0.21 0.24 0.23 0.21 0.18 0.22 0.25 0.26 0.24 0.23 0.27 0.26 0.26 0.26 0.32 0.37 0.34 0.31 0.29 0.30 0.27 0.22 0.25 0.26 0.25 0.23 0.22
0.98 0.74 0.61 0.50 0.47 0.70 1.15 1.25 1.16 1.21 1.14 1.03 0.79 0.56 0.52 0.52 0.39 0.28 0.24 0.20 0.16 0.13 0.13 0.13 0.12 0.13 0.16 0.15 0.16 0.20 0.24 0.23 0.24 0.26 0.19 0.16 0.17 0.16 0.15 0.16 0.20 0.21 0.23

GFSGL_prec_precacc_120.txt.gz
Total_Precipitation_Accumulation
0.57 0.50 0.62 0.33 0.15 0.17 0.19 0.27 0.40 0.48 0.63 0.70 1.23 0.38 0.46 0.39 0.21 0.26 0.30 0.17 0.14 0.08 0.03 0.05 0.05 0.03 0.00 0.00 0.01 0.01 0.00 0.01 0.01 0.02 0.06 0.11 0.06 0.01 0.00 0.00 0.00 0.00 0.02
1.20 1.35 0.93 0.94 0.77 0.46 0.32 0.28 0.31 0.30 0.39 0.54 0.41 0.50 0.55 0.32 0.35 0.39 0.35 0.24 0.29 0.17 0.12 0.10 0.05 0.02 0.09 0.07 0.03 0.02 0.02 0.03 0.03 0.01 0.02 0.01 0.01 0.00 0.01 0.01 0.00 0.00 0.02
1.84 1.79 1.48 1.10 1.01 0.95 0.75 0.78 0.44 0.24 0.40 0.33 0.37 0.65 0.54 0.42 0.54 0.75 0.82 0.62 0.43 0.33 0.22 0.13 0.10 0.08 0.19 0.16 0.19 0.17 0.06 0.07 0.16 0.08 0.04 0.02 0.01 0.00 0.01 0.00 0.01 0.00 0.01
2.13 2.11 1.52 1.16 0.91 0.85 0.72 0.70 0.51 0.47 0.49 0.26 0.31 0.42 0.40 0.35 0.43 0.62 0.95 1.08 0.64 0.50 0.55 0.35 0.35 0.25 0.38 0.32 0.26 0.30 0.24 0.35 0.37 0.30 0.22 0.11 0.05 0.01 0.01 0.02 0.03 0.01 0.01
1.33 1.68 2.06 2.10 1.39 1.20 1.00 1.07 0.83 0.59 0.51 0.40 0.41 0.50 0.62 0.75 0.77 0.79 0.67 0.69 0.56 0.65 0.62 0.78 0.94 1.03 0.77 0.60 0.53 0.49 0.40 0.46 0.27 0.20 0.19 0.15 0.14 0.09 0.09 0.02 0.01 0.00 0.02
0.93 1.21 1.34 1.88 1.77 1.38 1.25 1.01 0.84 0.70 0.59 0.57 0.54 0.57 0.75 0.74 0.70 0.56 0.34 0.41 0.67 0.69 0.64 0.73 0.76 0.72 0.56 0.53 0.42 0.21 0.28 0.52 0.51 0.39 0.30 0.22 0.29 0.26 0.11 0.07 0.01 0.01 0.06
0.81 0.88 0.88 1.03 0.75 0.73 0.71 0.77 0.82 0.78 0.70 0.68 0.66 0.73 0.68 0.49 0.41 0.44 0.45 0.25 0.45 0.64 0.76 0.75 0.59 0.38 0.62 0.50 0.79 0.70 0.44 0.48 0.37 0.45 0.25 0.18 0.20 0.23 0.17 0.12 0.09 0.11 0.10
0.74 0.69 0.54 0.68 0.75 0.62 0.44 0.41 0.46 0.47 0.53 0.64 0.48 0.47 0.62 0.80 0.96 0.71 0.65 0.32 0.26 0.43 0.56 0.57 0.51 0.65 0.62 0.43 0.41 0.30 0.37 0.40 0.49 0.31 0.17 0.25 0.21 0.21 0.21 0.18 0.17 0.09 0.06
0.85 0.69 0.47 0.35 0.36 0.53 0.57 0.64 0.67 0.51 0.50 0.75 0.91 0.78 0.61 0.61 0.71 0.57 0.52 0.44 0.39 0.47 0.63 0.40 0.38 0.28 0.54 0.55 0.20 0.08 0.11 0.17 0.39 0.37 0.22 0.15 0.13 0.09 0.09 0.05 0.06 0.09 0.11
1.30 0.93 0.81 0.84 0.68 0.70 1.15 1.14 1.17 1.25 0.91 0.68 0.59 0.44 0.31 0.25 0.33 0.31 0.35 0.41 0.31 0.31 0.29 0.21 0.42 0.23 0.38 0.31 0.13 0.05 0.07 0.20 0.19 0.18 0.13 0.09 0.09 0.10 0.17 0.15 0.33 0.37 0.26
1.23 1.38 0.99 0.92 1.13 1.08 1.06 1.21 1.44 1.37 1.14 0.78 0.65 0.54 0.41 0.26 0.25 0.20 0.22 0.20 0.20 0.39 0.23 0.18 0.14 0.24 0.23 0.30 0.33 0.24 0.22 0.14 0.13 0.07 0.05 0.05 0.11 0.18 0.19 0.21 0.51 0.56 0.36
1.20 1.36 1.80 1.40 1.38 1.48 1.53 1.50 1.43 1.41 1.35 0.93 0.73 0.62 0.48 0.28 0.25 0.19 0.23 0.18 0.24 0.24 0.10 0.14 0.20 0.29 0.38 0.48 0.37 0.25 0.17 0.12 0.10 0.13 0.12 0.08 0.11 0.14 0.12 0.18 0.29 0.35 0.35
0.50 0.71 0.95 1.38 1.00 1.04 1.03 0.95 0.79 0.70 0.63 0.57 0.56 0.47 0.49 0.49 0.50 0.42 0.50 0.56 0.47 0.40 0.27 0.30 0.30 0.20 0.16 0.14 0.12 0.11 0.16 0.19 0.25 0.26 0.24 0.14 0.12 0.17 0.18 0.16 0.24 0.32 0.31
0.17 0.11 0.19 0.38 0.35 0.41 0.54 0.45 0.51 0.67 0.77 0.73 0.81 0.97 0.94 0.80 0.70 0.63 0.67 0.60 0.53 0.41 0.33 0.31 0.24 0.21 0.20 0.17 0.16 0.16 0.19 0.27 0.31 0.25 0.21 0.19 0.19 0.20 0.16 0.16 0.22 0.31 0.34
0.13 0.28 0.39 0.43 0.39 0.33 0.48 0.49 0.60 0.83 0.89 1.01 1.05 0.87 0.74 0.60 0.64 0.93 1.09 1.23 1.19 1.32 1.49 0.99 0.78 0.72 0.59 0.39 0.26 0.24 0.21 0.18 0.21 0.22 0.31 0.43 0.40 0.32 0.26 0.22 0.25 0.33 0.39
0.29 0.28 0.30 0.33 0.48 0.53 0.55 0.56 0.82 0.99 0.94 0.80 0.94 0.88 0.90 1.04 1.56 1.78 2.05 2.08 1.94 1.57 1.20 0.73 0.54 0.41 0.36 0.36 0.32 0.28 0.25 0.27 0.27 0.42 0.61 0.60 0.55 0.46 0.41 0.38 0.33 0.32 0.31
0.19 0.16 0.19 0.31 0.40 0.64 0.83 0.73 0.65 0.86 0.85 0.78 0.94 0.89 0.87 0.76 0.81 0.88 1.27 1.41 1.17 1.21 0.51 0.37 0.32 0.36 0.47 0.58 0.57 0.58 0.52 0.61 0.84 0.86 0.89 0.97 1.02 0.93 0.87 0.76 0.71 0.71 0.69
0.70 0.80 0.70 0.59 0.70 0.56 0.78 0.92 0.74 0.68 0.64 0.64 0.79 0.74 0.67 0.83 0.78 1.02 1.52 1.54 0.98 0.68 0.47 0.45 0.44 0.47 0.50 0.56 0.60 0.61 0.59 0.70 1.02 1.32 1.32 1.28 1.41 1.34 1.23 1.05 1.02 1.05 1.10
1.63 1.09 1.01 1.31 1.47 1.33 1.27 1.18 0.97 0.79 0.71 0.71 0.68 0.79 0.81 0.82 0.87 0.98 1.20 0.82 0.76 0.82 0.72 0.83 0.82 0.73 0.72 0.71 0.88 1.17 1.43 1.31 1.43 1.48 1.45 1.55 1.51 1.52 1.36 1.21 1.41 1.83 2.29
1.55 1.90 1.47 1.94 3.28 3.57 3.28 2.63 2.24 2.01 1.63 1.48 1.33 1.47 1.45 1.45 1.40 1.53 1.84 1.90 1.86 1.49 1.35 1.45 1.49 1.34 1.41 1.39 1.42 1.48 1.51 1.62 1.72 1.85 2.01 2.77 3.56 4.13 4.19 3.80 3.53 3.57 3.47
1.01 1.16 1.15 1.17 1.31 1.46 2.16 2.64 2.57 2.40 2.24 2.37 2.37 2.35 2.48 2.57 2.45 2.70 2.96 3.12 2.91 2.93 2.83 2.83 3.15 3.12 2.94 2.85 2.72 2.64 2.70 2.89 3.27 3.56 3.71 3.50 3.28 2.86 2.39 2.23 2.09 2.12 2.02
0.84 0.84 0.82 0.92 0.84 0.84 0.72 0.89 1.41 1.34 1.09 1.06 1.18 1.34 1.46 1.17 1.22 1.32 1.54 1.69 1.80 1.79 1.84 1.80 1.62 1.66 1.80 1.85 1.89 1.87 1.82 1.80 1.81 1.77 1.68 1.72 1.75 1.61 1.45 1.53 1.57 1.51 1.41
0.46 0.70 0.72 0.73 0.67 0.80 0.80 0.82 0.76 0.86 1.18 1.15 0.87 0.73 0.71 0.55 0.56 0.58 0.54 0.59 0.69 0.73 0.73 0.75 0.71 0.75 0.77 0.83 0.78 0.75 0.69 0.71 0.86 0.98 1.05 1.18 1.31 1.22 1.12 1.23 1.40 1.32 1.11
0.46 0.49 0.61 0.65 0.73 0.62 0.53 0.50 0.57 0.61 0.53 0.51 0.48 0.49 0.46 0.40 0.41 0.44 0.41 0.45 0.44 0.43 0.47 0.51 0.53 0.50 0.48 0.47 0.43 0.42 0.32 0.30 0.33 0.39 0.42 0.48 0.63 0.85 0.78 0.67 0.55 0.49 0.39
0.48 0.48 0.51 0.54 0.69 0.80 0.87 0.63 0.52 0.53 0.49 0.38 0.35 0.35 0.30 0.23 0.21 0.24 0.23 0.21 0.18 0.22 0.25 0.26 0.24 0.24 0.27 0.26 0.26 0.26 0.32 0.37 0.34 0.31 0.29 0.30 0.27 0.22 0.25 0.26 0.25 0.23 0.22
0.98 0.74 0.61 0.50 0.47 0.70 1.15 1.25 1.16 1.21 1.14 1.03 0.79 0.56 0.52 0.52 0.39 0.28 0.24 0.20 0.16 0.13 0.13 0.14 0.12 0.14 0.16 0.15 0.16 0.20 0.24 0.23 0.24 0.26 0.19 0.16 0.17 0.16 0.15 0.16 0.20 0.21 0.23

GFSGL_prec_precacc_126.txt.gz
Total_Precipitation_Accumulation
0.57 0.50 0.62 0.33 0.16 0.17 0.23 0.36 0.52 0.63 0.76 0.83 1.29 0.47 0.56 0.48 0.30 0.41 0.36 0.24 0.22 0.14 0.04 0.06 0.07 0.04 0.00 0.00 0.01 0.01 0.00 0.01 0.01 0.02 0.06 0.11 0.06 0.01 0.01 0.00 0.00 0.03 0.12
1.20 1.36 0.94 0.94 0.77 0.46 0.32 0.31 0.43 0.53 0.57 0.66 0.58 0.66 0.67 0.47 0.56 0.53 0.46 0.35 0.41 0.28 0.17 0.16 0.07 0.03 0.14 0.09 0.03 0.03 0.02 0.04 0.04 0.02 0.02 0.02 0.03 0.08 0.12 0.14 0.04 0.05 0.10
1.84 1.79 1.49 1.10 1.01 0.96 0.77 0.80 0.51 0.41 0.52 0.46 0.65 0.97 0.85 0.69 0.78 0.94 0.98 0.75 0.55 0.47 0.31 0.27 0.18 0.17 0.30 0.24 0.24 0.19 0.08 0.13 0.27 0.19 0.06 0.06 0.18 0.33 0.49 0.33 0.17 0.21 0.25
2.13 2.11 1.53 1.18 0.93 0.85 0.74 0.73 0.57 0.54 0.56 0.32 0.39 0.56 0.55 0.47 0.56 0.78 1.10 1.21 0.79 0.62 0.78 0.57 0.50 0.51 0.61 0.51 0.39 0.45 0.39 0.42 0.42 0.35 0.33 0.19 0.13 0.30 0.52 0.20 0.22 0.42 0.45
1.34 1.68 2.06 2.10 1.42 1.27 1.07 1.14 0.89 0.62 0.53 0.43 0.43 0.52 0.66 0.79 0.80 0.84 0.76 0.78 0.66 0.77 0.78 0.90 1.04 1.18 1.02 0.81 0.71 0.65 0.55 0.54 0.34 0.31 0.34 0.27 0.23 0.21 0.18 0.06 0.07 0.15 0.25
1.05 1.30 1.42 1.97 1.87 1.46 1.32 1.12 0.95 0.79 0.69 0.65 0.62 0.64 0.83 0.79 0.71 0.58 0.39 0.44 0.70 0.73 0.69 0.78 0.83 0.82 0.58 0.53 0.43 0.26 0.41 0.65 0.66 0.53 0.41 0.35 0.42 0.44 0.26 0.16 0.12 0.22 0.28
1.27 1.03 1.00 1.17 0.86 0.81 0.79 0.95 1.02 0.97 0.90 0.86 0.84 0.94 0.85 0.57 0.45 0.47 0.47 0.25 0.47 0.71 0.84 0.88 0.75 0.54 0.82 0.57 0.83 0.70 0.44 0.48 0.41 0.51 0.36 0.32 0.33 0.40 0.21 0.18 0.20 0.27 0.31
1.13 1.10 0.79 0.86 0.94 0.83 0.62 0.58 0.63 0.61 0.69 0.84 0.67 0.64 0.76 0.89 1.04 0.73 0.66 0.33 0.27 0.52 0.69 0.67 0.68 0.85 0.83 0.52 0.44 0.31 0.37 0.40 0.49 0.31 0.18 0.29 0.21 0.22 0.21 0.19 0.19 0.15 0.14
1.13 0.98 0.78 0.54 0.47 0.63 0.70 0.83 0.89 0.74 0.65 0.85 0.97 0.82 0.64 0.63 0.78 0.60 0.53 0.45 0.41 0.52 0.65 0.41 0.39 0.32 0.57 0.56 0.20 0.08 0.12 0.17 0.39 0.37 0.22 0.15 0.13 0.09 0.09 0.05 0.07 0.15 0.25
1.70 1.21 1.11 1.20 0.90 0.80 1.27 1.50 1.55 1.63 1.28 0.90 0.75 0.59 0.45 0.34 0.45 0.39 0.38 0.42 0.35 0.38 0.32 0.21 0.43 0.24 0.39 0.31 0.14 0.09 0.21 0.25 0.21 0.18 0.13 0.09 0.09 0.10 0.17 0.15 0.33 0.37 0.27
1.76 1.96 1.46 1.28 1.40 1.30 1.39 1.65 1.93 1.92 1.76 1.43 1.27 1.06 0.90 0.63 0.43 0.28 0.25 0.22 0.26 0.53 0.39 0.23 0.15 0.24 0.24 0.31 0.34 0.24 0.26 0.17 0.15 0.08 0.05 0.05 0.11 0.18 0.19 0.21 0.51 0.56 0.36
1.74 1.73 2.19 1.82 1.70 1.67 1.69 1.73 1.76 1.82 1.72 1.40 1.42 1.37 1.22 1.00 0.80 0.51 0.37 0.23 0.28 0.28 0.15 0.18 0.24 0.31 0.38 0.48 0.37 0.25 0.17 0.12 0.11 0.13 0.12 0.08 0.11 0.14 0.12 0.18 0.29 0.35 0.35
0.88 1.05 1.48 2.38 1.57 1.24 1.15 1.02 0.93 0.90 0.78 0.72 0.85 0.88 0.94 0.97 0.92 0.70 0.63 0.63 0.52 0.47 0.33 0.34 0.32 0.22 0.17 0.16 0.13 0.12 0.16 0.20 0.26 0.27 0.25 0.14 0.12 0.17 0.18 0.16 0.24 0.32 0.31
0.60 0.61 0.63 0.91 0.64 0.50 0.56 0.46 0.51 0.70 0.83 0.87 0.98 1.14 1.17 1.03 0.88 0.75 0.74 0.62 0.54 0.42 0.34 0.31 0.25 0.21 0.21 0.17 0.16 0.16 0.20 0.27 0.31 0.26 0.22 0.19 0.19 0.20 0.16 0.16 0.22 0.31 0.34
0.24 0.35 0.43 0.49 0.47 0.35 0.49 0.49 0.60 0.83 0.91 1.08 1.29 1.03 0.87 0.69 0.68 0.95 1.10 1.23 1.20 1.32 1.49 0.99 0.78 0.72 0.59 0.39 0.26 0.24 0.21 0.18 0.21 0.22 0.31 0.43 0.40 0.32 0.26 0.22 0.25 0.33 0.39
0.29 0.28 0.30 0.33 0.48 0.53 0.55 0.56 0.82 1.00 0.95 0.81 0.96 0.91 0.93 1.06 1.56 1.78 2.05 2.08 1.94 1.57 1.20 0.73 0.54 0.41 0.36 0.36 0.32 0.28 0.25 0.27 0.27 0.42 0.61 0.60 0.55 0.46 0.41 0.38 0.33 0.32 0.31
0.19 0.16 0.19 0.31 0.40 0.64 0.83 0.73 0.65 0.86 0.85 0.78 0.94 0.89 0.87 0.76 0.81 0.88 1.27 1.41 1.17 1.21 0.51 0.37 0.32 0.36 0.47 0.58 0.57 0.58 0.52 0.61 0.84 0.86 0.89 0.97 1.02 0.93 0.87 0.76 0.71 0.71 0.69
0.70 0.80 0.70 0.59 0.70 0.56 0.78 0.92 0.74 0.68 0.64 0.64 0.79 0.74 0.67 0.83 0.78 1.02 1.52 1.54 0.98 0.68 0.47 0.45 0.44 0.47 0.50 0.56 0.60 0.61 0.59 0.70 1.02 1.32 1.32 1.28 1.41 1.34 1.23 1.05 1.02 1.05 1.10
1.63 1.09 1.01 1.31 1.47 1.33 1.27 1.18 0.97 0.79 0.71 0.71 0.68 0.79 0.81 0.82 0.87 0.98 1.20 0.82 0.76 0.82 0.72 0.83 0.82 0.73 0.72 0.71 0.88 1.17 1.43 1.31 1.43 1.48 1.45 1.55 1.51 1.52 1.36 1.21 1.41 1.83 2.29
1.55 1.90 1.47 1.94 3.28 3.57 3.28 2.63 2.24 2.01 1.63 1.48 1.33 1.47 1.45 1.45 1.40 1.53 1.84 1.90 1.86 1.49 1.35 1.45 1.49 1.34 1.41 1.39 1.42 1.48 1.51 1.62 1.72 1.85 2.01 2.77 3.56 4.13 4.19 3.80 3.53 3.57 3.47
1.01 1.16 1.15 1.17 1.31 1.46 2.16 2.64 2.57 2.40 2.24 2.37 2.37 2.35 2.48 2.57 2.45 2.70 2.96 3.12 2.91 2.93 2.83 2.83 3.15 3.12 2.94 2.85 2.72 2.64 2.70 2.89 3.27 3.56 3.71 3.50 3.28 2.86 2.39 2.23 2.09 2.12 2.02
0.84 0.84 0.82 0.92 0.84 0.84 0.72 0.89 1.41 1.34 1.09 1.06 1.18 1.34 1.46 1.17 1.22 1.32 1.54 1.69 1.80 1.79 1.84 1.80 1.62 1.66 1.80 1.85 1.89 1.87 1.82 1.81 1.81 1.77 1.68 1.72 1.75 1.61 1.45 1.53 1.57 1.51 1.41
0.46 0.70 0.72 0.73 0.67 0.80 0.80 0.82 0.76 0.86 1.18 1.15 0.87 0.73 0.71 0.55 0.56 0.58 0.54 0.59 0.69 0.73 0.73 0.75 0.71 0.75 0.77 0.84 0.79 0.77 0.71 0.73 0.88 0.98 1.05 1.18 1.31 1.22 1.12 1.23 1.40 1.32 1.11
0.46 0.49 0.61 0.65 0.73 0.62 0.53 0.50 0.57 0.61 0.53 0.51 0.48 0.49 0.46 0.40 0.41 0.44 0.41 0.45 0.44 0.43 0.47 0.51 0.53 0.50 0.48 0.47 0.46 0.46 0.35 0.32 0.34 0.39 0.42 0.48 0.63 0.85 0.78 0.67 0.55 0.49 0.39
0.48 0.48 0.51 0.54 0.69 0.80 0.87 0.63 0.52 0.53 0.49 0.38 0.35 0.35 0.30 0.23 0.21 0.24 0.23 0.21 0.18 0.22 0.25 0.26 0.24 0.24 0.28 0.32 0.33 0.30 0.33 0.37 0.34 0.31 0.29 0.30 0.27 0.22 0.25 0.26 0.25 0.23 0.22
0.98 0.74 0.61 0.50 0.47 0.70 1.15 1.25 1.16 1.21 1.14 1.03 0.79 0.56 0.52 0.52 0.39 0.28 0.24 0.20 0.16 0.13 0.13 0.14 0.12 0.14 0.18 0.19 0.21 0.27 0.28 0.24 0.24 0.26 0.19 0.16 0.17 0.16 0.15 0.16 0.20 0.21 0.23

GFSGL_prec_precacc_129.txt.gz
Total_Precipitation_Accumulation
0.57 0.50 0.62 0.33 0.16 0.17 0.23 0.36 0.53 0.64 0.76 0.83 1.30 0.52 0.61 0.51 0.32 0.41 0.36 0.25 0.23 0.15 0.04 0.07 0.07 0.04 0.00 0.01 0.01 0.01 0.01 0.03 0.04 0.05 0.07 0.11 0.07 0.03 0.05 0.04 0.02 0.04 0.14
1.20 1.36 0.94 0.94 0.77 0.46 0.32 0.31 0.43 0.53 0.58 0.70 0.63 0.73 0.78 0.52 0.59 0.54 0.54 0.46 0.47 0.31 0.20 0.18 0.13 0.04 0.15 0.09 0.03 0.03 0.03 0.04 0.04 0.03 0.03 0.02 0.03 0.08 0.12 0.15 0.05 0.09 0.14
1.84 1.79 1.49 1.10 1.01 0.96 0.77 0.80 0.52 0.41 0.52 0.46 0.66 0.97 0.86 0.73 0.81 0.97 1.02 0.79 0.62 0.52 0.34 0.28 0.18 0.17 0.30 0.25 0.24 0.19 0.08 0.13 0.27 0.19 0.07 0.06 0.19 0.35 0.52 0.39 0.18 0.25 0.32
2.13 2.11 1.53 1.18 0.93 0.85 0.74 0.74 0.58 0.54 0.56 0.33 0.39 0.56 0.55 0.47 0.58 0.79 1.12 1.24 0.82 0.65 0.86 0.60 0.52 0.59 0.65 0.52 0.40 0.45 0.40 0.45 0.48 0.37 0.33 0.20 0.17 0.32 0.54 0.21 0.24 0.43 0.47
1.35 1.68 2.06 2.10 1.42 1.29 1.09 1.15 0.90 0.62 0.53 0.43 0.43 0.53 0.66 0.79 0.81 0.84 0.77 0.78 0.68 0.77 0.79 0.90 1.05 1.20 1.06 0.83 0.71 0.65 0.56 0.55 0.36 0.31 0.35 0.28 0.25 0.28 0.26 0.12 0.12 0.21 0.33
1.16 1.32 1.42 1.98 1.87 1.46 1.33 1.13 0.95 0.79 0.70 0.66 0.62 0.65 0.83 0.79 0.72 0.58 0.39 0.45 0.70 0.73 0.69 0.78 0.84 0.83 0.62 0.57 0.44 0.26 0.41 0.66 0.68 0.55 0.43 0.36 0.45 0.45 0.29 0.20 0.16 0.29 0.38
1.66 1.15 1.06 1.22 0.90 0.82 0.81 0.98 1.06 1.02 0.95 0.93 0.89 1.01 0.88 0.58 0.49 0.48 0.47 0.25 0.47 0.71 0.88 0.98 0.88 0.66 0.94 0.66 0.84 0.70 0.45 0.49 0.41 0.51 0.36 0.34 0.35 0.40 0.21 0.18 0.23 0.32 0.41
2.38 1.88 1.02 1.00 1.08 0.96 0.74 0.69 0.72 0.73 0.87 1.00 0.78 0.71 0.82 0.92 1.06 0.74 0.67 0.33 0.27 0.53 0.72 0.68 0.70 0.88 0.88 0.57 0.53 0.36 0.37 0.40 0.49 0.31 0.18 0.29 0.21 0.22 0.21 0.19 0.19 0.15 0.17
1.69 1.89 1.53 0.90 0.76 0.84 0.90 1.04 1.05 0.90 0.85 0.97 1.03 0.89 0.67 0.64 0.78 0.60 0.53 0.45 0.41 0.52 0.65 0.41 0.39 0.32 0.57 0.56 0.20 0.08 0.13 0.17 0.39 0.37 0.22 0.15 0.13 0.09 0.09 0.05 0.07 0.15 0.25
1.97 1.47 1.44 1.43 1.20 1.04 1.43 1.61 1.63 1.71 1.30 0.92 0.76 0.59 0.45 0.34 0.46 0.43 0.41 0.42 0.36 0.39 0.33 0.22 0.46 0.25 0.40 0.31 0.14 0.10 0.23 0.31 0.28 0.20 0.14 0.09 0.09 0.10 0.17 0.15 0.33 0.37 0.27
2.01 2.14 1.58 1.35 1.59 1.60 1.67 1.78 1.96 1.94 1.77 1.45 1.30 1.07 0.90 0.67 0.60 0.50 0.37 0.27 0.29 0.56 0.42 0.26 0.16 0.26 0.24 0.31 0.34 0.24 0.27 0.19 0.17 0.10 0.06 0.05 0.11 0.18 0.20 0.21 0.51 0.56 0.36
2.18 2.06 2.45 2.02 1.87 1.87 1.88 1.87 1.84 1.84 1.73 1.47 1.54 1.45 1.28 1.06 0.94 0.70 0.58 0.28 0.30 0.30 0.16 0.18 0.25 0.31 0.38 0.48 0.37 0.26 0.17 0.12 0.11 0.13 0.12 0.08 0.11 0.15 0.13 0.18 0.29 0.35 0.35
1.04 1.23 1.80 2.80 1.84 1.33 1.22 1.11 0.99 0.94 0.80 0.75 0.91 0.98 1.05 1.05 1.03 0.81 0.69 0.65 0.53 0.48 0.33 0.34 0.32 0.22 0.17 0.16 0.13 0.12 0.16 0.20 0.26 0.27 0.25 0.14 0.12 0.17 0.18 0.16 0.24 0.32 0.31
1.13 1.22 1.35 1.32 0.84 0.57 0.60 0.47 0.52 0.70 0.83 0.87 0.98 1.14 1.18 1.04 0.90 0.77 0.77 0.64 0.55 0.42 0.34 0.31 0.25 0.21 0.21 0.17 0.16 0.16 0.20 0.27 0.31 0.26 0.22 0.19 0.19 0.20 0.16 0.16 0.22 0.31 0.34
0.44 0.52 0.55 0.57 0.56 0.38 0.51 0.49 0.60 0.83 0.91 1.08 1.29 1.03 0.87 0.69 0.68 0.95 1.10 1.23 1.20 1.32 1.49 0.99 0.78 0.72 0.59 0.39 0.26 0.24 0.21 0.18 0.21 0.22 0.31 0.43 0.40 0.32 0.26 0.22 0.25 0.33 0.39
0.36 0.30 0.32 0.37 0.50 0.55 0.56 0.56 0.82 1.00 0.95 0.81 0.96 0.91 0.93 1.06 1.56 1.78 2.05 2.08 1.94 1.57 1.20 0.73 0.54 0.41 0.36 0.36 0.32 0.28 0.25 0.27 0.27 0.42 0.61 0.60 0.55 0.46 0.41 0.38 0.33 0.32 0.31
0.19 0.16 0.19 0.31 0.40 0.64 0.83 0.73 0.65 0.86 0.85 0.78 0.94 0.89 0.87 0.76 0.81 0.88 1.27 1.41 1.17 1.21 0.51 0.37 0.32 0.36 0.47 0.58 0.57 0.58 0.52 0.61 0.84 0.86 0.89 0.97 1.02 0.93 0.87 0.76 0.71 0.71 0.69
0.70 0.80 0.70 0.59 0.70 0.56 0.78 0.92 0.74 0.68 0.64 0.64 0.79 0.74 0.67 0.83 0.78 1.02 1.52 1.54 0.98 0.68 0.47 0.45 0.44 0.47 0.50 0.56 0.60 0.61 0.59 0.70 1.02 1.32 1.32 1.28 1.41 1.34 1.23 1.05 1.02 1.05 1.10
1.63 1.09 1.01 1.31 1.47 1.33 1.27 1.18 0.97 0.79 0.71 0.71 0.68 0.79 0.81 0.82 0.87 0.98 1.20 0.82 0.76 0.82 0.72 0.83 0.82 0.73 0.72 0.71 0.88 1.17 1.43 1.31 1.43 1.48 1.45 1.55 1.51 1.52 1.36 1.21 1.41 1.83 2.29
1.55 1.90 1.47 1.94 3.28 3.57 3.28 2.63 2.24 2.01 1.63 1.48 1.33 1.47 1.45 1.45 1.40 1.53 1.84 1.90 1.86 1.49 1.35 1.45 1.49 1.34 1.41 1.39 1.42 1.48 1.51 1.62 1.72 1.85 2.01 2.77 3.56 4.13 4.19 3.80 3.53 3.57 3.47
1.01 1.16 1.15 1.17 1.31 1.46 2.16 2.64 2.57 2.40 2.24 2.37 2.37 2.35 2.48 2.57 2.45 2.70 2.96 3.12 2.91 2.93 2.83 2.83 3.15 3.12 2.94 2.85 2.72 2.64 2.70 2.89 3.27 3.56 3.71 3.50 3.28 2.86 2.39 2.23 2.09 2.12 2.02
0.84 0.84 0.82 0.92 0.84 0.84 0.72 0.89 1.41 1.34 1.09 1.06 1.18 1.34 1.46 1.17 1.22 1.32 1.54 1.69 1.80 1.79 1.84 1.80 1.62 1.66 1.80 1.85 1.89 1.87 1.83 1.82 1.84 1.80 1.72 1.74 1.75 1.61 1.45 1.53 1.57 1.51 1.41
0.46 0.70 0.72 0.73 0.67 0.80 0.80 0.82 0.76 0.86 1.18 1.15 0.87 0.73 0.71 0.55 0.56 0.58 0.54 0.59 0.69 0.73 0.73 0.75 0.71 0.75 0.77 0.84 0.79 0.77 0.71 0.73 0.91 1.03 1.08 1.19 1.31 1.22 1.12 1.23 1.40 1.32 1.11
0.46 0.49 0.61 0.65 0.73 0.62 0.53 0.50 0.57 0.61 0.53 0.51 0.48 0.49 0.46 0.40 0.41 0.44 0.41 0.45 0.44 0.43 0.47 0.51 0.53 0.50 0.48 0.47 0.46 0.46 0.35 0.32 0.37 0.42 0.44 0.49 0.63 0.85 0.78 0.67 0.55 0.49 0.39
0.48 0.48 0.51 0.54 0.69 0.80 0.87 0.63 0.52 0.53 0.49 0.38 0.35 0.35 0.30 0.23 0.21 0.24 0.23 0.21 0.18 0.22 0.25 0.26 0.24 0.24 0.28 0.32 0.33 0.30 0.33 0.37 0.35 0.31 0.29 0.30 0.27 0.22 0.25 0.26 0.25 0.23 0.22
0.98 0.74 0.61 0.50 0.47 0.70 1.15 1.25 1.16 1.21 1.14 1.03 0.79 0.56 0.52 0.52 0.39 0.28 0.24 0.20 0.16 0.13 0.13 0.14 0.12 0.14 0.18 0.19 0.21 0.27 0.28 0.24 0.24 0.26 0.19 0.16 0.18 0.17 0.16 0.16 0.20 0.21 0.23

GFSGL_prec_precacc_132.txt.gz
Total_Precipitation_Accumulation
0.57 0.50 0.62 0.33 0.16 0.17 0.23 0.36 0.53 0.64 0.76 0.83 1.30 0.53 0.64 0.53 0.34 0.42 0.37 0.25 0.23 0.15 0.07 0.08 0.07 0.04 0.00 0.01 0.07 0.02 0.02 0.04 0.06 0.07 0.10 0.13 0.07 0.03 0.05 0.04 0.02 0.06 0.19
1.20 1.36 0.94 0.94 0.77 0.46 0.32 0.31 0.43 0.54 0.58 0.70 0.64 0.78 0.81 0.56 0.63 0.54 0.54 0.47 0.47 0.31 0.20 0.21 0.16 0.05 0.15 0.09 0.13 0.08 0.03 0.05 0.07 0.09 0.07 0.03 0.03 0.09 0.13 0.15 0.05 0.09 0.17
1.84 1.79 1.49 1.10 1.01 0.96 0.77 0.80 0.52 0.42 0.52 0.46 0.66 0.97 0.86 0.73 0.82 0.97 1.02 0.81 0.63 0.52 0.34 0.29 0.18 0.17 0.30 0.27 0.29 0.28 0.09 0.16 0.31 0.21 0.07 0.06 0.19 0.35 0.56 0.39 0.18 0.25 0.32
2.27 2.14 1.53 1.18 0.93 0.85 0.74 0.75 0.59 0.54 0.56 0.35 0.41 0.56 0.55 0.47 0.58 0.80 1.12 1.27 0.84 0.65 0.86 0.60 0.53 0.59 0.65 0.53 0.41 0.47 0.41 0.45 0.49 0.38 0.33 0.20 0.17 0.32 0.56 0.21 0.24 0.43 0.47
1.62 1.88 2.18 2.15 1.43 1.29 1.10 1.18 0.95 0.67 0.59 0.47 0.45 0.55 0.67 0.79 0.81 0.84 0.77 0.78 0.68 0.77 0.79 0.90 1.05 1.20 1.06 0.83 0.71 0.65 0.58 0.55 0.36 0.31 0.35 0.28 0.25 0.28 0.26 0.12 0.12 0.21 0.33
2.09 1.65 1.59 2.08 1.94 1.48 1.34 1.14 0.99 0.87 0.82 0.74 0.64 0.67 0.84 0.80 0.72 0.58 0.39 0.45 0.70 0.74 0.69 0.79 0.87 0.83 0.67 0.60 0.44 0.26 0.41 0.66 0.68 0.55 0.43 0.36 0.45 0.45 0.29 0.20 0.16 0.29 0.38
2.85 1.92 1.36 1.36 0.99 0.90 0.87 1.03 1.07 1.08 1.03 1.00 0.98 1.06 0.90 0.63 0.60 0.56 0.52 0.26 0.47 0.71 0.88 0.99 0.89 0.67 0.95 0.66 0.84 0.70 0.45 0.50 0.42 0.52 0.36 0.34 0.35 0.40 0.21 0.18 0.23 0.32 0.41
2.69 2.32 1.30 1.21 1.24 1.10 0.86 0.78 0.80 0.82 0.96 1.07 0.82 0.73 0.85 0.95 1.12 0.77 0.69 0.34 0.27 0.53 0.72 0.68 0.70 0.88 0.88 0.57 0.53 0.36 0.37 0.40 0.49 0.31 0.18 0.29 0.21 0.22 0.21 0.19 0.19 0.15 0.18
2.05 3.00 2.53 1.19 0.97 1.05 1.03 1.13 1.15 1.00 0.94 1.01 1.10 0.98 0.77 0.71 0.83 0.62 0.55 0.46 0.42 0.52 0.65 0.41 0.39 0.32 0.57 0.56 0.20 0.08 0.13 0.17 0.39 0.38 0.22 0.15 0.13 0.09 0.09 0.05 0.07 0.15 0.25
2.36 1.92 2.78 2.83 1.71 1.29 1.61 1.77 1.76 1.84 1.46 1.04 0.86 0.64 0.48 0.37 0.48 0.43 0.43 0.43 0.38 0.42 0.36 0.24 0.49 0.27 0.42 0.32 0.14 0.10 0.23 0.32 0.30 0.23 0.14 0.09 0.09 0.10 0.17 0.15 0.33 0.37 0.27
2.25 2.42 2.02 2.09 2.30 1.93 2.24 2.27 2.19 2.07 1.86 1.53 1.36 1.13 0.94 0.68 0.62 0.56 0.42 0.29 0.31 0.59 0.44 0.26 0.16 0.26 0.24 0.31 0.34 0.24 0.27 0.20 0.19 0.12 0.08 0.06 0.11 0.18 0.21 0.21 0.51 0.56 0.36
3.00 2.71 3.20 2.78 2.35 2.11 2.06 2.43 2.32 2.11 1.92 1.58 1.56 1.47 1.31 1.09 1.00 0.77 0.64 0.31 0.31 0.32 0.17 0.19 0.25 0.31 0.38 0.48 0.37 0.26 0.17 0.13 0.11 0.13 0.13 0.09 0.13 0.16 0.14 0.18 0.29 0.35 0.35
1.41 1.83 2.65 3.64 2.64 1.96 1.56 1.31 1.11 1.05 0.92 0.86 0.95 0.99 1.07 1.07 1.06 0.82 0.70 0.66 0.53 0.48 0.33 0.34 0.32 0.22 0.17 0.16 0.13 0.12 0.16 0.20 0.26 0.27 0.25 0.15 0.13 0.18 0.19 0.17 0.25 0.32 0.31
1.58 1.53 1.59 1.56 1.06 0.76 0.72 0.56 0.60 0.73 0.85 0.88 0.99 1.15 1.18 1.04 0.90 0.77 0.78 0.64 0.55 0.42 0.34 0.31 0.25 0.21 0.21 0.17 0.16 0.16 0.20 0.27 0.31 0.26 0.22 0.19 0.19 0.20 0.16 0.16 0.22 0.31 0.34
0.63 0.60 0.60 0.62 0.65 0.53 0.59 0.52 0.62 0.84 0.92 1.08 1.29 1.03 0.87 0.69 0.68 0.95 1.10 1.23 1.20 1.32 1.49 0.99 0.78 0.72 0.59 0.39 0.26 0.24 0.21 0.18 0.21 0.22 0.31 0.43 0.40 0.32 0.26 0.22 0.25 0.33 0.39
0.42 0.35 0.39 0.45 0.56 0.60 0.57 0.57 0.83 1.00 0.95 0.81 0.96 0.91 0.93 1.06 1.56 1.78 2.05 2.08 1.94 1.57 1.20 0.73 0.54 0.41 0.36 0.36 0.32 0.28 0.25 0.27 0.27 0.42 0.61 0.60 0.55 0.46 0.41 0.38 0.33 0.32 0.31
0.19 0.16 0.20 0.32 0.41 0.64 0.83 0.73 0.65 0.86 0.85 0.78 0.94 0.89 0.87 0.76 0.81 0.88 1.27 1.41 1.17 1.21 0.51 0.37 0.32 0.36 0.47 0.58 0.57 0.58 0.52 0.61 0.84 0.86 0.89 0.97 1.02 0.93 0.87 0.76 0.71 0.71 0.69
0.70 0.80 0.70 0.59 0.70 0.56 0.78 0.92 0.74 0.68 0.64 0.64 0.79 0.74 0.67 0.83 0.78 1.02 1.52 1.54 0.98 0.68 0.47 0.45 0.44 0.47 0.50 0.56 0.60 0.61 0.59 0.70 1.02 1.32 1.32 1.28 1.41 1.34 1.23 1.05 1.02 1.05 1.10
1.63 1.09 1.01 1.31 1.47 1.33 1.27 1.18 0.97 0.79 0.71 0.71 0.68 0.79 0.81 0.82 0.87 0.98 1.20 0.82 0.76 0.82 0.72 0.83 0.82 0.73 0.72 0.71 0.88 1.17 1.43 1.31 1.43 1.48 1.45 1.55 1.51 1.52 1.36 1.21 1.41 1.83 2.29
1.55 1.90 1.47 1.94 3.28 3.57 3.28 2.63 2.24 2.01 1.63 1.48 1.33 1.47 1.45 1.45 1.40 1.53 1.84 1.90 1.86 1.49 1.35 1.45 1.49 1.34 1.41 1.39 1.42 1.48 1.51 1.62 1.72 1.85 2.01 2.77 3.56 4.13 4.19 3.80 3.53 3.57 3.47
1.01 1.16 1.15 1.17 1.31 1.46 2.16 2.64 2.57 2.40 2.24 2.37 2.37 2.35 2.48 2.57 2.45 2.70 2.96 3.12 2.91 2.93 2.83 2.83 3.15 3.12 2.94 2.85 2.72 2.64 2.70 2.89 3.27 3.56 3.71 3.50 3.28 2.86 2.39 2.23 2.09 2.12 2.02
0.84 0.84 0.82 0.92 0.84 0.84 0.72 0.89 1.41 1.34 1.09 1.06 1.18 1.34 1.46 1.17 1.22 1.32 1.54 1.69 1.80 1.79 1.84 1.80 1.62 1.66 1.80 1.85 1.89 1.87 1.83 1.82 1.84 1.80 1.72 1.74 1.76 1.61 1.45 1.53 1.57 1.51 1.41
0.46 0.70 0.72 0.73 0.67 0.80 0.80 0.82 0.76 0.86 1.18 1.15 0.87 0.73 0.71 0.55 0.56 0.58 0.54 0.59 0.69 0.73 0.73 0.75 0.71 0.75 0.77 0.84 0.79 0.77 0.71 0.73 0.91 1.03 1.08 1.19 1.31 1.22 1.12 1.23 1.40 1.32 1.11
0.46 0.49 0.61 0.65 0.73 0.62 0.53 0.50 0.57 0.61 0.53 0.51 0.48 0.49 0.46 0.40 0.41 0.44 0.41 0.45 0.44 0.43 0.47 0.51 0.53 0.50 0.48 0.47 0.46 0.46 0.35 0.32 0.37 0.42 0.44 0.49 0.63 0.85 0.78 0.67 0.55 0.49 0.39
0.48 0.48 0.51 0.54 0.69 0.80 0.87 0.63 0.52 0.53 0.49 0.38 0.35 0.35 0.30 0.23 0.21 0.24 0.23 0.21 0.18 0.22 0.25 0.26 0.24 0.24 0.28 0.32 0.33 0.30 0.33 0.37 0.35 0.31 0.29 0.30 0.27 0.22 0.25 0.26 0.25 0.23 0.22
0.98 0.74 0.61 0.50 0.47 0.70 1.15 1.25 1.16 1.21 1.14 1.03 0.79 0.56 0.52 0.52 0.39 0.28 0.24 0.20 0.16 0.13 0.13 0.14 0.12 0.14 0.18 0.19 0.21 0.27 0.28 0.24 0.24 0.26 0.19 0.16 0.18 0.17 0.16 0.17 0.20 0.22 0.23

GFSGL_prec_precacc_135.txt.gz
Total_Precipitation_Accumulation
0.57 0.50 0.62 0.33 0.16 0.17 0.23 0.36 0.53 0.64 0.76 0.84 1.31 0.54 0.66 0.57 0.36 0.42 0.37 0.26 0.23 0.15 0.07 0.08 0.07 0.04 0.00 0.02 0.10 0.09 0.11 0.11 0.07 0.07 0.13 0.13 0.07 0.03 0.05 0.04 0.02 0.06 0.22
1.22 1.36 0.94 0.94 0.77 0.46 0.32 0.31 0.43 0.55 0.59 0.70 0.66 0.81 0.89 0.61 0.69 0.56 0.54 0.48 0.47 0.31 0.20 0.21 0.16 0.05 0.15 0.09 0.16 0.15 0.08 0.07 0.09 0.13 0.09 0.03 0.03 0.09 0.13 0.15 0.05 0.09 0.17
1.87 1.80 1.49 1.10 1.01 0.96 0.77 0.80 0.52 0.43 0.53 0.47 0.67 0.97 0.89 0.78 0.84 0.98 1.03 0.83 0.64 0.52 0.34 0.29 0.18 0.17 0.30 0.27 0.30 0.30 0.11 0.17 0.33 0.24 0.08 0.06 0.19 0.35 0.57 0.39 0.18 0.25 0.32
2.38 2.21 1.56 1.19 0.93 0.85 0.74 0.75 0.59 0.54 0.56 0.36 0.43 0.58 0.56 0.55 0.59 0.82 1.13 1.35 0.88 0.67 0.88 0.62 0.53 0.59 0.65 0.53 0.42 0.56 0.48 0.48 0.52 0.39 0.33 0.20 0.17 0.32 0.56 0.21 0.24 0.43 0.47
1.84 2.07 2.33 2.26 1.46 1.29 1.10 1.18 0.95 0.67 0.59 0.50 0.51 0.57 0.73 0.81 0.81 0.84 0.77 0.82 0.74 0.79 0.79 0.90 1.05 1.20 1.06 0.83 0.72 0.66 0.58 0.55 0.36 0.31 0.35 0.28 0.25 0.28 0.26 0.12 0.12 0.21 0.33
2.20 1.83 1.78 2.24 2.02 1.52 1.37 1.15 0.99 0.87 0.82 0.78 0.69 0.73 0.90 0.81 0.75 0.58 0.40 0.49 0.76 0.77 0.69 0.79 0.87 0.83 0.71 0.63 0.46 0.26 0.41 0.66 0.70 0.56 0.44 0.36 0.45 0.45 0.29 0.20 0.16 0.29 0.39
2.97 2.19 1.53 1.53 1.13 0.97 0.94 1.13 1.12 1.12 1.10 1.07 1.06 1.11 0.92 0.64 0.62 0.59 0.54 0.28 0.49 0.72 0.88 0.99 0.89 0.67 0.95 0.66 0.84 0.70 0.45 0.50 0.42 0.52 0.37 0.34 0.35 0.40 0.21 0.18 0.23 0.32 0.41
2.73 2.54 1.72 1.45 1.36 1.19 0.93 0.83 0.87 0.92 1.07 1.19 0.93 0.80 0.89 0.97 1.20 0.84 0.72 0.36 0.29 0.55 0.72 0.69 0.70 0.88 0.88 0.57 0.53 0.36 0.37 0.40 0.49 0.31 0.18 0.29 0.21 0.22 0.21 0.19 0.19 0.15 0.18
2.06 3.02 2.60 1.26 1.00 1.08 1.08 1.17 1.19 1.06 1.03 1.11 1.17 1.04 0.83 0.75 0.93 0.73 0.66 0.54 0.46 0.54 0.65 0.41 0.40 0.32 0.57 0.56 0.20 0.08 0.13 0.17 0.39 0.38 0.23 0.15 0.13 0.10 0.09 0.05 0.07 0.15 0.25
2.37 1.93 2.80 2.85 1.76 1.34 1.69 1.85 1.83 1.93 1.54 1.09 0.92 0.72 0.59 0.46 0.60 0.55 0.53 0.49 0.40 0.43 0.36 0.24 0.52 0.27 0.43 0.33 0.14 0.10 0.24 0.32 0.31 0.26 0.20 0.10 0.10 0.11 0.17 0.15 0.33 0.37 0.27
2.27 2.45 2.03 2.11 2.53 2.30 2.36 2.41 2.35 2.22 1.98 1.58 1.38 1.16 0.99 0.75 0.66 0.58 0.44 0.30 0.32 0.60 0.46 0.28 0.17 0.27 0.24 0.31 0.34 0.24 0.27 0.20 0.21 0.12 0.08 0.08 0.13 0.19 0.22 0.22 0.51 0.56 0.36
3.45 3.01 3.35 2.82 2.47 2.51 2.48 2.83 2.95 2.45 2.08 1.73 1.70 1.56 1.38 1.19 1.12 0.87 0.72 0.40 0.44 0.56 0.32 0.23 0.26 0.31 0.38 0.48 0.37 0.26 0.17 0.13 0.11 0.13 0.13 0.10 0.15 0.18 0.15 0.18 0.29 0.35 0.35
1.74 2.48 3.60 4.27 3.10 2.19 1.94 1.71 1.73 1.79 1.32 1.26 1.43 1.51 1.60 1.46 1.29 0.99 0.82 0.76 0.63 0.65 0.38 0.35 0.32 0.22 0.17 0.16 0.13 0.12 0.16 0.20 0.26 0.27 0.25 0.15 0.13 0.19 0.20 0.17 0.25 0.32 0.31
1.69 1.65 1.88 2.18 1.77 1.41 1.16 0.97 0.95 1.15 1.23 1.29 1.48 1.56 1.55 1.38 1.15 0.91 0.81 0.66 0.56 0.42 0.34 0.31 0.25 0.21 0.21 0.17 0.16 0.16 0.20 0.27 0.31 0.26 0.22 0.19 0.19 0.20 0.16 0.16 0.22 0.31 0.34
0.66 0.68 0.72 0.80 0.90 0.79 0.83 0.75 0.80 1.04 1.11 1.27 1.44 1.12 0.93 0.72 0.70 0.96 1.11 1.23 1.20 1.32 1.49 0.99 0.78 0.72 0.59 0.39 0.26 0.24 0.21 0.18 0.21 0.22 0.31 0.43 0.40 0.32 0.26 0.22 0.25 0.33 0.39
0.43 0.36 0.45 0.55 0.64 0.66 0.64 0.64 0.91 1.07 0.98 0.84 1.00 0.92 0.93 1.06 1.56 1.78 2.05 2.08 1.94 1.57 1.20 0.73 0.54 0.41 0.36 0.36 0.32 0.28 0.25 0.27 0.27 0.42 0.61 0.60 0.55 0.46 0.41 0.38 0.33 0.32 0.31
0.21 0.17 0.24 0.38 0.42 0.65 0.85 0.75 0.68 0.88 0.86 0.79 0.94 0.89 0.87 0.76 0.81 0.88 1.27 1.41 1.17 1.21 0.51 0.37 0.32 0.36 0.47 0.58 0.57 0.58 0.52 0.61 0.84 0.86 0.89 0.97 1.02 0.93 0.87 0.76 0.71 0.71 0.69
0.77 0.86 0.72 0.60 0.70 0.56 0.78 0.92 0.74 0.68 0.64 0.64 0.79 0.74 0.67 0.83 0.78 1.02 1.52 1.54 0.98 0.68 0.47 0.45 0.44 0.47 0.50 0.56 0.60 0.61 0.59 0.70 1.02 1.32 1.32 1.28 1.41 1.34 1.23 1.05 1.02 1.05 1.10
1.63 1.09 1.01 1.31 1.47 1.33 1.27 1.18 0.97 0.79 0.71 0.71 0.68 0.79 0.81 0.82 0.87 0.98 1.20 0.82 0.76 0.82 0.72 0.83 0.82 0.73 0.72 0.71 0.88 1.17 1.43 1.31 1.43 1.48 1.45 1.55 1.51 1.52 1.36 1.21 1.41 1.83 2.29
1.55 1.90 1.47 1.94 3.28 3.57 3.28 2.63 2.24 2.01 1.63 1.48 1.33 1.47 1.45 1.45 1.40 1.53 1.84 1.90 1.86 1.49 1.35 1.45 1.49 1.34 1.41 1.39 1.42 1.48 1.51 1.62 1.72 1.85 2.01 2.77 3.56 4.13 4.19 3.80 3.53 3.57 3.47
1.01 1.16 1.15 1.17 1.31 1.46 2.16 2.64 2.57 2.40 2.24 2.37 2.37 2.35 2.48 2.57 2.45 2.70 2.96 3.12 2.91 2.93 2.83 2.83 3.15 3.12 2.94 2.85 2.72 2.64 2.70 2.89 3.27 3.56 3.71 3.50 3.28 2.86 2.39 2.23 2.09 2.12 2.02
0.84 0.84 0.82 0.92 0.84 0.84 0.72 0.89 1.41 1.34 1.09 1.06 1.18 1.34 1.46 1.17 1.22 1.32 1.54 1.69 1.80 1.79 1.84 1.80 1.62 1.66 1.80 1.85 1.89 1.87 1.83 1.82 1.84 1.80 1.72 1.74 1.76 1.61 1.45 1.53 1.57 1.51 1.41
0.46 0.70 0.72 0.73 0.67 0.80 0.80 0.82 0.76 0.86 1.18 1.15 0.87 0.73 0.71 0.55 0.56 0.58 0.54 0.59 0.69 0.73 0.73 0.75 0.71 0.75 0.77 0.84 0.79 0.77 0.71 0.73 0.91 1.03 1.08 1.19 1.31 1.22 1.12 1.23 1.40 1.32 1.11
0.46 0.49 0.61 0.65 0.73 0.62 0.53 0.50 0.57 0.61 0.53 0.51 0.48 0.49 0.46 0.40 0.41 0.44 0.41 0.45 0.44 0.43 0.47 0.51 0.53 0.50 0.48 0.47 0.46 0.46 0.35 0.32 0.37 0.42 0.44 0.49 0.63 0.85 0.78 0.67 0.55 0.49 0.39
0.48 0.48 0.51 0.54 0.69 0.80 0.87 0.63 0.52 0.53 0.49 0.38 0.35 0.35 0.30 0.23 0.21 0.24 0.23 0.21 0.18 0.22 0.25 0.26 0.24 0.24 0.28 0.32 0.33 0.30 0.33 0.37 0.35 0.31 0.29 0.30 0.27 0.22 0.25 0.26 0.25 0.24 0.22
0.98 0.74 0.61 0.50 0.47 0.70 1.15 1.25 1.16 1.21 1.14 1.03 0.79 0.56 0.52 0.52 0.39 0.28 0.24 0.20 0.16 0.13 0.13 0.14 0.12 0.14 0.18 0.19 0.21 0.27 0.28 0.24 0.24 0.26 0.19 0.16 0.18 0.17 0.16 0.17 0.20 0.22 0.23

GFSGL_prec_precacc_138.txt.gz
Total_Precipitation_Accumulation
0.57 0.50 0.62 0.33 0.16 0.17 0.23 0.36 0.53 0.64 0.76 0.84 1.31 0.55 0.66 0.57 0.38 0.43 0.37 0.26 0.23 0.15 0.07 0.08 0.07 0.04 0.00 0.02 0.11 0.10 0.12 0.12 0.07 0.07 0.13 0.13 0.07 0.03 0.05 0.04 0.02 0.06 0.22
1.25 1.42 0.94 0.94 0.77 0.46 0.32 0.31 0.43 0.55 0.59 0.70 0.66 0.81 0.89 0.61 0.71 0.58 0.56 0.53 0.50 0.31 0.23 0.22 0.16 0.05 0.15 0.09 0.16 0.15 0.08 0.07 0.09 0.13 0.09 0.03 0.03 0.09 0.13 0.15 0.05 0.09 0.17
1.89 1.87 1.51 1.11 1.01 0.96 0.77 0.80 0.52 0.43 0.53 0.47 0.67 0.97 0.89 0.78 0.85 0.99 1.08 0.88 0.65 0.53 0.39 0.30 0.27 0.25 0.30 0.27 0.30 0.30 0.12 0.17 0.34 0.26 0.13 0.09 0.19 0.35 0.57 0.39 0.18 0.25 0.32
2.42 2.27 1.64 1.22 0.93 0.85 0.74 0.75 0.59 0.54 0.56 0.36 0.43 0.58 0.56 0.55 0.59 0.83 1.13 1.39 0.93 0.69 0.92 0.79 0.69 0.74 0.70 0.53 0.42 0.56 0.48 0.48 0.53 0.39 0.33 0.20 0.17 0.32 0.56 0.21 0.24 0.43 0.47
1.84 2.08 2.34 2.29 1.50 1.31 1.10 1.19 0.95 0.67 0.59 0.51 0.52 0.58 0.74 0.81 0.81 0.84 0.77 0.86 0.86 0.92 0.97 1.08 1.17 1.25 1.07 0.83 0.72 0.67 0.59 0.55 0.36 0.33 0.38 0.29 0.26 0.28 0.26 0.12 0.12 0.21 0.34
2.20 1.83 1.79 2.26 2.10 1.64 1.42 1.17 1.01 0.88 0.82 0.78 0.70 0.73 0.90 0.81 0.76 0.59 0.40 0.50 0.81 0.84 0.75 0.79 0.87 0.83 0.71 0.63 0.46 0.27 0.41 0.66 0.70 0.59 0.47 0.37 0.46 0.45 0.29 0.20 0.16 0.29 0.39
2.97 2.20 1.56 1.59 1.22 1.05 1.02 1.19 1.13 1.13 1.11 1.07 1.07 1.13 0.93 0.64 0.64 0.65 0.60 0.32 0.50 0.72 0.88 0.99 0.89 0.67 0.95 0.66 0.84 0.70 0.45 0.50 0.42 0.52 0.38 0.34 0.35 0.40 0.21 0.18 0.23 0.32 0.41
2.73 2.55 1.75 1.51 1.51 1.33 1.04 0.92 0.92 0.96 1.08 1.20 0.95 0.80 0.91 0.98 1.24 0.91 0.79 0.39 0.30 0.55 0.73 0.71 0.71 0.89 0.89 0.57 0.53 0.36 0.37 0.40 0.49 0.31 0.18 0.29 0.21 0.22 0.21 0.19 0.19 0.15 0.18
2.07 3.03 2.62 1.30 1.09 1.19 1.19 1.27 1.26 1.10 1.05 1.12 1.19 1.07 0.87 0.78 0.99 0.81 0.70 0.57 0.51 0.63 0.74 0.45 0.41 0.32 0.57 0.56 0.20 0.08 0.13 0.18 0.41 0.45 0.29 0.24 0.20 0.15 0.14 0.06 0.09 0.17 0.29
2.37 1.93 2.80 2.89 1.86 1.42 1.73 1.91 1.88 1.96 1.56 1.12 0.95 0.75 0.62 0.48 0.65 0.65 0.61 0.57 0.52 0.53 0.42 0.28 0.53 0.28 0.43 0.33 0.14 0.11 0.25 0.36 0.37 0.34 0.32 0.21 0.15 0.17 0.21 0.16 0.34 0.38 0.28
2.27 2.45 2.03 2.11 2.54 2.36 2.50 2.51 2.38 2.25 2.04 1.67 1.45 1.19 1.01 0.76 0.68 0.61 0.46 0.33 0.34 0.61 0.47 0.28 0.18 0.28 0.26 0.34 0.36 0.25 0.27 0.20 0.21 0.12 0.09 0.10 0.18 0.23 0.23 0.22 0.52 0.56 0.36
3.46 3.02 3.39 2.87 2.49 2.52 2.50 2.94 3.03 2.49 2.16 1.84 1.81 1.63 1.42 1.21 1.14 0.89 0.75 0.45 0.49 0.64 0.48 0.39 0.36 0.38 0.42 0.50 0.37 0.26 0.17 0.13 0.11 0.13 0.13 0.11 0.15 0.18 0.15 0.18 0.29 0.35 0.35
1.74 2.50 3.78 4.52 3.25 2.24 2.02 1.80 1.77 1.87 1.44 1.40 1.56 1.62 1.70 1.53 1.37 1.09 0.92 0.87 0.72 0.82 0.59 0.49 0.40 0.24 0.17 0.16 0.13 0.12 0.16 0.20 0.26 0.27 0.25 0.15 0.13 0.19 0.20 0.17 0.25 0.32 0.31
1.69 1.67 1.97 2.52 2.23 1.87 1.36 1.25 1.16 1.44 1.58 1.60 1.81 2.08 2.03 1.88 1.63 1.35 1.15 0.93 0.82 0.55 0.37 0.32 0.25 0.21 0.21 0.17 0.16 0.16 0.20 0.27 0.31 0.26 0.22 0.19 0.19 0.20 0.16 0.16 0.22 0.31 0.34
0.66 0.70 0.77 0.96 1.23 1.28 1.33 1.22 1.27 1.43 1.61 1.88 1.96 1.64 1.43 1.20 1.08 1.24 1.30 1.30 1.25 1.36 1.49 0.99 0.78 0.72 0.59 0.39 0.26 0.24 0.21 0.18 0.21 0.22 0.31 0.43 0.40 0.32 0.26 0.22 0.25 0.33 0.39
0.43 0.37 0.47 0.58 0.73 0.84 0.87 0.98 1.30 1.46 1.38 1.18 1.33 1.13 1.05 1.15 1.61 1.79 2.05 2.08 1.94 1.57 1.20 0.73 0.54 0.41 0.36 0.36 0.32 0.28 0.25 0.27 0.27 0.42 0.61 0.60 0.55 0.46 0.41 0.38 0.33 0.32 0.31
0.21 0.21 0.43 0.44 0.44 0.70 0.94 0.85 0.80 1.05 1.01 0.94 1.03 0.95 0.90 0.77 0.81 0.88 1.27 1.41 1.17 1.21 0.51 0.37 0.32 0.36 0.47 0.58 0.57 0.58 0.52 0.61 0.84 0.86 0.89 0.97 1.02 0.93 0.87 0.76 0.71 0.71 0.69
0.87 1.04 0.97 0.73 0.71 0.59 0.84 0.97 0.77 0.70 0.65 0.64 0.79 0.74 0.67 0.83 0.78 1.02 1.52 1.54 0.98 0.68 0.47 0.45 0.44 0.47 0.50 0.56 0.60 0.61 0.59 0.70 1.02 1.32 1.32 1.28 1.41 1.34 1.23 1.05 1.02 1.05 1.10
1.65 1.10 1.01 1.32 1.48 1.33 1.27 1.19 0.98 0.79 0.71 0.71 0.68 0.79 0.81 0.82 0.87 0.98 1.20 0.82 0.76 0.82 0.72 0.83 0.82 0.73 0.72 0.71 0.88 1.17 1.43 1.31 1.43 1.48 1.45 1.55 1.51 1.52 1.36 1.21 1.41 1.83 2.29
1.55 1.90 1.47 1.94 3.28 3.57 3.28 2.63 2.24 2.01 1.63 1.48 1.33 1.47 1.45 1.45 1.40 1.53 1.84 1.90 1.86 1.49 1.35 1.45 1.49 1.34 1.41 1.39 1.42 1.48 1.51 1.62 1.72 1.85 2.01 2.77 3.56 4.13 4.19 3.80 3.53 3.57 3.47
1.01 1.16 1.15 1.17 1.31 1.46 2.16 2.64 2.57 2.40 2.24 2.37 2.37 2.35 2.48 2.57 2.45 2.70 2.96 3.12 2.91 2.93 2.83 2.83 3.15 3.12 2.94 2.85 2.72 2.64 2.70 2.89 3.27 3.56 3.71 3.50 3.28 2.86 2.39 2.23 2.09 2.12 2.02
0.84 0.84 0.82 0.92 0.84 0.84 0.72 0.89 1.41 1.34 1.09 1.06 1.18 1.34 1.46 1.17 1.22 1.32 1.54 1.69 1.80 1.79 1.84 1.80 1.62 1.66 1.80 1.85 1.89 1.87 1.83 1.82 1.84 1.80 1.72 1.74 1.76 1.61 1.45 1.53 1.57 1.51 1.41
0.46 0.70 0.72 0.73 0.67 0.80 0.80 0.82 0.76 0.86 1.18 1.15 0.87 0.73 0.71 0.55 0.56 0.58 0.54 0.59 0.69 0.73 0.73 0.75 0.71 0.75 0.77 0.84 0.79 0.77 0.71 0.73 0.91 1.03 1.08 1.19 1.31 1.22 1.12 1.23 1.40 1.32 1.11
0.46 0.49 0.61 0.65 0.73 0.62 0.53 0.50 0.57 0.61 0.53 0.51 0.48 0.49 0.46 0.40 0.41 0.44 0.41 0.45 0.44 0.43 0.47 0.51 0.53 0.50 0.48 0.47 0.46 0.46 0.35 0.32 0.37 0.42 0.44 0.49 0.63 0.85 0.78 0.67 0.55 0.49 0.39
0.48 0.48 0.51 0.54 0.69 0.80 0.87 0.63 0.52 0.53 0.49 0.38 0.35 0.35 0.30 0.23 0.21 0.24 0.23 0.21 0.18 0.22 0.25 0.26 0.24 0.24 0.28 0.32 0.33 0.30 0.33 0.37 0.35 0.31 0.29 0.30 0.27 0.22 0.25 0.26 0.25 0.24 0.22
0.98 0.74 0.61 0.50 0.47 0.70 1.15 1.25 1.16 1.21 1.14 1.03 0.79 0.56 0.52 0.52 0.39 0.28 0.24 0.20 0.16 0.13 0.13 0.14 0.12 0.14 0.18 0.19 0.21 0.27 0.28 0.24 0.24 0.26 0.19 0.16 0.18 0.17 0.16 0.17 0.20 0.22 0.23

GFSGL_prec_precacc_141.txt.gz
Total_Precipitation_Accumulation
0.57 0.50 0.62 0.33 0.16 0.17 0.23 0.36 0.53 0.64 0.76 0.84 1.31 0.55 0.66 0.57 0.40 0.44 0.37 0.28 0.25 0.17 0.08 0.09 0.08 0.05 0.01 0.03 0.14 0.15 0.24 0.27 0.10 0.07 0.13 0.13 0.09 0.08 0.05 0.04 0.02 0.06 0.22
1.26 1.42 0.94 0.94 0.77 0.46 0.32 0.31 0.43 0.55 0.59 0.70 0.67 0.82 0.89 0.62 0.76 0.61 0.58 0.53 0.50 0.32 0.26 0.24 0.21 0.14 0.20 0.14 0.23 0.28 0.15 0.19 0.12 0.13 0.13 0.06 0.05 0.09 0.13 0.15 0.05 0.09 0.17
1.89 1.87 1.51 1.11 1.01 0.96 0.77 0.80 0.52 0.43 0.53 0.47 0.67 0.97 0.90 0.81 0.90 1.03 1.12 0.92 0.67 0.58 0.43 0.36 0.35 0.37 0.38 0.40 0.40 0.37 0.17 0.19 0.35 0.26 0.14 0.09 0.19 0.35 0.57 0.39 0.18 0.25 0.32
2.42 2.27 1.64 1.22 0.93 0.85 0.74 0.75 0.59 0.54 0.56 0.36 0.44 0.59 0.58 0.61 0.64 0.88 1.17 1.44 0.99 0.72 0.99 0.93 0.91 0.90 0.77 0.63 0.53 0.65 0.52 0.49 0.53 0.40 0.33 0.20 0.17 0.32 0.56 0.21 0.24 0.43 0.47
1.84 2.08 2.34 2.29 1.50 1.31 1.10 1.19 0.95 0.67 0.59 0.51 0.55 0.61 0.78 0.86 0.87 0.89 0.84 0.94 0.96 0.99 1.06 1.29 1.30 1.38 1.17 0.89 0.77 0.69 0.60 0.56 0.37 0.34 0.38 0.29 0.26 0.29 0.27 0.13 0.12 0.21 0.34
2.20 1.83 1.79 2.26 2.10 1.64 1.42 1.17 1.01 0.88 0.82 0.78 0.70 0.74 0.97 0.86 0.84 0.63 0.46 0.57 0.88 0.92 0.89 0.93 0.92 0.88 0.75 0.65 0.46 0.27 0.41 0.66 0.70 0.59 0.49 0.39 0.48 0.47 0.29 0.20 0.16 0.29 0.42
2.98 2.20 1.56 1.60 1.23 1.05 1.02 1.19 1.13 1.13 1.11 1.07 1.07 1.13 0.94 0.69 0.67 0.71 0.67 0.40 0.60 0.80 0.95 1.02 0.90 0.68 0.96 0.66 0.84 0.70 0.45 0.50 0.42 0.52 0.38 0.35 0.35 0.40 0.21 0.18 0.23 0.32 0.41
2.73 2.55 1.75 1.52 1.52 1.33 1.05 0.93 0.92 0.96 1.08 1.20 0.95 0.81 0.94 1.02 1.25 0.97 0.91 0.47 0.35 0.58 0.75 0.72 0.71 0.89 0.89 0.57 0.54 0.36 0.37 0.40 0.49 0.31 0.18 0.29 0.21 0.22 0.21 0.19 0.19 0.15 0.19
2.07 3.03 2.62 1.31 1.09 1.20 1.20 1.30 1.27 1.12 1.05 1.12 1.20 1.08 0.88 0.78 1.00 0.88 0.80 0.63 0.58 0.68 0.77 0.48 0.43 0.34 0.58 0.57 0.21 0.08 0.13 0.18 0.42 0.47 0.35 0.32 0.29 0.20 0.17 0.09 0.11 0.18 0.30
2.37 1.93 2.80 2.89 1.87 1.43 1.74 1.92 1.89 1.99 1.58 1.14 0.99 0.79 0.63 0.49 0.66 0.69 0.68 0.65 0.61 0.58 0.44 0.29 0.56 0.30 0.44 0.34 0.14 0.11 0.25 0.36 0.37 0.34 0.34 0.25 0.18 0.18 0.23 0.16 0.34 0.38 0.28
2.27 2.45 2.03 2.11 2.54 2.36 2.51 2.52 2.39 2.28 2.08 1.70 1.50 1.26 1.07 0.81 0.73 0.68 0.54 0.42 0.39 0.63 0.49 0.30 0.18 0.28 0.26 0.34 0.36 0.25 0.28 0.21 0.22 0.13 0.09 0.11 0.18 0.23 0.24 0.23 0.52 0.56 0.36
3.46 3.02 3.39 2.87 2.49 2.53 2.52 2.96 3.19 2.59 2.24 1.91 1.87 1.70 1.47 1.26 1.20 0.95 0.81 0.50 0.52 0.65 0.50 0.39 0.37 0.39 0.42 0.51 0.37 0.26 0.17 0.13 0.11 0.13 0.13 0.11 0.16 0.18 0.15 0.18 0.29 0.35 0.35
1.74 2.50 3.78 4.55 3.29 2.29 2.04 1.83 1.84 2.10 1.67 1.61 1.73 1.78 1.83 1.62 1.44 1.17 0.98 0.91 0.76 0.84 0.61 0.51 0.42 0.25 0.17 0.16 0.13 0.12 0.16 0.20 0.26 0.27 0.25 0.15 0.13 0.19 0.20 0.17 0.25 0.32 0.31
1.69 1.67 1.97 2.53 2.31 2.03 1.56 1.34 1.24 1.54 1.76 1.86 2.13 2.35 2.28 2.15 1.87 1.53 1.31 1.08 0.97 0.68 0.43 0.34 0.25 0.21 0.21 0.17 0.16 0.16 0.20 0.27 0.31 0.26 0.22 0.19 0.19 0.20 0.16 0.16 0.22 0.31 0.34
0.66 0.70 0.77 0.97 1.28 1.51 1.73 1.55 1.50 1.66 1.90 2.22 2.36 2.16 2.08 1.75 1.65 1.72 1.71 1.74 1.66 1.66 1.57 0.99 0.78 0.72 0.59 0.39 0.26 0.24 0.21 0.18 0.21 0.22 0.31 0.43 0.40 0.32 0.26 0.22 0.25 0.33 0.39
0.43 0.38 0.47 0.60 0.78 0.98 1.25 1.55 1.97 2.14 1.98 1.92 2.29 2.03 1.82 1.72 2.00 1.96 2.14 2.14 1.98 1.59 1.20 0.73 0.54 0.41 0.36 0.36 0.32 0.28 0.25 0.27 0.27 0.42 0.61 0.60 0.55 0.46 0.41 0.38 0.33 0.32 0.31
0.21 0.26 0.47 0.46 0.50 0.83 1.18 1.17 1.19 1.46 1.36 1.27 1.29 1.18 1.09 0.85 0.84 0.90 1.28 1.42 1.18 1.21 0.51 0.37 0.32 0.36 0.47 0.58 0.57 0.58 0.52 0.61 0.84 0.86 0.89 0.97 1.02 0.93 0.87 0.76 0.71 0.71 0.69
0.90 1.12 1.15 0.82 0.76 0.64 0.92 1.08 0.96 0.91 0.85 0.79 0.91 0.83 0.75 0.90 0.81 1.02 1.52 1.54 0.98 0.68 0.47 0.45 0.44 0.47 0.50 0.56 0.60 0.61 0.59 0.70 1.02 1.32 1.32 1.28 1.41 1.34 1.23 1.05 1.02 1.05 1.10
1.69 1.10 1.03 1.34 1.50 1.35 1.28 1.19 0.98 0.81 0.85 0.78 0.69 0.80 0.83 0.83 0.87 0.98 1.20 0.82 0.76 0.82 0.72 0.83 0.82 0.73 0.72 0.71 0.88 1.17 1.43 1.31 1.43 1.48 1.45 1.55 1.51 1.52 1.36 1.21 1.41 1.83 2.29
1.55 1.90 1.47 1.94 3.28 3.57 3.28 2.63 2.24 2.01 1.63 1.48 1.33 1.47 1.45 1.45 1.40 1.53 1.84 1.90 1.86 1.49 1.35 1.45 1.49 1.34 1.41 1.39 1.42 1.48 1.51 1.62 1.72 1.85 2.01 2.77 3.56 4.13 4.19 3.80 3.53 3.57 3.47
1.01 1.16 1.15 1.17 1.31 1.46 2.16 2.64 2.57 2.40 2.24 2.37 2.37 2.35 2.48 2.57 2.45 2.70 2.96 3.12 2.91 2.93 2.83 2.83 3.15 3.12 2.94 2.85 2.72 2.64 2.70 2.89 3.27 3.56 3.71 3.50 3.28 2.86 2.39 2.23 2.09 2.12 2.02
0.84 0.84 0.82 0.92 0.84 0.84 0.72 0.89 1.41 1.34 1.09 1.06 1.18 1.34 1.46 1.17 1.22 1.32 1.54 1.69 1.80 1.79 1.84 1.80 1.62 1.66 1.80 1.85 1.89 1.87 1.83 1.82 1.84 1.80 1.72 1.74 1.76 1.61 1.45 1.53 1.57 1.51 1.41
0.46 0.70 0.72 0.73 0.67 0.80 0.80 0.82 0.76 0.86 1.18 1.15 0.87 0.73 0.71 0.55 0.56 0.58 0.54 0.59 0.69 0.73 0.73 0.75 0.71 0.75 0.77 0.84 0.79 0.77 0.71 0.73 0.91 1.03 1.08 1.19 1.31 1.22 1.12 1.23 1.40 1.32 1.11
0.46 0.49 0.61 0.65 0.73 0.62 0.53 0.50 0.57 0.61 0.53 0.51 0.48 0.49 0.46 0.40 0.41 0.44 0.41 0.45 0.44 0.43 0.47 0.51 0.53 0.50 0.48 0.47 0.46 0.46 0.35 0.32 0.37 0.42 0.44 0.49 0.63 0.85 0.78 0.67 0.55 0.49 0.39
0.48 0.48 0.51 0.54 0.69 0.80 0.87 0.63 0.52 0.53 0.49 0.38 0.35 0.35 0.30 0.23 0.21 0.24 0.23 0.21 0.18 0.22 0.25 0.26 0.24 0.24 0.28 0.32 0.33 0.30 0.33 0.37 0.35 0.31 0.29 0.30 0.27 0.22 0.25 0.26 0.25 0.24 0.22
0.98 0.74 0.61 0.50 0.47 0.70 1.15 1.25 1.16 1.21 1.14 1.03 0.79 0.56 0.52 0.52 0.39 0.28 0.24 0.20 0.16 0.13 0.13 0.14 0.12 0.14 0.18 0.19 0.21 0.27 0.28 0.24 0.24 0.26 0.19 0.16 0.18 0.17 0.16 0.17 0.20 0.22 0.23

GFSGL_prec_precacc_144.txt.gz
Total_Precipitation_Accumulation
0.57 0.50 0.62 0.33 0.16 0.17 0.23 0.36 0.53 0.64 0.76 0.84 1.32 0.61 0.69 0.60 0.45 0.50 0.40 0.30 0.28 0.19 0.10 0.10 0.10 0.09 0.01 0.03 0.14 0.18 0.33 0.42 0.14 0.07 0.14 0.14 0.13 0.22 0.09 0.04 0.02 0.06 0.22
1.26 1.42 0.94 0.94 0.77 0.46 0.32 0.31 0.43 0.55 0.59 0.70 0.68 0.87 0.93 0.63 0.86 0.66 0.60 0.55 0.55 0.37 0.32 0.31 0.25 0.21 0.22 0.18 0.26 0.34 0.22 0.29 0.14 0.15 0.16 0.12 0.12 0.15 0.15 0.15 0.05 0.09 0.17
1.89 1.87 1.51 1.11 1.01 0.96 0.77 0.80 0.52 0.43 0.53 0.47 0.67 0.98 0.94 0.86 0.99 1.05 1.17 0.95 0.70 0.61 0.47 0.43 0.43 0.41 0.44 0.51 0.47 0.44 0.25 0.26 0.44 0.31 0.15 0.10 0.21 0.37 0.59 0.41 0.21 0.27 0.33
2.42 2.27 1.64 1.22 0.93 0.85 0.74 0.75 0.59 0.54 0.56 0.36 0.44 0.59 0.58 0.62 0.66 0.90 1.20 1.48 1.02 0.75 1.09 0.99 0.95 0.92 0.86 0.77 0.61 0.72 0.59 0.55 0.57 0.42 0.35 0.22 0.21 0.35 0.60 0.25 0.29 0.48 0.51
1.84 2.08 2.34 2.29 1.50 1.31 1.10 1.19 0.95 0.67 0.60 0.51 0.56 0.61 0.78 0.86 0.87 0.89 0.86 0.97 1.02 1.02 1.09 1.41 1.36 1.49 1.29 0.97 0.82 0.76 0.65 0.59 0.38 0.36 0.40 0.31 0.31 0.35 0.33 0.17 0.17 0.27 0.38
2.20 1.83 1.79 2.26 2.11 1.64 1.42 1.17 1.01 0.88 0.83 0.79 0.71 0.75 0.97 0.86 0.84 0.63 0.48 0.60 0.94 0.98 0.94 1.03 0.96 0.89 0.75 0.65 0.46 0.27 0.42 0.66 0.70 0.60 0.53 0.45 0.54 0.51 0.31 0.21 0.17 0.31 0.52
2.98 2.21 1.56 1.60 1.23 1.05 1.02 1.20 1.14 1.14 1.11 1.08 1.07 1.14 0.95 0.69 0.67 0.71 0.67 0.44 0.64 0.88 1.01 1.09 0.92 0.68 0.96 0.67 0.84 0.70 0.45 0.50 0.42 0.52 0.39 0.38 0.37 0.40 0.21 0.18 0.23 0.32 0.41
2.73 2.55 1.75 1.52 1.52 1.34 1.06 0.94 0.94 0.97 1.09 1.22 0.96 0.81 0.94 1.02 1.26 0.97 0.91 0.54 0.39 0.63 0.79 0.76 0.74 0.90 0.89 0.58 0.55 0.37 0.37 0.40 0.49 0.31 0.18 0.29 0.21 0.22 0.21 0.19 0.19 0.16 0.19
2.07 3.03 2.62 1.31 1.09 1.20 1.20 1.30 1.29 1.14 1.07 1.14 1.21 1.09 0.89 0.81 1.03 0.92 0.82 0.67 0.62 0.70 0.78 0.51 0.47 0.36 0.59 0.58 0.23 0.11 0.13 0.18 0.42 0.47 0.35 0.32 0.29 0.20 0.17 0.09 0.11 0.18 0.30
2.37 1.93 2.80 2.89 1.87 1.43 1.74 1.92 1.90 2.01 1.62 1.17 1.04 0.84 0.69 0.56 0.72 0.75 0.71 0.67 0.62 0.59 0.45 0.31 0.57 0.31 0.45 0.34 0.15 0.11 0.25 0.36 0.37 0.34 0.35 0.25 0.18 0.19 0.23 0.16 0.34 0.38 0.28
2.27 2.45 2.04 2.11 2.55 2.36 2.51 2.53 2.40 2.30 2.13 1.76 1.54 1.29 1.14 0.87 0.79 0.75 0.58 0.45 0.41 0.67 0.51 0.32 0.19 0.28 0.26 0.34 0.36 0.25 0.28 0.21 0.22 0.13 0.10 0.12 0.18 0.23 0.24 0.23 0.52 0.56 0.36
3.46 3.02 3.39 2.87 2.49 2.53 2.52 2.97 3.21 2.62 2.27 1.93 1.88 1.71 1.49 1.29 1.25 1.02 0.87 0.57 0.59 0.72 0.54 0.41 0.37 0.39 0.43 0.51 0.37 0.26 0.17 0.13 0.11 0.13 0.13 0.11 0.16 0.18 0.15 0.18 0.29 0.35 0.35
1.74 2.50 3.78 4.55 3.30 2.30 2.06 1.86 1.87 2.13 1.69 1.65 1.79 1.81 1.85 1.64 1.50 1.27 1.08 1.00 0.85 0.89 0.64 0.54 0.42 0.25 0.17 0.16 0.13 0.12 0.16 0.20 0.26 0.27 0.25 0.15 0.13 0.19 0.20 0.17 0.25 0.32 0.31
1.69 1.67 1.97 2.54 2.32 2.03 1.58 1.42 1.32 1.58 1.79 1.88 2.20 2.54 2.54 2.39 2.05 1.71 1.51 1.29 1.14 0.81 0.50 0.36 0.25 0.21 0.21 0.17 0.16 0.16 0.20 0.27 0.31 0.26 0.22 0.19 0.19 0.20 0.16 0.16 0.22 0.31 0.34
0.66 0.70 0.77 0.97 1.29 1.51 1.75 1.66 1.67 1.79 2.08 2.46 2.63 2.44 2.38 2.19 2.23 2.35 2.17 2.05 1.95 2.04 1.85 1.13 0.81 0.73 0.59 0.39 0.26 0.24 0.21 0.18 0.21 0.22 0.31 0.43 0.40 0.32 0.26 0.22 0.25 0.33 0.39
0.43 0.38 0.47 0.61 0.79 0.98 1.27 1.64 2.13 2.37 2.21 2.21 2.81 2.70 2.50 2.50 2.95 2.98 3.12 2.80 2.40 1.88 1.37 0.78 0.56 0.42 0.36 0.36 0.32 0.28 0.25 0.27 0.27 0.42 0.61 0.60 0.55 0.46 0.41 0.38 0.33 0.32 0.31
0.22 0.28 0.50 0.50 0.52 0.85 1.18 1.19 1.31 1.74 1.75 1.66 1.51 1.37 1.39 1.17 1.10 1.23 1.60 1.68 1.30 1.28 0.57 0.40 0.32 0.36 0.47 0.58 0.57 0.58 0.52 0.61 0.84 0.86 0.89 0.97 1.02 0.93 0.87 0.76 0.71 0.71 0.69
0.90 1.15 1.21 0.88 0.80 0.65 0.93 1.10 1.04 1.08 1.04 0.98 1.18 1.14 0.97 1.05 0.94 1.10 1.57 1.57 1.01 0.70 0.48 0.45 0.44 0.47 0.50 0.56 0.60 0.61 0.59 0.70 1.02 1.32 1.32 1.28 1.41 1.34 1.23 1.05 1.02 1.05 1.10
1.70 1.11 1.05 1.37 1.52 1.37 1.31 1.21 1.02 0.89 0.95 0.89 0.87 1.00 0.95 0.87 0.90 1.02 1.22 0.82 0.76 0.82 0.72 0.83 0.82 0.73 0.72 0.71 0.88 1.17 1.43 1.31 1.43 1.48 1.45 1.55 1.51 1.52 1.36 1.21 1.41 1.83 2.29
1.55 1.90 1.47 1.94 3.28 3.57 3.29 2.64 2.25 2.01 1.65 1.49 1.35 1.48 1.46 1.45 1.40 1.53 1.84 1.90 1.86 1.49 1.35 1.45 1.49 1.34 1.41 1.39 1.42 1.48 1.51 1.62 1.72 1.85 2.01 2.77 3.56 4.13 4.19 3.80 3.53 3.57 3.47
1.01 1.16 1.15 1.17 1.31 1.46 2.16 2.64 2.57 2.40 2.24 2.37 2.37 2.35 2.48 2.57 2.45 2.70 2.96 3.12 2.91 2.93 2.83 2.83 3.15 3.12 2.94 2.85 2.72 2.64 2.70 2.89 3.27 3.56 3.71 3.50 3.28 2.86 2.39 2.23 2.09 2.12 2.02
0.84 0.84 0.82 0.92 0.84 0.84 0.72 0.89 1.41 1.34 1.09 1.06 1.18 1.34 1.46 1.17 1.22 1.32 1.54 1.69 1.80 1.79 1.84 1.80 1.62 1.66 1.80 1.85 1.89 1.87 1.83 1.82 1.84 1.80 1.72 1.74 1.76 1.61 1.45 1.53 1.57 1.51 1.41
0.46 0.70 0.72 0.73 0.67 0.80 0.80 0.82 0.76 0.86 1.18 1.15 0.87 0.73 0.71 0.55 0.56 0.58 0.54 0.59 0.69 0.73 0.73 0.75 0.71 0.75 0.77 0.84 0.79 0.77 0.71 0.73 0.91 1.03 1.08 1.19 1.31 1.22 1.12 1.23 1.40 1.32 1.11
0.46 0.49 0.61 0.65 0.73 0.62 0.53 0.50 0.57 0.61 0.53 0.51 0.48 0.49 0.46 0.40 0.41 0.44 0.41 0.45 0.44 0.43 0.47 0.51 0.53 0.50 0.48 0.47 0.46 0.46 0.35 0.32 0.37 0.42 0.44 0.49 0.63 0.85 0.78 0.67 0.55 0.49 0.39
0.48 0.48 0.51 0.54 0.69 0.80 0.87 0.63 0.52 0.53 0.49 0.38 0.35 0.35 0.30 0.23 0.21 0.24 0.23 0.21 0.18 0.22 0.25 0.26 0.24 0.24 0.28 0.32 0.33 0.30 0.33 0.37 0.35 0.31 0.29 0.30 0.27 0.22 0.25 0.26 0.25 0.24 0.22
0.98 0.74 0.61 0.50 0.47 0.70 1.15 1.25 1.16 1.21 1.14 1.03 0.79 0.56 0.52 0.52 0.39 0.28 0.24 0.20 0.16 0.13 0.13 0.14 0.12 0.14 0.18 0.19 0.21 0.27 0.28 0.24 0.24 0.26 0.19 0.16 0.18 0.17 0.16 0.17 0.20 0.22 0.23

GFSGL_prec_precacc_147.txt.gz
Total_Precipitation_Accumulation
0.57 0.50 0.62 0.33 0.16 0.17 0.23 0.36 0.53 0.64 0.76 0.85 1.33 0.62 0.69 0.60 0.47 0.54 0.42 0.30 0.33 0.22 0.11 0.11 0.11 0.10 0.02 0.03 0.14 0.18 0.34 0.52 0.23 0.08 0.14 0.14 0.14 0.24 0.09 0.04 0.02 0.08 0.23
1.26 1.42 0.94 0.94 0.77 0.46 0.32 0.31 0.44 0.56 0.59 0.70 0.70 0.91 0.94 0.63 0.86 0.69 0.61 0.55 0.56 0.39 0.35 0.39 0.30 0.27 0.27 0.24 0.30 0.37 0.28 0.43 0.33 0.27 0.20 0.13 0.16 0.19 0.22 0.18 0.05 0.10 0.21
1.89 1.88 1.51 1.11 1.01 0.96 0.77 0.80 0.53 0.48 0.56 0.47 0.67 1.01 0.97 0.87 1.01 1.07 1.18 0.95 0.70 0.61 0.47 0.50 0.49 0.45 0.55 0.60 0.58 0.60 0.40 0.42 0.64 0.40 0.18 0.11 0.22 0.40 0.65 0.44 0.28 0.39 0.40
2.42 2.27 1.64 1.22 0.93 0.85 0.74 0.75 0.60 0.63 0.63 0.40 0.45 0.59 0.59 0.62 0.67 0.90 1.21 1.51 1.03 0.75 1.11 1.04 1.00 0.96 0.96 0.88 0.75 0.81 0.64 0.70 0.72 0.48 0.35 0.23 0.22 0.40 0.66 0.32 0.39 0.69 0.64
1.84 2.08 2.34 2.32 1.50 1.31 1.13 1.23 0.99 0.73 0.64 0.56 0.61 0.63 0.79 0.86 0.87 0.90 0.86 0.99 1.04 1.03 1.12 1.49 1.43 1.57 1.44 1.07 0.95 0.82 0.74 0.68 0.43 0.40 0.43 0.34 0.35 0.41 0.38 0.23 0.23 0.38 0.48
2.20 1.83 1.79 2.32 2.15 1.66 1.48 1.20 1.05 0.92 0.86 0.82 0.73 0.77 0.98 0.86 0.84 0.63 0.48 0.60 0.95 1.01 0.98 1.11 1.03 0.94 0.76 0.65 0.46 0.28 0.43 0.67 0.71 0.63 0.58 0.49 0.60 0.57 0.34 0.22 0.19 0.38 0.62
2.98 2.21 1.57 1.63 1.29 1.18 1.14 1.30 1.21 1.19 1.16 1.12 1.10 1.17 0.96 0.69 0.67 0.71 0.67 0.44 0.64 0.89 1.05 1.16 1.00 0.75 1.02 0.68 0.84 0.70 0.45 0.50 0.42 0.52 0.41 0.42 0.40 0.41 0.21 0.18 0.23 0.32 0.42
2.73 2.55 1.75 1.52 1.52 1.35 1.09 0.98 0.98 1.06 1.17 1.29 1.02 0.86 0.98 1.03 1.26 0.98 0.91 0.54 0.40 0.66 0.84 0.83 0.83 0.95 0.93 0.65 0.57 0.38 0.37 0.40 0.49 0.31 0.18 0.29 0.21 0.22 0.21 0.19 0.19 0.16 0.19
2.07 3.03 2.62 1.31 1.09 1.20 1.20 1.30 1.29 1.18 1.13 1.22 1.32 1.21 0.97 0.84 1.04 0.93 0.85 0.67 0.63 0.74 0.82 0.54 0.50 0.36 0.61 0.62 0.29 0.16 0.13 0.18 0.42 0.47 0.35 0.32 0.29 0.20 0.17 0.09 0.11 0.18 0.30
2.37 1.93 2.80 2.89 1.87 1.43 1.74 1.92 1.90 2.01 1.63 1.20 1.08 0.91 0.76 0.63 0.82 0.87 0.81 0.69 0.66 0.62 0.47 0.32 0.60 0.32 0.46 0.35 0.18 0.16 0.26 0.36 0.37 0.34 0.35 0.25 0.18 0.19 0.23 0.16 0.34 0.38 0.28
2.27 2.45 2.04 2.11 2.55 2.37 2.51 2.53 2.41 2.30 2.13 1.78 1.57 1.34 1.21 0.95 0.90 0.91 0.78 0.55 0.47 0.68 0.52 0.33 0.21 0.29 0.27 0.35 0.37 0.27 0.28 0.21 0.22 0.13 0.10 0.12 0.18 0.23 0.24 0.23 0.52 0.56 0.36
3.46 3.02 3.39 2.87 2.50 2.53 2.52 2.97 3.21 2.63 2.29 1.96 1.91 1.74 1.54 1.36 1.33 1.12 1.00 0.72 0.72 0.77 0.58 0.42 0.39 0.40 0.43 0.51 0.38 0.26 0.17 0.13 0.11 0.13 0.13 0.11 0.16 0.18 0.15 0.18 0.29 0.35 0.35
1.74 2.50 3.78 4.55 3.30 2.30 2.06 1.86 1.87 2.15 1.72 1.66 1.80 1.81 1.86 1.66 1.55 1.33 1.16 1.08 0.96 0.98 0.70 0.57 0.45 0.27 0.18 0.16 0.13 0.12 0.16 0.20 0.26 0.27 0.25 0.15 0.13 0.19 0.20 0.17 0.25 0.32 0.31
1.70 1.67 1.97 2.54 2.32 2.03 1.58 1.43 1.34 1.63 1.84 1.88 2.21 2.55 2.55 2.45 2.13 1.78 1.61 1.39 1.24 0.93 0.60 0.47 0.32 0.24 0.22 0.18 0.17 0.16 0.20 0.27 0.31 0.26 0.22 0.19 0.19 0.20 0.16 0.16 0.22 0.31 0.34
0.67 0.70 0.77 0.97 1.29 1.51 1.76 1.70 1.72 1.88 2.19 2.54 2.70 2.48 2.40 2.23 2.39 2.72 2.62 2.45 2.33 2.41 2.15 1.39 1.04 0.88 0.70 0.47 0.31 0.25 0.21 0.18 0.21 0.22 0.31 0.43 0.40 0.32 0.26 0.22 0.25 0.33 0.39
0.43 0.39 0.47 0.61 0.79 0.99 1.28 1.67 2.25 2.50 2.32 2.26 2.87 2.80 2.71 2.69 3.17 3.22 3.59 3.75 3.46 2.80 1.90 1.18 0.84 0.59 0.51 0.49 0.41 0.33 0.26 0.27 0.27 0.42 0.61 0.60 0.55 0.46 0.41 0.38 0.33 0.32 0.31
0.22 0.29 0.52 0.55 0.54 0.87 1.19 1.19 1.34 1.84 1.83 1.72 1.59 1.45 1.48 1.35 1.30 1.47 1.99 2.16 1.99 1.91 1.07 0.70 0.50 0.48 0.56 0.64 0.60 0.59 0.52 0.61 0.84 0.86 0.89 0.97 1.02 0.93 0.87 0.76 0.71 0.71 0.69
0.90 1.15 1.25 0.93 0.82 0.67 0.93 1.10 1.04 1.09 1.06 1.03 1.23 1.19 1.02 1.12 1.04 1.24 1.77 1.85 1.33 0.99 0.75 0.65 0.54 0.50 0.51 0.56 0.60 0.61 0.59 0.70 1.02 1.32 1.32 1.28 1.41 1.34 1.23 1.05 1.02 1.05 1.10
1.71 1.12 1.06 1.38 1.53 1.47 1.36 1.21 1.02 0.89 0.95 0.91 0.89 1.04 1.03 0.94 0.96 1.09 1.35 1.00 0.93 0.96 0.81 0.88 0.82 0.73 0.72 0.71 0.88 1.17 1.43 1.31 1.43 1.48 1.45 1.55 1.51 1.52 1.36 1.21 1.41 1.83 2.29
1.56 1.90 1.47 1.94 3.29 3.58 3.30 2.64 2.26 2.02 1.65 1.50 1.36 1.48 1.46 1.46 1.41 1.54 1.85 1.90 1.87 1.50 1.36 1.45 1.49 1.34 1.41 1.39 1.42 1.48 1.51 1.62 1.72 1.85 2.01 2.77 3.56 4.13 4.19 3.80 3.53 3.57 3.47
1.01 1.16 1.15 1.17 1.31 1.46 2.16 2.64 2.57 2.40 2.24 2.37 2.37 2.35 2.48 2.57 2.45 2.70 2.96 3.12 2.91 2.93 2.83 2.83 3.15 3.12 2.94 2.85 2.72 2.64 2.70 2.89 3.27 3.56 3.71 3.50 3.28 2.86 2.39 2.23 2.09 2.12 2.02
0.84 0.84 0.82 0.92 0.84 0.84 0.72 0.89 1.41 1.34 1.09 1.06 1.18 1.34 1.46 1.17 1.22 1.32 1.54 1.69 1.80 1.79 1.84 1.80 1.62 1.66 1.80 1.85 1.89 1.87 1.83 1.82 1.84 1.80 1.72 1.74 1.76 1.61 1.45 1.53 1.57 1.51 1.41
0.46 0.70 0.72 0.73 0.67 0.80 0.80 0.82 0.76 0.86 1.18 1.15 0.87 0.73 0.71 0.55 0.56 0.58 0.54 0.59 0.69 0.73 0.73 0.75 0.71 0.75 0.77 0.84 0.79 0.77 0.71 0.73 0.91 1.03 1.08 1.19 1.31 1.22 1.12 1.23 1.40 1.32 1.11
0.46 0.49 0.61 0.65 0.73 0.62 0.53 0.50 0.57 0.61 0.53 0.51 0.48 0.49 0.46 0.40 0.41 0.44 0.41 0.45 0.44 0.43 0.47 0.51 0.53 0.50 0.48 0.47 0.46 0.46 0.35 0.32 0.37 0.42 0.44 0.49 0.63 0.85 0.78 0.67 0.55 0.49 0.39
0.48 0.48 0.51 0.54 0.69 0.80 0.87 0.63 0.52 0.53 0.49 0.38 0.35 0.35 0.30 0.23 0.21 0.24 0.23 0.21 0.18 0.22 0.25 0.26 0.24 0.24 0.28 0.32 0.33 0.30 0.33 0.37 0.35 0.31 0.29 0.30 0.27 0.22 0.25 0.26 0.25 0.24 0.22
0.98 0.74 0.61 0.50 0.47 0.70 1.15 1.25 1.16 1.21 1.14 1.03 0.79 0.56 0.52 0.52 0.39 0.28 0.24 0.20 0.16 0.13 0.13 0.14 0.12 0.14 0.18 0.19 0.21 0.27 0.28 0.24 0.24 0.26 0.19 0.16 0.18 0.17 0.16 0.17 0.20 0.22 0.23